<?xml version="1.0" encoding="UTF-8" standalone="no" ?>
<gpx xmlns="http://www.topografix.com/GPX/1/1" xmlns:xsi="http://www.w3.org/2001/XMLSchema-instance" xsi:schemaLocation="http://www.topografix.com/GPX/1/1 http://www.topografix.com/GPX/1/1/gpx.xsd" version="1.1" creator="VisuGPX - https://www.visugpx.com">
  <metadata>
    <name>Gr La Seine impressionniste - étape 1/2 Rueil - Conflans Ste Honorine</name>
    <desc><![CDATA[Une première étape doublée par rapport au programme conseillé qui s'arrête à Sartrouville.

Quelques passages vraiment peu intéressants notamment vers Sartrouville]]></desc>
  </metadata>
  <trk>
    <name><![CDATA[SityTrail - rando chatou]]></name>
    <trkseg>
      <trkpt lat="48.88763" lon="2.1726">
        <ele>32</ele>
        <time>2023-10-26T06:42:09.719+00:00</time>
      </trkpt>
      <trkpt lat="48.88763" lon="2.1726">
        <ele>32</ele>
        <time>2023-10-26T06:42:09.719+00:00</time>
      </trkpt>
      <trkpt lat="48.8876" lon="2.17257">
        <ele>32</ele>
        <time>2023-10-26T06:42:11.020+00:00</time>
      </trkpt>
      <trkpt lat="48.88755" lon="2.17255">
        <ele>32</ele>
        <time>2023-10-26T06:42:15.463+00:00</time>
      </trkpt>
      <trkpt lat="48.88748" lon="2.17249">
        <ele>32</ele>
        <time>2023-10-26T06:42:19.605+00:00</time>
      </trkpt>
      <trkpt lat="48.88745" lon="2.17244">
        <ele>32</ele>
        <time>2023-10-26T06:42:23.778+00:00</time>
      </trkpt>
      <trkpt lat="48.88746" lon="2.17238">
        <ele>32</ele>
        <time>2023-10-26T06:42:28.423+00:00</time>
      </trkpt>
      <trkpt lat="48.88744" lon="2.1723">
        <ele>31</ele>
        <time>2023-10-26T06:42:32.363+00:00</time>
      </trkpt>
      <trkpt lat="48.88743" lon="2.17221">
        <ele>31</ele>
        <time>2023-10-26T06:42:37.012+00:00</time>
      </trkpt>
      <trkpt lat="48.8874" lon="2.17216">
        <ele>31</ele>
        <time>2023-10-26T06:42:41.662+00:00</time>
      </trkpt>
      <trkpt lat="48.88736" lon="2.1721">
        <ele>31</ele>
        <time>2023-10-26T06:42:46.192+00:00</time>
      </trkpt>
      <trkpt lat="48.88734" lon="2.17205">
        <ele>30</ele>
        <time>2023-10-26T06:42:50.364+00:00</time>
      </trkpt>
      <trkpt lat="48.88731" lon="2.17198">
        <ele>30</ele>
        <time>2023-10-26T06:42:55.013+00:00</time>
      </trkpt>
      <trkpt lat="48.88727" lon="2.17192">
        <ele>30</ele>
        <time>2023-10-26T06:42:59.186+00:00</time>
      </trkpt>
      <trkpt lat="48.88723" lon="2.17188">
        <ele>30</ele>
        <time>2023-10-26T06:43:04.431+00:00</time>
      </trkpt>
      <trkpt lat="48.88719" lon="2.1718">
        <ele>30</ele>
        <time>2023-10-26T06:43:08.946+00:00</time>
      </trkpt>
      <trkpt lat="48.88717" lon="2.17175">
        <ele>30</ele>
        <time>2023-10-26T06:43:13.014+00:00</time>
      </trkpt>
      <trkpt lat="48.88717" lon="2.17169">
        <ele>30</ele>
        <time>2023-10-26T06:43:17.782+00:00</time>
      </trkpt>
      <trkpt lat="48.88714" lon="2.17164">
        <ele>30</ele>
        <time>2023-10-26T06:43:22.431+00:00</time>
      </trkpt>
      <trkpt lat="48.88711" lon="2.17158">
        <ele>30</ele>
        <time>2023-10-26T06:43:26.869+00:00</time>
      </trkpt>
      <trkpt lat="48.88706" lon="2.1715">
        <ele>27</ele>
        <time>2023-10-26T06:43:31.014+00:00</time>
      </trkpt>
      <trkpt lat="48.88704" lon="2.17143">
        <ele>27</ele>
        <time>2023-10-26T06:43:35.187+00:00</time>
      </trkpt>
      <trkpt lat="48.88699" lon="2.17131">
        <ele>27</ele>
        <time>2023-10-26T06:43:39.836+00:00</time>
      </trkpt>
      <trkpt lat="48.88696" lon="2.17123">
        <ele>29</ele>
        <time>2023-10-26T06:43:44.469+00:00</time>
      </trkpt>
      <trkpt lat="48.88694" lon="2.17118">
        <ele>29</ele>
        <time>2023-10-26T06:43:48.492+00:00</time>
      </trkpt>
      <trkpt lat="48.88692" lon="2.17113">
        <ele>29</ele>
        <time>2023-10-26T06:43:52.592+00:00</time>
      </trkpt>
      <trkpt lat="48.88682" lon="2.17095">
        <ele>29</ele>
        <time>2023-10-26T06:45:07.577+00:00</time>
      </trkpt>
      <trkpt lat="48.88682" lon="2.17093">
        <ele>29</ele>
        <time>2023-10-26T06:45:12.273+00:00</time>
      </trkpt>
      <trkpt lat="48.88681" lon="2.17089">
        <ele>29</ele>
        <time>2023-10-26T06:45:16.756+00:00</time>
      </trkpt>
      <trkpt lat="48.8868" lon="2.17076">
        <ele>28</ele>
        <time>2023-10-26T06:45:21.225+00:00</time>
      </trkpt>
      <trkpt lat="48.8868" lon="2.17065">
        <ele>27</ele>
        <time>2023-10-26T06:45:25.698+00:00</time>
      </trkpt>
      <trkpt lat="48.88684" lon="2.17054">
        <ele>29</ele>
        <time>2023-10-26T06:45:30.205+00:00</time>
      </trkpt>
      <trkpt lat="48.887" lon="2.17051">
        <ele>29</ele>
        <time>2023-10-26T06:45:34.724+00:00</time>
      </trkpt>
      <trkpt lat="48.88713" lon="2.17043">
        <ele>29</ele>
        <time>2023-10-26T06:45:39.165+00:00</time>
      </trkpt>
      <trkpt lat="48.88721" lon="2.17031">
        <ele>28</ele>
        <time>2023-10-26T06:45:43.580+00:00</time>
      </trkpt>
      <trkpt lat="48.88725" lon="2.17027">
        <ele>28</ele>
        <time>2023-10-26T06:45:47.633+00:00</time>
      </trkpt>
      <trkpt lat="48.88731" lon="2.17027">
        <ele>28</ele>
        <time>2023-10-26T06:45:52.285+00:00</time>
      </trkpt>
      <trkpt lat="48.88736" lon="2.17035">
        <ele>28</ele>
        <time>2023-10-26T06:45:56.217+00:00</time>
      </trkpt>
      <trkpt lat="48.88739" lon="2.17041">
        <ele>29</ele>
        <time>2023-10-26T06:46:00.747+00:00</time>
      </trkpt>
      <trkpt lat="48.88743" lon="2.17043">
        <ele>28</ele>
        <time>2023-10-26T06:46:05.397+00:00</time>
      </trkpt>
      <trkpt lat="48.88746" lon="2.17038">
        <ele>29</ele>
        <time>2023-10-26T06:46:09.444+00:00</time>
      </trkpt>
      <trkpt lat="48.88742" lon="2.17024">
        <ele>29</ele>
        <time>2023-10-26T06:46:13.384+00:00</time>
      </trkpt>
      <trkpt lat="48.88738" lon="2.17014">
        <ele>29</ele>
        <time>2023-10-26T06:46:17.795+00:00</time>
      </trkpt>
      <trkpt lat="48.88736" lon="2.17002">
        <ele>30</ele>
        <time>2023-10-26T06:46:22.445+00:00</time>
      </trkpt>
      <trkpt lat="48.88735" lon="2.16994">
        <ele>30</ele>
        <time>2023-10-26T06:46:26.467+00:00</time>
      </trkpt>
      <trkpt lat="48.88735" lon="2.16987">
        <ele>30</ele>
        <time>2023-10-26T06:46:30.909+00:00</time>
      </trkpt>
      <trkpt lat="48.88737" lon="2.16979">
        <ele>32</ele>
        <time>2023-10-26T06:46:34.963+00:00</time>
      </trkpt>
      <trkpt lat="48.88741" lon="2.16972">
        <ele>32</ele>
        <time>2023-10-26T06:46:39.607+00:00</time>
      </trkpt>
      <trkpt lat="48.88746" lon="2.16968">
        <ele>32</ele>
        <time>2023-10-26T06:46:43.547+00:00</time>
      </trkpt>
      <trkpt lat="48.88751" lon="2.16966">
        <ele>32</ele>
        <time>2023-10-26T06:46:48.196+00:00</time>
      </trkpt>
      <trkpt lat="48.88753" lon="2.16963">
        <ele>32</ele>
        <time>2023-10-26T06:46:52.369+00:00</time>
      </trkpt>
      <trkpt lat="48.88757" lon="2.16959">
        <ele>32</ele>
        <time>2023-10-26T06:46:56.542+00:00</time>
      </trkpt>
      <trkpt lat="48.88759" lon="2.16954">
        <ele>33</ele>
        <time>2023-10-26T06:47:00.714+00:00</time>
      </trkpt>
      <trkpt lat="48.88762" lon="2.1695">
        <ele>33</ele>
        <time>2023-10-26T06:47:05.225+00:00</time>
      </trkpt>
      <trkpt lat="48.88766" lon="2.16946">
        <ele>35</ele>
        <time>2023-10-26T06:47:09.417+00:00</time>
      </trkpt>
      <trkpt lat="48.8877" lon="2.16941">
        <ele>35</ele>
        <time>2023-10-26T06:47:13.590+00:00</time>
      </trkpt>
      <trkpt lat="48.88776" lon="2.16933">
        <ele>35</ele>
        <time>2023-10-26T06:47:17.763+00:00</time>
      </trkpt>
      <trkpt lat="48.88779" lon="2.1693">
        <ele>35</ele>
        <time>2023-10-26T06:47:21.936+00:00</time>
      </trkpt>
      <trkpt lat="48.8878" lon="2.1693">
        <ele>35</ele>
        <time>2023-10-26T06:47:27.182+00:00</time>
      </trkpt>
      <trkpt lat="48.88774" lon="2.16937">
        <ele>35</ele>
        <time>2023-10-26T06:47:54.467+00:00</time>
      </trkpt>
      <trkpt lat="48.88771" lon="2.16939">
        <ele>35</ele>
        <time>2023-10-26T06:47:59.467+00:00</time>
      </trkpt>
      <trkpt lat="48.88761" lon="2.1695">
        <ele>33</ele>
        <time>2023-10-26T06:48:03.724+00:00</time>
      </trkpt>
      <trkpt lat="48.88758" lon="2.16951">
        <ele>33</ele>
        <time>2023-10-26T06:48:08.225+00:00</time>
      </trkpt>
      <trkpt lat="48.88753" lon="2.16953">
        <ele>33</ele>
        <time>2023-10-26T06:48:12.785+00:00</time>
      </trkpt>
      <trkpt lat="48.88746" lon="2.16956">
        <ele>33</ele>
        <time>2023-10-26T06:48:17.196+00:00</time>
      </trkpt>
      <trkpt lat="48.88741" lon="2.1696">
        <ele>32</ele>
        <time>2023-10-26T06:48:21.525+00:00</time>
      </trkpt>
      <trkpt lat="48.88739" lon="2.16967">
        <ele>32</ele>
        <time>2023-10-26T06:48:26.019+00:00</time>
      </trkpt>
      <trkpt lat="48.88744" lon="2.16973">
        <ele>32</ele>
        <time>2023-10-26T06:48:31.225+00:00</time>
      </trkpt>
      <trkpt lat="48.88746" lon="2.16972">
        <ele>32</ele>
        <time>2023-10-26T06:48:35.731+00:00</time>
      </trkpt>
      <trkpt lat="48.88744" lon="2.16971">
        <ele>32</ele>
        <time>2023-10-26T06:48:40.206+00:00</time>
      </trkpt>
      <trkpt lat="48.88738" lon="2.16972">
        <ele>32</ele>
        <time>2023-10-26T06:48:44.379+00:00</time>
      </trkpt>
      <trkpt lat="48.88731" lon="2.16963">
        <ele>32</ele>
        <time>2023-10-26T06:48:48.466+00:00</time>
      </trkpt>
      <trkpt lat="48.88728" lon="2.16934">
        <ele>34</ele>
        <time>2023-10-26T06:48:52.605+00:00</time>
      </trkpt>
      <trkpt lat="48.88729" lon="2.16921">
        <ele>35</ele>
        <time>2023-10-26T06:48:57.374+00:00</time>
      </trkpt>
      <trkpt lat="48.88731" lon="2.16909">
        <ele>35</ele>
        <time>2023-10-26T06:49:02.382+00:00</time>
      </trkpt>
      <trkpt lat="48.88737" lon="2.16902">
        <ele>35</ele>
        <time>2023-10-26T06:49:06.467+00:00</time>
      </trkpt>
      <trkpt lat="48.88739" lon="2.16895">
        <ele>35</ele>
        <time>2023-10-26T06:49:10.565+00:00</time>
      </trkpt>
      <trkpt lat="48.8874" lon="2.16887">
        <ele>35</ele>
        <time>2023-10-26T06:49:14.662+00:00</time>
      </trkpt>
      <trkpt lat="48.88742" lon="2.16878">
        <ele>35</ele>
        <time>2023-10-26T06:49:19.193+00:00</time>
      </trkpt>
      <trkpt lat="48.88745" lon="2.16867">
        <ele>37</ele>
        <time>2023-10-26T06:49:23.669+00:00</time>
      </trkpt>
      <trkpt lat="48.88744" lon="2.16856">
        <ele>37</ele>
        <time>2023-10-26T06:49:46.734+00:00</time>
      </trkpt>
      <trkpt lat="48.88745" lon="2.16852">
        <ele>37</ele>
        <time>2023-10-26T06:49:50.788+00:00</time>
      </trkpt>
      <trkpt lat="48.88744" lon="2.16844">
        <ele>38</ele>
        <time>2023-10-26T06:49:55.425+00:00</time>
      </trkpt>
      <trkpt lat="48.88744" lon="2.16831">
        <ele>38</ele>
        <time>2023-10-26T06:49:59.843+00:00</time>
      </trkpt>
      <trkpt lat="48.88745" lon="2.16822">
        <ele>38</ele>
        <time>2023-10-26T06:50:04.141+00:00</time>
      </trkpt>
      <trkpt lat="48.88749" lon="2.16817">
        <ele>38</ele>
        <time>2023-10-26T06:50:08.195+00:00</time>
      </trkpt>
      <trkpt lat="48.8875" lon="2.16809">
        <ele>38</ele>
        <time>2023-10-26T06:50:12.810+00:00</time>
      </trkpt>
      <trkpt lat="48.88751" lon="2.16799">
        <ele>38</ele>
        <time>2023-10-26T06:50:17.225+00:00</time>
      </trkpt>
      <trkpt lat="48.88751" lon="2.16793">
        <ele>38</ele>
        <time>2023-10-26T06:50:21.524+00:00</time>
      </trkpt>
      <trkpt lat="48.88751" lon="2.16788">
        <ele>37</ele>
        <time>2023-10-26T06:50:25.841+00:00</time>
      </trkpt>
      <trkpt lat="48.88752" lon="2.16785">
        <ele>37</ele>
        <time>2023-10-26T06:50:30.610+00:00</time>
      </trkpt>
      <trkpt lat="48.88753" lon="2.1678">
        <ele>37</ele>
        <time>2023-10-26T06:50:35.379+00:00</time>
      </trkpt>
      <trkpt lat="48.88758" lon="2.16773">
        <ele>37</ele>
        <time>2023-10-26T06:50:39.707+00:00</time>
      </trkpt>
      <trkpt lat="48.88762" lon="2.16767">
        <ele>37</ele>
        <time>2023-10-26T06:50:43.963+00:00</time>
      </trkpt>
      <trkpt lat="48.88764" lon="2.16763">
        <ele>37</ele>
        <time>2023-10-26T06:50:48.292+00:00</time>
      </trkpt>
      <trkpt lat="48.88763" lon="2.16757">
        <ele>37</ele>
        <time>2023-10-26T06:50:52.429+00:00</time>
      </trkpt>
      <trkpt lat="48.88759" lon="2.16747">
        <ele>37</ele>
        <time>2023-10-26T06:50:56.721+00:00</time>
      </trkpt>
      <trkpt lat="48.88758" lon="2.16733">
        <ele>36</ele>
        <time>2023-10-26T06:51:01.013+00:00</time>
      </trkpt>
      <trkpt lat="48.88761" lon="2.16717">
        <ele>36</ele>
        <time>2023-10-26T06:51:05.749+00:00</time>
      </trkpt>
      <trkpt lat="48.88762" lon="2.16706">
        <ele>35</ele>
        <time>2023-10-26T06:51:09.836+00:00</time>
      </trkpt>
      <trkpt lat="48.88762" lon="2.16702">
        <ele>35</ele>
        <time>2023-10-26T06:51:14.403+00:00</time>
      </trkpt>
      <trkpt lat="48.88765" lon="2.16693">
        <ele>39</ele>
        <time>2023-10-26T06:51:18.420+00:00</time>
      </trkpt>
      <trkpt lat="48.88765" lon="2.16688">
        <ele>39</ele>
        <time>2023-10-26T06:51:22.648+00:00</time>
      </trkpt>
      <trkpt lat="48.88765" lon="2.16682">
        <ele>39</ele>
        <time>2023-10-26T06:51:26.930+00:00</time>
      </trkpt>
      <trkpt lat="48.88767" lon="2.16674">
        <ele>37</ele>
        <time>2023-10-26T06:51:31.272+00:00</time>
      </trkpt>
      <trkpt lat="48.88768" lon="2.16664">
        <ele>37</ele>
        <time>2023-10-26T06:51:35.524+00:00</time>
      </trkpt>
      <trkpt lat="48.88771" lon="2.16655">
        <ele>37</ele>
        <time>2023-10-26T06:51:39.968+00:00</time>
      </trkpt>
      <trkpt lat="48.88773" lon="2.16646">
        <ele>37</ele>
        <time>2023-10-26T06:51:43.936+00:00</time>
      </trkpt>
      <trkpt lat="48.88775" lon="2.16635">
        <ele>37</ele>
        <time>2023-10-26T06:51:48.585+00:00</time>
      </trkpt>
      <trkpt lat="48.88778" lon="2.16626">
        <ele>37</ele>
        <time>2023-10-26T06:51:52.639+00:00</time>
      </trkpt>
      <trkpt lat="48.8878" lon="2.16612">
        <ele>37</ele>
        <time>2023-10-26T06:51:57.408+00:00</time>
      </trkpt>
      <trkpt lat="48.88781" lon="2.16605">
        <ele>37</ele>
        <time>2023-10-26T06:52:01.343+00:00</time>
      </trkpt>
      <trkpt lat="48.88782" lon="2.16598">
        <ele>37</ele>
        <time>2023-10-26T06:52:05.993+00:00</time>
      </trkpt>
      <trkpt lat="48.88784" lon="2.16594">
        <ele>35</ele>
        <time>2023-10-26T06:52:09.928+00:00</time>
      </trkpt>
      <trkpt lat="48.88791" lon="2.16593">
        <ele>35</ele>
        <time>2023-10-26T06:52:14.458+00:00</time>
      </trkpt>
      <trkpt lat="48.88794" lon="2.16588">
        <ele>44</ele>
        <time>2023-10-26T06:52:18.512+00:00</time>
      </trkpt>
      <trkpt lat="48.88794" lon="2.1658">
        <ele>44</ele>
        <time>2023-10-26T06:52:23.162+00:00</time>
      </trkpt>
      <trkpt lat="48.88793" lon="2.1658">
        <ele>44</ele>
        <time>2023-10-26T06:52:27.693+00:00</time>
      </trkpt>
      <trkpt lat="48.88793" lon="2.16575">
        <ele>44</ele>
        <time>2023-10-26T06:52:32.224+00:00</time>
      </trkpt>
      <trkpt lat="48.88795" lon="2.16568">
        <ele>42</ele>
        <time>2023-10-26T06:52:36.159+00:00</time>
      </trkpt>
      <trkpt lat="48.88797" lon="2.16558">
        <ele>42</ele>
        <time>2023-10-26T06:52:40.809+00:00</time>
      </trkpt>
      <trkpt lat="48.88797" lon="2.16548">
        <ele>42</ele>
        <time>2023-10-26T06:52:45.584+00:00</time>
      </trkpt>
      <trkpt lat="48.88799" lon="2.16542">
        <ele>42</ele>
        <time>2023-10-26T06:52:49.989+00:00</time>
      </trkpt>
      <trkpt lat="48.888" lon="2.16537">
        <ele>40</ele>
        <time>2023-10-26T06:52:54.461+00:00</time>
      </trkpt>
      <trkpt lat="48.88799" lon="2.16533">
        <ele>40</ele>
        <time>2023-10-26T06:52:58.927+00:00</time>
      </trkpt>
      <trkpt lat="48.88799" lon="2.16537">
        <ele>40</ele>
        <time>2023-10-26T06:53:03.343+00:00</time>
      </trkpt>
      <trkpt lat="48.88799" lon="2.16537">
        <ele>40</ele>
        <time>2023-10-26T06:53:07.874+00:00</time>
      </trkpt>
      <trkpt lat="48.888" lon="2.16528">
        <ele>40</ele>
        <time>2023-10-26T06:53:12.273+00:00</time>
      </trkpt>
      <trkpt lat="48.888" lon="2.16514">
        <ele>38</ele>
        <time>2023-10-26T06:53:16.663+00:00</time>
      </trkpt>
      <trkpt lat="48.88799" lon="2.16498">
        <ele>38</ele>
        <time>2023-10-26T06:53:21.084+00:00</time>
      </trkpt>
      <trkpt lat="48.88797" lon="2.16485">
        <ele>36</ele>
        <time>2023-10-26T06:53:25.044+00:00</time>
      </trkpt>
      <trkpt lat="48.88797" lon="2.16467">
        <ele>36</ele>
        <time>2023-10-26T06:53:29.813+00:00</time>
      </trkpt>
      <trkpt lat="48.88802" lon="2.16461">
        <ele>36</ele>
        <time>2023-10-26T06:53:34.331+00:00</time>
      </trkpt>
      <trkpt lat="48.88804" lon="2.16452">
        <ele>34</ele>
        <time>2023-10-26T06:53:38.731+00:00</time>
      </trkpt>
      <trkpt lat="48.88811" lon="2.16445">
        <ele>34</ele>
        <time>2023-10-26T06:53:43.048+00:00</time>
      </trkpt>
      <trkpt lat="48.88813" lon="2.16437">
        <ele>34</ele>
        <time>2023-10-26T06:53:47.459+00:00</time>
      </trkpt>
      <trkpt lat="48.88814" lon="2.16427">
        <ele>30</ele>
        <time>2023-10-26T06:53:51.589+00:00</time>
      </trkpt>
      <trkpt lat="48.88814" lon="2.16417">
        <ele>30</ele>
        <time>2023-10-26T06:53:55.924+00:00</time>
      </trkpt>
      <trkpt lat="48.88814" lon="2.16407">
        <ele>30</ele>
        <time>2023-10-26T06:54:00.293+00:00</time>
      </trkpt>
      <trkpt lat="48.88814" lon="2.16397">
        <ele>25</ele>
        <time>2023-10-26T06:54:04.705+00:00</time>
      </trkpt>
      <trkpt lat="48.88815" lon="2.16387">
        <ele>25</ele>
        <time>2023-10-26T06:54:09.040+00:00</time>
      </trkpt>
      <trkpt lat="48.88817" lon="2.16377">
        <ele>25</ele>
        <time>2023-10-26T06:54:13.765+00:00</time>
      </trkpt>
      <trkpt lat="48.88817" lon="2.16368">
        <ele>23</ele>
        <time>2023-10-26T06:54:17.625+00:00</time>
      </trkpt>
      <trkpt lat="48.88817" lon="2.1636">
        <ele>23</ele>
        <time>2023-10-26T06:54:21.679+00:00</time>
      </trkpt>
      <trkpt lat="48.88818" lon="2.16352">
        <ele>23</ele>
        <time>2023-10-26T06:54:26.209+00:00</time>
      </trkpt>
      <trkpt lat="48.8882" lon="2.16345">
        <ele>19</ele>
        <time>2023-10-26T06:54:30.705+00:00</time>
      </trkpt>
      <trkpt lat="48.8882" lon="2.16335">
        <ele>19</ele>
        <time>2023-10-26T06:54:35.128+00:00</time>
      </trkpt>
      <trkpt lat="48.8882" lon="2.16325">
        <ele>19</ele>
        <time>2023-10-26T06:54:39.563+00:00</time>
      </trkpt>
      <trkpt lat="48.88819" lon="2.16315">
        <ele>19</ele>
        <time>2023-10-26T06:54:44.207+00:00</time>
      </trkpt>
      <trkpt lat="48.88821" lon="2.16307">
        <ele>17</ele>
        <time>2023-10-26T06:54:48.625+00:00</time>
      </trkpt>
      <trkpt lat="48.88829" lon="2.16303">
        <ele>17</ele>
        <time>2023-10-26T06:54:53.211+00:00</time>
      </trkpt>
      <trkpt lat="48.88835" lon="2.16298">
        <ele>17</ele>
        <time>2023-10-26T06:54:57.567+00:00</time>
      </trkpt>
      <trkpt lat="48.88838" lon="2.1629">
        <ele>17</ele>
        <time>2023-10-26T06:55:02.086+00:00</time>
      </trkpt>
      <trkpt lat="48.8884" lon="2.16281">
        <ele>17</ele>
        <time>2023-10-26T06:55:06.510+00:00</time>
      </trkpt>
      <trkpt lat="48.8884" lon="2.16272">
        <ele>17</ele>
        <time>2023-10-26T06:55:11.008+00:00</time>
      </trkpt>
      <trkpt lat="48.8884" lon="2.16263">
        <ele>18</ele>
        <time>2023-10-26T06:55:15.571+00:00</time>
      </trkpt>
      <trkpt lat="48.88837" lon="2.16253">
        <ele>18</ele>
        <time>2023-10-26T06:55:19.983+00:00</time>
      </trkpt>
      <trkpt lat="48.88834" lon="2.16243">
        <ele>18</ele>
        <time>2023-10-26T06:55:24.609+00:00</time>
      </trkpt>
      <trkpt lat="48.88835" lon="2.16236">
        <ele>20</ele>
        <time>2023-10-26T06:55:28.568+00:00</time>
      </trkpt>
      <trkpt lat="48.88838" lon="2.16231">
        <ele>20</ele>
        <time>2023-10-26T06:55:32.622+00:00</time>
      </trkpt>
      <trkpt lat="48.8884" lon="2.16228">
        <ele>20</ele>
        <time>2023-10-26T06:55:37.153+00:00</time>
      </trkpt>
      <trkpt lat="48.88842" lon="2.16224">
        <ele>20</ele>
        <time>2023-10-26T06:55:41.207+00:00</time>
      </trkpt>
      <trkpt lat="48.88845" lon="2.16219">
        <ele>20</ele>
        <time>2023-10-26T06:55:45.976+00:00</time>
      </trkpt>
      <trkpt lat="48.88847" lon="2.16218">
        <ele>20</ele>
        <time>2023-10-26T06:55:50.149+00:00</time>
      </trkpt>
      <trkpt lat="48.8885" lon="2.16222">
        <ele>19</ele>
        <time>2023-10-26T06:55:54.764+00:00</time>
      </trkpt>
      <trkpt lat="48.88852" lon="2.16224">
        <ele>19</ele>
        <time>2023-10-26T06:55:58.734+00:00</time>
      </trkpt>
      <trkpt lat="48.88856" lon="2.16227">
        <ele>19</ele>
        <time>2023-10-26T06:56:03.265+00:00</time>
      </trkpt>
      <trkpt lat="48.88861" lon="2.1623">
        <ele>19</ele>
        <time>2023-10-26T06:56:07.676+00:00</time>
      </trkpt>
      <trkpt lat="48.88868" lon="2.16234">
        <ele>19</ele>
        <time>2023-10-26T06:56:12.204+00:00</time>
      </trkpt>
      <trkpt lat="48.88874" lon="2.16236">
        <ele>19</ele>
        <time>2023-10-26T06:56:16.470+00:00</time>
      </trkpt>
      <trkpt lat="48.8888" lon="2.16239">
        <ele>22</ele>
        <time>2023-10-26T06:56:21.326+00:00</time>
      </trkpt>
      <trkpt lat="48.88884" lon="2.16241">
        <ele>22</ele>
        <time>2023-10-26T06:56:25.608+00:00</time>
      </trkpt>
      <trkpt lat="48.8889" lon="2.16242">
        <ele>22</ele>
        <time>2023-10-26T06:56:29.616+00:00</time>
      </trkpt>
      <trkpt lat="48.88896" lon="2.16242">
        <ele>22</ele>
        <time>2023-10-26T06:56:33.670+00:00</time>
      </trkpt>
      <trkpt lat="48.88903" lon="2.16241">
        <ele>26</ele>
        <time>2023-10-26T06:56:38.081+00:00</time>
      </trkpt>
      <trkpt lat="48.88911" lon="2.1624">
        <ele>26</ele>
        <time>2023-10-26T06:56:42.016+00:00</time>
      </trkpt>
      <trkpt lat="48.88919" lon="2.16243">
        <ele>26</ele>
        <time>2023-10-26T06:56:46.666+00:00</time>
      </trkpt>
      <trkpt lat="48.88926" lon="2.16249">
        <ele>26</ele>
        <time>2023-10-26T06:56:51.197+00:00</time>
      </trkpt>
      <trkpt lat="48.88931" lon="2.16253">
        <ele>25</ele>
        <time>2023-10-26T06:56:55.225+00:00</time>
      </trkpt>
      <trkpt lat="48.88932" lon="2.16262">
        <ele>25</ele>
        <time>2023-10-26T06:57:00.020+00:00</time>
      </trkpt>
      <trkpt lat="48.88934" lon="2.16272">
        <ele>25</ele>
        <time>2023-10-26T06:57:04.465+00:00</time>
      </trkpt>
      <trkpt lat="48.88939" lon="2.16277">
        <ele>25</ele>
        <time>2023-10-26T06:57:08.486+00:00</time>
      </trkpt>
      <trkpt lat="48.88944" lon="2.16281">
        <ele>25</ele>
        <time>2023-10-26T06:57:13.023+00:00</time>
      </trkpt>
      <trkpt lat="48.88949" lon="2.16284">
        <ele>25</ele>
        <time>2023-10-26T06:57:16.952+00:00</time>
      </trkpt>
      <trkpt lat="48.88954" lon="2.16287">
        <ele>25</ele>
        <time>2023-10-26T06:57:21.547+00:00</time>
      </trkpt>
      <trkpt lat="48.88957" lon="2.1629">
        <ele>25</ele>
        <time>2023-10-26T06:57:26.014+00:00</time>
      </trkpt>
      <trkpt lat="48.8896" lon="2.16294">
        <ele>23</ele>
        <time>2023-10-26T06:57:30.425+00:00</time>
      </trkpt>
      <trkpt lat="48.88961" lon="2.16298">
        <ele>23</ele>
        <time>2023-10-26T06:57:34.545+00:00</time>
      </trkpt>
      <trkpt lat="48.88963" lon="2.16302">
        <ele>23</ele>
        <time>2023-10-26T06:57:39.010+00:00</time>
      </trkpt>
      <trkpt lat="48.88964" lon="2.16307">
        <ele>23</ele>
        <time>2023-10-26T06:57:43.184+00:00</time>
      </trkpt>
      <trkpt lat="48.88965" lon="2.16315">
        <ele>23</ele>
        <time>2023-10-26T06:57:47.364+00:00</time>
      </trkpt>
      <trkpt lat="48.88968" lon="2.16321">
        <ele>24</ele>
        <time>2023-10-26T06:57:51.411+00:00</time>
      </trkpt>
      <trkpt lat="48.88971" lon="2.16327">
        <ele>24</ele>
        <time>2023-10-26T06:57:55.584+00:00</time>
      </trkpt>
      <trkpt lat="48.88973" lon="2.16335">
        <ele>24</ele>
        <time>2023-10-26T06:58:00.353+00:00</time>
      </trkpt>
      <trkpt lat="48.88971" lon="2.1634">
        <ele>24</ele>
        <time>2023-10-26T07:00:48.225+00:00</time>
      </trkpt>
      <trkpt lat="48.8897" lon="2.1634">
        <ele>24</ele>
        <time>2023-10-26T07:00:52.375+00:00</time>
      </trkpt>
      <trkpt lat="48.88966" lon="2.16342">
        <ele>24</ele>
        <time>2023-10-26T07:00:57.144+00:00</time>
      </trkpt>
      <trkpt lat="48.88966" lon="2.16343">
        <ele>24</ele>
        <time>2023-10-26T07:01:01.225+00:00</time>
      </trkpt>
      <trkpt lat="48.88965" lon="2.16344">
        <ele>24</ele>
        <time>2023-10-26T07:01:05.372+00:00</time>
      </trkpt>
      <trkpt lat="48.88964" lon="2.16348">
        <ele>24</ele>
        <time>2023-10-26T07:15:02.750+00:00</time>
      </trkpt>
      <trkpt lat="48.8896" lon="2.16345">
        <ele>24</ele>
        <time>2023-10-26T07:15:06.804+00:00</time>
      </trkpt>
      <trkpt lat="48.88956" lon="2.16342">
        <ele>25</ele>
        <time>2023-10-26T07:15:10.858+00:00</time>
      </trkpt>
      <trkpt lat="48.88952" lon="2.1634">
        <ele>25</ele>
        <time>2023-10-26T07:15:15.031+00:00</time>
      </trkpt>
      <trkpt lat="48.88948" lon="2.1633">
        <ele>25</ele>
        <time>2023-10-26T07:15:19.801+00:00</time>
      </trkpt>
      <trkpt lat="48.88945" lon="2.16325">
        <ele>25</ele>
        <time>2023-10-26T07:15:23.855+00:00</time>
      </trkpt>
      <trkpt lat="48.88941" lon="2.16322">
        <ele>25</ele>
        <time>2023-10-26T07:15:28.028+00:00</time>
      </trkpt>
      <trkpt lat="48.88937" lon="2.1632">
        <ele>25</ele>
        <time>2023-10-26T07:15:32.202+00:00</time>
      </trkpt>
      <trkpt lat="48.88933" lon="2.16316">
        <ele>25</ele>
        <time>2023-10-26T07:15:36.852+00:00</time>
      </trkpt>
      <trkpt lat="48.88929" lon="2.16313">
        <ele>26</ele>
        <time>2023-10-26T07:15:41.025+00:00</time>
      </trkpt>
      <trkpt lat="48.88925" lon="2.16309">
        <ele>26</ele>
        <time>2023-10-26T07:15:45.676+00:00</time>
      </trkpt>
      <trkpt lat="48.88923" lon="2.16304">
        <ele>26</ele>
        <time>2023-10-26T07:15:50.207+00:00</time>
      </trkpt>
      <trkpt lat="48.88922" lon="2.16299">
        <ele>26</ele>
        <time>2023-10-26T07:15:54.857+00:00</time>
      </trkpt>
      <trkpt lat="48.88926" lon="2.16295">
        <ele>26</ele>
        <time>2023-10-26T07:15:59.031+00:00</time>
      </trkpt>
      <trkpt lat="48.88931" lon="2.16292">
        <ele>25</ele>
        <time>2023-10-26T07:16:03.204+00:00</time>
      </trkpt>
      <trkpt lat="48.88935" lon="2.16288">
        <ele>25</ele>
        <time>2023-10-26T07:16:07.258+00:00</time>
      </trkpt>
      <trkpt lat="48.88939" lon="2.16284">
        <ele>25</ele>
        <time>2023-10-26T07:16:12.028+00:00</time>
      </trkpt>
      <trkpt lat="48.88942" lon="2.1628">
        <ele>25</ele>
        <time>2023-10-26T07:16:16.804+00:00</time>
      </trkpt>
      <trkpt lat="48.88944" lon="2.16275">
        <ele>25</ele>
        <time>2023-10-26T07:16:21.427+00:00</time>
      </trkpt>
      <trkpt lat="48.88941" lon="2.16271">
        <ele>25</ele>
        <time>2023-10-26T07:16:25.456+00:00</time>
      </trkpt>
      <trkpt lat="48.88935" lon="2.16268">
        <ele>25</ele>
        <time>2023-10-26T07:16:29.999+00:00</time>
      </trkpt>
      <trkpt lat="48.88929" lon="2.16264">
        <ele>26</ele>
        <time>2023-10-26T07:16:34.446+00:00</time>
      </trkpt>
      <trkpt lat="48.88924" lon="2.1626">
        <ele>26</ele>
        <time>2023-10-26T07:16:38.977+00:00</time>
      </trkpt>
      <trkpt lat="48.88923" lon="2.16252">
        <ele>26</ele>
        <time>2023-10-26T07:16:43.627+00:00</time>
      </trkpt>
      <trkpt lat="48.88921" lon="2.16249">
        <ele>26</ele>
        <time>2023-10-26T07:16:47.562+00:00</time>
      </trkpt>
      <trkpt lat="48.88918" lon="2.16248">
        <ele>26</ele>
        <time>2023-10-26T07:16:51.617+00:00</time>
      </trkpt>
      <trkpt lat="48.88913" lon="2.16247">
        <ele>26</ele>
        <time>2023-10-26T07:16:55.702+00:00</time>
      </trkpt>
      <trkpt lat="48.88907" lon="2.16246">
        <ele>26</ele>
        <time>2023-10-26T07:17:00.441+00:00</time>
      </trkpt>
      <trkpt lat="48.88901" lon="2.16245">
        <ele>22</ele>
        <time>2023-10-26T07:17:04.972+00:00</time>
      </trkpt>
      <trkpt lat="48.88896" lon="2.16244">
        <ele>22</ele>
        <time>2023-10-26T07:17:09.026+00:00</time>
      </trkpt>
      <trkpt lat="48.88891" lon="2.16243">
        <ele>22</ele>
        <time>2023-10-26T07:17:13.702+00:00</time>
      </trkpt>
      <trkpt lat="48.88887" lon="2.16241">
        <ele>22</ele>
        <time>2023-10-26T07:17:17.850+00:00</time>
      </trkpt>
      <trkpt lat="48.88883" lon="2.1624">
        <ele>22</ele>
        <time>2023-10-26T07:17:22.023+00:00</time>
      </trkpt>
      <trkpt lat="48.88879" lon="2.16238">
        <ele>22</ele>
        <time>2023-10-26T07:17:26.196+00:00</time>
      </trkpt>
      <trkpt lat="48.88875" lon="2.16236">
        <ele>21</ele>
        <time>2023-10-26T07:17:30.251+00:00</time>
      </trkpt>
      <trkpt lat="48.8887" lon="2.16233">
        <ele>19</ele>
        <time>2023-10-26T07:17:34.901+00:00</time>
      </trkpt>
      <trkpt lat="48.88866" lon="2.16231">
        <ele>19</ele>
        <time>2023-10-26T07:17:38.836+00:00</time>
      </trkpt>
      <trkpt lat="48.88861" lon="2.1623">
        <ele>19</ele>
        <time>2023-10-26T07:17:43.459+00:00</time>
      </trkpt>
      <trkpt lat="48.88857" lon="2.16226">
        <ele>19</ele>
        <time>2023-10-26T07:17:48.018+00:00</time>
      </trkpt>
      <trkpt lat="48.88854" lon="2.1622">
        <ele>19</ele>
        <time>2023-10-26T07:17:52.072+00:00</time>
      </trkpt>
      <trkpt lat="48.88852" lon="2.16213">
        <ele>19</ele>
        <time>2023-10-26T07:17:56.597+00:00</time>
      </trkpt>
      <trkpt lat="48.88849" lon="2.16207">
        <ele>20</ele>
        <time>2023-10-26T07:18:00.603+00:00</time>
      </trkpt>
      <trkpt lat="48.8885" lon="2.16198">
        <ele>20</ele>
        <time>2023-10-26T07:18:05.105+00:00</time>
      </trkpt>
      <trkpt lat="48.88852" lon="2.16189">
        <ele>20</ele>
        <time>2023-10-26T07:18:09.481+00:00</time>
      </trkpt>
      <trkpt lat="48.88854" lon="2.1618">
        <ele>21</ele>
        <time>2023-10-26T07:18:13.927+00:00</time>
      </trkpt>
      <trkpt lat="48.88856" lon="2.16171">
        <ele>21</ele>
        <time>2023-10-26T07:18:18.400+00:00</time>
      </trkpt>
      <trkpt lat="48.88857" lon="2.16162">
        <ele>21</ele>
        <time>2023-10-26T07:18:22.841+00:00</time>
      </trkpt>
      <trkpt lat="48.88859" lon="2.16154">
        <ele>21</ele>
        <time>2023-10-26T07:18:27.248+00:00</time>
      </trkpt>
      <trkpt lat="48.88861" lon="2.16146">
        <ele>21</ele>
        <time>2023-10-26T07:18:31.665+00:00</time>
      </trkpt>
      <trkpt lat="48.88863" lon="2.16139">
        <ele>21</ele>
        <time>2023-10-26T07:18:35.595+00:00</time>
      </trkpt>
      <trkpt lat="48.88865" lon="2.16131">
        <ele>21</ele>
        <time>2023-10-26T07:18:40.245+00:00</time>
      </trkpt>
      <trkpt lat="48.88865" lon="2.16125">
        <ele>21</ele>
        <time>2023-10-26T07:18:44.643+00:00</time>
      </trkpt>
      <trkpt lat="48.88867" lon="2.16116">
        <ele>21</ele>
        <time>2023-10-26T07:18:49.069+00:00</time>
      </trkpt>
      <trkpt lat="48.88868" lon="2.16107">
        <ele>21</ele>
        <time>2023-10-26T07:18:53.446+00:00</time>
      </trkpt>
      <trkpt lat="48.8887" lon="2.16098">
        <ele>21</ele>
        <time>2023-10-26T07:18:57.818+00:00</time>
      </trkpt>
      <trkpt lat="48.88871" lon="2.1609">
        <ele>20</ele>
        <time>2023-10-26T07:19:02.241+00:00</time>
      </trkpt>
      <trkpt lat="48.88872" lon="2.1608">
        <ele>20</ele>
        <time>2023-10-26T07:19:06.743+00:00</time>
      </trkpt>
      <trkpt lat="48.88873" lon="2.16071">
        <ele>20</ele>
        <time>2023-10-26T07:19:11.128+00:00</time>
      </trkpt>
      <trkpt lat="48.88874" lon="2.16062">
        <ele>22</ele>
        <time>2023-10-26T07:19:15.606+00:00</time>
      </trkpt>
      <trkpt lat="48.88875" lon="2.16054">
        <ele>22</ele>
        <time>2023-10-26T07:19:20.029+00:00</time>
      </trkpt>
      <trkpt lat="48.88876" lon="2.16046">
        <ele>24</ele>
        <time>2023-10-26T07:19:24.007+00:00</time>
      </trkpt>
      <trkpt lat="48.88877" lon="2.16039">
        <ele>27</ele>
        <time>2023-10-26T07:19:28.657+00:00</time>
      </trkpt>
      <trkpt lat="48.88878" lon="2.16033">
        <ele>27</ele>
        <time>2023-10-26T07:19:33.124+00:00</time>
      </trkpt>
      <trkpt lat="48.88879" lon="2.16024">
        <ele>27</ele>
        <time>2023-10-26T07:19:37.481+00:00</time>
      </trkpt>
      <trkpt lat="48.8888" lon="2.16013">
        <ele>30</ele>
        <time>2023-10-26T07:19:41.893+00:00</time>
      </trkpt>
      <trkpt lat="48.88883" lon="2.16007">
        <ele>30</ele>
        <time>2023-10-26T07:19:46.301+00:00</time>
      </trkpt>
      <trkpt lat="48.88886" lon="2.15999">
        <ele>30</ele>
        <time>2023-10-26T07:19:50.746+00:00</time>
      </trkpt>
      <trkpt lat="48.88889" lon="2.1599">
        <ele>30</ele>
        <time>2023-10-26T07:19:55.128+00:00</time>
      </trkpt>
      <trkpt lat="48.88892" lon="2.15977">
        <ele>33</ele>
        <time>2023-10-26T07:19:59.626+00:00</time>
      </trkpt>
      <trkpt lat="48.88897" lon="2.15963">
        <ele>33</ele>
        <time>2023-10-26T07:20:08.398+00:00</time>
      </trkpt>
      <trkpt lat="48.88898" lon="2.15961">
        <ele>33</ele>
        <time>2023-10-26T07:20:12.702+00:00</time>
      </trkpt>
      <trkpt lat="48.88901" lon="2.15956">
        <ele>35</ele>
        <time>2023-10-26T07:20:17.307+00:00</time>
      </trkpt>
      <trkpt lat="48.88902" lon="2.15954">
        <ele>35</ele>
        <time>2023-10-26T07:20:21.845+00:00</time>
      </trkpt>
      <trkpt lat="48.88906" lon="2.15956">
        <ele>36</ele>
        <time>2023-10-26T07:20:25.892+00:00</time>
      </trkpt>
      <trkpt lat="48.88912" lon="2.15967">
        <ele>35</ele>
        <time>2023-10-26T07:20:38.532+00:00</time>
      </trkpt>
      <trkpt lat="48.88913" lon="2.15968">
        <ele>35</ele>
        <time>2023-10-26T07:20:42.702+00:00</time>
      </trkpt>
      <trkpt lat="48.88914" lon="2.15969">
        <ele>35</ele>
        <time>2023-10-26T07:20:47.468+00:00</time>
      </trkpt>
      <trkpt lat="48.88913" lon="2.15971">
        <ele>35</ele>
        <time>2023-10-26T07:20:51.648+00:00</time>
      </trkpt>
      <trkpt lat="48.88911" lon="2.15973">
        <ele>35</ele>
        <time>2023-10-26T07:20:55.822+00:00</time>
      </trkpt>
      <trkpt lat="48.88911" lon="2.15977">
        <ele>35</ele>
        <time>2023-10-26T07:21:01.545+00:00</time>
      </trkpt>
      <trkpt lat="48.88911" lon="2.1598">
        <ele>35</ele>
        <time>2023-10-26T07:21:05.599+00:00</time>
      </trkpt>
      <trkpt lat="48.88911" lon="2.15981">
        <ele>35</ele>
        <time>2023-10-26T07:21:10.250+00:00</time>
      </trkpt>
      <trkpt lat="48.88911" lon="2.15985">
        <ele>35</ele>
        <time>2023-10-26T07:21:18+00:00</time>
      </trkpt>
      <trkpt lat="48.88915" lon="2.15961">
        <ele>35</ele>
        <time>2023-10-26T07:21:57.640+00:00</time>
      </trkpt>
      <trkpt lat="48.88912" lon="2.15949">
        <ele>36</ele>
        <time>2023-10-26T07:22:13.658+00:00</time>
      </trkpt>
      <trkpt lat="48.88905" lon="2.15954">
        <ele>36</ele>
        <time>2023-10-26T07:22:17.619+00:00</time>
      </trkpt>
      <trkpt lat="48.88903" lon="2.15957">
        <ele>36</ele>
        <time>2023-10-26T07:22:21.907+00:00</time>
      </trkpt>
      <trkpt lat="48.88899" lon="2.15967">
        <ele>33</ele>
        <time>2023-10-26T07:22:25.847+00:00</time>
      </trkpt>
      <trkpt lat="48.88896" lon="2.15985">
        <ele>33</ele>
        <time>2023-10-26T07:22:30.020+00:00</time>
      </trkpt>
      <trkpt lat="48.88896" lon="2.15993">
        <ele>30</ele>
        <time>2023-10-26T07:22:34.193+00:00</time>
      </trkpt>
      <trkpt lat="48.88893" lon="2.15992">
        <ele>30</ele>
        <time>2023-10-26T07:22:38.844+00:00</time>
      </trkpt>
      <trkpt lat="48.88888" lon="2.15989">
        <ele>30</ele>
        <time>2023-10-26T07:22:43.256+00:00</time>
      </trkpt>
      <trkpt lat="48.88885" lon="2.15986">
        <ele>33</ele>
        <time>2023-10-26T07:22:47.861+00:00</time>
      </trkpt>
      <trkpt lat="48.88874" lon="2.15984">
        <ele>30</ele>
        <time>2023-10-26T07:23:14.461+00:00</time>
      </trkpt>
      <trkpt lat="48.88872" lon="2.15985">
        <ele>30</ele>
        <time>2023-10-26T07:23:19.008+00:00</time>
      </trkpt>
      <trkpt lat="48.8887" lon="2.15985">
        <ele>30</ele>
        <time>2023-10-26T07:23:23.063+00:00</time>
      </trkpt>
      <trkpt lat="48.88868" lon="2.15986">
        <ele>30</ele>
        <time>2023-10-26T07:23:27.236+00:00</time>
      </trkpt>
      <trkpt lat="48.88861" lon="2.15989">
        <ele>26</ele>
        <time>2023-10-26T07:23:31.767+00:00</time>
      </trkpt>
      <trkpt lat="48.88853" lon="2.15991">
        <ele>26</ele>
        <time>2023-10-26T07:23:35.822+00:00</time>
      </trkpt>
      <trkpt lat="48.88847" lon="2.15991">
        <ele>26</ele>
        <time>2023-10-26T07:23:39.940+00:00</time>
      </trkpt>
      <trkpt lat="48.88841" lon="2.15993">
        <ele>29</ele>
        <time>2023-10-26T07:23:44.384+00:00</time>
      </trkpt>
      <trkpt lat="48.88835" lon="2.15996">
        <ele>29</ele>
        <time>2023-10-26T07:23:48.819+00:00</time>
      </trkpt>
      <trkpt lat="48.88835" lon="2.15996">
        <ele>29</ele>
        <time>2023-10-26T07:23:53.447+00:00</time>
      </trkpt>
      <trkpt lat="48.88835" lon="2.15998">
        <ele>29</ele>
        <time>2023-10-26T07:23:57.643+00:00</time>
      </trkpt>
      <trkpt lat="48.88831" lon="2.16001">
        <ele>29</ele>
        <time>2023-10-26T07:24:02.174+00:00</time>
      </trkpt>
      <trkpt lat="48.88824" lon="2.16002">
        <ele>29</ele>
        <time>2023-10-26T07:24:06.586+00:00</time>
      </trkpt>
      <trkpt lat="48.88817" lon="2.15999">
        <ele>30</ele>
        <time>2023-10-26T07:24:11.084+00:00</time>
      </trkpt>
      <trkpt lat="48.88811" lon="2.15997">
        <ele>30</ele>
        <time>2023-10-26T07:24:15.410+00:00</time>
      </trkpt>
      <trkpt lat="48.88804" lon="2.15995">
        <ele>30</ele>
        <time>2023-10-26T07:24:19.829+00:00</time>
      </trkpt>
      <trkpt lat="48.88798" lon="2.15992">
        <ele>30</ele>
        <time>2023-10-26T07:24:24.040+00:00</time>
      </trkpt>
      <trkpt lat="48.88792" lon="2.15987">
        <ele>30</ele>
        <time>2023-10-26T07:24:28.289+00:00</time>
      </trkpt>
      <trkpt lat="48.88786" lon="2.15981">
        <ele>31</ele>
        <time>2023-10-26T07:24:33.026+00:00</time>
      </trkpt>
      <trkpt lat="48.88784" lon="2.15974">
        <ele>31</ele>
        <time>2023-10-26T07:24:36.993+00:00</time>
      </trkpt>
      <trkpt lat="48.88779" lon="2.15975">
        <ele>31</ele>
        <time>2023-10-26T07:24:41.048+00:00</time>
      </trkpt>
      <trkpt lat="48.88774" lon="2.15972">
        <ele>31</ele>
        <time>2023-10-26T07:24:44.983+00:00</time>
      </trkpt>
      <trkpt lat="48.88768" lon="2.15968">
        <ele>31</ele>
        <time>2023-10-26T07:24:49.580+00:00</time>
      </trkpt>
      <trkpt lat="48.88762" lon="2.15964">
        <ele>28</ele>
        <time>2023-10-26T07:24:53.901+00:00</time>
      </trkpt>
      <trkpt lat="48.88757" lon="2.15961">
        <ele>28</ele>
        <time>2023-10-26T07:24:57.861+00:00</time>
      </trkpt>
      <trkpt lat="48.88752" lon="2.15958">
        <ele>30</ele>
        <time>2023-10-26T07:25:02.281+00:00</time>
      </trkpt>
      <trkpt lat="48.88745" lon="2.15955">
        <ele>30</ele>
        <time>2023-10-26T07:25:06.566+00:00</time>
      </trkpt>
      <trkpt lat="48.8874" lon="2.15951">
        <ele>30</ele>
        <time>2023-10-26T07:25:10.864+00:00</time>
      </trkpt>
      <trkpt lat="48.88735" lon="2.15948">
        <ele>29</ele>
        <time>2023-10-26T07:25:15.207+00:00</time>
      </trkpt>
      <trkpt lat="48.88729" lon="2.15945">
        <ele>29</ele>
        <time>2023-10-26T07:25:19.564+00:00</time>
      </trkpt>
      <trkpt lat="48.88724" lon="2.15942">
        <ele>29</ele>
        <time>2023-10-26T07:25:23.900+00:00</time>
      </trkpt>
      <trkpt lat="48.8872" lon="2.15938">
        <ele>29</ele>
        <time>2023-10-26T07:25:28.209+00:00</time>
      </trkpt>
      <trkpt lat="48.88716" lon="2.15934">
        <ele>29</ele>
        <time>2023-10-26T07:25:32.565+00:00</time>
      </trkpt>
      <trkpt lat="48.88711" lon="2.1593">
        <ele>31</ele>
        <time>2023-10-26T07:25:36.973+00:00</time>
      </trkpt>
      <trkpt lat="48.88708" lon="2.15927">
        <ele>30</ele>
        <time>2023-10-26T07:25:41.624+00:00</time>
      </trkpt>
      <trkpt lat="48.88702" lon="2.15923">
        <ele>30</ele>
        <time>2023-10-26T07:25:46.060+00:00</time>
      </trkpt>
      <trkpt lat="48.88697" lon="2.15919">
        <ele>30</ele>
        <time>2023-10-26T07:25:50.425+00:00</time>
      </trkpt>
      <trkpt lat="48.88691" lon="2.15915">
        <ele>30</ele>
        <time>2023-10-26T07:25:54.740+00:00</time>
      </trkpt>
      <trkpt lat="48.88687" lon="2.15914">
        <ele>30</ele>
        <time>2023-10-26T07:25:59.272+00:00</time>
      </trkpt>
      <trkpt lat="48.88685" lon="2.15915">
        <ele>30</ele>
        <time>2023-10-26T07:26:03.922+00:00</time>
      </trkpt>
      <trkpt lat="48.8868" lon="2.15914">
        <ele>29</ele>
        <time>2023-10-26T07:26:08.215+00:00</time>
      </trkpt>
      <trkpt lat="48.88675" lon="2.15911">
        <ele>29</ele>
        <time>2023-10-26T07:26:12.563+00:00</time>
      </trkpt>
      <trkpt lat="48.8867" lon="2.15907">
        <ele>29</ele>
        <time>2023-10-26T07:26:16.804+00:00</time>
      </trkpt>
      <trkpt lat="48.88665" lon="2.15902">
        <ele>32</ele>
        <time>2023-10-26T07:26:21.213+00:00</time>
      </trkpt>
      <trkpt lat="48.8866" lon="2.15898">
        <ele>32</ele>
        <time>2023-10-26T07:26:25.267+00:00</time>
      </trkpt>
      <trkpt lat="48.88655" lon="2.15894">
        <ele>32</ele>
        <time>2023-10-26T07:26:29.824+00:00</time>
      </trkpt>
      <trkpt lat="48.88649" lon="2.15892">
        <ele>32</ele>
        <time>2023-10-26T07:26:33.853+00:00</time>
      </trkpt>
      <trkpt lat="48.88643" lon="2.15888">
        <ele>32</ele>
        <time>2023-10-26T07:26:38.587+00:00</time>
      </trkpt>
      <trkpt lat="48.88637" lon="2.15884">
        <ele>32</ele>
        <time>2023-10-26T07:26:42.915+00:00</time>
      </trkpt>
      <trkpt lat="48.88631" lon="2.15881">
        <ele>32</ele>
        <time>2023-10-26T07:26:47.327+00:00</time>
      </trkpt>
      <trkpt lat="48.88626" lon="2.15877">
        <ele>32</ele>
        <time>2023-10-26T07:26:51.262+00:00</time>
      </trkpt>
      <trkpt lat="48.8862" lon="2.15874">
        <ele>34</ele>
        <time>2023-10-26T07:26:55.913+00:00</time>
      </trkpt>
      <trkpt lat="48.88615" lon="2.15872">
        <ele>34</ele>
        <time>2023-10-26T07:27:00.445+00:00</time>
      </trkpt>
      <trkpt lat="48.8861" lon="2.1587">
        <ele>34</ele>
        <time>2023-10-26T07:27:04.499+00:00</time>
      </trkpt>
      <trkpt lat="48.88605" lon="2.15866">
        <ele>34</ele>
        <time>2023-10-26T07:27:09.031+00:00</time>
      </trkpt>
      <trkpt lat="48.88599" lon="2.15862">
        <ele>34</ele>
        <time>2023-10-26T07:27:13.443+00:00</time>
      </trkpt>
      <trkpt lat="48.88594" lon="2.15859">
        <ele>33</ele>
        <time>2023-10-26T07:27:17.855+00:00</time>
      </trkpt>
      <trkpt lat="48.8859" lon="2.15856">
        <ele>33</ele>
        <time>2023-10-26T07:27:22.204+00:00</time>
      </trkpt>
      <trkpt lat="48.88585" lon="2.15854">
        <ele>33</ele>
        <time>2023-10-26T07:27:26.203+00:00</time>
      </trkpt>
      <trkpt lat="48.88579" lon="2.15849">
        <ele>33</ele>
        <time>2023-10-26T07:27:30.820+00:00</time>
      </trkpt>
      <trkpt lat="48.88574" lon="2.15845">
        <ele>33</ele>
        <time>2023-10-26T07:27:35.146+00:00</time>
      </trkpt>
      <trkpt lat="48.88569" lon="2.15841">
        <ele>30</ele>
        <time>2023-10-26T07:27:39.685+00:00</time>
      </trkpt>
      <trkpt lat="48.88563" lon="2.15838">
        <ele>30</ele>
        <time>2023-10-26T07:27:43.851+00:00</time>
      </trkpt>
      <trkpt lat="48.88558" lon="2.15832">
        <ele>30</ele>
        <time>2023-10-26T07:27:48.501+00:00</time>
      </trkpt>
      <trkpt lat="48.88554" lon="2.15826">
        <ele>30</ele>
        <time>2023-10-26T07:27:52.675+00:00</time>
      </trkpt>
      <trkpt lat="48.8855" lon="2.15821">
        <ele>30</ele>
        <time>2023-10-26T07:27:57.182+00:00</time>
      </trkpt>
      <trkpt lat="48.88545" lon="2.15818">
        <ele>31</ele>
        <time>2023-10-26T07:28:01.683+00:00</time>
      </trkpt>
      <trkpt lat="48.88539" lon="2.15815">
        <ele>27</ele>
        <time>2023-10-26T07:28:06.027+00:00</time>
      </trkpt>
      <trkpt lat="48.88535" lon="2.15812">
        <ele>27</ele>
        <time>2023-10-26T07:28:10.203+00:00</time>
      </trkpt>
      <trkpt lat="48.88531" lon="2.15809">
        <ele>27</ele>
        <time>2023-10-26T07:28:14.258+00:00</time>
      </trkpt>
      <trkpt lat="48.88528" lon="2.15808">
        <ele>27</ele>
        <time>2023-10-26T07:28:18.432+00:00</time>
      </trkpt>
      <trkpt lat="48.88524" lon="2.15807">
        <ele>27</ele>
        <time>2023-10-26T07:28:22.878+00:00</time>
      </trkpt>
      <trkpt lat="48.88521" lon="2.15811">
        <ele>27</ele>
        <time>2023-10-26T07:28:27.222+00:00</time>
      </trkpt>
      <trkpt lat="48.88515" lon="2.15809">
        <ele>27</ele>
        <time>2023-10-26T07:28:31.458+00:00</time>
      </trkpt>
      <trkpt lat="48.88508" lon="2.15804">
        <ele>25</ele>
        <time>2023-10-26T07:28:35.847+00:00</time>
      </trkpt>
      <trkpt lat="48.88501" lon="2.158">
        <ele>25</ele>
        <time>2023-10-26T07:28:40.254+00:00</time>
      </trkpt>
      <trkpt lat="48.88493" lon="2.15797">
        <ele>25</ele>
        <time>2023-10-26T07:28:44.734+00:00</time>
      </trkpt>
      <trkpt lat="48.88487" lon="2.15796">
        <ele>25</ele>
        <time>2023-10-26T07:28:48.601+00:00</time>
      </trkpt>
      <trkpt lat="48.88482" lon="2.15795">
        <ele>23</ele>
        <time>2023-10-26T07:28:53.252+00:00</time>
      </trkpt>
      <trkpt lat="48.88477" lon="2.15792">
        <ele>25</ele>
        <time>2023-10-26T07:28:57.187+00:00</time>
      </trkpt>
      <trkpt lat="48.88471" lon="2.15787">
        <ele>25</ele>
        <time>2023-10-26T07:29:01.837+00:00</time>
      </trkpt>
      <trkpt lat="48.88465" lon="2.15782">
        <ele>25</ele>
        <time>2023-10-26T07:29:06.364+00:00</time>
      </trkpt>
      <trkpt lat="48.8846" lon="2.15778">
        <ele>25</ele>
        <time>2023-10-26T07:29:10.662+00:00</time>
      </trkpt>
      <trkpt lat="48.88454" lon="2.15776">
        <ele>25</ele>
        <time>2023-10-26T07:29:15.074+00:00</time>
      </trkpt>
      <trkpt lat="48.88449" lon="2.15773">
        <ele>25</ele>
        <time>2023-10-26T07:29:19.456+00:00</time>
      </trkpt>
      <trkpt lat="48.88444" lon="2.1577">
        <ele>25</ele>
        <time>2023-10-26T07:29:23.898+00:00</time>
      </trkpt>
      <trkpt lat="48.88438" lon="2.15766">
        <ele>25</ele>
        <time>2023-10-26T07:29:28.191+00:00</time>
      </trkpt>
      <trkpt lat="48.88433" lon="2.15762">
        <ele>29</ele>
        <time>2023-10-26T07:29:32.581+00:00</time>
      </trkpt>
      <trkpt lat="48.88428" lon="2.15759">
        <ele>29</ele>
        <time>2023-10-26T07:29:36.896+00:00</time>
      </trkpt>
      <trkpt lat="48.88423" lon="2.15757">
        <ele>29</ele>
        <time>2023-10-26T07:29:41.308+00:00</time>
      </trkpt>
      <trkpt lat="48.88417" lon="2.15754">
        <ele>29</ele>
        <time>2023-10-26T07:29:45.725+00:00</time>
      </trkpt>
      <trkpt lat="48.88411" lon="2.15752">
        <ele>29</ele>
        <time>2023-10-26T07:29:50.132+00:00</time>
      </trkpt>
      <trkpt lat="48.88406" lon="2.1575">
        <ele>29</ele>
        <time>2023-10-26T07:29:54.555+00:00</time>
      </trkpt>
      <trkpt lat="48.88402" lon="2.15748">
        <ele>26</ele>
        <time>2023-10-26T07:29:58.920+00:00</time>
      </trkpt>
      <trkpt lat="48.88397" lon="2.15746">
        <ele>26</ele>
        <time>2023-10-26T07:30:03.248+00:00</time>
      </trkpt>
      <trkpt lat="48.88392" lon="2.15743">
        <ele>26</ele>
        <time>2023-10-26T07:30:07.660+00:00</time>
      </trkpt>
      <trkpt lat="48.88387" lon="2.15741">
        <ele>26</ele>
        <time>2023-10-26T07:30:12.191+00:00</time>
      </trkpt>
      <trkpt lat="48.88382" lon="2.15738">
        <ele>26</ele>
        <time>2023-10-26T07:30:16.603+00:00</time>
      </trkpt>
      <trkpt lat="48.88376" lon="2.15737">
        <ele>26</ele>
        <time>2023-10-26T07:30:21.015+00:00</time>
      </trkpt>
      <trkpt lat="48.88371" lon="2.15734">
        <ele>26</ele>
        <time>2023-10-26T07:30:25.641+00:00</time>
      </trkpt>
      <trkpt lat="48.88366" lon="2.15731">
        <ele>26</ele>
        <time>2023-10-26T07:30:30.077+00:00</time>
      </trkpt>
      <trkpt lat="48.88361" lon="2.15727">
        <ele>26</ele>
        <time>2023-10-26T07:30:34.584+00:00</time>
      </trkpt>
      <trkpt lat="48.88355" lon="2.15724">
        <ele>26</ele>
        <time>2023-10-26T07:30:38.987+00:00</time>
      </trkpt>
      <trkpt lat="48.8835" lon="2.15721">
        <ele>26</ele>
        <time>2023-10-26T07:30:43.432+00:00</time>
      </trkpt>
      <trkpt lat="48.88345" lon="2.15718">
        <ele>22</ele>
        <time>2023-10-26T07:30:47.844+00:00</time>
      </trkpt>
      <trkpt lat="48.88339" lon="2.15716">
        <ele>22</ele>
        <time>2023-10-26T07:30:52.256+00:00</time>
      </trkpt>
      <trkpt lat="48.88333" lon="2.15712">
        <ele>22</ele>
        <time>2023-10-26T07:30:56.548+00:00</time>
      </trkpt>
      <trkpt lat="48.88328" lon="2.1571">
        <ele>22</ele>
        <time>2023-10-26T07:31:01.028+00:00</time>
      </trkpt>
      <trkpt lat="48.88325" lon="2.15707">
        <ele>24</ele>
        <time>2023-10-26T07:31:05.372+00:00</time>
      </trkpt>
      <trkpt lat="48.88321" lon="2.15705">
        <ele>24</ele>
        <time>2023-10-26T07:31:09.307+00:00</time>
      </trkpt>
      <trkpt lat="48.88315" lon="2.15702">
        <ele>24</ele>
        <time>2023-10-26T07:31:13.838+00:00</time>
      </trkpt>
      <trkpt lat="48.88308" lon="2.15698">
        <ele>24</ele>
        <time>2023-10-26T07:31:18.607+00:00</time>
      </trkpt>
      <trkpt lat="48.88305" lon="2.15698">
        <ele>24</ele>
        <time>2023-10-26T07:31:23.257+00:00</time>
      </trkpt>
      <trkpt lat="48.88304" lon="2.15699">
        <ele>24</ele>
        <time>2023-10-26T07:31:27.311+00:00</time>
      </trkpt>
      <trkpt lat="48.88303" lon="2.15699">
        <ele>24</ele>
        <time>2023-10-26T07:31:31.842+00:00</time>
      </trkpt>
      <trkpt lat="48.88298" lon="2.15697">
        <ele>24</ele>
        <time>2023-10-26T07:31:35.896+00:00</time>
      </trkpt>
      <trkpt lat="48.88291" lon="2.15693">
        <ele>25</ele>
        <time>2023-10-26T07:31:40.702+00:00</time>
      </trkpt>
      <trkpt lat="48.88284" lon="2.15688">
        <ele>25</ele>
        <time>2023-10-26T07:31:45.124+00:00</time>
      </trkpt>
      <trkpt lat="48.88278" lon="2.15684">
        <ele>25</ele>
        <time>2023-10-26T07:31:49.012+00:00</time>
      </trkpt>
      <trkpt lat="48.88273" lon="2.15681">
        <ele>25</ele>
        <time>2023-10-26T07:31:53.702+00:00</time>
      </trkpt>
      <trkpt lat="48.88268" lon="2.1568">
        <ele>26</ele>
        <time>2023-10-26T07:31:58.074+00:00</time>
      </trkpt>
      <trkpt lat="48.88263" lon="2.15679">
        <ele>30</ele>
        <time>2023-10-26T07:32:02.384+00:00</time>
      </trkpt>
      <trkpt lat="48.88258" lon="2.15677">
        <ele>30</ele>
        <time>2023-10-26T07:32:06.726+00:00</time>
      </trkpt>
      <trkpt lat="48.88252" lon="2.15674">
        <ele>30</ele>
        <time>2023-10-26T07:32:10.594+00:00</time>
      </trkpt>
      <trkpt lat="48.88248" lon="2.15673">
        <ele>30</ele>
        <time>2023-10-26T07:32:15.006+00:00</time>
      </trkpt>
      <trkpt lat="48.88244" lon="2.15673">
        <ele>30</ele>
        <time>2023-10-26T07:32:19.457+00:00</time>
      </trkpt>
      <trkpt lat="48.88239" lon="2.15671">
        <ele>30</ele>
        <time>2023-10-26T07:32:24.068+00:00</time>
      </trkpt>
      <trkpt lat="48.88234" lon="2.15668">
        <ele>29</ele>
        <time>2023-10-26T07:32:28.598+00:00</time>
      </trkpt>
      <trkpt lat="48.88228" lon="2.15665">
        <ele>29</ele>
        <time>2023-10-26T07:32:33.129+00:00</time>
      </trkpt>
      <trkpt lat="48.88224" lon="2.15665">
        <ele>29</ele>
        <time>2023-10-26T07:32:37.645+00:00</time>
      </trkpt>
      <trkpt lat="48.88221" lon="2.15667">
        <ele>29</ele>
        <time>2023-10-26T07:32:41.818+00:00</time>
      </trkpt>
      <trkpt lat="48.88215" lon="2.15666">
        <ele>29</ele>
        <time>2023-10-26T07:32:46.245+00:00</time>
      </trkpt>
      <trkpt lat="48.88209" lon="2.15659">
        <ele>29</ele>
        <time>2023-10-26T07:32:50.801+00:00</time>
      </trkpt>
      <trkpt lat="48.88203" lon="2.15658">
        <ele>27</ele>
        <time>2023-10-26T07:32:54.829+00:00</time>
      </trkpt>
      <trkpt lat="48.88197" lon="2.15656">
        <ele>27</ele>
        <time>2023-10-26T07:32:59.475+00:00</time>
      </trkpt>
      <trkpt lat="48.88192" lon="2.15654">
        <ele>27</ele>
        <time>2023-10-26T07:33:03.805+00:00</time>
      </trkpt>
      <trkpt lat="48.88186" lon="2.15651">
        <ele>29</ele>
        <time>2023-10-26T07:33:08.101+00:00</time>
      </trkpt>
      <trkpt lat="48.88177" lon="2.15643">
        <ele>26</ele>
        <time>2023-10-26T07:33:37.275+00:00</time>
      </trkpt>
      <trkpt lat="48.88176" lon="2.15643">
        <ele>26</ele>
        <time>2023-10-26T07:33:42.044+00:00</time>
      </trkpt>
      <trkpt lat="48.88175" lon="2.1564">
        <ele>26</ele>
        <time>2023-10-26T07:33:46.217+00:00</time>
      </trkpt>
      <trkpt lat="48.88172" lon="2.15638">
        <ele>26</ele>
        <time>2023-10-26T07:33:50.271+00:00</time>
      </trkpt>
      <trkpt lat="48.88167" lon="2.15638">
        <ele>26</ele>
        <time>2023-10-26T07:33:54.683+00:00</time>
      </trkpt>
      <trkpt lat="48.88163" lon="2.15627">
        <ele>26</ele>
        <time>2023-10-26T07:33:58.856+00:00</time>
      </trkpt>
      <trkpt lat="48.8816" lon="2.15622">
        <ele>29</ele>
        <time>2023-10-26T07:34:03.029+00:00</time>
      </trkpt>
      <trkpt lat="48.88156" lon="2.15619">
        <ele>29</ele>
        <time>2023-10-26T07:34:07.702+00:00</time>
      </trkpt>
      <trkpt lat="48.88152" lon="2.15618">
        <ele>26</ele>
        <time>2023-10-26T07:34:11.852+00:00</time>
      </trkpt>
      <trkpt lat="48.88136" lon="2.15612">
        <ele>26</ele>
        <time>2023-10-26T07:34:28.186+00:00</time>
      </trkpt>
      <trkpt lat="48.88136" lon="2.1561">
        <ele>26</ele>
        <time>2023-10-26T07:34:33.432+00:00</time>
      </trkpt>
      <trkpt lat="48.88136" lon="2.1561">
        <ele>26</ele>
        <time>2023-10-26T07:34:38.202+00:00</time>
      </trkpt>
      <trkpt lat="48.88135" lon="2.1561">
        <ele>26</ele>
        <time>2023-10-26T07:34:42.255+00:00</time>
      </trkpt>
      <trkpt lat="48.88132" lon="2.15608">
        <ele>26</ele>
        <time>2023-10-26T07:34:47.263+00:00</time>
      </trkpt>
      <trkpt lat="48.88128" lon="2.15604">
        <ele>26</ele>
        <time>2023-10-26T07:34:51.674+00:00</time>
      </trkpt>
      <trkpt lat="48.88125" lon="2.156">
        <ele>27</ele>
        <time>2023-10-26T07:34:55.758+00:00</time>
      </trkpt>
      <trkpt lat="48.88124" lon="2.15595">
        <ele>27</ele>
        <time>2023-10-26T07:34:59.702+00:00</time>
      </trkpt>
      <trkpt lat="48.88125" lon="2.15591">
        <ele>29</ele>
        <time>2023-10-26T07:35:04.312+00:00</time>
      </trkpt>
      <trkpt lat="48.88124" lon="2.15589">
        <ele>27</ele>
        <time>2023-10-26T07:35:08.780+00:00</time>
      </trkpt>
      <trkpt lat="48.88121" lon="2.15587">
        <ele>27</ele>
        <time>2023-10-26T07:35:13.254+00:00</time>
      </trkpt>
      <trkpt lat="48.88114" lon="2.15585">
        <ele>27</ele>
        <time>2023-10-26T07:35:17.702+00:00</time>
      </trkpt>
      <trkpt lat="48.88107" lon="2.15583">
        <ele>27</ele>
        <time>2023-10-26T07:35:22.321+00:00</time>
      </trkpt>
      <trkpt lat="48.88102" lon="2.15579">
        <ele>27</ele>
        <time>2023-10-26T07:35:26.846+00:00</time>
      </trkpt>
      <trkpt lat="48.88097" lon="2.15576">
        <ele>28</ele>
        <time>2023-10-26T07:35:31.376+00:00</time>
      </trkpt>
      <trkpt lat="48.88092" lon="2.15574">
        <ele>28</ele>
        <time>2023-10-26T07:35:35.430+00:00</time>
      </trkpt>
      <trkpt lat="48.88086" lon="2.15571">
        <ele>28</ele>
        <time>2023-10-26T07:35:39.960+00:00</time>
      </trkpt>
      <trkpt lat="48.88082" lon="2.15568">
        <ele>29</ele>
        <time>2023-10-26T07:35:44.588+00:00</time>
      </trkpt>
      <trkpt lat="48.8808" lon="2.15567">
        <ele>29</ele>
        <time>2023-10-26T07:35:49.022+00:00</time>
      </trkpt>
      <trkpt lat="48.88075" lon="2.15564">
        <ele>29</ele>
        <time>2023-10-26T07:35:53.433+00:00</time>
      </trkpt>
      <trkpt lat="48.8807" lon="2.15561">
        <ele>29</ele>
        <time>2023-10-26T07:35:57.460+00:00</time>
      </trkpt>
      <trkpt lat="48.88064" lon="2.15558">
        <ele>28</ele>
        <time>2023-10-26T07:36:01.898+00:00</time>
      </trkpt>
      <trkpt lat="48.88059" lon="2.15555">
        <ele>28</ele>
        <time>2023-10-26T07:36:06.428+00:00</time>
      </trkpt>
      <trkpt lat="48.88054" lon="2.15552">
        <ele>28</ele>
        <time>2023-10-26T07:36:10.565+00:00</time>
      </trkpt>
      <trkpt lat="48.88049" lon="2.15548">
        <ele>28</ele>
        <time>2023-10-26T07:36:15.012+00:00</time>
      </trkpt>
      <trkpt lat="48.88043" lon="2.15545">
        <ele>28</ele>
        <time>2023-10-26T07:36:19.462+00:00</time>
      </trkpt>
      <trkpt lat="48.88038" lon="2.15542">
        <ele>28</ele>
        <time>2023-10-26T07:36:23.943+00:00</time>
      </trkpt>
      <trkpt lat="48.88033" lon="2.15538">
        <ele>28</ele>
        <time>2023-10-26T07:36:28.366+00:00</time>
      </trkpt>
      <trkpt lat="48.88028" lon="2.15534">
        <ele>28</ele>
        <time>2023-10-26T07:36:32.922+00:00</time>
      </trkpt>
      <trkpt lat="48.88023" lon="2.1553">
        <ele>28</ele>
        <time>2023-10-26T07:36:37.307+00:00</time>
      </trkpt>
      <trkpt lat="48.88018" lon="2.15527">
        <ele>28</ele>
        <time>2023-10-26T07:36:41.806+00:00</time>
      </trkpt>
      <trkpt lat="48.88013" lon="2.15526">
        <ele>30</ele>
        <time>2023-10-26T07:36:46.187+00:00</time>
      </trkpt>
      <trkpt lat="48.88008" lon="2.15521">
        <ele>30</ele>
        <time>2023-10-26T07:36:50.648+00:00</time>
      </trkpt>
      <trkpt lat="48.88002" lon="2.15517">
        <ele>30</ele>
        <time>2023-10-26T07:36:54.702+00:00</time>
      </trkpt>
      <trkpt lat="48.87995" lon="2.15513">
        <ele>31</ele>
        <time>2023-10-26T07:36:59.244+00:00</time>
      </trkpt>
      <trkpt lat="48.8799" lon="2.1551">
        <ele>31</ele>
        <time>2023-10-26T07:37:03.894+00:00</time>
      </trkpt>
      <trkpt lat="48.87986" lon="2.15507">
        <ele>31</ele>
        <time>2023-10-26T07:37:07.948+00:00</time>
      </trkpt>
      <trkpt lat="48.87984" lon="2.15505">
        <ele>32</ele>
        <time>2023-10-26T07:37:12.597+00:00</time>
      </trkpt>
      <trkpt lat="48.8798" lon="2.15502">
        <ele>32</ele>
        <time>2023-10-26T07:37:17.066+00:00</time>
      </trkpt>
      <trkpt lat="48.87973" lon="2.15497">
        <ele>32</ele>
        <time>2023-10-26T07:37:21.462+00:00</time>
      </trkpt>
      <trkpt lat="48.87966" lon="2.15492">
        <ele>32</ele>
        <time>2023-10-26T07:37:25.945+00:00</time>
      </trkpt>
      <trkpt lat="48.87962" lon="2.1549">
        <ele>32</ele>
        <time>2023-10-26T07:37:30.004+00:00</time>
      </trkpt>
      <trkpt lat="48.87957" lon="2.15488">
        <ele>32</ele>
        <time>2023-10-26T07:37:34.653+00:00</time>
      </trkpt>
      <trkpt lat="48.87951" lon="2.15487">
        <ele>32</ele>
        <time>2023-10-26T07:37:39.141+00:00</time>
      </trkpt>
      <trkpt lat="48.87944" lon="2.15485">
        <ele>31</ele>
        <time>2023-10-26T07:37:43.561+00:00</time>
      </trkpt>
      <trkpt lat="48.8794" lon="2.15481">
        <ele>31</ele>
        <time>2023-10-26T07:37:47.982+00:00</time>
      </trkpt>
      <trkpt lat="48.87935" lon="2.15478">
        <ele>31</ele>
        <time>2023-10-26T07:37:52.364+00:00</time>
      </trkpt>
      <trkpt lat="48.8793" lon="2.15472">
        <ele>31</ele>
        <time>2023-10-26T07:37:56.828+00:00</time>
      </trkpt>
      <trkpt lat="48.87925" lon="2.15467">
        <ele>31</ele>
        <time>2023-10-26T07:38:01.206+00:00</time>
      </trkpt>
      <trkpt lat="48.87919" lon="2.15463">
        <ele>31</ele>
        <time>2023-10-26T07:38:05.531+00:00</time>
      </trkpt>
      <trkpt lat="48.87914" lon="2.15459">
        <ele>31</ele>
        <time>2023-10-26T07:38:10.062+00:00</time>
      </trkpt>
      <trkpt lat="48.8791" lon="2.15455">
        <ele>31</ele>
        <time>2023-10-26T07:38:14.592+00:00</time>
      </trkpt>
      <trkpt lat="48.87905" lon="2.15451">
        <ele>31</ele>
        <time>2023-10-26T07:38:19.090+00:00</time>
      </trkpt>
      <trkpt lat="48.87901" lon="2.15448">
        <ele>29</ele>
        <time>2023-10-26T07:38:23.486+00:00</time>
      </trkpt>
      <trkpt lat="48.87897" lon="2.15445">
        <ele>29</ele>
        <time>2023-10-26T07:38:27.901+00:00</time>
      </trkpt>
      <trkpt lat="48.87893" lon="2.15443">
        <ele>29</ele>
        <time>2023-10-26T07:38:32.356+00:00</time>
      </trkpt>
      <trkpt lat="48.87888" lon="2.15439">
        <ele>29</ele>
        <time>2023-10-26T07:38:36.864+00:00</time>
      </trkpt>
      <trkpt lat="48.87882" lon="2.15436">
        <ele>29</ele>
        <time>2023-10-26T07:38:41.306+00:00</time>
      </trkpt>
      <trkpt lat="48.87876" lon="2.15432">
        <ele>29</ele>
        <time>2023-10-26T07:38:45.702+00:00</time>
      </trkpt>
      <trkpt lat="48.87871" lon="2.15429">
        <ele>28</ele>
        <time>2023-10-26T07:38:50.127+00:00</time>
      </trkpt>
      <trkpt lat="48.87865" lon="2.15427">
        <ele>28</ele>
        <time>2023-10-26T07:38:54.462+00:00</time>
      </trkpt>
      <trkpt lat="48.87861" lon="2.15424">
        <ele>28</ele>
        <time>2023-10-26T07:38:58.926+00:00</time>
      </trkpt>
      <trkpt lat="48.87856" lon="2.15421">
        <ele>28</ele>
        <time>2023-10-26T07:39:03.309+00:00</time>
      </trkpt>
      <trkpt lat="48.87851" lon="2.15417">
        <ele>28</ele>
        <time>2023-10-26T07:39:07.700+00:00</time>
      </trkpt>
      <trkpt lat="48.87846" lon="2.15414">
        <ele>29</ele>
        <time>2023-10-26T07:39:12.055+00:00</time>
      </trkpt>
      <trkpt lat="48.87841" lon="2.15412">
        <ele>29</ele>
        <time>2023-10-26T07:39:16.461+00:00</time>
      </trkpt>
      <trkpt lat="48.87836" lon="2.15408">
        <ele>29</ele>
        <time>2023-10-26T07:39:20.884+00:00</time>
      </trkpt>
      <trkpt lat="48.87832" lon="2.15401">
        <ele>29</ele>
        <time>2023-10-26T07:39:25.247+00:00</time>
      </trkpt>
      <trkpt lat="48.87828" lon="2.15393">
        <ele>29</ele>
        <time>2023-10-26T07:39:29.699+00:00</time>
      </trkpt>
      <trkpt lat="48.87823" lon="2.15386">
        <ele>29</ele>
        <time>2023-10-26T07:39:34.467+00:00</time>
      </trkpt>
      <trkpt lat="48.8782" lon="2.15379">
        <ele>29</ele>
        <time>2023-10-26T07:39:38.878+00:00</time>
      </trkpt>
      <trkpt lat="48.87816" lon="2.15372">
        <ele>29</ele>
        <time>2023-10-26T07:39:43.347+00:00</time>
      </trkpt>
      <trkpt lat="48.87812" lon="2.15365">
        <ele>29</ele>
        <time>2023-10-26T07:39:47.828+00:00</time>
      </trkpt>
      <trkpt lat="48.87811" lon="2.15359">
        <ele>29</ele>
        <time>2023-10-26T07:39:51.873+00:00</time>
      </trkpt>
      <trkpt lat="48.87815" lon="2.15352">
        <ele>29</ele>
        <time>2023-10-26T07:39:56.403+00:00</time>
      </trkpt>
      <trkpt lat="48.87822" lon="2.15337">
        <ele>32</ele>
        <time>2023-10-26T07:40:06.059+00:00</time>
      </trkpt>
      <trkpt lat="48.87827" lon="2.15331">
        <ele>32</ele>
        <time>2023-10-26T07:40:10.568+00:00</time>
      </trkpt>
      <trkpt lat="48.87831" lon="2.15325">
        <ele>32</ele>
        <time>2023-10-26T07:40:15+00:00</time>
      </trkpt>
      <trkpt lat="48.87834" lon="2.15319">
        <ele>32</ele>
        <time>2023-10-26T07:40:19.053+00:00</time>
      </trkpt>
      <trkpt lat="48.87836" lon="2.15311">
        <ele>32</ele>
        <time>2023-10-26T07:40:23.702+00:00</time>
      </trkpt>
      <trkpt lat="48.87833" lon="2.15302">
        <ele>32</ele>
        <time>2023-10-26T07:40:28.180+00:00</time>
      </trkpt>
      <trkpt lat="48.87828" lon="2.15294">
        <ele>32</ele>
        <time>2023-10-26T07:40:32.602+00:00</time>
      </trkpt>
      <trkpt lat="48.87822" lon="2.15288">
        <ele>33</ele>
        <time>2023-10-26T07:40:37.055+00:00</time>
      </trkpt>
      <trkpt lat="48.87815" lon="2.15284">
        <ele>31</ele>
        <time>2023-10-26T07:40:41.581+00:00</time>
      </trkpt>
      <trkpt lat="48.87809" lon="2.15279">
        <ele>31</ele>
        <time>2023-10-26T07:40:45.962+00:00</time>
      </trkpt>
      <trkpt lat="48.87797" lon="2.15268">
        <ele>31</ele>
        <time>2023-10-26T07:41:26.052+00:00</time>
      </trkpt>
      <trkpt lat="48.87796" lon="2.15267">
        <ele>31</ele>
        <time>2023-10-26T07:41:30.224+00:00</time>
      </trkpt>
      <trkpt lat="48.87795" lon="2.15266">
        <ele>31</ele>
        <time>2023-10-26T07:41:34.993+00:00</time>
      </trkpt>
      <trkpt lat="48.87792" lon="2.15261">
        <ele>32</ele>
        <time>2023-10-26T07:41:39.046+00:00</time>
      </trkpt>
      <trkpt lat="48.87788" lon="2.15253">
        <ele>31</ele>
        <time>2023-10-26T07:41:43.219+00:00</time>
      </trkpt>
      <trkpt lat="48.87783" lon="2.15246">
        <ele>31</ele>
        <time>2023-10-26T07:41:47.272+00:00</time>
      </trkpt>
      <trkpt lat="48.8778" lon="2.15239">
        <ele>31</ele>
        <time>2023-10-26T07:41:52.040+00:00</time>
      </trkpt>
      <trkpt lat="48.87778" lon="2.15234">
        <ele>32</ele>
        <time>2023-10-26T07:41:56.213+00:00</time>
      </trkpt>
      <trkpt lat="48.87778" lon="2.15232">
        <ele>32</ele>
        <time>2023-10-26T07:42:01.458+00:00</time>
      </trkpt>
      <trkpt lat="48.87776" lon="2.15235">
        <ele>32</ele>
        <time>2023-10-26T07:42:31.460+00:00</time>
      </trkpt>
      <trkpt lat="48.87776" lon="2.15235">
        <ele>32</ele>
        <time>2023-10-26T07:42:35.461+00:00</time>
      </trkpt>
      <trkpt lat="48.87777" lon="2.15242">
        <ele>31</ele>
        <time>2023-10-26T07:42:40.460+00:00</time>
      </trkpt>
      <trkpt lat="48.87776" lon="2.15247">
        <ele>31</ele>
        <time>2023-10-26T07:42:44.490+00:00</time>
      </trkpt>
      <trkpt lat="48.87775" lon="2.15253">
        <ele>31</ele>
        <time>2023-10-26T07:42:49.464+00:00</time>
      </trkpt>
      <trkpt lat="48.87773" lon="2.15258">
        <ele>31</ele>
        <time>2023-10-26T07:42:54.460+00:00</time>
      </trkpt>
      <trkpt lat="48.8777" lon="2.15263">
        <ele>31</ele>
        <time>2023-10-26T07:42:59.038+00:00</time>
      </trkpt>
      <trkpt lat="48.87769" lon="2.15267">
        <ele>30</ele>
        <time>2023-10-26T07:43:03.211+00:00</time>
      </trkpt>
      <trkpt lat="48.87766" lon="2.15274">
        <ele>30</ele>
        <time>2023-10-26T07:43:07.264+00:00</time>
      </trkpt>
      <trkpt lat="48.87764" lon="2.15286">
        <ele>30</ele>
        <time>2023-10-26T07:43:35.995+00:00</time>
      </trkpt>
      <trkpt lat="48.87764" lon="2.15286">
        <ele>30</ele>
        <time>2023-10-26T07:43:40.461+00:00</time>
      </trkpt>
      <trkpt lat="48.87764" lon="2.15288">
        <ele>30</ele>
        <time>2023-10-26T07:43:45.459+00:00</time>
      </trkpt>
      <trkpt lat="48.87762" lon="2.15288">
        <ele>29</ele>
        <time>2023-10-26T07:43:49.943+00:00</time>
      </trkpt>
      <trkpt lat="48.87761" lon="2.15295">
        <ele>28</ele>
        <time>2023-10-26T07:43:53.877+00:00</time>
      </trkpt>
      <trkpt lat="48.8776" lon="2.15308">
        <ele>28</ele>
        <time>2023-10-26T07:43:58.639+00:00</time>
      </trkpt>
      <trkpt lat="48.87758" lon="2.15318">
        <ele>28</ele>
        <time>2023-10-26T07:44:03.057+00:00</time>
      </trkpt>
      <trkpt lat="48.87755" lon="2.15326">
        <ele>27</ele>
        <time>2023-10-26T07:44:07.587+00:00</time>
      </trkpt>
      <trkpt lat="48.87751" lon="2.15331">
        <ele>27</ele>
        <time>2023-10-26T07:44:11.641+00:00</time>
      </trkpt>
      <trkpt lat="48.87749" lon="2.15335">
        <ele>27</ele>
        <time>2023-10-26T07:44:15.813+00:00</time>
      </trkpt>
      <trkpt lat="48.87747" lon="2.15337">
        <ele>27</ele>
        <time>2023-10-26T07:44:19.867+00:00</time>
      </trkpt>
      <trkpt lat="48.87742" lon="2.15332">
        <ele>27</ele>
        <time>2023-10-26T07:44:24.345+00:00</time>
      </trkpt>
      <trkpt lat="48.87737" lon="2.15326">
        <ele>27</ele>
        <time>2023-10-26T07:44:28.212+00:00</time>
      </trkpt>
      <trkpt lat="48.8773" lon="2.1532">
        <ele>27</ele>
        <time>2023-10-26T07:44:32.848+00:00</time>
      </trkpt>
      <trkpt lat="48.87725" lon="2.15317">
        <ele>28</ele>
        <time>2023-10-26T07:44:36.702+00:00</time>
      </trkpt>
      <trkpt lat="48.87723" lon="2.15317">
        <ele>28</ele>
        <time>2023-10-26T07:44:41.207+00:00</time>
      </trkpt>
      <trkpt lat="48.87723" lon="2.15316">
        <ele>28</ele>
        <time>2023-10-26T07:44:45.804+00:00</time>
      </trkpt>
      <trkpt lat="48.87721" lon="2.15315">
        <ele>28</ele>
        <time>2023-10-26T07:44:49.702+00:00</time>
      </trkpt>
      <trkpt lat="48.87718" lon="2.15312">
        <ele>28</ele>
        <time>2023-10-26T07:45:03.857+00:00</time>
      </trkpt>
      <trkpt lat="48.87717" lon="2.15306">
        <ele>28</ele>
        <time>2023-10-26T07:45:08.626+00:00</time>
      </trkpt>
      <trkpt lat="48.87712" lon="2.15296">
        <ele>28</ele>
        <time>2023-10-26T07:45:12.924+00:00</time>
      </trkpt>
      <trkpt lat="48.87706" lon="2.1529">
        <ele>30</ele>
        <time>2023-10-26T07:45:17.209+00:00</time>
      </trkpt>
      <trkpt lat="48.87701" lon="2.15284">
        <ele>30</ele>
        <time>2023-10-26T07:45:21.501+00:00</time>
      </trkpt>
      <trkpt lat="48.87697" lon="2.15278">
        <ele>30</ele>
        <time>2023-10-26T07:45:25.793+00:00</time>
      </trkpt>
      <trkpt lat="48.87692" lon="2.15271">
        <ele>30</ele>
        <time>2023-10-26T07:45:30.084+00:00</time>
      </trkpt>
      <trkpt lat="48.87688" lon="2.15263">
        <ele>31</ele>
        <time>2023-10-26T07:45:34.972+00:00</time>
      </trkpt>
      <trkpt lat="48.87683" lon="2.15257">
        <ele>31</ele>
        <time>2023-10-26T07:45:39.502+00:00</time>
      </trkpt>
      <trkpt lat="48.87679" lon="2.15251">
        <ele>31</ele>
        <time>2023-10-26T07:45:43.702+00:00</time>
      </trkpt>
      <trkpt lat="48.87674" lon="2.15246">
        <ele>31</ele>
        <time>2023-10-26T07:45:47.967+00:00</time>
      </trkpt>
      <trkpt lat="48.87669" lon="2.1524">
        <ele>31</ele>
        <time>2023-10-26T07:45:52.377+00:00</time>
      </trkpt>
      <trkpt lat="48.87664" lon="2.15233">
        <ele>29</ele>
        <time>2023-10-26T07:45:57.027+00:00</time>
      </trkpt>
      <trkpt lat="48.8766" lon="2.15226">
        <ele>29</ele>
        <time>2023-10-26T07:46:00.961+00:00</time>
      </trkpt>
      <trkpt lat="48.87656" lon="2.15221">
        <ele>29</ele>
        <time>2023-10-26T07:46:05.610+00:00</time>
      </trkpt>
      <trkpt lat="48.87651" lon="2.15216">
        <ele>27</ele>
        <time>2023-10-26T07:46:09.988+00:00</time>
      </trkpt>
      <trkpt lat="48.87647" lon="2.15209">
        <ele>27</ele>
        <time>2023-10-26T07:46:14.309+00:00</time>
      </trkpt>
      <trkpt lat="48.87644" lon="2.15203">
        <ele>27</ele>
        <time>2023-10-26T07:46:18.458+00:00</time>
      </trkpt>
      <trkpt lat="48.87639" lon="2.15198">
        <ele>27</ele>
        <time>2023-10-26T07:46:22.777+00:00</time>
      </trkpt>
      <trkpt lat="48.87633" lon="2.15193">
        <ele>27</ele>
        <time>2023-10-26T07:46:27.125+00:00</time>
      </trkpt>
      <trkpt lat="48.87628" lon="2.15188">
        <ele>27</ele>
        <time>2023-10-26T07:46:31.002+00:00</time>
      </trkpt>
      <trkpt lat="48.87624" lon="2.15183">
        <ele>25</ele>
        <time>2023-10-26T07:46:35.651+00:00</time>
      </trkpt>
      <trkpt lat="48.87619" lon="2.15176">
        <ele>27</ele>
        <time>2023-10-26T07:46:40.107+00:00</time>
      </trkpt>
      <trkpt lat="48.87615" lon="2.1517">
        <ele>27</ele>
        <time>2023-10-26T07:46:43.996+00:00</time>
      </trkpt>
      <trkpt lat="48.87616" lon="2.15165">
        <ele>27</ele>
        <time>2023-10-26T07:46:48.447+00:00</time>
      </trkpt>
      <trkpt lat="48.87614" lon="2.15164">
        <ele>27</ele>
        <time>2023-10-26T07:47:19.052+00:00</time>
      </trkpt>
      <trkpt lat="48.87608" lon="2.15157">
        <ele>27</ele>
        <time>2023-10-26T07:47:23.583+00:00</time>
      </trkpt>
      <trkpt lat="48.87595" lon="2.15141">
        <ele>29</ele>
        <time>2023-10-26T07:47:28.019+00:00</time>
      </trkpt>
      <trkpt lat="48.87583" lon="2.15127">
        <ele>29</ele>
        <time>2023-10-26T07:47:32.527+00:00</time>
      </trkpt>
      <trkpt lat="48.87576" lon="2.15117">
        <ele>30</ele>
        <time>2023-10-26T07:47:37.058+00:00</time>
      </trkpt>
      <trkpt lat="48.87572" lon="2.15114">
        <ele>30</ele>
        <time>2023-10-26T07:47:41.167+00:00</time>
      </trkpt>
      <trkpt lat="48.87569" lon="2.15109">
        <ele>28</ele>
        <time>2023-10-26T07:47:45.643+00:00</time>
      </trkpt>
      <trkpt lat="48.87565" lon="2.15103">
        <ele>28</ele>
        <time>2023-10-26T07:47:50.292+00:00</time>
      </trkpt>
      <trkpt lat="48.87561" lon="2.15096">
        <ele>28</ele>
        <time>2023-10-26T07:47:54.942+00:00</time>
      </trkpt>
      <trkpt lat="48.87556" lon="2.15092">
        <ele>28</ele>
        <time>2023-10-26T07:47:58.996+00:00</time>
      </trkpt>
      <trkpt lat="48.87554" lon="2.15088">
        <ele>28</ele>
        <time>2023-10-26T07:48:03.467+00:00</time>
      </trkpt>
      <trkpt lat="48.87549" lon="2.15086">
        <ele>28</ele>
        <time>2023-10-26T07:48:08.056+00:00</time>
      </trkpt>
      <trkpt lat="48.87544" lon="2.15082">
        <ele>28</ele>
        <time>2023-10-26T07:48:12.701+00:00</time>
      </trkpt>
      <trkpt lat="48.8754" lon="2.15079">
        <ele>27</ele>
        <time>2023-10-26T07:48:16.640+00:00</time>
      </trkpt>
      <trkpt lat="48.87535" lon="2.15073">
        <ele>27</ele>
        <time>2023-10-26T07:48:21.384+00:00</time>
      </trkpt>
      <trkpt lat="48.87532" lon="2.15067">
        <ele>28</ele>
        <time>2023-10-26T07:48:25.702+00:00</time>
      </trkpt>
      <trkpt lat="48.87529" lon="2.15062">
        <ele>28</ele>
        <time>2023-10-26T07:48:29.577+00:00</time>
      </trkpt>
      <trkpt lat="48.87524" lon="2.15056">
        <ele>28</ele>
        <time>2023-10-26T07:48:34.287+00:00</time>
      </trkpt>
      <trkpt lat="48.87519" lon="2.1505">
        <ele>28</ele>
        <time>2023-10-26T07:48:38.704+00:00</time>
      </trkpt>
      <trkpt lat="48.87514" lon="2.15044">
        <ele>28</ele>
        <time>2023-10-26T07:48:43.085+00:00</time>
      </trkpt>
      <trkpt lat="48.87511" lon="2.1504">
        <ele>29</ele>
        <time>2023-10-26T07:48:47.452+00:00</time>
      </trkpt>
      <trkpt lat="48.87508" lon="2.15035">
        <ele>29</ele>
        <time>2023-10-26T07:48:51.901+00:00</time>
      </trkpt>
      <trkpt lat="48.87504" lon="2.1503">
        <ele>29</ele>
        <time>2023-10-26T07:48:56.228+00:00</time>
      </trkpt>
      <trkpt lat="48.875" lon="2.15024">
        <ele>29</ele>
        <time>2023-10-26T07:49:00.640+00:00</time>
      </trkpt>
      <trkpt lat="48.87497" lon="2.15018">
        <ele>29</ele>
        <time>2023-10-26T07:49:05.051+00:00</time>
      </trkpt>
      <trkpt lat="48.87494" lon="2.15012">
        <ele>29</ele>
        <time>2023-10-26T07:49:09.437+00:00</time>
      </trkpt>
      <trkpt lat="48.8749" lon="2.15006">
        <ele>29</ele>
        <time>2023-10-26T07:49:13.800+00:00</time>
      </trkpt>
      <trkpt lat="48.87486" lon="2.15">
        <ele>28</ele>
        <time>2023-10-26T07:49:18.167+00:00</time>
      </trkpt>
      <trkpt lat="48.87483" lon="2.14995">
        <ele>28</ele>
        <time>2023-10-26T07:49:22.578+00:00</time>
      </trkpt>
      <trkpt lat="48.87479" lon="2.1499">
        <ele>28</ele>
        <time>2023-10-26T07:49:27.109+00:00</time>
      </trkpt>
      <trkpt lat="48.87476" lon="2.14985">
        <ele>27</ele>
        <time>2023-10-26T07:49:31.520+00:00</time>
      </trkpt>
      <trkpt lat="48.87472" lon="2.14979">
        <ele>27</ele>
        <time>2023-10-26T07:49:36.045+00:00</time>
      </trkpt>
      <trkpt lat="48.87468" lon="2.14973">
        <ele>27</ele>
        <time>2023-10-26T07:49:40.462+00:00</time>
      </trkpt>
      <trkpt lat="48.87464" lon="2.14967">
        <ele>27</ele>
        <time>2023-10-26T07:49:44.859+00:00</time>
      </trkpt>
      <trkpt lat="48.87461" lon="2.14962">
        <ele>27</ele>
        <time>2023-10-26T07:49:49.240+00:00</time>
      </trkpt>
      <trkpt lat="48.87453" lon="2.14946">
        <ele>24</ele>
        <time>2023-10-26T07:49:53.696+00:00</time>
      </trkpt>
      <trkpt lat="48.87448" lon="2.14938">
        <ele>24</ele>
        <time>2023-10-26T07:49:58.465+00:00</time>
      </trkpt>
      <trkpt lat="48.87452" lon="2.14938">
        <ele>24</ele>
        <time>2023-10-26T07:50:20.282+00:00</time>
      </trkpt>
      <trkpt lat="48.87437" lon="2.14928">
        <ele>26</ele>
        <time>2023-10-26T07:50:24.640+00:00</time>
      </trkpt>
      <trkpt lat="48.87424" lon="2.14926">
        <ele>25</ele>
        <time>2023-10-26T07:50:28.980+00:00</time>
      </trkpt>
      <trkpt lat="48.87417" lon="2.1492">
        <ele>25</ele>
        <time>2023-10-26T07:50:33.367+00:00</time>
      </trkpt>
      <trkpt lat="48.87414" lon="2.14911">
        <ele>25</ele>
        <time>2023-10-26T07:50:37.460+00:00</time>
      </trkpt>
      <trkpt lat="48.87413" lon="2.14903">
        <ele>25</ele>
        <time>2023-10-26T07:50:41.462+00:00</time>
      </trkpt>
      <trkpt lat="48.8741" lon="2.14897">
        <ele>26</ele>
        <time>2023-10-26T07:50:45.939+00:00</time>
      </trkpt>
      <trkpt lat="48.87406" lon="2.14889">
        <ele>26</ele>
        <time>2023-10-26T07:50:50.208+00:00</time>
      </trkpt>
      <trkpt lat="48.874" lon="2.1488">
        <ele>28</ele>
        <time>2023-10-26T07:50:54.858+00:00</time>
      </trkpt>
      <trkpt lat="48.87395" lon="2.14872">
        <ele>29</ele>
        <time>2023-10-26T07:50:59.463+00:00</time>
      </trkpt>
      <trkpt lat="48.87389" lon="2.14862">
        <ele>29</ele>
        <time>2023-10-26T07:51:03.744+00:00</time>
      </trkpt>
      <trkpt lat="48.87384" lon="2.1485">
        <ele>29</ele>
        <time>2023-10-26T07:51:08.057+00:00</time>
      </trkpt>
      <trkpt lat="48.87379" lon="2.14838">
        <ele>28</ele>
        <time>2023-10-26T07:51:12.579+00:00</time>
      </trkpt>
      <trkpt lat="48.87376" lon="2.14829">
        <ele>28</ele>
        <time>2023-10-26T07:51:16.888+00:00</time>
      </trkpt>
      <trkpt lat="48.87371" lon="2.14825">
        <ele>28</ele>
        <time>2023-10-26T07:51:21.211+00:00</time>
      </trkpt>
      <trkpt lat="48.87367" lon="2.14824">
        <ele>28</ele>
        <time>2023-10-26T07:51:25.563+00:00</time>
      </trkpt>
      <trkpt lat="48.87362" lon="2.14823">
        <ele>28</ele>
        <time>2023-10-26T07:51:29.558+00:00</time>
      </trkpt>
      <trkpt lat="48.87357" lon="2.14821">
        <ele>28</ele>
        <time>2023-10-26T07:51:34.208+00:00</time>
      </trkpt>
      <trkpt lat="48.87352" lon="2.14818">
        <ele>26</ele>
        <time>2023-10-26T07:51:38.501+00:00</time>
      </trkpt>
      <trkpt lat="48.87346" lon="2.14812">
        <ele>26</ele>
        <time>2023-10-26T07:51:42.758+00:00</time>
      </trkpt>
      <trkpt lat="48.87341" lon="2.14805">
        <ele>26</ele>
        <time>2023-10-26T07:51:46.847+00:00</time>
      </trkpt>
      <trkpt lat="48.87335" lon="2.14795">
        <ele>26</ele>
        <time>2023-10-26T07:51:51.378+00:00</time>
      </trkpt>
      <trkpt lat="48.87331" lon="2.14787">
        <ele>26</ele>
        <time>2023-10-26T07:51:55.702+00:00</time>
      </trkpt>
      <trkpt lat="48.87327" lon="2.14778">
        <ele>26</ele>
        <time>2023-10-26T07:52:00.166+00:00</time>
      </trkpt>
      <trkpt lat="48.87324" lon="2.14767">
        <ele>26</ele>
        <time>2023-10-26T07:52:04.576+00:00</time>
      </trkpt>
      <trkpt lat="48.87321" lon="2.14757">
        <ele>26</ele>
        <time>2023-10-26T07:52:08.978+00:00</time>
      </trkpt>
      <trkpt lat="48.87315" lon="2.14749">
        <ele>26</ele>
        <time>2023-10-26T07:52:13.262+00:00</time>
      </trkpt>
      <trkpt lat="48.87309" lon="2.14739">
        <ele>26</ele>
        <time>2023-10-26T07:52:17.585+00:00</time>
      </trkpt>
      <trkpt lat="48.87302" lon="2.14728">
        <ele>27</ele>
        <time>2023-10-26T07:52:22.019+00:00</time>
      </trkpt>
      <trkpt lat="48.87297" lon="2.14716">
        <ele>27</ele>
        <time>2023-10-26T07:52:26.702+00:00</time>
      </trkpt>
      <trkpt lat="48.87292" lon="2.14704">
        <ele>27</ele>
        <time>2023-10-26T07:52:31.090+00:00</time>
      </trkpt>
      <trkpt lat="48.87288" lon="2.14696">
        <ele>27</ele>
        <time>2023-10-26T07:52:35.352+00:00</time>
      </trkpt>
      <trkpt lat="48.87285" lon="2.14692">
        <ele>27</ele>
        <time>2023-10-26T07:52:39.643+00:00</time>
      </trkpt>
      <trkpt lat="48.87282" lon="2.14688">
        <ele>27</ele>
        <time>2023-10-26T07:52:43.957+00:00</time>
      </trkpt>
      <trkpt lat="48.87279" lon="2.14684">
        <ele>27</ele>
        <time>2023-10-26T07:52:48.011+00:00</time>
      </trkpt>
      <trkpt lat="48.87276" lon="2.14681">
        <ele>27</ele>
        <time>2023-10-26T07:52:52.704+00:00</time>
      </trkpt>
      <trkpt lat="48.87273" lon="2.14675">
        <ele>28</ele>
        <time>2023-10-26T07:52:57.191+00:00</time>
      </trkpt>
      <trkpt lat="48.87272" lon="2.14668">
        <ele>28</ele>
        <time>2023-10-26T07:53:01.484+00:00</time>
      </trkpt>
      <trkpt lat="48.87273" lon="2.14662">
        <ele>28</ele>
        <time>2023-10-26T07:53:05.657+00:00</time>
      </trkpt>
      <trkpt lat="48.8727" lon="2.14662">
        <ele>28</ele>
        <time>2023-10-26T07:53:10.307+00:00</time>
      </trkpt>
      <trkpt lat="48.87263" lon="2.14661">
        <ele>28</ele>
        <time>2023-10-26T07:53:14.838+00:00</time>
      </trkpt>
      <trkpt lat="48.8726" lon="2.14657">
        <ele>28</ele>
        <time>2023-10-26T07:53:17.819+00:00</time>
      </trkpt>
      <trkpt lat="48.87253" lon="2.14646">
        <ele>28</ele>
        <time>2023-10-26T07:53:24.974+00:00</time>
      </trkpt>
      <trkpt lat="48.87249" lon="2.14639">
        <ele>28</ele>
        <time>2023-10-26T07:53:29.625+00:00</time>
      </trkpt>
      <trkpt lat="48.87246" lon="2.14634">
        <ele>28</ele>
        <time>2023-10-26T07:53:33.680+00:00</time>
      </trkpt>
      <trkpt lat="48.87243" lon="2.14628">
        <ele>28</ele>
        <time>2023-10-26T07:53:38.211+00:00</time>
      </trkpt>
      <trkpt lat="48.87239" lon="2.14623">
        <ele>28</ele>
        <time>2023-10-26T07:53:42.658+00:00</time>
      </trkpt>
      <trkpt lat="48.87235" lon="2.14617">
        <ele>26</ele>
        <time>2023-10-26T07:53:46.678+00:00</time>
      </trkpt>
      <trkpt lat="48.87232" lon="2.1461">
        <ele>26</ele>
        <time>2023-10-26T07:53:51.448+00:00</time>
      </trkpt>
      <trkpt lat="48.87229" lon="2.14603">
        <ele>26</ele>
        <time>2023-10-26T07:53:55.945+00:00</time>
      </trkpt>
      <trkpt lat="48.87226" lon="2.14596">
        <ele>26</ele>
        <time>2023-10-26T07:54:00.271+00:00</time>
      </trkpt>
      <trkpt lat="48.87222" lon="2.1459">
        <ele>26</ele>
        <time>2023-10-26T07:54:04.445+00:00</time>
      </trkpt>
      <trkpt lat="48.8722" lon="2.14582">
        <ele>26</ele>
        <time>2023-10-26T07:54:08.619+00:00</time>
      </trkpt>
      <trkpt lat="48.87215" lon="2.14574">
        <ele>26</ele>
        <time>2023-10-26T07:54:13.151+00:00</time>
      </trkpt>
      <trkpt lat="48.87213" lon="2.14566">
        <ele>26</ele>
        <time>2023-10-26T07:54:17.666+00:00</time>
      </trkpt>
      <trkpt lat="48.87209" lon="2.14559">
        <ele>26</ele>
        <time>2023-10-26T07:54:21.976+00:00</time>
      </trkpt>
      <trkpt lat="48.87205" lon="2.14551">
        <ele>24</ele>
        <time>2023-10-26T07:54:26.388+00:00</time>
      </trkpt>
      <trkpt lat="48.87202" lon="2.14545">
        <ele>24</ele>
        <time>2023-10-26T07:54:30.801+00:00</time>
      </trkpt>
      <trkpt lat="48.87198" lon="2.14538">
        <ele>24</ele>
        <time>2023-10-26T07:54:35.178+00:00</time>
      </trkpt>
      <trkpt lat="48.87194" lon="2.14531">
        <ele>24</ele>
        <time>2023-10-26T07:54:39.458+00:00</time>
      </trkpt>
      <trkpt lat="48.8719" lon="2.14526">
        <ele>24</ele>
        <time>2023-10-26T07:54:43.984+00:00</time>
      </trkpt>
      <trkpt lat="48.87186" lon="2.14518">
        <ele>24</ele>
        <time>2023-10-26T07:54:47.972+00:00</time>
      </trkpt>
      <trkpt lat="48.87184" lon="2.14511">
        <ele>24</ele>
        <time>2023-10-26T07:54:52.622+00:00</time>
      </trkpt>
      <trkpt lat="48.8718" lon="2.14502">
        <ele>23</ele>
        <time>2023-10-26T07:54:57.157+00:00</time>
      </trkpt>
      <trkpt lat="48.87178" lon="2.14494">
        <ele>23</ele>
        <time>2023-10-26T07:55:01.207+00:00</time>
      </trkpt>
      <trkpt lat="48.87175" lon="2.14487">
        <ele>23</ele>
        <time>2023-10-26T07:55:05.619+00:00</time>
      </trkpt>
      <trkpt lat="48.87172" lon="2.14479">
        <ele>24</ele>
        <time>2023-10-26T07:55:10.269+00:00</time>
      </trkpt>
      <trkpt lat="48.87169" lon="2.1447">
        <ele>24</ele>
        <time>2023-10-26T07:55:15.038+00:00</time>
      </trkpt>
      <trkpt lat="48.87165" lon="2.14464">
        <ele>24</ele>
        <time>2023-10-26T07:55:19.758+00:00</time>
      </trkpt>
      <trkpt lat="48.87162" lon="2.14457">
        <ele>26</ele>
        <time>2023-10-26T07:55:24.100+00:00</time>
      </trkpt>
      <trkpt lat="48.87159" lon="2.14449">
        <ele>26</ele>
        <time>2023-10-26T07:55:28.512+00:00</time>
      </trkpt>
      <trkpt lat="48.87156" lon="2.14443">
        <ele>26</ele>
        <time>2023-10-26T07:55:33.043+00:00</time>
      </trkpt>
      <trkpt lat="48.87153" lon="2.14435">
        <ele>26</ele>
        <time>2023-10-26T07:55:37.335+00:00</time>
      </trkpt>
      <trkpt lat="48.8715" lon="2.14428">
        <ele>26</ele>
        <time>2023-10-26T07:55:41.726+00:00</time>
      </trkpt>
      <trkpt lat="48.87147" lon="2.1442">
        <ele>26</ele>
        <time>2023-10-26T07:55:45.800+00:00</time>
      </trkpt>
      <trkpt lat="48.87144" lon="2.14408">
        <ele>26</ele>
        <time>2023-10-26T07:55:50.450+00:00</time>
      </trkpt>
      <trkpt lat="48.87145" lon="2.14402">
        <ele>26</ele>
        <time>2023-10-26T07:55:54.965+00:00</time>
      </trkpt>
      <trkpt lat="48.87144" lon="2.14392">
        <ele>26</ele>
        <time>2023-10-26T07:55:59.273+00:00</time>
      </trkpt>
      <trkpt lat="48.87141" lon="2.14386">
        <ele>26</ele>
        <time>2023-10-26T07:56:03.803+00:00</time>
      </trkpt>
      <trkpt lat="48.87137" lon="2.14377">
        <ele>26</ele>
        <time>2023-10-26T07:56:08.214+00:00</time>
      </trkpt>
      <trkpt lat="48.87133" lon="2.1437">
        <ele>26</ele>
        <time>2023-10-26T07:56:12.625+00:00</time>
      </trkpt>
      <trkpt lat="48.87131" lon="2.14362">
        <ele>26</ele>
        <time>2023-10-26T07:56:17.036+00:00</time>
      </trkpt>
      <trkpt lat="48.87128" lon="2.14354">
        <ele>26</ele>
        <time>2023-10-26T07:56:20.971+00:00</time>
      </trkpt>
      <trkpt lat="48.87127" lon="2.14348">
        <ele>26</ele>
        <time>2023-10-26T07:56:25.620+00:00</time>
      </trkpt>
      <trkpt lat="48.87123" lon="2.14341">
        <ele>28</ele>
        <time>2023-10-26T07:56:30.245+00:00</time>
      </trkpt>
      <trkpt lat="48.8712" lon="2.14333">
        <ele>28</ele>
        <time>2023-10-26T07:56:34.562+00:00</time>
      </trkpt>
      <trkpt lat="48.87118" lon="2.14325">
        <ele>28</ele>
        <time>2023-10-26T07:56:38.973+00:00</time>
      </trkpt>
      <trkpt lat="48.87116" lon="2.14316">
        <ele>29</ele>
        <time>2023-10-26T07:56:43.765+00:00</time>
      </trkpt>
      <trkpt lat="48.87112" lon="2.14309">
        <ele>29</ele>
        <time>2023-10-26T07:56:48.128+00:00</time>
      </trkpt>
      <trkpt lat="48.87109" lon="2.14301">
        <ele>29</ele>
        <time>2023-10-26T07:56:52.539+00:00</time>
      </trkpt>
      <trkpt lat="48.87107" lon="2.1429">
        <ele>30</ele>
        <time>2023-10-26T07:56:56.855+00:00</time>
      </trkpt>
      <trkpt lat="48.87104" lon="2.14283">
        <ele>30</ele>
        <time>2023-10-26T07:57:00.908+00:00</time>
      </trkpt>
      <trkpt lat="48.87104" lon="2.14275">
        <ele>30</ele>
        <time>2023-10-26T07:57:05.439+00:00</time>
      </trkpt>
      <trkpt lat="48.87102" lon="2.14265">
        <ele>30</ele>
        <time>2023-10-26T07:57:09.969+00:00</time>
      </trkpt>
      <trkpt lat="48.87099" lon="2.14259">
        <ele>30</ele>
        <time>2023-10-26T07:57:14.380+00:00</time>
      </trkpt>
      <trkpt lat="48.87097" lon="2.14252">
        <ele>29</ele>
        <time>2023-10-26T07:57:18.702+00:00</time>
      </trkpt>
      <trkpt lat="48.87096" lon="2.14243">
        <ele>29</ele>
        <time>2023-10-26T07:57:23.167+00:00</time>
      </trkpt>
      <trkpt lat="48.87094" lon="2.14235">
        <ele>28</ele>
        <time>2023-10-26T07:57:27.016+00:00</time>
      </trkpt>
      <trkpt lat="48.87093" lon="2.14227">
        <ele>28</ele>
        <time>2023-10-26T07:57:31.665+00:00</time>
      </trkpt>
      <trkpt lat="48.87092" lon="2.14218">
        <ele>28</ele>
        <time>2023-10-26T07:57:35.838+00:00</time>
      </trkpt>
      <trkpt lat="48.87091" lon="2.1421">
        <ele>28</ele>
        <time>2023-10-26T07:57:40.487+00:00</time>
      </trkpt>
      <trkpt lat="48.87091" lon="2.14202">
        <ele>27</ele>
        <time>2023-10-26T07:57:44.905+00:00</time>
      </trkpt>
      <trkpt lat="48.87092" lon="2.14194">
        <ele>27</ele>
        <time>2023-10-26T07:57:49.305+00:00</time>
      </trkpt>
      <trkpt lat="48.87092" lon="2.14187">
        <ele>27</ele>
        <time>2023-10-26T07:57:53.687+00:00</time>
      </trkpt>
      <trkpt lat="48.87092" lon="2.1418">
        <ele>26</ele>
        <time>2023-10-26T07:57:58.010+00:00</time>
      </trkpt>
      <trkpt lat="48.87092" lon="2.14172">
        <ele>26</ele>
        <time>2023-10-26T07:58:02.420+00:00</time>
      </trkpt>
      <trkpt lat="48.87093" lon="2.14165">
        <ele>26</ele>
        <time>2023-10-26T07:58:06.805+00:00</time>
      </trkpt>
      <trkpt lat="48.87093" lon="2.14161">
        <ele>26</ele>
        <time>2023-10-26T07:58:10.884+00:00</time>
      </trkpt>
      <trkpt lat="48.87093" lon="2.14159">
        <ele>26</ele>
        <time>2023-10-26T07:58:16.204+00:00</time>
      </trkpt>
      <trkpt lat="48.87093" lon="2.14158">
        <ele>26</ele>
        <time>2023-10-26T07:58:20.182+00:00</time>
      </trkpt>
      <trkpt lat="48.87094" lon="2.14155">
        <ele>26</ele>
        <time>2023-10-26T07:58:24.786+00:00</time>
      </trkpt>
      <trkpt lat="48.87094" lon="2.1415">
        <ele>25</ele>
        <time>2023-10-26T07:58:29.108+00:00</time>
      </trkpt>
      <trkpt lat="48.87096" lon="2.1413">
        <ele>25</ele>
        <time>2023-10-26T07:58:33.413+00:00</time>
      </trkpt>
      <trkpt lat="48.87097" lon="2.14125">
        <ele>25</ele>
        <time>2023-10-26T07:58:37.760+00:00</time>
      </trkpt>
      <trkpt lat="48.87097" lon="2.1411">
        <ele>25</ele>
        <time>2023-10-26T07:58:42.041+00:00</time>
      </trkpt>
      <trkpt lat="48.87098" lon="2.14096">
        <ele>26</ele>
        <time>2023-10-26T07:58:46.288+00:00</time>
      </trkpt>
      <trkpt lat="48.87099" lon="2.14083">
        <ele>26</ele>
        <time>2023-10-26T07:58:50.704+00:00</time>
      </trkpt>
      <trkpt lat="48.87101" lon="2.1407">
        <ele>26</ele>
        <time>2023-10-26T07:58:54.990+00:00</time>
      </trkpt>
      <trkpt lat="48.87102" lon="2.14059">
        <ele>26</ele>
        <time>2023-10-26T07:58:59.345+00:00</time>
      </trkpt>
      <trkpt lat="48.87103" lon="2.14048">
        <ele>26</ele>
        <time>2023-10-26T07:59:03.687+00:00</time>
      </trkpt>
      <trkpt lat="48.87105" lon="2.14037">
        <ele>26</ele>
        <time>2023-10-26T07:59:08.070+00:00</time>
      </trkpt>
      <trkpt lat="48.87107" lon="2.14039">
        <ele>26</ele>
        <time>2023-10-26T07:59:12.513+00:00</time>
      </trkpt>
      <trkpt lat="48.87108" lon="2.14027">
        <ele>26</ele>
        <time>2023-10-26T07:59:16.566+00:00</time>
      </trkpt>
      <trkpt lat="48.87109" lon="2.14015">
        <ele>26</ele>
        <time>2023-10-26T07:59:21.215+00:00</time>
      </trkpt>
      <trkpt lat="48.87111" lon="2.14002">
        <ele>27</ele>
        <time>2023-10-26T07:59:25.582+00:00</time>
      </trkpt>
      <trkpt lat="48.87112" lon="2.1399">
        <ele>27</ele>
        <time>2023-10-26T07:59:30.037+00:00</time>
      </trkpt>
      <trkpt lat="48.87112" lon="2.13978">
        <ele>29</ele>
        <time>2023-10-26T07:59:34.686+00:00</time>
      </trkpt>
      <trkpt lat="48.87111" lon="2.13967">
        <ele>29</ele>
        <time>2023-10-26T07:59:39.216+00:00</time>
      </trkpt>
      <trkpt lat="48.8711" lon="2.13957">
        <ele>29</ele>
        <time>2023-10-26T07:59:43.269+00:00</time>
      </trkpt>
      <trkpt lat="48.8711" lon="2.13949">
        <ele>29</ele>
        <time>2023-10-26T07:59:47.442+00:00</time>
      </trkpt>
      <trkpt lat="48.8711" lon="2.13941">
        <ele>29</ele>
        <time>2023-10-26T07:59:51.853+00:00</time>
      </trkpt>
      <trkpt lat="48.87111" lon="2.13933">
        <ele>29</ele>
        <time>2023-10-26T07:59:56.263+00:00</time>
      </trkpt>
      <trkpt lat="48.87112" lon="2.13924">
        <ele>29</ele>
        <time>2023-10-26T08:00:00.702+00:00</time>
      </trkpt>
      <trkpt lat="48.87113" lon="2.13924">
        <ele>29</ele>
        <time>2023-10-26T08:00:18.423+00:00</time>
      </trkpt>
      <trkpt lat="48.87109" lon="2.13989">
        <ele>27</ele>
        <time>2023-10-26T08:00:22.824+00:00</time>
      </trkpt>
      <trkpt lat="48.87105" lon="2.14042">
        <ele>26</ele>
        <time>2023-10-26T08:00:27.265+00:00</time>
      </trkpt>
      <trkpt lat="48.87103" lon="2.1408">
        <ele>26</ele>
        <time>2023-10-26T08:00:31.669+00:00</time>
      </trkpt>
      <trkpt lat="48.87102" lon="2.14108">
        <ele>26</ele>
        <time>2023-10-26T08:00:36.080+00:00</time>
      </trkpt>
      <trkpt lat="48.87102" lon="2.14126">
        <ele>26</ele>
        <time>2023-10-26T08:00:40.585+00:00</time>
      </trkpt>
      <trkpt lat="48.87102" lon="2.14136">
        <ele>26</ele>
        <time>2023-10-26T08:00:44.901+00:00</time>
      </trkpt>
      <trkpt lat="48.87101" lon="2.1414">
        <ele>26</ele>
        <time>2023-10-26T08:00:49.312+00:00</time>
      </trkpt>
      <trkpt lat="48.87101" lon="2.14141">
        <ele>26</ele>
        <time>2023-10-26T08:00:53.604+00:00</time>
      </trkpt>
      <trkpt lat="48.87101" lon="2.14093">
        <ele>26</ele>
        <time>2023-10-26T08:01:38.166+00:00</time>
      </trkpt>
      <trkpt lat="48.871" lon="2.14091">
        <ele>26</ele>
        <time>2023-10-26T08:01:42.600+00:00</time>
      </trkpt>
      <trkpt lat="48.871" lon="2.14087">
        <ele>26</ele>
        <time>2023-10-26T08:01:46.985+00:00</time>
      </trkpt>
      <trkpt lat="48.87099" lon="2.14082">
        <ele>26</ele>
        <time>2023-10-26T08:01:51.303+00:00</time>
      </trkpt>
      <trkpt lat="48.87079" lon="2.13732">
        <ele>25</ele>
        <time>2023-10-26T08:01:55.926+00:00</time>
      </trkpt>
      <trkpt lat="48.87079" lon="2.13725">
        <ele>25</ele>
        <time>2023-10-26T08:02:00.482+00:00</time>
      </trkpt>
      <trkpt lat="48.87078" lon="2.1372">
        <ele>25</ele>
        <time>2023-10-26T08:02:04.799+00:00</time>
      </trkpt>
      <trkpt lat="48.87077" lon="2.1371">
        <ele>25</ele>
        <time>2023-10-26T08:02:09.161+00:00</time>
      </trkpt>
      <trkpt lat="48.87096" lon="2.14205">
        <ele>27</ele>
        <time>2023-10-26T08:02:17.962+00:00</time>
      </trkpt>
      <trkpt lat="48.87088" lon="2.13597">
        <ele>25</ele>
        <time>2023-10-26T08:04:06.729+00:00</time>
      </trkpt>
      <trkpt lat="48.87091" lon="2.13624">
        <ele>26</ele>
        <time>2023-10-26T08:04:11.147+00:00</time>
      </trkpt>
      <trkpt lat="48.87097" lon="2.13652">
        <ele>26</ele>
        <time>2023-10-26T08:04:15.432+00:00</time>
      </trkpt>
      <trkpt lat="48.871" lon="2.13669">
        <ele>29</ele>
        <time>2023-10-26T08:04:19.800+00:00</time>
      </trkpt>
      <trkpt lat="48.871" lon="2.13687">
        <ele>28</ele>
        <time>2023-10-26T08:04:23.897+00:00</time>
      </trkpt>
      <trkpt lat="48.87101" lon="2.13701">
        <ele>28</ele>
        <time>2023-10-26T08:04:28.459+00:00</time>
      </trkpt>
      <trkpt lat="48.87105" lon="2.13714">
        <ele>27</ele>
        <time>2023-10-26T08:04:32.838+00:00</time>
      </trkpt>
      <trkpt lat="48.87127" lon="2.137">
        <ele>29</ele>
        <time>2023-10-26T08:04:37.205+00:00</time>
      </trkpt>
      <trkpt lat="48.87143" lon="2.13669">
        <ele>29</ele>
        <time>2023-10-26T08:04:41.606+00:00</time>
      </trkpt>
      <trkpt lat="48.8715" lon="2.13647">
        <ele>29</ele>
        <time>2023-10-26T08:04:45.951+00:00</time>
      </trkpt>
      <trkpt lat="48.87153" lon="2.13628">
        <ele>29</ele>
        <time>2023-10-26T08:04:50.461+00:00</time>
      </trkpt>
      <trkpt lat="48.87153" lon="2.13607">
        <ele>29</ele>
        <time>2023-10-26T08:04:54.946+00:00</time>
      </trkpt>
      <trkpt lat="48.87145" lon="2.13578">
        <ele>29</ele>
        <time>2023-10-26T08:04:59.378+00:00</time>
      </trkpt>
      <trkpt lat="48.87138" lon="2.1355">
        <ele>29</ele>
        <time>2023-10-26T08:05:03.799+00:00</time>
      </trkpt>
      <trkpt lat="48.87133" lon="2.13523">
        <ele>29</ele>
        <time>2023-10-26T08:05:07.702+00:00</time>
      </trkpt>
      <trkpt lat="48.87119" lon="2.1346">
        <ele>26</ele>
        <time>2023-10-26T08:05:11.225+00:00</time>
      </trkpt>
      <trkpt lat="48.87107" lon="2.13347">
        <ele>25</ele>
        <time>2023-10-26T08:05:29.824+00:00</time>
      </trkpt>
      <trkpt lat="48.87107" lon="2.13346">
        <ele>25</ele>
        <time>2023-10-26T08:05:33.997+00:00</time>
      </trkpt>
      <trkpt lat="48.87107" lon="2.13345">
        <ele>25</ele>
        <time>2023-10-26T08:05:38.622+00:00</time>
      </trkpt>
      <trkpt lat="48.87107" lon="2.13338">
        <ele>25</ele>
        <time>2023-10-26T08:05:42.581+00:00</time>
      </trkpt>
      <trkpt lat="48.87109" lon="2.13331">
        <ele>25</ele>
        <time>2023-10-26T08:05:46.992+00:00</time>
      </trkpt>
      <trkpt lat="48.8711" lon="2.13324">
        <ele>25</ele>
        <time>2023-10-26T08:05:51.046+00:00</time>
      </trkpt>
      <trkpt lat="48.87111" lon="2.13314">
        <ele>25</ele>
        <time>2023-10-26T08:05:55.815+00:00</time>
      </trkpt>
      <trkpt lat="48.87112" lon="2.13307">
        <ele>25</ele>
        <time>2023-10-26T08:05:59.869+00:00</time>
      </trkpt>
      <trkpt lat="48.87113" lon="2.133">
        <ele>25</ele>
        <time>2023-10-26T08:06:04.042+00:00</time>
      </trkpt>
      <trkpt lat="48.87115" lon="2.13292">
        <ele>25</ele>
        <time>2023-10-26T08:06:08.811+00:00</time>
      </trkpt>
      <trkpt lat="48.87116" lon="2.13284">
        <ele>25</ele>
        <time>2023-10-26T08:06:13.458+00:00</time>
      </trkpt>
      <trkpt lat="48.87117" lon="2.13276">
        <ele>25</ele>
        <time>2023-10-26T08:06:17.601+00:00</time>
      </trkpt>
      <trkpt lat="48.87118" lon="2.13268">
        <ele>25</ele>
        <time>2023-10-26T08:06:22.045+00:00</time>
      </trkpt>
      <trkpt lat="48.8712" lon="2.1326">
        <ele>25</ele>
        <time>2023-10-26T08:06:26.695+00:00</time>
      </trkpt>
      <trkpt lat="48.87122" lon="2.13252">
        <ele>25</ele>
        <time>2023-10-26T08:06:31.226+00:00</time>
      </trkpt>
      <trkpt lat="48.87123" lon="2.13243">
        <ele>25</ele>
        <time>2023-10-26T08:06:35.702+00:00</time>
      </trkpt>
      <trkpt lat="48.87124" lon="2.13236">
        <ele>25</ele>
        <time>2023-10-26T08:06:40.049+00:00</time>
      </trkpt>
      <trkpt lat="48.87126" lon="2.13228">
        <ele>26</ele>
        <time>2023-10-26T08:06:43.983+00:00</time>
      </trkpt>
      <trkpt lat="48.87127" lon="2.1322">
        <ele>26</ele>
        <time>2023-10-26T08:06:48.037+00:00</time>
      </trkpt>
      <trkpt lat="48.87129" lon="2.1321">
        <ele>26</ele>
        <time>2023-10-26T08:06:52.806+00:00</time>
      </trkpt>
      <trkpt lat="48.87132" lon="2.13202">
        <ele>27</ele>
        <time>2023-10-26T08:06:56.860+00:00</time>
      </trkpt>
      <trkpt lat="48.87135" lon="2.13193">
        <ele>27</ele>
        <time>2023-10-26T08:07:01.206+00:00</time>
      </trkpt>
      <trkpt lat="48.87136" lon="2.13186">
        <ele>27</ele>
        <time>2023-10-26T08:07:05.206+00:00</time>
      </trkpt>
      <trkpt lat="48.87139" lon="2.13178">
        <ele>27</ele>
        <time>2023-10-26T08:07:09.855+00:00</time>
      </trkpt>
      <trkpt lat="48.8714" lon="2.1317">
        <ele>27</ele>
        <time>2023-10-26T08:07:14.261+00:00</time>
      </trkpt>
      <trkpt lat="48.87141" lon="2.13162">
        <ele>27</ele>
        <time>2023-10-26T08:07:18.320+00:00</time>
      </trkpt>
      <trkpt lat="48.87142" lon="2.13153">
        <ele>27</ele>
        <time>2023-10-26T08:07:22.851+00:00</time>
      </trkpt>
      <trkpt lat="48.87145" lon="2.13143">
        <ele>27</ele>
        <time>2023-10-26T08:07:27.143+00:00</time>
      </trkpt>
      <trkpt lat="48.87148" lon="2.13133">
        <ele>27</ele>
        <time>2023-10-26T08:07:31.673+00:00</time>
      </trkpt>
      <trkpt lat="48.87149" lon="2.13126">
        <ele>27</ele>
        <time>2023-10-26T08:07:36.204+00:00</time>
      </trkpt>
      <trkpt lat="48.87151" lon="2.13117">
        <ele>26</ele>
        <time>2023-10-26T08:07:40.734+00:00</time>
      </trkpt>
      <trkpt lat="48.87152" lon="2.13109">
        <ele>26</ele>
        <time>2023-10-26T08:07:45.239+00:00</time>
      </trkpt>
      <trkpt lat="48.87155" lon="2.13101">
        <ele>27</ele>
        <time>2023-10-26T08:07:49.676+00:00</time>
      </trkpt>
      <trkpt lat="48.87157" lon="2.13094">
        <ele>27</ele>
        <time>2023-10-26T08:07:54.445+00:00</time>
      </trkpt>
      <trkpt lat="48.8716" lon="2.13087">
        <ele>27</ele>
        <time>2023-10-26T08:07:58.856+00:00</time>
      </trkpt>
      <trkpt lat="48.87164" lon="2.13079">
        <ele>27</ele>
        <time>2023-10-26T08:08:03.263+00:00</time>
      </trkpt>
      <trkpt lat="48.87168" lon="2.1307">
        <ele>27</ele>
        <time>2023-10-26T08:08:07.702+00:00</time>
      </trkpt>
      <trkpt lat="48.87171" lon="2.13065">
        <ele>26</ele>
        <time>2023-10-26T08:08:12.090+00:00</time>
      </trkpt>
      <trkpt lat="48.87174" lon="2.13057">
        <ele>26</ele>
        <time>2023-10-26T08:08:16.459+00:00</time>
      </trkpt>
      <trkpt lat="48.87177" lon="2.1305">
        <ele>26</ele>
        <time>2023-10-26T08:08:20.720+00:00</time>
      </trkpt>
      <trkpt lat="48.8718" lon="2.13043">
        <ele>26</ele>
        <time>2023-10-26T08:08:25.159+00:00</time>
      </trkpt>
      <trkpt lat="48.87183" lon="2.13035">
        <ele>26</ele>
        <time>2023-10-26T08:08:29.463+00:00</time>
      </trkpt>
      <trkpt lat="48.87187" lon="2.13026">
        <ele>26</ele>
        <time>2023-10-26T08:08:33.864+00:00</time>
      </trkpt>
      <trkpt lat="48.87188" lon="2.13018">
        <ele>26</ele>
        <time>2023-10-26T08:08:37.841+00:00</time>
      </trkpt>
      <trkpt lat="48.87191" lon="2.13012">
        <ele>26</ele>
        <time>2023-10-26T08:08:42.014+00:00</time>
      </trkpt>
      <trkpt lat="48.87198" lon="2.13006">
        <ele>26</ele>
        <time>2023-10-26T08:08:46.702+00:00</time>
      </trkpt>
      <trkpt lat="48.87202" lon="2.12999">
        <ele>26</ele>
        <time>2023-10-26T08:08:51.193+00:00</time>
      </trkpt>
      <trkpt lat="48.87206" lon="2.12991">
        <ele>26</ele>
        <time>2023-10-26T08:08:55.558+00:00</time>
      </trkpt>
      <trkpt lat="48.87209" lon="2.12982">
        <ele>28</ele>
        <time>2023-10-26T08:08:59.861+00:00</time>
      </trkpt>
      <trkpt lat="48.87212" lon="2.12976">
        <ele>28</ele>
        <time>2023-10-26T08:09:04.184+00:00</time>
      </trkpt>
      <trkpt lat="48.87215" lon="2.12968">
        <ele>28</ele>
        <time>2023-10-26T08:09:09.120+00:00</time>
      </trkpt>
      <trkpt lat="48.87217" lon="2.1296">
        <ele>28</ele>
        <time>2023-10-26T08:09:13.009+00:00</time>
      </trkpt>
      <trkpt lat="48.8722" lon="2.12952">
        <ele>29</ele>
        <time>2023-10-26T08:09:17.659+00:00</time>
      </trkpt>
      <trkpt lat="48.87225" lon="2.12946">
        <ele>29</ele>
        <time>2023-10-26T08:09:22.189+00:00</time>
      </trkpt>
      <trkpt lat="48.87228" lon="2.12939">
        <ele>29</ele>
        <time>2023-10-26T08:09:26.452+00:00</time>
      </trkpt>
      <trkpt lat="48.8723" lon="2.12932">
        <ele>29</ele>
        <time>2023-10-26T08:09:30.891+00:00</time>
      </trkpt>
      <trkpt lat="48.87234" lon="2.12922">
        <ele>27</ele>
        <time>2023-10-26T08:09:35.288+00:00</time>
      </trkpt>
      <trkpt lat="48.87237" lon="2.12916">
        <ele>29</ele>
        <time>2023-10-26T08:09:39.593+00:00</time>
      </trkpt>
      <trkpt lat="48.87241" lon="2.1291">
        <ele>29</ele>
        <time>2023-10-26T08:09:44.004+00:00</time>
      </trkpt>
      <trkpt lat="48.87245" lon="2.12904">
        <ele>29</ele>
        <time>2023-10-26T08:09:48.361+00:00</time>
      </trkpt>
      <trkpt lat="48.87249" lon="2.12896">
        <ele>27</ele>
        <time>2023-10-26T08:09:52.706+00:00</time>
      </trkpt>
      <trkpt lat="48.87252" lon="2.12889">
        <ele>27</ele>
        <time>2023-10-26T08:09:56.702+00:00</time>
      </trkpt>
      <trkpt lat="48.87256" lon="2.12879">
        <ele>27</ele>
        <time>2023-10-26T08:10:01.408+00:00</time>
      </trkpt>
      <trkpt lat="48.87258" lon="2.12872">
        <ele>26</ele>
        <time>2023-10-26T08:10:05.461+00:00</time>
      </trkpt>
      <trkpt lat="48.87263" lon="2.12866">
        <ele>26</ele>
        <time>2023-10-26T08:10:09.986+00:00</time>
      </trkpt>
      <trkpt lat="48.87269" lon="2.12861">
        <ele>28</ele>
        <time>2023-10-26T08:10:14.044+00:00</time>
      </trkpt>
      <trkpt lat="48.87273" lon="2.12855">
        <ele>28</ele>
        <time>2023-10-26T08:10:18.455+00:00</time>
      </trkpt>
      <trkpt lat="48.87277" lon="2.12849">
        <ele>28</ele>
        <time>2023-10-26T08:10:22.780+00:00</time>
      </trkpt>
      <trkpt lat="48.8728" lon="2.12845">
        <ele>26</ele>
        <time>2023-10-26T08:10:27.104+00:00</time>
      </trkpt>
      <trkpt lat="48.87284" lon="2.1284">
        <ele>26</ele>
        <time>2023-10-26T08:10:31.448+00:00</time>
      </trkpt>
      <trkpt lat="48.87287" lon="2.12834">
        <ele>26</ele>
        <time>2023-10-26T08:10:35.826+00:00</time>
      </trkpt>
      <trkpt lat="48.87291" lon="2.12829">
        <ele>26</ele>
        <time>2023-10-26T08:10:40.150+00:00</time>
      </trkpt>
      <trkpt lat="48.87295" lon="2.12823">
        <ele>28</ele>
        <time>2023-10-26T08:10:44.561+00:00</time>
      </trkpt>
      <trkpt lat="48.87299" lon="2.12817">
        <ele>26</ele>
        <time>2023-10-26T08:10:48.964+00:00</time>
      </trkpt>
      <trkpt lat="48.87305" lon="2.12811">
        <ele>26</ele>
        <time>2023-10-26T08:10:52.786+00:00</time>
      </trkpt>
      <trkpt lat="48.87309" lon="2.12804">
        <ele>26</ele>
        <time>2023-10-26T08:10:57.315+00:00</time>
      </trkpt>
      <trkpt lat="48.87312" lon="2.12801">
        <ele>26</ele>
        <time>2023-10-26T08:11:01.249+00:00</time>
      </trkpt>
      <trkpt lat="48.87317" lon="2.12796">
        <ele>26</ele>
        <time>2023-10-26T08:11:05.885+00:00</time>
      </trkpt>
      <trkpt lat="48.8732" lon="2.12789">
        <ele>28</ele>
        <time>2023-10-26T08:11:10.404+00:00</time>
      </trkpt>
      <trkpt lat="48.87324" lon="2.12783">
        <ele>28</ele>
        <time>2023-10-26T08:11:14.805+00:00</time>
      </trkpt>
      <trkpt lat="48.87328" lon="2.12777">
        <ele>28</ele>
        <time>2023-10-26T08:11:19.130+00:00</time>
      </trkpt>
      <trkpt lat="48.87331" lon="2.12771">
        <ele>28</ele>
        <time>2023-10-26T08:11:23.540+00:00</time>
      </trkpt>
      <trkpt lat="48.87335" lon="2.12765">
        <ele>28</ele>
        <time>2023-10-26T08:11:27.951+00:00</time>
      </trkpt>
      <trkpt lat="48.87339" lon="2.12759">
        <ele>29</ele>
        <time>2023-10-26T08:11:32.425+00:00</time>
      </trkpt>
      <trkpt lat="48.87342" lon="2.12753">
        <ele>29</ele>
        <time>2023-10-26T08:11:36.926+00:00</time>
      </trkpt>
      <trkpt lat="48.87345" lon="2.12748">
        <ele>29</ele>
        <time>2023-10-26T08:11:40.824+00:00</time>
      </trkpt>
      <trkpt lat="48.87349" lon="2.12741">
        <ele>29</ele>
        <time>2023-10-26T08:11:45.441+00:00</time>
      </trkpt>
      <trkpt lat="48.87353" lon="2.12735">
        <ele>29</ele>
        <time>2023-10-26T08:11:49.884+00:00</time>
      </trkpt>
      <trkpt lat="48.87357" lon="2.12729">
        <ele>29</ele>
        <time>2023-10-26T08:11:54.294+00:00</time>
      </trkpt>
      <trkpt lat="48.87361" lon="2.12723">
        <ele>29</ele>
        <time>2023-10-26T08:11:58.824+00:00</time>
      </trkpt>
      <trkpt lat="48.87365" lon="2.12717">
        <ele>29</ele>
        <time>2023-10-26T08:12:03.235+00:00</time>
      </trkpt>
      <trkpt lat="48.87369" lon="2.12712">
        <ele>29</ele>
        <time>2023-10-26T08:12:07.702+00:00</time>
      </trkpt>
      <trkpt lat="48.87373" lon="2.12706">
        <ele>28</ele>
        <time>2023-10-26T08:12:12.175+00:00</time>
      </trkpt>
      <trkpt lat="48.87377" lon="2.12698">
        <ele>27</ele>
        <time>2023-10-26T08:12:16.585+00:00</time>
      </trkpt>
      <trkpt lat="48.87382" lon="2.12692">
        <ele>27</ele>
        <time>2023-10-26T08:12:21.080+00:00</time>
      </trkpt>
      <trkpt lat="48.87386" lon="2.12687">
        <ele>27</ele>
        <time>2023-10-26T08:12:25.599+00:00</time>
      </trkpt>
      <trkpt lat="48.8739" lon="2.12682">
        <ele>27</ele>
        <time>2023-10-26T08:12:29.578+00:00</time>
      </trkpt>
      <trkpt lat="48.87394" lon="2.12675">
        <ele>25</ele>
        <time>2023-10-26T08:12:34.108+00:00</time>
      </trkpt>
      <trkpt lat="48.87397" lon="2.12668">
        <ele>25</ele>
        <time>2023-10-26T08:12:38.623+00:00</time>
      </trkpt>
      <trkpt lat="48.87401" lon="2.12662">
        <ele>25</ele>
        <time>2023-10-26T08:12:43.167+00:00</time>
      </trkpt>
      <trkpt lat="48.87404" lon="2.12657">
        <ele>26</ele>
        <time>2023-10-26T08:12:47.220+00:00</time>
      </trkpt>
      <trkpt lat="48.87406" lon="2.12654">
        <ele>26</ele>
        <time>2023-10-26T08:12:51.272+00:00</time>
      </trkpt>
      <trkpt lat="48.87409" lon="2.1265">
        <ele>25</ele>
        <time>2023-10-26T08:12:56.040+00:00</time>
      </trkpt>
      <trkpt lat="48.87413" lon="2.12646">
        <ele>25</ele>
        <time>2023-10-26T08:13:00.570+00:00</time>
      </trkpt>
      <trkpt lat="48.87416" lon="2.12642">
        <ele>25</ele>
        <time>2023-10-26T08:13:04.623+00:00</time>
      </trkpt>
      <trkpt lat="48.87419" lon="2.12637">
        <ele>25</ele>
        <time>2023-10-26T08:13:08.702+00:00</time>
      </trkpt>
      <trkpt lat="48.87421" lon="2.12631">
        <ele>25</ele>
        <time>2023-10-26T08:13:12.847+00:00</time>
      </trkpt>
      <trkpt lat="48.87425" lon="2.12625">
        <ele>24</ele>
        <time>2023-10-26T08:13:17.019+00:00</time>
      </trkpt>
      <trkpt lat="48.87428" lon="2.12619">
        <ele>24</ele>
        <time>2023-10-26T08:13:21.072+00:00</time>
      </trkpt>
      <trkpt lat="48.87431" lon="2.12614">
        <ele>24</ele>
        <time>2023-10-26T08:13:25.602+00:00</time>
      </trkpt>
      <trkpt lat="48.87436" lon="2.12609">
        <ele>24</ele>
        <time>2023-10-26T08:13:30.250+00:00</time>
      </trkpt>
      <trkpt lat="48.8744" lon="2.12605">
        <ele>24</ele>
        <time>2023-10-26T08:13:34.899+00:00</time>
      </trkpt>
      <trkpt lat="48.87443" lon="2.126">
        <ele>24</ele>
        <time>2023-10-26T08:13:38.833+00:00</time>
      </trkpt>
      <trkpt lat="48.87445" lon="2.12594">
        <ele>24</ele>
        <time>2023-10-26T08:13:43.005+00:00</time>
      </trkpt>
      <trkpt lat="48.87448" lon="2.12589">
        <ele>24</ele>
        <time>2023-10-26T08:13:47.057+00:00</time>
      </trkpt>
      <trkpt lat="48.87451" lon="2.12581">
        <ele>24</ele>
        <time>2023-10-26T08:13:51.444+00:00</time>
      </trkpt>
      <trkpt lat="48.87457" lon="2.12577">
        <ele>24</ele>
        <time>2023-10-26T08:13:55.702+00:00</time>
      </trkpt>
      <trkpt lat="48.8746" lon="2.12572">
        <ele>23</ele>
        <time>2023-10-26T08:13:59.692+00:00</time>
      </trkpt>
      <trkpt lat="48.87464" lon="2.12566">
        <ele>23</ele>
        <time>2023-10-26T08:14:04.465+00:00</time>
      </trkpt>
      <trkpt lat="48.87467" lon="2.1256">
        <ele>23</ele>
        <time>2023-10-26T08:14:08.826+00:00</time>
      </trkpt>
      <trkpt lat="48.87471" lon="2.12555">
        <ele>23</ele>
        <time>2023-10-26T08:14:13.245+00:00</time>
      </trkpt>
      <trkpt lat="48.87474" lon="2.12546">
        <ele>23</ele>
        <time>2023-10-26T08:14:17.702+00:00</time>
      </trkpt>
      <trkpt lat="48.87477" lon="2.12538">
        <ele>23</ele>
        <time>2023-10-26T08:14:22.206+00:00</time>
      </trkpt>
      <trkpt lat="48.87481" lon="2.12531">
        <ele>23</ele>
        <time>2023-10-26T08:14:26.604+00:00</time>
      </trkpt>
      <trkpt lat="48.87484" lon="2.12527">
        <ele>23</ele>
        <time>2023-10-26T08:14:30.564+00:00</time>
      </trkpt>
      <trkpt lat="48.87487" lon="2.1252">
        <ele>22</ele>
        <time>2023-10-26T08:14:34.974+00:00</time>
      </trkpt>
      <trkpt lat="48.87491" lon="2.12514">
        <ele>22</ele>
        <time>2023-10-26T08:14:39.503+00:00</time>
      </trkpt>
      <trkpt lat="48.87495" lon="2.12509">
        <ele>21</ele>
        <time>2023-10-26T08:14:43.978+00:00</time>
      </trkpt>
      <trkpt lat="48.875" lon="2.12502">
        <ele>21</ele>
        <time>2023-10-26T08:14:48.443+00:00</time>
      </trkpt>
      <trkpt lat="48.87504" lon="2.12496">
        <ele>21</ele>
        <time>2023-10-26T08:14:52.947+00:00</time>
      </trkpt>
      <trkpt lat="48.87507" lon="2.12489">
        <ele>21</ele>
        <time>2023-10-26T08:14:57.383+00:00</time>
      </trkpt>
      <trkpt lat="48.87509" lon="2.12483">
        <ele>21</ele>
        <time>2023-10-26T08:15:01.793+00:00</time>
      </trkpt>
      <trkpt lat="48.87512" lon="2.12476">
        <ele>21</ele>
        <time>2023-10-26T08:15:06.203+00:00</time>
      </trkpt>
      <trkpt lat="48.87515" lon="2.1247">
        <ele>24</ele>
        <time>2023-10-26T08:15:10.702+00:00</time>
      </trkpt>
      <trkpt lat="48.8752" lon="2.12464">
        <ele>24</ele>
        <time>2023-10-26T08:15:15.024+00:00</time>
      </trkpt>
      <trkpt lat="48.87524" lon="2.12457">
        <ele>26</ele>
        <time>2023-10-26T08:15:19.537+00:00</time>
      </trkpt>
      <trkpt lat="48.87528" lon="2.12449">
        <ele>26</ele>
        <time>2023-10-26T08:15:23.844+00:00</time>
      </trkpt>
      <trkpt lat="48.87531" lon="2.12442">
        <ele>26</ele>
        <time>2023-10-26T08:15:28.135+00:00</time>
      </trkpt>
      <trkpt lat="48.87535" lon="2.12437">
        <ele>26</ele>
        <time>2023-10-26T08:15:32.459+00:00</time>
      </trkpt>
      <trkpt lat="48.87539" lon="2.12431">
        <ele>26</ele>
        <time>2023-10-26T08:15:36.598+00:00</time>
      </trkpt>
      <trkpt lat="48.87544" lon="2.12422">
        <ele>26</ele>
        <time>2023-10-26T08:15:41.247+00:00</time>
      </trkpt>
      <trkpt lat="48.87547" lon="2.12414">
        <ele>26</ele>
        <time>2023-10-26T08:15:45.418+00:00</time>
      </trkpt>
      <trkpt lat="48.87551" lon="2.12408">
        <ele>26</ele>
        <time>2023-10-26T08:15:49.590+00:00</time>
      </trkpt>
      <trkpt lat="48.87557" lon="2.12402">
        <ele>26</ele>
        <time>2023-10-26T08:15:53.881+00:00</time>
      </trkpt>
      <trkpt lat="48.87561" lon="2.12397">
        <ele>26</ele>
        <time>2023-10-26T08:15:58.291+00:00</time>
      </trkpt>
      <trkpt lat="48.87567" lon="2.12396">
        <ele>26</ele>
        <time>2023-10-26T08:16:02.821+00:00</time>
      </trkpt>
      <trkpt lat="48.8757" lon="2.12391">
        <ele>25</ele>
        <time>2023-10-26T08:16:07.231+00:00</time>
      </trkpt>
      <trkpt lat="48.87575" lon="2.12386">
        <ele>25</ele>
        <time>2023-10-26T08:16:11.705+00:00</time>
      </trkpt>
      <trkpt lat="48.87578" lon="2.12381">
        <ele>25</ele>
        <time>2023-10-26T08:16:16.126+00:00</time>
      </trkpt>
      <trkpt lat="48.87583" lon="2.12376">
        <ele>25</ele>
        <time>2023-10-26T08:16:21.177+00:00</time>
      </trkpt>
      <trkpt lat="48.87587" lon="2.12372">
        <ele>25</ele>
        <time>2023-10-26T08:16:25.229+00:00</time>
      </trkpt>
      <trkpt lat="48.87592" lon="2.12367">
        <ele>25</ele>
        <time>2023-10-26T08:16:30.300+00:00</time>
      </trkpt>
      <trkpt lat="48.87597" lon="2.12364">
        <ele>25</ele>
        <time>2023-10-26T08:16:34.641+00:00</time>
      </trkpt>
      <trkpt lat="48.87601" lon="2.12361">
        <ele>26</ele>
        <time>2023-10-26T08:16:39.120+00:00</time>
      </trkpt>
      <trkpt lat="48.87606" lon="2.12356">
        <ele>26</ele>
        <time>2023-10-26T08:16:43.585+00:00</time>
      </trkpt>
      <trkpt lat="48.87612" lon="2.12351">
        <ele>26</ele>
        <time>2023-10-26T08:16:48.115+00:00</time>
      </trkpt>
      <trkpt lat="48.87617" lon="2.12347">
        <ele>27</ele>
        <time>2023-10-26T08:16:52.641+00:00</time>
      </trkpt>
      <trkpt lat="48.8762" lon="2.12341">
        <ele>27</ele>
        <time>2023-10-26T08:16:57.020+00:00</time>
      </trkpt>
      <trkpt lat="48.87624" lon="2.12337">
        <ele>27</ele>
        <time>2023-10-26T08:17:01.345+00:00</time>
      </trkpt>
      <trkpt lat="48.87626" lon="2.12331">
        <ele>28</ele>
        <time>2023-10-26T08:17:05.398+00:00</time>
      </trkpt>
      <trkpt lat="48.8763" lon="2.12326">
        <ele>28</ele>
        <time>2023-10-26T08:17:10.003+00:00</time>
      </trkpt>
      <trkpt lat="48.87635" lon="2.12321">
        <ele>28</ele>
        <time>2023-10-26T08:17:14.385+00:00</time>
      </trkpt>
      <trkpt lat="48.87639" lon="2.12317">
        <ele>29</ele>
        <time>2023-10-26T08:17:18.866+00:00</time>
      </trkpt>
      <trkpt lat="48.87644" lon="2.12312">
        <ele>29</ele>
        <time>2023-10-26T08:17:23.341+00:00</time>
      </trkpt>
      <trkpt lat="48.87648" lon="2.12307">
        <ele>29</ele>
        <time>2023-10-26T08:17:27.681+00:00</time>
      </trkpt>
      <trkpt lat="48.87653" lon="2.12301">
        <ele>29</ele>
        <time>2023-10-26T08:17:32.096+00:00</time>
      </trkpt>
      <trkpt lat="48.87656" lon="2.12296">
        <ele>28</ele>
        <time>2023-10-26T08:17:36.480+00:00</time>
      </trkpt>
      <trkpt lat="48.87661" lon="2.12289">
        <ele>28</ele>
        <time>2023-10-26T08:17:40.915+00:00</time>
      </trkpt>
      <trkpt lat="48.87665" lon="2.12283">
        <ele>28</ele>
        <time>2023-10-26T08:17:45.200+00:00</time>
      </trkpt>
      <trkpt lat="48.8767" lon="2.12277">
        <ele>28</ele>
        <time>2023-10-26T08:17:49.541+00:00</time>
      </trkpt>
      <trkpt lat="48.87674" lon="2.12272">
        <ele>28</ele>
        <time>2023-10-26T08:17:53.844+00:00</time>
      </trkpt>
      <trkpt lat="48.8768" lon="2.12268">
        <ele>28</ele>
        <time>2023-10-26T08:17:58.316+00:00</time>
      </trkpt>
      <trkpt lat="48.87685" lon="2.12264">
        <ele>27</ele>
        <time>2023-10-26T08:18:03.120+00:00</time>
      </trkpt>
      <trkpt lat="48.8769" lon="2.12259">
        <ele>28</ele>
        <time>2023-10-26T08:18:07.461+00:00</time>
      </trkpt>
      <trkpt lat="48.87693" lon="2.12251">
        <ele>28</ele>
        <time>2023-10-26T08:18:11.784+00:00</time>
      </trkpt>
      <trkpt lat="48.87697" lon="2.12244">
        <ele>28</ele>
        <time>2023-10-26T08:18:16.194+00:00</time>
      </trkpt>
      <trkpt lat="48.87701" lon="2.12239">
        <ele>28</ele>
        <time>2023-10-26T08:18:20.602+00:00</time>
      </trkpt>
      <trkpt lat="48.87707" lon="2.12235">
        <ele>29</ele>
        <time>2023-10-26T08:18:24.961+00:00</time>
      </trkpt>
      <trkpt lat="48.87712" lon="2.1223">
        <ele>27</ele>
        <time>2023-10-26T08:18:29.281+00:00</time>
      </trkpt>
      <trkpt lat="48.87716" lon="2.12223">
        <ele>27</ele>
        <time>2023-10-26T08:18:33.680+00:00</time>
      </trkpt>
      <trkpt lat="48.8772" lon="2.12218">
        <ele>27</ele>
        <time>2023-10-26T08:18:38+00:00</time>
      </trkpt>
      <trkpt lat="48.87725" lon="2.12211">
        <ele>27</ele>
        <time>2023-10-26T08:18:42.381+00:00</time>
      </trkpt>
      <trkpt lat="48.87728" lon="2.12205">
        <ele>27</ele>
        <time>2023-10-26T08:18:46.702+00:00</time>
      </trkpt>
      <trkpt lat="48.87733" lon="2.122">
        <ele>27</ele>
        <time>2023-10-26T08:18:51.102+00:00</time>
      </trkpt>
      <trkpt lat="48.87738" lon="2.12196">
        <ele>27</ele>
        <time>2023-10-26T08:18:55.382+00:00</time>
      </trkpt>
      <trkpt lat="48.87742" lon="2.12189">
        <ele>27</ele>
        <time>2023-10-26T08:18:59.695+00:00</time>
      </trkpt>
      <trkpt lat="48.87746" lon="2.12182">
        <ele>27</ele>
        <time>2023-10-26T08:19:04.042+00:00</time>
      </trkpt>
      <trkpt lat="48.87749" lon="2.12175">
        <ele>27</ele>
        <time>2023-10-26T08:19:08.384+00:00</time>
      </trkpt>
      <trkpt lat="48.87751" lon="2.12169">
        <ele>27</ele>
        <time>2023-10-26T08:19:12.686+00:00</time>
      </trkpt>
      <trkpt lat="48.87756" lon="2.12163">
        <ele>27</ele>
        <time>2023-10-26T08:19:17.021+00:00</time>
      </trkpt>
      <trkpt lat="48.8776" lon="2.12158">
        <ele>27</ele>
        <time>2023-10-26T08:19:21.387+00:00</time>
      </trkpt>
      <trkpt lat="48.87765" lon="2.12151">
        <ele>24</ele>
        <time>2023-10-26T08:19:26.035+00:00</time>
      </trkpt>
      <trkpt lat="48.87769" lon="2.12146">
        <ele>24</ele>
        <time>2023-10-26T08:19:29.968+00:00</time>
      </trkpt>
      <trkpt lat="48.87776" lon="2.12141">
        <ele>24</ele>
        <time>2023-10-26T08:19:34.581+00:00</time>
      </trkpt>
      <trkpt lat="48.87781" lon="2.12135">
        <ele>24</ele>
        <time>2023-10-26T08:19:38.925+00:00</time>
      </trkpt>
      <trkpt lat="48.87786" lon="2.12128">
        <ele>24</ele>
        <time>2023-10-26T08:19:43.316+00:00</time>
      </trkpt>
      <trkpt lat="48.8779" lon="2.12123">
        <ele>25</ele>
        <time>2023-10-26T08:19:47.249+00:00</time>
      </trkpt>
      <trkpt lat="48.87795" lon="2.12114">
        <ele>23</ele>
        <time>2023-10-26T08:19:52.016+00:00</time>
      </trkpt>
      <trkpt lat="48.87799" lon="2.12108">
        <ele>23</ele>
        <time>2023-10-26T08:19:56.702+00:00</time>
      </trkpt>
      <trkpt lat="48.87803" lon="2.12102">
        <ele>23</ele>
        <time>2023-10-26T08:20:01.198+00:00</time>
      </trkpt>
      <trkpt lat="48.87807" lon="2.12096">
        <ele>24</ele>
        <time>2023-10-26T08:20:05.560+00:00</time>
      </trkpt>
      <trkpt lat="48.8781" lon="2.12088">
        <ele>24</ele>
        <time>2023-10-26T08:20:09.894+00:00</time>
      </trkpt>
      <trkpt lat="48.87814" lon="2.12082">
        <ele>24</ele>
        <time>2023-10-26T08:20:14.303+00:00</time>
      </trkpt>
      <trkpt lat="48.87819" lon="2.12078">
        <ele>24</ele>
        <time>2023-10-26T08:20:18.832+00:00</time>
      </trkpt>
      <trkpt lat="48.87824" lon="2.12072">
        <ele>22</ele>
        <time>2023-10-26T08:20:23.567+00:00</time>
      </trkpt>
      <trkpt lat="48.87828" lon="2.12066">
        <ele>23</ele>
        <time>2023-10-26T08:20:27.890+00:00</time>
      </trkpt>
      <trkpt lat="48.87829" lon="2.12063">
        <ele>23</ele>
        <time>2023-10-26T08:20:32.181+00:00</time>
      </trkpt>
      <trkpt lat="48.87834" lon="2.12058">
        <ele>23</ele>
        <time>2023-10-26T08:20:36.547+00:00</time>
      </trkpt>
      <trkpt lat="48.87838" lon="2.12051">
        <ele>23</ele>
        <time>2023-10-26T08:20:40.881+00:00</time>
      </trkpt>
      <trkpt lat="48.87843" lon="2.12046">
        <ele>23</ele>
        <time>2023-10-26T08:20:45.228+00:00</time>
      </trkpt>
      <trkpt lat="48.87846" lon="2.1204">
        <ele>25</ele>
        <time>2023-10-26T08:20:49.586+00:00</time>
      </trkpt>
      <trkpt lat="48.87851" lon="2.12035">
        <ele>24</ele>
        <time>2023-10-26T08:20:53.926+00:00</time>
      </trkpt>
      <trkpt lat="48.87854" lon="2.12029">
        <ele>24</ele>
        <time>2023-10-26T08:20:58.267+00:00</time>
      </trkpt>
      <trkpt lat="48.87859" lon="2.12025">
        <ele>24</ele>
        <time>2023-10-26T08:21:02.566+00:00</time>
      </trkpt>
      <trkpt lat="48.87864" lon="2.1202">
        <ele>24</ele>
        <time>2023-10-26T08:21:06.862+00:00</time>
      </trkpt>
      <trkpt lat="48.87869" lon="2.12014">
        <ele>24</ele>
        <time>2023-10-26T08:21:10.914+00:00</time>
      </trkpt>
      <trkpt lat="48.87874" lon="2.12009">
        <ele>25</ele>
        <time>2023-10-26T08:21:15.443+00:00</time>
      </trkpt>
      <trkpt lat="48.87878" lon="2.12003">
        <ele>24</ele>
        <time>2023-10-26T08:21:19.818+00:00</time>
      </trkpt>
      <trkpt lat="48.87882" lon="2.11998">
        <ele>24</ele>
        <time>2023-10-26T08:21:24.200+00:00</time>
      </trkpt>
      <trkpt lat="48.87886" lon="2.11992">
        <ele>24</ele>
        <time>2023-10-26T08:21:28.502+00:00</time>
      </trkpt>
      <trkpt lat="48.8789" lon="2.11984">
        <ele>26</ele>
        <time>2023-10-26T08:21:32.781+00:00</time>
      </trkpt>
      <trkpt lat="48.87893" lon="2.11977">
        <ele>26</ele>
        <time>2023-10-26T08:21:37.253+00:00</time>
      </trkpt>
      <trkpt lat="48.87897" lon="2.11972">
        <ele>26</ele>
        <time>2023-10-26T08:21:41.425+00:00</time>
      </trkpt>
      <trkpt lat="48.87902" lon="2.11967">
        <ele>26</ele>
        <time>2023-10-26T08:21:45.900+00:00</time>
      </trkpt>
      <trkpt lat="48.87907" lon="2.11964">
        <ele>25</ele>
        <time>2023-10-26T08:21:50.200+00:00</time>
      </trkpt>
      <trkpt lat="48.87913" lon="2.11961">
        <ele>25</ele>
        <time>2023-10-26T08:21:54.580+00:00</time>
      </trkpt>
      <trkpt lat="48.87917" lon="2.11955">
        <ele>29</ele>
        <time>2023-10-26T08:21:58.944+00:00</time>
      </trkpt>
      <trkpt lat="48.87923" lon="2.11949">
        <ele>29</ele>
        <time>2023-10-26T08:22:03.354+00:00</time>
      </trkpt>
      <trkpt lat="48.87928" lon="2.11943">
        <ele>29</ele>
        <time>2023-10-26T08:22:07.764+00:00</time>
      </trkpt>
      <trkpt lat="48.87933" lon="2.11937">
        <ele>25</ele>
        <time>2023-10-26T08:22:12.173+00:00</time>
      </trkpt>
      <trkpt lat="48.87937" lon="2.11933">
        <ele>25</ele>
        <time>2023-10-26T08:22:16.577+00:00</time>
      </trkpt>
      <trkpt lat="48.87941" lon="2.11928">
        <ele>28</ele>
        <time>2023-10-26T08:22:20.938+00:00</time>
      </trkpt>
      <trkpt lat="48.87944" lon="2.11922">
        <ele>28</ele>
        <time>2023-10-26T08:22:25.283+00:00</time>
      </trkpt>
      <trkpt lat="48.87947" lon="2.11917">
        <ele>28</ele>
        <time>2023-10-26T08:22:29.574+00:00</time>
      </trkpt>
      <trkpt lat="48.87952" lon="2.11912">
        <ele>28</ele>
        <time>2023-10-26T08:22:33.940+00:00</time>
      </trkpt>
      <trkpt lat="48.87957" lon="2.11907">
        <ele>28</ele>
        <time>2023-10-26T08:22:38.179+00:00</time>
      </trkpt>
      <trkpt lat="48.87962" lon="2.11902">
        <ele>26</ele>
        <time>2023-10-26T08:22:42.446+00:00</time>
      </trkpt>
      <trkpt lat="48.87967" lon="2.11899">
        <ele>26</ele>
        <time>2023-10-26T08:22:46.720+00:00</time>
      </trkpt>
      <trkpt lat="48.87972" lon="2.11895">
        <ele>26</ele>
        <time>2023-10-26T08:22:51.023+00:00</time>
      </trkpt>
      <trkpt lat="48.87978" lon="2.1189">
        <ele>26</ele>
        <time>2023-10-26T08:22:55.385+00:00</time>
      </trkpt>
      <trkpt lat="48.87983" lon="2.11886">
        <ele>26</ele>
        <time>2023-10-26T08:22:59.704+00:00</time>
      </trkpt>
      <trkpt lat="48.87989" lon="2.11882">
        <ele>24</ele>
        <time>2023-10-26T08:23:04.017+00:00</time>
      </trkpt>
      <trkpt lat="48.87994" lon="2.11878">
        <ele>24</ele>
        <time>2023-10-26T08:23:08.427+00:00</time>
      </trkpt>
      <trkpt lat="48.87999" lon="2.11872">
        <ele>26</ele>
        <time>2023-10-26T08:23:12.774+00:00</time>
      </trkpt>
      <trkpt lat="48.88005" lon="2.11869">
        <ele>26</ele>
        <time>2023-10-26T08:23:17.105+00:00</time>
      </trkpt>
      <trkpt lat="48.8801" lon="2.11867">
        <ele>26</ele>
        <time>2023-10-26T08:23:21.464+00:00</time>
      </trkpt>
      <trkpt lat="48.88014" lon="2.11863">
        <ele>24</ele>
        <time>2023-10-26T08:23:25.884+00:00</time>
      </trkpt>
      <trkpt lat="48.88019" lon="2.11859">
        <ele>24</ele>
        <time>2023-10-26T08:23:30.237+00:00</time>
      </trkpt>
      <trkpt lat="48.88024" lon="2.11855">
        <ele>24</ele>
        <time>2023-10-26T08:23:34.644+00:00</time>
      </trkpt>
      <trkpt lat="48.88029" lon="2.11851">
        <ele>24</ele>
        <time>2023-10-26T08:23:39.026+00:00</time>
      </trkpt>
      <trkpt lat="48.88033" lon="2.11847">
        <ele>25</ele>
        <time>2023-10-26T08:23:43.306+00:00</time>
      </trkpt>
      <trkpt lat="48.88037" lon="2.11843">
        <ele>25</ele>
        <time>2023-10-26T08:23:47.638+00:00</time>
      </trkpt>
      <trkpt lat="48.88043" lon="2.11838">
        <ele>24</ele>
        <time>2023-10-26T08:23:52.047+00:00</time>
      </trkpt>
      <trkpt lat="48.88048" lon="2.11834">
        <ele>24</ele>
        <time>2023-10-26T08:23:56.383+00:00</time>
      </trkpt>
      <trkpt lat="48.88051" lon="2.11828">
        <ele>24</ele>
        <time>2023-10-26T08:24:00.683+00:00</time>
      </trkpt>
      <trkpt lat="48.88055" lon="2.11822">
        <ele>24</ele>
        <time>2023-10-26T08:24:04.966+00:00</time>
      </trkpt>
      <trkpt lat="48.8806" lon="2.11815">
        <ele>25</ele>
        <time>2023-10-26T08:24:09.209+00:00</time>
      </trkpt>
      <trkpt lat="48.88064" lon="2.11808">
        <ele>25</ele>
        <time>2023-10-26T08:24:13.624+00:00</time>
      </trkpt>
      <trkpt lat="48.88069" lon="2.11802">
        <ele>25</ele>
        <time>2023-10-26T08:24:17.948+00:00</time>
      </trkpt>
      <trkpt lat="48.88073" lon="2.11796">
        <ele>24</ele>
        <time>2023-10-26T08:24:22.266+00:00</time>
      </trkpt>
      <trkpt lat="48.88077" lon="2.11789">
        <ele>24</ele>
        <time>2023-10-26T08:24:26.610+00:00</time>
      </trkpt>
      <trkpt lat="48.88081" lon="2.11784">
        <ele>24</ele>
        <time>2023-10-26T08:24:30.945+00:00</time>
      </trkpt>
      <trkpt lat="48.88086" lon="2.11779">
        <ele>24</ele>
        <time>2023-10-26T08:24:35.310+00:00</time>
      </trkpt>
      <trkpt lat="48.8809" lon="2.11774">
        <ele>24</ele>
        <time>2023-10-26T08:24:39.773+00:00</time>
      </trkpt>
      <trkpt lat="48.88094" lon="2.11768">
        <ele>24</ele>
        <time>2023-10-26T08:24:44.205+00:00</time>
      </trkpt>
      <trkpt lat="48.88098" lon="2.11762">
        <ele>25</ele>
        <time>2023-10-26T08:24:48.607+00:00</time>
      </trkpt>
      <trkpt lat="48.88103" lon="2.11758">
        <ele>25</ele>
        <time>2023-10-26T08:24:52.949+00:00</time>
      </trkpt>
      <trkpt lat="48.88107" lon="2.11752">
        <ele>25</ele>
        <time>2023-10-26T08:24:57.366+00:00</time>
      </trkpt>
      <trkpt lat="48.88112" lon="2.11748">
        <ele>25</ele>
        <time>2023-10-26T08:25:02.245+00:00</time>
      </trkpt>
      <trkpt lat="48.88117" lon="2.1175">
        <ele>25</ele>
        <time>2023-10-26T08:25:06.702+00:00</time>
      </trkpt>
      <trkpt lat="48.88123" lon="2.1174">
        <ele>25</ele>
        <time>2023-10-26T08:25:11.422+00:00</time>
      </trkpt>
      <trkpt lat="48.88128" lon="2.11731">
        <ele>26</ele>
        <time>2023-10-26T08:25:15.579+00:00</time>
      </trkpt>
      <trkpt lat="48.88134" lon="2.11723">
        <ele>26</ele>
        <time>2023-10-26T08:25:20.405+00:00</time>
      </trkpt>
      <trkpt lat="48.88138" lon="2.11717">
        <ele>26</ele>
        <time>2023-10-26T08:25:24.296+00:00</time>
      </trkpt>
      <trkpt lat="48.88142" lon="2.11708">
        <ele>23</ele>
        <time>2023-10-26T08:25:29.064+00:00</time>
      </trkpt>
      <trkpt lat="48.88146" lon="2.11702">
        <ele>23</ele>
        <time>2023-10-26T08:25:33.593+00:00</time>
      </trkpt>
      <trkpt lat="48.88148" lon="2.11695">
        <ele>23</ele>
        <time>2023-10-26T08:25:38.122+00:00</time>
      </trkpt>
      <trkpt lat="48.88151" lon="2.1169">
        <ele>23</ele>
        <time>2023-10-26T08:25:42.055+00:00</time>
      </trkpt>
      <trkpt lat="48.88155" lon="2.11684">
        <ele>23</ele>
        <time>2023-10-26T08:25:46.942+00:00</time>
      </trkpt>
      <trkpt lat="48.8816" lon="2.11679">
        <ele>20</ele>
        <time>2023-10-26T08:25:51.327+00:00</time>
      </trkpt>
      <trkpt lat="48.88164" lon="2.11676">
        <ele>20</ele>
        <time>2023-10-26T08:25:55.762+00:00</time>
      </trkpt>
      <trkpt lat="48.88169" lon="2.11671">
        <ele>20</ele>
        <time>2023-10-26T08:26:00.172+00:00</time>
      </trkpt>
      <trkpt lat="48.88174" lon="2.11665">
        <ele>20</ele>
        <time>2023-10-26T08:26:04.471+00:00</time>
      </trkpt>
      <trkpt lat="48.88179" lon="2.11663">
        <ele>20</ele>
        <time>2023-10-26T08:26:08.948+00:00</time>
      </trkpt>
      <trkpt lat="48.88185" lon="2.11663">
        <ele>23</ele>
        <time>2023-10-26T08:26:12.805+00:00</time>
      </trkpt>
      <trkpt lat="48.88192" lon="2.1166">
        <ele>23</ele>
        <time>2023-10-26T08:26:17.453+00:00</time>
      </trkpt>
      <trkpt lat="48.88197" lon="2.11657">
        <ele>23</ele>
        <time>2023-10-26T08:26:21.863+00:00</time>
      </trkpt>
      <trkpt lat="48.88202" lon="2.11654">
        <ele>23</ele>
        <time>2023-10-26T08:26:26.392+00:00</time>
      </trkpt>
      <trkpt lat="48.88206" lon="2.1165">
        <ele>22</ele>
        <time>2023-10-26T08:26:30.906+00:00</time>
      </trkpt>
      <trkpt lat="48.88211" lon="2.11644">
        <ele>24</ele>
        <time>2023-10-26T08:26:35.211+00:00</time>
      </trkpt>
      <trkpt lat="48.88216" lon="2.11639">
        <ele>24</ele>
        <time>2023-10-26T08:26:39.621+00:00</time>
      </trkpt>
      <trkpt lat="48.8822" lon="2.11635">
        <ele>24</ele>
        <time>2023-10-26T08:26:43.673+00:00</time>
      </trkpt>
      <trkpt lat="48.88226" lon="2.1163">
        <ele>24</ele>
        <time>2023-10-26T08:26:48.202+00:00</time>
      </trkpt>
      <trkpt lat="48.88231" lon="2.11626">
        <ele>24</ele>
        <time>2023-10-26T08:26:52.493+00:00</time>
      </trkpt>
      <trkpt lat="48.88237" lon="2.1162">
        <ele>25</ele>
        <time>2023-10-26T08:26:56.902+00:00</time>
      </trkpt>
      <trkpt lat="48.88244" lon="2.11617">
        <ele>25</ele>
        <time>2023-10-26T08:27:01.312+00:00</time>
      </trkpt>
      <trkpt lat="48.88248" lon="2.11613">
        <ele>25</ele>
        <time>2023-10-26T08:27:05.126+00:00</time>
      </trkpt>
      <trkpt lat="48.88254" lon="2.11608">
        <ele>25</ele>
        <time>2023-10-26T08:27:09.893+00:00</time>
      </trkpt>
      <trkpt lat="48.88262" lon="2.11604">
        <ele>25</ele>
        <time>2023-10-26T08:27:14.183+00:00</time>
      </trkpt>
      <trkpt lat="48.88267" lon="2.11602">
        <ele>26</ele>
        <time>2023-10-26T08:27:18.593+00:00</time>
      </trkpt>
      <trkpt lat="48.88272" lon="2.116">
        <ele>26</ele>
        <time>2023-10-26T08:27:22.947+00:00</time>
      </trkpt>
      <trkpt lat="48.88278" lon="2.11596">
        <ele>27</ele>
        <time>2023-10-26T08:27:27.289+00:00</time>
      </trkpt>
      <trkpt lat="48.88282" lon="2.11593">
        <ele>27</ele>
        <time>2023-10-26T08:27:31.583+00:00</time>
      </trkpt>
      <trkpt lat="48.88287" lon="2.11589">
        <ele>27</ele>
        <time>2023-10-26T08:27:35.993+00:00</time>
      </trkpt>
      <trkpt lat="48.88295" lon="2.11586">
        <ele>27</ele>
        <time>2023-10-26T08:27:40.408+00:00</time>
      </trkpt>
      <trkpt lat="48.883" lon="2.11582">
        <ele>27</ele>
        <time>2023-10-26T08:27:44.693+00:00</time>
      </trkpt>
      <trkpt lat="48.88304" lon="2.11581">
        <ele>27</ele>
        <time>2023-10-26T08:27:49.088+00:00</time>
      </trkpt>
      <trkpt lat="48.8831" lon="2.1158">
        <ele>27</ele>
        <time>2023-10-26T08:27:53.273+00:00</time>
      </trkpt>
      <trkpt lat="48.88315" lon="2.11577">
        <ele>27</ele>
        <time>2023-10-26T08:27:57.802+00:00</time>
      </trkpt>
      <trkpt lat="48.88319" lon="2.11573">
        <ele>27</ele>
        <time>2023-10-26T08:28:01.854+00:00</time>
      </trkpt>
      <trkpt lat="48.88325" lon="2.11568">
        <ele>27</ele>
        <time>2023-10-26T08:28:06.463+00:00</time>
      </trkpt>
      <trkpt lat="48.88331" lon="2.11564">
        <ele>27</ele>
        <time>2023-10-26T08:28:11.365+00:00</time>
      </trkpt>
      <trkpt lat="48.88336" lon="2.11561">
        <ele>27</ele>
        <time>2023-10-26T08:28:15.745+00:00</time>
      </trkpt>
      <trkpt lat="48.8834" lon="2.11558">
        <ele>27</ele>
        <time>2023-10-26T08:28:19.702+00:00</time>
      </trkpt>
      <trkpt lat="48.88344" lon="2.11554">
        <ele>27</ele>
        <time>2023-10-26T08:28:24.207+00:00</time>
      </trkpt>
      <trkpt lat="48.88349" lon="2.11549">
        <ele>28</ele>
        <time>2023-10-26T08:28:28.552+00:00</time>
      </trkpt>
      <trkpt lat="48.88353" lon="2.11545">
        <ele>28</ele>
        <time>2023-10-26T08:28:32.962+00:00</time>
      </trkpt>
      <trkpt lat="48.8836" lon="2.11543">
        <ele>28</ele>
        <time>2023-10-26T08:28:37.372+00:00</time>
      </trkpt>
      <trkpt lat="48.88364" lon="2.1154">
        <ele>28</ele>
        <time>2023-10-26T08:28:41.700+00:00</time>
      </trkpt>
      <trkpt lat="48.88369" lon="2.11537">
        <ele>28</ele>
        <time>2023-10-26T08:28:46.139+00:00</time>
      </trkpt>
      <trkpt lat="48.88374" lon="2.11533">
        <ele>28</ele>
        <time>2023-10-26T08:28:50.457+00:00</time>
      </trkpt>
      <trkpt lat="48.8838" lon="2.11529">
        <ele>28</ele>
        <time>2023-10-26T08:28:55.259+00:00</time>
      </trkpt>
      <trkpt lat="48.88385" lon="2.11525">
        <ele>28</ele>
        <time>2023-10-26T08:28:59.069+00:00</time>
      </trkpt>
      <trkpt lat="48.8839" lon="2.11522">
        <ele>28</ele>
        <time>2023-10-26T08:29:03.798+00:00</time>
      </trkpt>
      <trkpt lat="48.88394" lon="2.11517">
        <ele>28</ele>
        <time>2023-10-26T08:29:07.702+00:00</time>
      </trkpt>
      <trkpt lat="48.88399" lon="2.11513">
        <ele>27</ele>
        <time>2023-10-26T08:29:12.386+00:00</time>
      </trkpt>
      <trkpt lat="48.88403" lon="2.11509">
        <ele>27</ele>
        <time>2023-10-26T08:29:16.832+00:00</time>
      </trkpt>
      <trkpt lat="48.88407" lon="2.11507">
        <ele>27</ele>
        <time>2023-10-26T08:29:21.005+00:00</time>
      </trkpt>
      <trkpt lat="48.88411" lon="2.11505">
        <ele>27</ele>
        <time>2023-10-26T08:29:25.654+00:00</time>
      </trkpt>
      <trkpt lat="48.88416" lon="2.11501">
        <ele>27</ele>
        <time>2023-10-26T08:29:30.423+00:00</time>
      </trkpt>
      <trkpt lat="48.8842" lon="2.11498">
        <ele>27</ele>
        <time>2023-10-26T08:29:34.476+00:00</time>
      </trkpt>
      <trkpt lat="48.88425" lon="2.11494">
        <ele>27</ele>
        <time>2023-10-26T08:29:39.006+00:00</time>
      </trkpt>
      <trkpt lat="48.8843" lon="2.11488">
        <ele>27</ele>
        <time>2023-10-26T08:29:43.462+00:00</time>
      </trkpt>
      <trkpt lat="48.88436" lon="2.11488">
        <ele>27</ele>
        <time>2023-10-26T08:29:48.467+00:00</time>
      </trkpt>
      <trkpt lat="48.88442" lon="2.11478">
        <ele>26</ele>
        <time>2023-10-26T08:29:53.346+00:00</time>
      </trkpt>
      <trkpt lat="48.88446" lon="2.11474">
        <ele>26</ele>
        <time>2023-10-26T08:29:57.244+00:00</time>
      </trkpt>
      <trkpt lat="48.88451" lon="2.11469">
        <ele>26</ele>
        <time>2023-10-26T08:30:02.126+00:00</time>
      </trkpt>
      <trkpt lat="48.88456" lon="2.11464">
        <ele>26</ele>
        <time>2023-10-26T08:30:06.422+00:00</time>
      </trkpt>
      <trkpt lat="48.88461" lon="2.11461">
        <ele>25</ele>
        <time>2023-10-26T08:30:10.951+00:00</time>
      </trkpt>
      <trkpt lat="48.88467" lon="2.11457">
        <ele>25</ele>
        <time>2023-10-26T08:30:15.003+00:00</time>
      </trkpt>
      <trkpt lat="48.88472" lon="2.11454">
        <ele>25</ele>
        <time>2023-10-26T08:30:19.652+00:00</time>
      </trkpt>
      <trkpt lat="48.88476" lon="2.11449">
        <ele>25</ele>
        <time>2023-10-26T08:30:24.062+00:00</time>
      </trkpt>
      <trkpt lat="48.8848" lon="2.11445">
        <ele>25</ele>
        <time>2023-10-26T08:30:28.431+00:00</time>
      </trkpt>
      <trkpt lat="48.88485" lon="2.11441">
        <ele>25</ele>
        <time>2023-10-26T08:30:32.702+00:00</time>
      </trkpt>
      <trkpt lat="48.88491" lon="2.11436">
        <ele>24</ele>
        <time>2023-10-26T08:30:37.054+00:00</time>
      </trkpt>
      <trkpt lat="48.88496" lon="2.11432">
        <ele>24</ele>
        <time>2023-10-26T08:30:40.987+00:00</time>
      </trkpt>
      <trkpt lat="48.88499" lon="2.11426">
        <ele>24</ele>
        <time>2023-10-26T08:30:45.463+00:00</time>
      </trkpt>
      <trkpt lat="48.88504" lon="2.1142">
        <ele>24</ele>
        <time>2023-10-26T08:30:49.450+00:00</time>
      </trkpt>
      <trkpt lat="48.8851" lon="2.11415">
        <ele>24</ele>
        <time>2023-10-26T08:30:53.979+00:00</time>
      </trkpt>
      <trkpt lat="48.88515" lon="2.11411">
        <ele>24</ele>
        <time>2023-10-26T08:30:58.985+00:00</time>
      </trkpt>
      <trkpt lat="48.8852" lon="2.11406">
        <ele>24</ele>
        <time>2023-10-26T08:31:03.633+00:00</time>
      </trkpt>
      <trkpt lat="48.88524" lon="2.114">
        <ele>25</ele>
        <time>2023-10-26T08:31:07.961+00:00</time>
      </trkpt>
      <trkpt lat="48.88528" lon="2.11396">
        <ele>25</ele>
        <time>2023-10-26T08:31:12.334+00:00</time>
      </trkpt>
      <trkpt lat="48.88534" lon="2.11393">
        <ele>25</ele>
        <time>2023-10-26T08:31:16.863+00:00</time>
      </trkpt>
      <trkpt lat="48.8854" lon="2.11387">
        <ele>25</ele>
        <time>2023-10-26T08:31:21.428+00:00</time>
      </trkpt>
      <trkpt lat="48.88544" lon="2.11383">
        <ele>26</ele>
        <time>2023-10-26T08:31:25.325+00:00</time>
      </trkpt>
      <trkpt lat="48.88548" lon="2.11379">
        <ele>26</ele>
        <time>2023-10-26T08:31:29.854+00:00</time>
      </trkpt>
      <trkpt lat="48.88553" lon="2.11373">
        <ele>26</ele>
        <time>2023-10-26T08:31:34.384+00:00</time>
      </trkpt>
      <trkpt lat="48.88559" lon="2.1137">
        <ele>26</ele>
        <time>2023-10-26T08:31:39.032+00:00</time>
      </trkpt>
      <trkpt lat="48.88563" lon="2.11365">
        <ele>26</ele>
        <time>2023-10-26T08:31:43.427+00:00</time>
      </trkpt>
      <trkpt lat="48.88567" lon="2.1136">
        <ele>26</ele>
        <time>2023-10-26T08:31:47.698+00:00</time>
      </trkpt>
      <trkpt lat="48.88572" lon="2.11357">
        <ele>26</ele>
        <time>2023-10-26T08:31:52.024+00:00</time>
      </trkpt>
      <trkpt lat="48.88576" lon="2.11352">
        <ele>26</ele>
        <time>2023-10-26T08:31:56.398+00:00</time>
      </trkpt>
      <trkpt lat="48.8858" lon="2.11348">
        <ele>26</ele>
        <time>2023-10-26T08:32:00.802+00:00</time>
      </trkpt>
      <trkpt lat="48.88583" lon="2.11343">
        <ele>26</ele>
        <time>2023-10-26T08:32:05.253+00:00</time>
      </trkpt>
      <trkpt lat="48.88587" lon="2.11338">
        <ele>26</ele>
        <time>2023-10-26T08:32:09.702+00:00</time>
      </trkpt>
      <trkpt lat="48.88592" lon="2.11333">
        <ele>26</ele>
        <time>2023-10-26T08:32:14.192+00:00</time>
      </trkpt>
      <trkpt lat="48.88596" lon="2.11328">
        <ele>26</ele>
        <time>2023-10-26T08:32:18.602+00:00</time>
      </trkpt>
      <trkpt lat="48.886" lon="2.11324">
        <ele>26</ele>
        <time>2023-10-26T08:32:23.007+00:00</time>
      </trkpt>
      <trkpt lat="48.88604" lon="2.11319">
        <ele>27</ele>
        <time>2023-10-26T08:32:27.308+00:00</time>
      </trkpt>
      <trkpt lat="48.88609" lon="2.11314">
        <ele>27</ele>
        <time>2023-10-26T08:32:31.593+00:00</time>
      </trkpt>
      <trkpt lat="48.88614" lon="2.1131">
        <ele>27</ele>
        <time>2023-10-26T08:32:35.989+00:00</time>
      </trkpt>
      <trkpt lat="48.88619" lon="2.11305">
        <ele>27</ele>
        <time>2023-10-26T08:32:40.293+00:00</time>
      </trkpt>
      <trkpt lat="48.88624" lon="2.11299">
        <ele>27</ele>
        <time>2023-10-26T08:32:44.677+00:00</time>
      </trkpt>
      <trkpt lat="48.88628" lon="2.11295">
        <ele>28</ele>
        <time>2023-10-26T08:32:48.993+00:00</time>
      </trkpt>
      <trkpt lat="48.88631" lon="2.11292">
        <ele>28</ele>
        <time>2023-10-26T08:32:53.046+00:00</time>
      </trkpt>
      <trkpt lat="48.88636" lon="2.1129">
        <ele>28</ele>
        <time>2023-10-26T08:32:57.217+00:00</time>
      </trkpt>
      <trkpt lat="48.8864" lon="2.11287">
        <ele>28</ele>
        <time>2023-10-26T08:33:01.269+00:00</time>
      </trkpt>
      <trkpt lat="48.88644" lon="2.11284">
        <ele>28</ele>
        <time>2023-10-26T08:33:06.037+00:00</time>
      </trkpt>
      <trkpt lat="48.8865" lon="2.11281">
        <ele>28</ele>
        <time>2023-10-26T08:33:10.804+00:00</time>
      </trkpt>
      <trkpt lat="48.88654" lon="2.11278">
        <ele>29</ele>
        <time>2023-10-26T08:33:14.856+00:00</time>
      </trkpt>
      <trkpt lat="48.88657" lon="2.11274">
        <ele>29</ele>
        <time>2023-10-26T08:33:19.028+00:00</time>
      </trkpt>
      <trkpt lat="48.88661" lon="2.11272">
        <ele>29</ele>
        <time>2023-10-26T08:33:23.080+00:00</time>
      </trkpt>
      <trkpt lat="48.88666" lon="2.11268">
        <ele>29</ele>
        <time>2023-10-26T08:33:27.013+00:00</time>
      </trkpt>
      <trkpt lat="48.88672" lon="2.11263">
        <ele>29</ele>
        <time>2023-10-26T08:33:31.661+00:00</time>
      </trkpt>
      <trkpt lat="48.88677" lon="2.11258">
        <ele>29</ele>
        <time>2023-10-26T08:33:36.188+00:00</time>
      </trkpt>
      <trkpt lat="48.88682" lon="2.11253">
        <ele>28</ele>
        <time>2023-10-26T08:33:40.600+00:00</time>
      </trkpt>
      <trkpt lat="48.88687" lon="2.11249">
        <ele>28</ele>
        <time>2023-10-26T08:33:45.010+00:00</time>
      </trkpt>
      <trkpt lat="48.88692" lon="2.11245">
        <ele>28</ele>
        <time>2023-10-26T08:33:49.465+00:00</time>
      </trkpt>
      <trkpt lat="48.88696" lon="2.11241">
        <ele>28</ele>
        <time>2023-10-26T08:33:53.925+00:00</time>
      </trkpt>
      <trkpt lat="48.88701" lon="2.11236">
        <ele>29</ele>
        <time>2023-10-26T08:33:58.365+00:00</time>
      </trkpt>
      <trkpt lat="48.88705" lon="2.11231">
        <ele>29</ele>
        <time>2023-10-26T08:34:02.702+00:00</time>
      </trkpt>
      <trkpt lat="48.88709" lon="2.11226">
        <ele>25</ele>
        <time>2023-10-26T08:34:07.059+00:00</time>
      </trkpt>
      <trkpt lat="48.88712" lon="2.11221">
        <ele>25</ele>
        <time>2023-10-26T08:34:11.469+00:00</time>
      </trkpt>
      <trkpt lat="48.88715" lon="2.11214">
        <ele>25</ele>
        <time>2023-10-26T08:34:16.004+00:00</time>
      </trkpt>
      <trkpt lat="48.88718" lon="2.11208">
        <ele>27</ele>
        <time>2023-10-26T08:34:20.526+00:00</time>
      </trkpt>
      <trkpt lat="48.88722" lon="2.11202">
        <ele>27</ele>
        <time>2023-10-26T08:34:24.981+00:00</time>
      </trkpt>
      <trkpt lat="48.88726" lon="2.11197">
        <ele>27</ele>
        <time>2023-10-26T08:34:29.346+00:00</time>
      </trkpt>
      <trkpt lat="48.88731" lon="2.11192">
        <ele>27</ele>
        <time>2023-10-26T08:34:33.820+00:00</time>
      </trkpt>
      <trkpt lat="48.88736" lon="2.11187">
        <ele>23</ele>
        <time>2023-10-26T08:34:38.261+00:00</time>
      </trkpt>
      <trkpt lat="48.88742" lon="2.11182">
        <ele>23</ele>
        <time>2023-10-26T08:34:42.700+00:00</time>
      </trkpt>
      <trkpt lat="48.88746" lon="2.11178">
        <ele>24</ele>
        <time>2023-10-26T08:34:47.082+00:00</time>
      </trkpt>
      <trkpt lat="48.88752" lon="2.11173">
        <ele>24</ele>
        <time>2023-10-26T08:34:51.500+00:00</time>
      </trkpt>
      <trkpt lat="48.88757" lon="2.11169">
        <ele>24</ele>
        <time>2023-10-26T08:34:55.805+00:00</time>
      </trkpt>
      <trkpt lat="48.88761" lon="2.11166">
        <ele>24</ele>
        <time>2023-10-26T08:34:59.857+00:00</time>
      </trkpt>
      <trkpt lat="48.88766" lon="2.11162">
        <ele>22</ele>
        <time>2023-10-26T08:35:04.475+00:00</time>
      </trkpt>
      <trkpt lat="48.88772" lon="2.11157">
        <ele>22</ele>
        <time>2023-10-26T08:35:08.902+00:00</time>
      </trkpt>
      <trkpt lat="48.88777" lon="2.11153">
        <ele>22</ele>
        <time>2023-10-26T08:35:13.325+00:00</time>
      </trkpt>
      <trkpt lat="48.88782" lon="2.11149">
        <ele>24</ele>
        <time>2023-10-26T08:35:17.839+00:00</time>
      </trkpt>
      <trkpt lat="48.88787" lon="2.11145">
        <ele>24</ele>
        <time>2023-10-26T08:35:22.219+00:00</time>
      </trkpt>
      <trkpt lat="48.88793" lon="2.11141">
        <ele>24</ele>
        <time>2023-10-26T08:35:26.638+00:00</time>
      </trkpt>
      <trkpt lat="48.88799" lon="2.11137">
        <ele>24</ele>
        <time>2023-10-26T08:35:31.058+00:00</time>
      </trkpt>
      <trkpt lat="48.88804" lon="2.11133">
        <ele>24</ele>
        <time>2023-10-26T08:35:35.373+00:00</time>
      </trkpt>
      <trkpt lat="48.88809" lon="2.11129">
        <ele>24</ele>
        <time>2023-10-26T08:35:39.743+00:00</time>
      </trkpt>
      <trkpt lat="48.88811" lon="2.11126">
        <ele>24</ele>
        <time>2023-10-26T08:35:44.074+00:00</time>
      </trkpt>
      <trkpt lat="48.88814" lon="2.11123">
        <ele>25</ele>
        <time>2023-10-26T08:35:48.461+00:00</time>
      </trkpt>
      <trkpt lat="48.88818" lon="2.11119">
        <ele>25</ele>
        <time>2023-10-26T08:35:52.860+00:00</time>
      </trkpt>
      <trkpt lat="48.88823" lon="2.11115">
        <ele>27</ele>
        <time>2023-10-26T08:35:57.298+00:00</time>
      </trkpt>
      <trkpt lat="48.88827" lon="2.1111">
        <ele>27</ele>
        <time>2023-10-26T08:36:01.678+00:00</time>
      </trkpt>
      <trkpt lat="48.88832" lon="2.11106">
        <ele>27</ele>
        <time>2023-10-26T08:36:06.003+00:00</time>
      </trkpt>
      <trkpt lat="48.88836" lon="2.11103">
        <ele>27</ele>
        <time>2023-10-26T08:36:10.379+00:00</time>
      </trkpt>
      <trkpt lat="48.88841" lon="2.11099">
        <ele>27</ele>
        <time>2023-10-26T08:36:14.227+00:00</time>
      </trkpt>
      <trkpt lat="48.88847" lon="2.11095">
        <ele>26</ele>
        <time>2023-10-26T08:36:18.566+00:00</time>
      </trkpt>
      <trkpt lat="48.88852" lon="2.1109">
        <ele>25</ele>
        <time>2023-10-26T08:36:22.883+00:00</time>
      </trkpt>
      <trkpt lat="48.88858" lon="2.11086">
        <ele>25</ele>
        <time>2023-10-26T08:36:27.224+00:00</time>
      </trkpt>
      <trkpt lat="48.88862" lon="2.11082">
        <ele>25</ele>
        <time>2023-10-26T08:36:31.548+00:00</time>
      </trkpt>
      <trkpt lat="48.88866" lon="2.11078">
        <ele>25</ele>
        <time>2023-10-26T08:36:35.918+00:00</time>
      </trkpt>
      <trkpt lat="48.88871" lon="2.11074">
        <ele>25</ele>
        <time>2023-10-26T08:36:39.851+00:00</time>
      </trkpt>
      <trkpt lat="48.88876" lon="2.11068">
        <ele>23</ele>
        <time>2023-10-26T08:36:44.261+00:00</time>
      </trkpt>
      <trkpt lat="48.8888" lon="2.11062">
        <ele>23</ele>
        <time>2023-10-26T08:36:48.670+00:00</time>
      </trkpt>
      <trkpt lat="48.88885" lon="2.11058">
        <ele>23</ele>
        <time>2023-10-26T08:36:53.148+00:00</time>
      </trkpt>
      <trkpt lat="48.88891" lon="2.11054">
        <ele>23</ele>
        <time>2023-10-26T08:36:57.585+00:00</time>
      </trkpt>
      <trkpt lat="48.88898" lon="2.11051">
        <ele>23</ele>
        <time>2023-10-26T08:37:02.019+00:00</time>
      </trkpt>
      <trkpt lat="48.88905" lon="2.11047">
        <ele>24</ele>
        <time>2023-10-26T08:37:06.667+00:00</time>
      </trkpt>
      <trkpt lat="48.88912" lon="2.11042">
        <ele>24</ele>
        <time>2023-10-26T08:37:11.434+00:00</time>
      </trkpt>
      <trkpt lat="48.88917" lon="2.11039">
        <ele>24</ele>
        <time>2023-10-26T08:37:14.702+00:00</time>
      </trkpt>
      <trkpt lat="48.88924" lon="2.11035">
        <ele>24</ele>
        <time>2023-10-26T08:37:20+00:00</time>
      </trkpt>
      <trkpt lat="48.8893" lon="2.11031">
        <ele>24</ele>
        <time>2023-10-26T08:37:24.427+00:00</time>
      </trkpt>
      <trkpt lat="48.88935" lon="2.11028">
        <ele>23</ele>
        <time>2023-10-26T08:37:28.565+00:00</time>
      </trkpt>
      <trkpt lat="48.88941" lon="2.11023">
        <ele>23</ele>
        <time>2023-10-26T08:37:33.010+00:00</time>
      </trkpt>
      <trkpt lat="48.88945" lon="2.11018">
        <ele>23</ele>
        <time>2023-10-26T08:37:37.659+00:00</time>
      </trkpt>
      <trkpt lat="48.88951" lon="2.11014">
        <ele>23</ele>
        <time>2023-10-26T08:37:42.427+00:00</time>
      </trkpt>
      <trkpt lat="48.88955" lon="2.11011">
        <ele>23</ele>
        <time>2023-10-26T08:37:46.944+00:00</time>
      </trkpt>
      <trkpt lat="48.88959" lon="2.11006">
        <ele>25</ele>
        <time>2023-10-26T08:37:51.459+00:00</time>
      </trkpt>
      <trkpt lat="48.88962" lon="2.10998">
        <ele>25</ele>
        <time>2023-10-26T08:37:56.017+00:00</time>
      </trkpt>
      <trkpt lat="48.88973" lon="2.10993">
        <ele>25</ele>
        <time>2023-10-26T08:38:09.129+00:00</time>
      </trkpt>
      <trkpt lat="48.88973" lon="2.10991">
        <ele>25</ele>
        <time>2023-10-26T08:38:14.254+00:00</time>
      </trkpt>
      <trkpt lat="48.88973" lon="2.10991">
        <ele>25</ele>
        <time>2023-10-26T08:38:19.022+00:00</time>
      </trkpt>
      <trkpt lat="48.88974" lon="2.1099">
        <ele>25</ele>
        <time>2023-10-26T08:38:23.194+00:00</time>
      </trkpt>
      <trkpt lat="48.88977" lon="2.10989">
        <ele>25</ele>
        <time>2023-10-26T08:38:27.247+00:00</time>
      </trkpt>
      <trkpt lat="48.88983" lon="2.10987">
        <ele>25</ele>
        <time>2023-10-26T08:38:32.237+00:00</time>
      </trkpt>
      <trkpt lat="48.88987" lon="2.10984">
        <ele>25</ele>
        <time>2023-10-26T08:38:36.306+00:00</time>
      </trkpt>
      <trkpt lat="48.88989" lon="2.10981">
        <ele>25</ele>
        <time>2023-10-26T08:38:40.239+00:00</time>
      </trkpt>
      <trkpt lat="48.88993" lon="2.10978">
        <ele>25</ele>
        <time>2023-10-26T08:38:44.649+00:00</time>
      </trkpt>
      <trkpt lat="48.88996" lon="2.10976">
        <ele>25</ele>
        <time>2023-10-26T08:38:48.702+00:00</time>
      </trkpt>
      <trkpt lat="48.88999" lon="2.10973">
        <ele>25</ele>
        <time>2023-10-26T08:38:52.874+00:00</time>
      </trkpt>
      <trkpt lat="48.89003" lon="2.10969">
        <ele>25</ele>
        <time>2023-10-26T08:38:57.642+00:00</time>
      </trkpt>
      <trkpt lat="48.89006" lon="2.10965">
        <ele>25</ele>
        <time>2023-10-26T08:39:02.290+00:00</time>
      </trkpt>
      <trkpt lat="48.89009" lon="2.10961">
        <ele>25</ele>
        <time>2023-10-26T08:39:06.462+00:00</time>
      </trkpt>
      <trkpt lat="48.89013" lon="2.10957">
        <ele>25</ele>
        <time>2023-10-26T08:39:10.634+00:00</time>
      </trkpt>
      <trkpt lat="48.89016" lon="2.10953">
        <ele>24</ele>
        <time>2023-10-26T08:39:14.806+00:00</time>
      </trkpt>
      <trkpt lat="48.89021" lon="2.10951">
        <ele>24</ele>
        <time>2023-10-26T08:39:18.858+00:00</time>
      </trkpt>
      <trkpt lat="48.89025" lon="2.10949">
        <ele>24</ele>
        <time>2023-10-26T08:39:22.911+00:00</time>
      </trkpt>
      <trkpt lat="48.8903" lon="2.10946">
        <ele>24</ele>
        <time>2023-10-26T08:39:27.441+00:00</time>
      </trkpt>
      <trkpt lat="48.89035" lon="2.10943">
        <ele>24</ele>
        <time>2023-10-26T08:39:31.612+00:00</time>
      </trkpt>
      <trkpt lat="48.89039" lon="2.1094">
        <ele>24</ele>
        <time>2023-10-26T08:39:35.702+00:00</time>
      </trkpt>
      <trkpt lat="48.89043" lon="2.10937">
        <ele>23</ele>
        <time>2023-10-26T08:39:54.259+00:00</time>
      </trkpt>
      <trkpt lat="48.89045" lon="2.10937">
        <ele>23</ele>
        <time>2023-10-26T08:39:59.027+00:00</time>
      </trkpt>
      <trkpt lat="48.89047" lon="2.10936">
        <ele>23</ele>
        <time>2023-10-26T08:40:03.675+00:00</time>
      </trkpt>
      <trkpt lat="48.8905" lon="2.10934">
        <ele>23</ele>
        <time>2023-10-26T08:40:07.847+00:00</time>
      </trkpt>
      <trkpt lat="48.89054" lon="2.10931">
        <ele>23</ele>
        <time>2023-10-26T08:40:12.019+00:00</time>
      </trkpt>
      <trkpt lat="48.89058" lon="2.10929">
        <ele>22</ele>
        <time>2023-10-26T08:40:16.702+00:00</time>
      </trkpt>
      <trkpt lat="48.89063" lon="2.10926">
        <ele>22</ele>
        <time>2023-10-26T08:40:20.839+00:00</time>
      </trkpt>
      <trkpt lat="48.89068" lon="2.10924">
        <ele>22</ele>
        <time>2023-10-26T08:40:25.011+00:00</time>
      </trkpt>
      <trkpt lat="48.89073" lon="2.10922">
        <ele>23</ele>
        <time>2023-10-26T08:40:29.182+00:00</time>
      </trkpt>
      <trkpt lat="48.89077" lon="2.10919">
        <ele>23</ele>
        <time>2023-10-26T08:40:33.235+00:00</time>
      </trkpt>
      <trkpt lat="48.89082" lon="2.10916">
        <ele>23</ele>
        <time>2023-10-26T08:40:38.003+00:00</time>
      </trkpt>
      <trkpt lat="48.89087" lon="2.10914">
        <ele>23</ele>
        <time>2023-10-26T08:40:42.651+00:00</time>
      </trkpt>
      <trkpt lat="48.8909" lon="2.10914">
        <ele>23</ele>
        <time>2023-10-26T08:40:46.584+00:00</time>
      </trkpt>
      <trkpt lat="48.89096" lon="2.10913">
        <ele>23</ele>
        <time>2023-10-26T08:40:51.233+00:00</time>
      </trkpt>
      <trkpt lat="48.89101" lon="2.1091">
        <ele>25</ele>
        <time>2023-10-26T08:40:55.702+00:00</time>
      </trkpt>
      <trkpt lat="48.89107" lon="2.10907">
        <ele>25</ele>
        <time>2023-10-26T08:41:00.292+00:00</time>
      </trkpt>
      <trkpt lat="48.89112" lon="2.10905">
        <ele>25</ele>
        <time>2023-10-26T08:41:04.821+00:00</time>
      </trkpt>
      <trkpt lat="48.89117" lon="2.10905">
        <ele>25</ele>
        <time>2023-10-26T08:41:09.231+00:00</time>
      </trkpt>
      <trkpt lat="48.89122" lon="2.10904">
        <ele>25</ele>
        <time>2023-10-26T08:41:13.641+00:00</time>
      </trkpt>
      <trkpt lat="48.89128" lon="2.10903">
        <ele>24</ele>
        <time>2023-10-26T08:41:18.170+00:00</time>
      </trkpt>
      <trkpt lat="48.89133" lon="2.10901">
        <ele>24</ele>
        <time>2023-10-26T08:41:22.581+00:00</time>
      </trkpt>
      <trkpt lat="48.89138" lon="2.109">
        <ele>24</ele>
        <time>2023-10-26T08:41:26.991+00:00</time>
      </trkpt>
      <trkpt lat="48.89143" lon="2.10899">
        <ele>24</ele>
        <time>2023-10-26T08:41:31.464+00:00</time>
      </trkpt>
      <trkpt lat="48.89148" lon="2.10898">
        <ele>24</ele>
        <time>2023-10-26T08:41:35.930+00:00</time>
      </trkpt>
      <trkpt lat="48.89154" lon="2.10896">
        <ele>24</ele>
        <time>2023-10-26T08:41:40.366+00:00</time>
      </trkpt>
      <trkpt lat="48.8916" lon="2.10897">
        <ele>24</ele>
        <time>2023-10-26T08:41:44.702+00:00</time>
      </trkpt>
      <trkpt lat="48.89167" lon="2.10898">
        <ele>24</ele>
        <time>2023-10-26T08:41:49.161+00:00</time>
      </trkpt>
      <trkpt lat="48.89173" lon="2.10898">
        <ele>24</ele>
        <time>2023-10-26T08:41:53.571+00:00</time>
      </trkpt>
      <trkpt lat="48.89177" lon="2.10896">
        <ele>24</ele>
        <time>2023-10-26T08:41:57.981+00:00</time>
      </trkpt>
      <trkpt lat="48.89182" lon="2.10896">
        <ele>22</ele>
        <time>2023-10-26T08:42:02.034+00:00</time>
      </trkpt>
      <trkpt lat="48.89187" lon="2.10896">
        <ele>22</ele>
        <time>2023-10-26T08:42:07.046+00:00</time>
      </trkpt>
      <trkpt lat="48.89194" lon="2.10897">
        <ele>22</ele>
        <time>2023-10-26T08:42:10.973+00:00</time>
      </trkpt>
      <trkpt lat="48.89199" lon="2.10898">
        <ele>22</ele>
        <time>2023-10-26T08:42:15.622+00:00</time>
      </trkpt>
      <trkpt lat="48.89204" lon="2.10899">
        <ele>22</ele>
        <time>2023-10-26T08:42:19.702+00:00</time>
      </trkpt>
      <trkpt lat="48.89211" lon="2.109">
        <ele>21</ele>
        <time>2023-10-26T08:42:24.406+00:00</time>
      </trkpt>
      <trkpt lat="48.89218" lon="2.10901">
        <ele>21</ele>
        <time>2023-10-26T08:42:28.852+00:00</time>
      </trkpt>
      <trkpt lat="48.89224" lon="2.109">
        <ele>21</ele>
        <time>2023-10-26T08:42:33.262+00:00</time>
      </trkpt>
      <trkpt lat="48.8923" lon="2.10901">
        <ele>21</ele>
        <time>2023-10-26T08:42:37.792+00:00</time>
      </trkpt>
      <trkpt lat="48.89235" lon="2.109">
        <ele>21</ele>
        <time>2023-10-26T08:42:42.325+00:00</time>
      </trkpt>
      <trkpt lat="48.89241" lon="2.10901">
        <ele>22</ele>
        <time>2023-10-26T08:42:46.702+00:00</time>
      </trkpt>
      <trkpt lat="48.89246" lon="2.10902">
        <ele>22</ele>
        <time>2023-10-26T08:42:50.702+00:00</time>
      </trkpt>
      <trkpt lat="48.89251" lon="2.10903">
        <ele>22</ele>
        <time>2023-10-26T08:42:55.320+00:00</time>
      </trkpt>
      <trkpt lat="48.89257" lon="2.10903">
        <ele>22</ele>
        <time>2023-10-26T08:42:59.698+00:00</time>
      </trkpt>
      <trkpt lat="48.89263" lon="2.10904">
        <ele>23</ele>
        <time>2023-10-26T08:43:04.014+00:00</time>
      </trkpt>
      <trkpt lat="48.89269" lon="2.10904">
        <ele>25</ele>
        <time>2023-10-26T08:43:08.440+00:00</time>
      </trkpt>
      <trkpt lat="48.89274" lon="2.10905">
        <ele>25</ele>
        <time>2023-10-26T08:43:12.818+00:00</time>
      </trkpt>
      <trkpt lat="48.89281" lon="2.10905">
        <ele>25</ele>
        <time>2023-10-26T08:43:17.244+00:00</time>
      </trkpt>
      <trkpt lat="48.89286" lon="2.10905">
        <ele>25</ele>
        <time>2023-10-26T08:43:21.640+00:00</time>
      </trkpt>
      <trkpt lat="48.89291" lon="2.10906">
        <ele>25</ele>
        <time>2023-10-26T08:43:26.019+00:00</time>
      </trkpt>
      <trkpt lat="48.89296" lon="2.10906">
        <ele>27</ele>
        <time>2023-10-26T08:43:30.400+00:00</time>
      </trkpt>
      <trkpt lat="48.89302" lon="2.10906">
        <ele>27</ele>
        <time>2023-10-26T08:43:34.702+00:00</time>
      </trkpt>
      <trkpt lat="48.89307" lon="2.10907">
        <ele>27</ele>
        <time>2023-10-26T08:43:39.139+00:00</time>
      </trkpt>
      <trkpt lat="48.8931" lon="2.10906">
        <ele>27</ele>
        <time>2023-10-26T08:43:43.580+00:00</time>
      </trkpt>
      <trkpt lat="48.89316" lon="2.10907">
        <ele>27</ele>
        <time>2023-10-26T08:43:47.999+00:00</time>
      </trkpt>
      <trkpt lat="48.89322" lon="2.10909">
        <ele>27</ele>
        <time>2023-10-26T08:43:52.321+00:00</time>
      </trkpt>
      <trkpt lat="48.89328" lon="2.1091">
        <ele>27</ele>
        <time>2023-10-26T08:43:56.456+00:00</time>
      </trkpt>
      <trkpt lat="48.89334" lon="2.10911">
        <ele>27</ele>
        <time>2023-10-26T08:44:00.985+00:00</time>
      </trkpt>
      <trkpt lat="48.89339" lon="2.10912">
        <ele>27</ele>
        <time>2023-10-26T08:44:05.463+00:00</time>
      </trkpt>
      <trkpt lat="48.89346" lon="2.10913">
        <ele>27</ele>
        <time>2023-10-26T08:44:09.924+00:00</time>
      </trkpt>
      <trkpt lat="48.89352" lon="2.10913">
        <ele>26</ele>
        <time>2023-10-26T08:44:14.418+00:00</time>
      </trkpt>
      <trkpt lat="48.89356" lon="2.10913">
        <ele>26</ele>
        <time>2023-10-26T08:44:18.863+00:00</time>
      </trkpt>
      <trkpt lat="48.89367" lon="2.10906">
        <ele>26</ele>
        <time>2023-10-26T08:44:39.244+00:00</time>
      </trkpt>
      <trkpt lat="48.89368" lon="2.10908">
        <ele>26</ele>
        <time>2023-10-26T08:44:44.011+00:00</time>
      </trkpt>
      <trkpt lat="48.89375" lon="2.10909">
        <ele>26</ele>
        <time>2023-10-26T08:44:48.183+00:00</time>
      </trkpt>
      <trkpt lat="48.89377" lon="2.10906">
        <ele>23</ele>
        <time>2023-10-26T08:44:53.427+00:00</time>
      </trkpt>
      <trkpt lat="48.89378" lon="2.10907">
        <ele>23</ele>
        <time>2023-10-26T08:44:57.002+00:00</time>
      </trkpt>
      <trkpt lat="48.89375" lon="2.10903">
        <ele>22</ele>
        <time>2023-10-26T08:46:08.480+00:00</time>
      </trkpt>
      <trkpt lat="48.89376" lon="2.10902">
        <ele>22</ele>
        <time>2023-10-26T08:46:12.465+00:00</time>
      </trkpt>
      <trkpt lat="48.89376" lon="2.10898">
        <ele>22</ele>
        <time>2023-10-26T08:46:17.469+00:00</time>
      </trkpt>
      <trkpt lat="48.89377" lon="2.10894">
        <ele>22</ele>
        <time>2023-10-26T08:46:22.040+00:00</time>
      </trkpt>
      <trkpt lat="48.89377" lon="2.10884">
        <ele>22</ele>
        <time>2023-10-26T08:46:27.403+00:00</time>
      </trkpt>
      <trkpt lat="48.89378" lon="2.10885">
        <ele>22</ele>
        <time>2023-10-26T08:46:32.052+00:00</time>
      </trkpt>
      <trkpt lat="48.89378" lon="2.10888">
        <ele>22</ele>
        <time>2023-10-26T08:46:37.415+00:00</time>
      </trkpt>
      <trkpt lat="48.89377" lon="2.10894">
        <ele>22</ele>
        <time>2023-10-26T08:46:41.229+00:00</time>
      </trkpt>
      <trkpt lat="48.89373" lon="2.109">
        <ele>25</ele>
        <time>2023-10-26T08:46:45.996+00:00</time>
      </trkpt>
      <trkpt lat="48.89369" lon="2.109">
        <ele>25</ele>
        <time>2023-10-26T08:46:51.240+00:00</time>
      </trkpt>
      <trkpt lat="48.89369" lon="2.10902">
        <ele>25</ele>
        <time>2023-10-26T08:46:55.411+00:00</time>
      </trkpt>
      <trkpt lat="48.8937" lon="2.10907">
        <ele>26</ele>
        <time>2023-10-26T08:47:00.060+00:00</time>
      </trkpt>
      <trkpt lat="48.89375" lon="2.1091">
        <ele>23</ele>
        <time>2023-10-26T08:47:03.993+00:00</time>
      </trkpt>
      <trkpt lat="48.89374" lon="2.1091">
        <ele>26</ele>
        <time>2023-10-26T08:57:21.854+00:00</time>
      </trkpt>
      <trkpt lat="48.89373" lon="2.10917">
        <ele>26</ele>
        <time>2023-10-26T08:57:26.026+00:00</time>
      </trkpt>
      <trkpt lat="48.89373" lon="2.10926">
        <ele>26</ele>
        <time>2023-10-26T08:57:30.197+00:00</time>
      </trkpt>
      <trkpt lat="48.89375" lon="2.10933">
        <ele>25</ele>
        <time>2023-10-26T08:57:34.845+00:00</time>
      </trkpt>
      <trkpt lat="48.89377" lon="2.10942">
        <ele>23</ele>
        <time>2023-10-26T08:57:39.255+00:00</time>
      </trkpt>
      <trkpt lat="48.89379" lon="2.10948">
        <ele>23</ele>
        <time>2023-10-26T08:57:43.903+00:00</time>
      </trkpt>
      <trkpt lat="48.89382" lon="2.10948">
        <ele>23</ele>
        <time>2023-10-26T08:57:47.836+00:00</time>
      </trkpt>
      <trkpt lat="48.89386" lon="2.10949">
        <ele>23</ele>
        <time>2023-10-26T08:57:52.008+00:00</time>
      </trkpt>
      <trkpt lat="48.8939" lon="2.10949">
        <ele>23</ele>
        <time>2023-10-26T08:57:56.656+00:00</time>
      </trkpt>
      <trkpt lat="48.89395" lon="2.1095">
        <ele>23</ele>
        <time>2023-10-26T08:58:00.589+00:00</time>
      </trkpt>
      <trkpt lat="48.89399" lon="2.10953">
        <ele>23</ele>
        <time>2023-10-26T08:58:05.237+00:00</time>
      </trkpt>
      <trkpt lat="48.89406" lon="2.10955">
        <ele>24</ele>
        <time>2023-10-26T08:58:09.408+00:00</time>
      </trkpt>
      <trkpt lat="48.89413" lon="2.10955">
        <ele>24</ele>
        <time>2023-10-26T08:58:14.022+00:00</time>
      </trkpt>
      <trkpt lat="48.89418" lon="2.10952">
        <ele>24</ele>
        <time>2023-10-26T08:58:18.581+00:00</time>
      </trkpt>
      <trkpt lat="48.89423" lon="2.10949">
        <ele>24</ele>
        <time>2023-10-26T08:58:22.995+00:00</time>
      </trkpt>
      <trkpt lat="48.89431" lon="2.10951">
        <ele>25</ele>
        <time>2023-10-26T08:58:27.641+00:00</time>
      </trkpt>
      <trkpt lat="48.89435" lon="2.10951">
        <ele>25</ele>
        <time>2023-10-26T08:58:32.148+00:00</time>
      </trkpt>
      <trkpt lat="48.8944" lon="2.10945">
        <ele>25</ele>
        <time>2023-10-26T08:58:36.582+00:00</time>
      </trkpt>
      <trkpt lat="48.89447" lon="2.10945">
        <ele>25</ele>
        <time>2023-10-26T08:58:40.992+00:00</time>
      </trkpt>
      <trkpt lat="48.89454" lon="2.10944">
        <ele>25</ele>
        <time>2023-10-26T08:58:45.505+00:00</time>
      </trkpt>
      <trkpt lat="48.89461" lon="2.10941">
        <ele>24</ele>
        <time>2023-10-26T08:58:49.931+00:00</time>
      </trkpt>
      <trkpt lat="48.89466" lon="2.10937">
        <ele>24</ele>
        <time>2023-10-26T08:58:54.305+00:00</time>
      </trkpt>
      <trkpt lat="48.89472" lon="2.10937">
        <ele>24</ele>
        <time>2023-10-26T08:58:58.702+00:00</time>
      </trkpt>
      <trkpt lat="48.89478" lon="2.10937">
        <ele>24</ele>
        <time>2023-10-26T08:59:03.160+00:00</time>
      </trkpt>
      <trkpt lat="48.89483" lon="2.10938">
        <ele>24</ele>
        <time>2023-10-26T08:59:07.213+00:00</time>
      </trkpt>
      <trkpt lat="48.89486" lon="2.10933">
        <ele>22</ele>
        <time>2023-10-26T08:59:11.861+00:00</time>
      </trkpt>
      <trkpt lat="48.89489" lon="2.10932">
        <ele>22</ele>
        <time>2023-10-26T08:59:16.032+00:00</time>
      </trkpt>
      <trkpt lat="48.89493" lon="2.10935">
        <ele>22</ele>
        <time>2023-10-26T08:59:20.204+00:00</time>
      </trkpt>
      <trkpt lat="48.89497" lon="2.1094">
        <ele>22</ele>
        <time>2023-10-26T08:59:24.826+00:00</time>
      </trkpt>
      <trkpt lat="48.89501" lon="2.10942">
        <ele>22</ele>
        <time>2023-10-26T08:59:29.142+00:00</time>
      </trkpt>
      <trkpt lat="48.89505" lon="2.10944">
        <ele>22</ele>
        <time>2023-10-26T08:59:33.665+00:00</time>
      </trkpt>
      <trkpt lat="48.89509" lon="2.10945">
        <ele>22</ele>
        <time>2023-10-26T08:59:38.081+00:00</time>
      </trkpt>
      <trkpt lat="48.89515" lon="2.10947">
        <ele>21</ele>
        <time>2023-10-26T08:59:42.372+00:00</time>
      </trkpt>
      <trkpt lat="48.89521" lon="2.1095">
        <ele>21</ele>
        <time>2023-10-26T08:59:46.885+00:00</time>
      </trkpt>
      <trkpt lat="48.89527" lon="2.10952">
        <ele>21</ele>
        <time>2023-10-26T08:59:51.310+00:00</time>
      </trkpt>
      <trkpt lat="48.89533" lon="2.10954">
        <ele>21</ele>
        <time>2023-10-26T08:59:55.804+00:00</time>
      </trkpt>
      <trkpt lat="48.89539" lon="2.10955">
        <ele>21</ele>
        <time>2023-10-26T09:00:00.227+00:00</time>
      </trkpt>
      <trkpt lat="48.89545" lon="2.10957">
        <ele>20</ele>
        <time>2023-10-26T09:00:04.540+00:00</time>
      </trkpt>
      <trkpt lat="48.89549" lon="2.10959">
        <ele>22</ele>
        <time>2023-10-26T09:00:08.949+00:00</time>
      </trkpt>
      <trkpt lat="48.89551" lon="2.10959">
        <ele>22</ele>
        <time>2023-10-26T09:00:13.359+00:00</time>
      </trkpt>
      <trkpt lat="48.89556" lon="2.10961">
        <ele>22</ele>
        <time>2023-10-26T09:00:17.769+00:00</time>
      </trkpt>
      <trkpt lat="48.89561" lon="2.10962">
        <ele>22</ele>
        <time>2023-10-26T09:00:22.166+00:00</time>
      </trkpt>
      <trkpt lat="48.89566" lon="2.10963">
        <ele>22</ele>
        <time>2023-10-26T09:00:26.543+00:00</time>
      </trkpt>
      <trkpt lat="48.89572" lon="2.10964">
        <ele>22</ele>
        <time>2023-10-26T09:00:30.865+00:00</time>
      </trkpt>
      <trkpt lat="48.89577" lon="2.10965">
        <ele>22</ele>
        <time>2023-10-26T09:00:35.225+00:00</time>
      </trkpt>
      <trkpt lat="48.89584" lon="2.10966">
        <ele>22</ele>
        <time>2023-10-26T09:00:39.587+00:00</time>
      </trkpt>
      <trkpt lat="48.8959" lon="2.10967">
        <ele>22</ele>
        <time>2023-10-26T09:00:43.944+00:00</time>
      </trkpt>
      <trkpt lat="48.89597" lon="2.10968">
        <ele>22</ele>
        <time>2023-10-26T09:00:48.345+00:00</time>
      </trkpt>
      <trkpt lat="48.89604" lon="2.10969">
        <ele>23</ele>
        <time>2023-10-26T09:00:52.684+00:00</time>
      </trkpt>
      <trkpt lat="48.89609" lon="2.1097">
        <ele>23</ele>
        <time>2023-10-26T09:00:56.980+00:00</time>
      </trkpt>
      <trkpt lat="48.89616" lon="2.10969">
        <ele>23</ele>
        <time>2023-10-26T09:01:01.365+00:00</time>
      </trkpt>
      <trkpt lat="48.89622" lon="2.10969">
        <ele>23</ele>
        <time>2023-10-26T09:01:05.726+00:00</time>
      </trkpt>
      <trkpt lat="48.89627" lon="2.1097">
        <ele>23</ele>
        <time>2023-10-26T09:01:10.089+00:00</time>
      </trkpt>
      <trkpt lat="48.89633" lon="2.10972">
        <ele>23</ele>
        <time>2023-10-26T09:01:14.445+00:00</time>
      </trkpt>
      <trkpt lat="48.89638" lon="2.10973">
        <ele>23</ele>
        <time>2023-10-26T09:01:18.825+00:00</time>
      </trkpt>
      <trkpt lat="48.89643" lon="2.10975">
        <ele>23</ele>
        <time>2023-10-26T09:01:23.247+00:00</time>
      </trkpt>
      <trkpt lat="48.89647" lon="2.10977">
        <ele>23</ele>
        <time>2023-10-26T09:01:27.609+00:00</time>
      </trkpt>
      <trkpt lat="48.89652" lon="2.10978">
        <ele>23</ele>
        <time>2023-10-26T09:01:32.004+00:00</time>
      </trkpt>
      <trkpt lat="48.89657" lon="2.1098">
        <ele>24</ele>
        <time>2023-10-26T09:01:36.406+00:00</time>
      </trkpt>
      <trkpt lat="48.89664" lon="2.10981">
        <ele>24</ele>
        <time>2023-10-26T09:01:40.806+00:00</time>
      </trkpt>
      <trkpt lat="48.89668" lon="2.10981">
        <ele>24</ele>
        <time>2023-10-26T09:01:45.129+00:00</time>
      </trkpt>
      <trkpt lat="48.89674" lon="2.10981">
        <ele>24</ele>
        <time>2023-10-26T09:01:49.539+00:00</time>
      </trkpt>
      <trkpt lat="48.89681" lon="2.10983">
        <ele>28</ele>
        <time>2023-10-26T09:01:54.068+00:00</time>
      </trkpt>
      <trkpt lat="48.89688" lon="2.10987">
        <ele>28</ele>
        <time>2023-10-26T09:01:58.462+00:00</time>
      </trkpt>
      <trkpt lat="48.89694" lon="2.10989">
        <ele>28</ele>
        <time>2023-10-26T09:02:03.006+00:00</time>
      </trkpt>
      <trkpt lat="48.89702" lon="2.10992">
        <ele>28</ele>
        <time>2023-10-26T09:02:07.582+00:00</time>
      </trkpt>
      <trkpt lat="48.89708" lon="2.10992">
        <ele>28</ele>
        <time>2023-10-26T09:02:12.061+00:00</time>
      </trkpt>
      <trkpt lat="48.89714" lon="2.10991">
        <ele>27</ele>
        <time>2023-10-26T09:02:16.461+00:00</time>
      </trkpt>
      <trkpt lat="48.89721" lon="2.1099">
        <ele>27</ele>
        <time>2023-10-26T09:02:20.799+00:00</time>
      </trkpt>
      <trkpt lat="48.89726" lon="2.10985">
        <ele>26</ele>
        <time>2023-10-26T09:02:25.179+00:00</time>
      </trkpt>
      <trkpt lat="48.89732" lon="2.10987">
        <ele>27</ele>
        <time>2023-10-26T09:02:29.519+00:00</time>
      </trkpt>
      <trkpt lat="48.89738" lon="2.10988">
        <ele>26</ele>
        <time>2023-10-26T09:02:33.874+00:00</time>
      </trkpt>
      <trkpt lat="48.89743" lon="2.10989">
        <ele>26</ele>
        <time>2023-10-26T09:02:38.140+00:00</time>
      </trkpt>
      <trkpt lat="48.8975" lon="2.10987">
        <ele>26</ele>
        <time>2023-10-26T09:02:42.455+00:00</time>
      </trkpt>
      <trkpt lat="48.89755" lon="2.10984">
        <ele>24</ele>
        <time>2023-10-26T09:02:46.746+00:00</time>
      </trkpt>
      <trkpt lat="48.8976" lon="2.10984">
        <ele>24</ele>
        <time>2023-10-26T09:02:51.080+00:00</time>
      </trkpt>
      <trkpt lat="48.89766" lon="2.10985">
        <ele>24</ele>
        <time>2023-10-26T09:02:55.442+00:00</time>
      </trkpt>
      <trkpt lat="48.89772" lon="2.10985">
        <ele>24</ele>
        <time>2023-10-26T09:02:59.736+00:00</time>
      </trkpt>
      <trkpt lat="48.89778" lon="2.10984">
        <ele>24</ele>
        <time>2023-10-26T09:03:04.265+00:00</time>
      </trkpt>
      <trkpt lat="48.89777" lon="2.10982">
        <ele>24</ele>
        <time>2023-10-26T09:03:08.702+00:00</time>
      </trkpt>
      <trkpt lat="48.89782" lon="2.10982">
        <ele>24</ele>
        <time>2023-10-26T09:03:12.846+00:00</time>
      </trkpt>
      <trkpt lat="48.89789" lon="2.10984">
        <ele>24</ele>
        <time>2023-10-26T09:03:17.400+00:00</time>
      </trkpt>
      <trkpt lat="48.89796" lon="2.10982">
        <ele>23</ele>
        <time>2023-10-26T09:03:21.780+00:00</time>
      </trkpt>
      <trkpt lat="48.89802" lon="2.1098">
        <ele>23</ele>
        <time>2023-10-26T09:03:26.140+00:00</time>
      </trkpt>
      <trkpt lat="48.89809" lon="2.10981">
        <ele>23</ele>
        <time>2023-10-26T09:03:30.508+00:00</time>
      </trkpt>
      <trkpt lat="48.89809" lon="2.10982">
        <ele>23</ele>
        <time>2023-10-26T09:03:34.656+00:00</time>
      </trkpt>
      <trkpt lat="48.89813" lon="2.10983">
        <ele>23</ele>
        <time>2023-10-26T09:03:38.980+00:00</time>
      </trkpt>
      <trkpt lat="48.89822" lon="2.1098">
        <ele>22</ele>
        <time>2023-10-26T09:03:43.361+00:00</time>
      </trkpt>
      <trkpt lat="48.8983" lon="2.1098">
        <ele>22</ele>
        <time>2023-10-26T09:03:47.839+00:00</time>
      </trkpt>
      <trkpt lat="48.89836" lon="2.10981">
        <ele>22</ele>
        <time>2023-10-26T09:03:52.295+00:00</time>
      </trkpt>
      <trkpt lat="48.89842" lon="2.10982">
        <ele>22</ele>
        <time>2023-10-26T09:03:56.702+00:00</time>
      </trkpt>
      <trkpt lat="48.89848" lon="2.1098">
        <ele>21</ele>
        <time>2023-10-26T09:04:01.178+00:00</time>
      </trkpt>
      <trkpt lat="48.89853" lon="2.10979">
        <ele>21</ele>
        <time>2023-10-26T09:04:05.524+00:00</time>
      </trkpt>
      <trkpt lat="48.89858" lon="2.1098">
        <ele>21</ele>
        <time>2023-10-26T09:04:09.939+00:00</time>
      </trkpt>
      <trkpt lat="48.89865" lon="2.10982">
        <ele>21</ele>
        <time>2023-10-26T09:04:14.224+00:00</time>
      </trkpt>
      <trkpt lat="48.8987" lon="2.10983">
        <ele>21</ele>
        <time>2023-10-26T09:04:18.639+00:00</time>
      </trkpt>
      <trkpt lat="48.89876" lon="2.10986">
        <ele>24</ele>
        <time>2023-10-26T09:04:23.037+00:00</time>
      </trkpt>
      <trkpt lat="48.89878" lon="2.10986">
        <ele>23</ele>
        <time>2023-10-26T09:04:27.453+00:00</time>
      </trkpt>
      <trkpt lat="48.89884" lon="2.10984">
        <ele>23</ele>
        <time>2023-10-26T09:04:31.851+00:00</time>
      </trkpt>
      <trkpt lat="48.8989" lon="2.10985">
        <ele>23</ele>
        <time>2023-10-26T09:04:36.153+00:00</time>
      </trkpt>
      <trkpt lat="48.89896" lon="2.10987">
        <ele>24</ele>
        <time>2023-10-26T09:04:40.562+00:00</time>
      </trkpt>
      <trkpt lat="48.89901" lon="2.1099">
        <ele>24</ele>
        <time>2023-10-26T09:04:44.615+00:00</time>
      </trkpt>
      <trkpt lat="48.89909" lon="2.10993">
        <ele>27</ele>
        <time>2023-10-26T09:04:49.263+00:00</time>
      </trkpt>
      <trkpt lat="48.89915" lon="2.10994">
        <ele>27</ele>
        <time>2023-10-26T09:04:53.315+00:00</time>
      </trkpt>
      <trkpt lat="48.89917" lon="2.10992">
        <ele>27</ele>
        <time>2023-10-26T09:04:57.844+00:00</time>
      </trkpt>
      <trkpt lat="48.89923" lon="2.10991">
        <ele>27</ele>
        <time>2023-10-26T09:05:02.466+00:00</time>
      </trkpt>
      <trkpt lat="48.89929" lon="2.10991">
        <ele>27</ele>
        <time>2023-10-26T09:05:06.886+00:00</time>
      </trkpt>
      <trkpt lat="48.89936" lon="2.10994">
        <ele>25</ele>
        <time>2023-10-26T09:05:11.285+00:00</time>
      </trkpt>
      <trkpt lat="48.89939" lon="2.10994">
        <ele>25</ele>
        <time>2023-10-26T09:05:15.665+00:00</time>
      </trkpt>
      <trkpt lat="48.89944" lon="2.10993">
        <ele>25</ele>
        <time>2023-10-26T09:05:20.011+00:00</time>
      </trkpt>
      <trkpt lat="48.8995" lon="2.10994">
        <ele>25</ele>
        <time>2023-10-26T09:05:24.387+00:00</time>
      </trkpt>
      <trkpt lat="48.89954" lon="2.10997">
        <ele>25</ele>
        <time>2023-10-26T09:05:28.702+00:00</time>
      </trkpt>
      <trkpt lat="48.8996" lon="2.11001">
        <ele>24</ele>
        <time>2023-10-26T09:05:33.126+00:00</time>
      </trkpt>
      <trkpt lat="48.89965" lon="2.11004">
        <ele>24</ele>
        <time>2023-10-26T09:05:37.464+00:00</time>
      </trkpt>
      <trkpt lat="48.89971" lon="2.11008">
        <ele>24</ele>
        <time>2023-10-26T09:05:41.821+00:00</time>
      </trkpt>
      <trkpt lat="48.89975" lon="2.11007">
        <ele>24</ele>
        <time>2023-10-26T09:05:46.204+00:00</time>
      </trkpt>
      <trkpt lat="48.89981" lon="2.11009">
        <ele>24</ele>
        <time>2023-10-26T09:05:50.521+00:00</time>
      </trkpt>
      <trkpt lat="48.89987" lon="2.11012">
        <ele>24</ele>
        <time>2023-10-26T09:05:54.927+00:00</time>
      </trkpt>
      <trkpt lat="48.89992" lon="2.11014">
        <ele>27</ele>
        <time>2023-10-26T09:05:59.221+00:00</time>
      </trkpt>
      <trkpt lat="48.89998" lon="2.11015">
        <ele>27</ele>
        <time>2023-10-26T09:06:03.624+00:00</time>
      </trkpt>
      <trkpt lat="48.90003" lon="2.11016">
        <ele>27</ele>
        <time>2023-10-26T09:06:07.921+00:00</time>
      </trkpt>
      <trkpt lat="48.90009" lon="2.11019">
        <ele>27</ele>
        <time>2023-10-26T09:06:12.323+00:00</time>
      </trkpt>
      <trkpt lat="48.90014" lon="2.11023">
        <ele>25</ele>
        <time>2023-10-26T09:06:16.264+00:00</time>
      </trkpt>
      <trkpt lat="48.90019" lon="2.1103">
        <ele>25</ele>
        <time>2023-10-26T09:06:21.005+00:00</time>
      </trkpt>
      <trkpt lat="48.90022" lon="2.11035">
        <ele>25</ele>
        <time>2023-10-26T09:06:25.425+00:00</time>
      </trkpt>
      <trkpt lat="48.90025" lon="2.1104">
        <ele>25</ele>
        <time>2023-10-26T09:06:29.806+00:00</time>
      </trkpt>
      <trkpt lat="48.90029" lon="2.11045">
        <ele>26</ele>
        <time>2023-10-26T09:06:34.245+00:00</time>
      </trkpt>
      <trkpt lat="48.90034" lon="2.1105">
        <ele>26</ele>
        <time>2023-10-26T09:06:38.624+00:00</time>
      </trkpt>
      <trkpt lat="48.90038" lon="2.11055">
        <ele>26</ele>
        <time>2023-10-26T09:06:42.964+00:00</time>
      </trkpt>
      <trkpt lat="48.90042" lon="2.11061">
        <ele>25</ele>
        <time>2023-10-26T09:06:47.366+00:00</time>
      </trkpt>
      <trkpt lat="48.90047" lon="2.11067">
        <ele>25</ele>
        <time>2023-10-26T09:06:51.771+00:00</time>
      </trkpt>
      <trkpt lat="48.9005" lon="2.11072">
        <ele>28</ele>
        <time>2023-10-26T09:06:55.832+00:00</time>
      </trkpt>
      <trkpt lat="48.90055" lon="2.11079">
        <ele>28</ele>
        <time>2023-10-26T09:07:00.447+00:00</time>
      </trkpt>
      <trkpt lat="48.9006" lon="2.11084">
        <ele>28</ele>
        <time>2023-10-26T09:07:04.845+00:00</time>
      </trkpt>
      <trkpt lat="48.90065" lon="2.11089">
        <ele>28</ele>
        <time>2023-10-26T09:07:09.180+00:00</time>
      </trkpt>
      <trkpt lat="48.90069" lon="2.11095">
        <ele>28</ele>
        <time>2023-10-26T09:07:13.590+00:00</time>
      </trkpt>
      <trkpt lat="48.90072" lon="2.11102">
        <ele>26</ele>
        <time>2023-10-26T09:07:17.999+00:00</time>
      </trkpt>
      <trkpt lat="48.90077" lon="2.1111">
        <ele>26</ele>
        <time>2023-10-26T09:07:22.470+00:00</time>
      </trkpt>
      <trkpt lat="48.90081" lon="2.11117">
        <ele>26</ele>
        <time>2023-10-26T09:07:26.818+00:00</time>
      </trkpt>
      <trkpt lat="48.90086" lon="2.11124">
        <ele>26</ele>
        <time>2023-10-26T09:07:31.184+00:00</time>
      </trkpt>
      <trkpt lat="48.90091" lon="2.1113">
        <ele>28</ele>
        <time>2023-10-26T09:07:35.518+00:00</time>
      </trkpt>
      <trkpt lat="48.90096" lon="2.11137">
        <ele>28</ele>
        <time>2023-10-26T09:07:39.903+00:00</time>
      </trkpt>
      <trkpt lat="48.90098" lon="2.11137">
        <ele>24</ele>
        <time>2023-10-26T09:07:44.324+00:00</time>
      </trkpt>
      <trkpt lat="48.90101" lon="2.11142">
        <ele>24</ele>
        <time>2023-10-26T09:07:48.702+00:00</time>
      </trkpt>
      <trkpt lat="48.90105" lon="2.11147">
        <ele>24</ele>
        <time>2023-10-26T09:07:53.276+00:00</time>
      </trkpt>
      <trkpt lat="48.90109" lon="2.11153">
        <ele>25</ele>
        <time>2023-10-26T09:07:57.644+00:00</time>
      </trkpt>
      <trkpt lat="48.90114" lon="2.11158">
        <ele>25</ele>
        <time>2023-10-26T09:08:01.976+00:00</time>
      </trkpt>
      <trkpt lat="48.90118" lon="2.11163">
        <ele>25</ele>
        <time>2023-10-26T09:08:06.467+00:00</time>
      </trkpt>
      <trkpt lat="48.90122" lon="2.1117">
        <ele>25</ele>
        <time>2023-10-26T09:08:11.038+00:00</time>
      </trkpt>
      <trkpt lat="48.90126" lon="2.11179">
        <ele>23</ele>
        <time>2023-10-26T09:08:15.465+00:00</time>
      </trkpt>
      <trkpt lat="48.90129" lon="2.11186">
        <ele>24</ele>
        <time>2023-10-26T09:08:19.972+00:00</time>
      </trkpt>
      <trkpt lat="48.90133" lon="2.11191">
        <ele>24</ele>
        <time>2023-10-26T09:08:24.382+00:00</time>
      </trkpt>
      <trkpt lat="48.90137" lon="2.11195">
        <ele>24</ele>
        <time>2023-10-26T09:08:28.791+00:00</time>
      </trkpt>
      <trkpt lat="48.90141" lon="2.112">
        <ele>24</ele>
        <time>2023-10-26T09:08:33.201+00:00</time>
      </trkpt>
      <trkpt lat="48.90145" lon="2.11202">
        <ele>24</ele>
        <time>2023-10-26T09:08:37.686+00:00</time>
      </trkpt>
      <trkpt lat="48.90149" lon="2.11205">
        <ele>24</ele>
        <time>2023-10-26T09:08:42.020+00:00</time>
      </trkpt>
      <trkpt lat="48.90153" lon="2.11209">
        <ele>25</ele>
        <time>2023-10-26T09:08:46.549+00:00</time>
      </trkpt>
      <trkpt lat="48.90157" lon="2.11214">
        <ele>25</ele>
        <time>2023-10-26T09:08:51.064+00:00</time>
      </trkpt>
      <trkpt lat="48.90161" lon="2.11219">
        <ele>25</ele>
        <time>2023-10-26T09:08:55.464+00:00</time>
      </trkpt>
      <trkpt lat="48.90165" lon="2.11226">
        <ele>25</ele>
        <time>2023-10-26T09:08:59.981+00:00</time>
      </trkpt>
      <trkpt lat="48.90169" lon="2.11232">
        <ele>25</ele>
        <time>2023-10-26T09:09:04.307+00:00</time>
      </trkpt>
      <trkpt lat="48.90173" lon="2.11239">
        <ele>25</ele>
        <time>2023-10-26T09:09:08.781+00:00</time>
      </trkpt>
      <trkpt lat="48.90177" lon="2.11246">
        <ele>25</ele>
        <time>2023-10-26T09:09:13.221+00:00</time>
      </trkpt>
      <trkpt lat="48.90182" lon="2.11252">
        <ele>24</ele>
        <time>2023-10-26T09:09:17.655+00:00</time>
      </trkpt>
      <trkpt lat="48.90187" lon="2.11258">
        <ele>24</ele>
        <time>2023-10-26T09:09:22.059+00:00</time>
      </trkpt>
      <trkpt lat="48.90192" lon="2.11263">
        <ele>24</ele>
        <time>2023-10-26T09:09:26.464+00:00</time>
      </trkpt>
      <trkpt lat="48.90198" lon="2.11264">
        <ele>24</ele>
        <time>2023-10-26T09:09:30.878+00:00</time>
      </trkpt>
      <trkpt lat="48.90202" lon="2.11265">
        <ele>24</ele>
        <time>2023-10-26T09:09:35.174+00:00</time>
      </trkpt>
      <trkpt lat="48.90207" lon="2.1127">
        <ele>24</ele>
        <time>2023-10-26T09:09:39.702+00:00</time>
      </trkpt>
      <trkpt lat="48.90212" lon="2.11271">
        <ele>24</ele>
        <time>2023-10-26T09:09:44.112+00:00</time>
      </trkpt>
      <trkpt lat="48.90217" lon="2.1127">
        <ele>24</ele>
        <time>2023-10-26T09:09:48.641+00:00</time>
      </trkpt>
      <trkpt lat="48.90222" lon="2.11272">
        <ele>24</ele>
        <time>2023-10-26T09:09:53.050+00:00</time>
      </trkpt>
      <trkpt lat="48.90228" lon="2.11276">
        <ele>24</ele>
        <time>2023-10-26T09:09:57.584+00:00</time>
      </trkpt>
      <trkpt lat="48.90235" lon="2.1128">
        <ele>24</ele>
        <time>2023-10-26T09:10:01.989+00:00</time>
      </trkpt>
      <trkpt lat="48.90244" lon="2.11285">
        <ele>24</ele>
        <time>2023-10-26T09:10:06.405+00:00</time>
      </trkpt>
      <trkpt lat="48.90252" lon="2.11286">
        <ele>24</ele>
        <time>2023-10-26T09:10:10.689+00:00</time>
      </trkpt>
      <trkpt lat="48.9026" lon="2.11286">
        <ele>24</ele>
        <time>2023-10-26T09:10:15.218+00:00</time>
      </trkpt>
      <trkpt lat="48.90263" lon="2.11285">
        <ele>24</ele>
        <time>2023-10-26T09:10:19.270+00:00</time>
      </trkpt>
      <trkpt lat="48.90267" lon="2.11283">
        <ele>23</ele>
        <time>2023-10-26T09:10:23.203+00:00</time>
      </trkpt>
      <trkpt lat="48.90272" lon="2.11281">
        <ele>23</ele>
        <time>2023-10-26T09:10:27.568+00:00</time>
      </trkpt>
      <trkpt lat="48.90277" lon="2.11281">
        <ele>23</ele>
        <time>2023-10-26T09:10:32.022+00:00</time>
      </trkpt>
      <trkpt lat="48.90282" lon="2.11283">
        <ele>23</ele>
        <time>2023-10-26T09:10:36.670+00:00</time>
      </trkpt>
      <trkpt lat="48.90288" lon="2.11286">
        <ele>23</ele>
        <time>2023-10-26T09:10:41.206+00:00</time>
      </trkpt>
      <trkpt lat="48.90294" lon="2.11293">
        <ele>25</ele>
        <time>2023-10-26T09:10:45.702+00:00</time>
      </trkpt>
      <trkpt lat="48.90299" lon="2.11301">
        <ele>25</ele>
        <time>2023-10-26T09:10:50.240+00:00</time>
      </trkpt>
      <trkpt lat="48.90302" lon="2.11302">
        <ele>25</ele>
        <time>2023-10-26T09:10:54.666+00:00</time>
      </trkpt>
      <trkpt lat="48.90306" lon="2.11304">
        <ele>25</ele>
        <time>2023-10-26T09:10:58.837+00:00</time>
      </trkpt>
      <trkpt lat="48.90312" lon="2.11304">
        <ele>25</ele>
        <time>2023-10-26T09:11:03.604+00:00</time>
      </trkpt>
      <trkpt lat="48.90316" lon="2.11307">
        <ele>25</ele>
        <time>2023-10-26T09:11:08.014+00:00</time>
      </trkpt>
      <trkpt lat="48.9032" lon="2.11312">
        <ele>26</ele>
        <time>2023-10-26T09:11:12.542+00:00</time>
      </trkpt>
      <trkpt lat="48.90325" lon="2.11316">
        <ele>26</ele>
        <time>2023-10-26T09:11:17.185+00:00</time>
      </trkpt>
      <trkpt lat="48.90331" lon="2.11319">
        <ele>27</ele>
        <time>2023-10-26T09:11:21.600+00:00</time>
      </trkpt>
      <trkpt lat="48.90338" lon="2.11323">
        <ele>27</ele>
        <time>2023-10-26T09:11:26.009+00:00</time>
      </trkpt>
      <trkpt lat="48.90344" lon="2.11327">
        <ele>27</ele>
        <time>2023-10-26T09:11:30.405+00:00</time>
      </trkpt>
      <trkpt lat="48.90348" lon="2.11328">
        <ele>27</ele>
        <time>2023-10-26T09:11:34.829+00:00</time>
      </trkpt>
      <trkpt lat="48.90353" lon="2.11329">
        <ele>27</ele>
        <time>2023-10-26T09:11:39.363+00:00</time>
      </trkpt>
      <trkpt lat="48.90359" lon="2.11331">
        <ele>27</ele>
        <time>2023-10-26T09:11:43.767+00:00</time>
      </trkpt>
      <trkpt lat="48.90364" lon="2.11332">
        <ele>27</ele>
        <time>2023-10-26T09:11:48.262+00:00</time>
      </trkpt>
      <trkpt lat="48.90369" lon="2.11335">
        <ele>27</ele>
        <time>2023-10-26T09:11:52.700+00:00</time>
      </trkpt>
      <trkpt lat="48.90373" lon="2.11339">
        <ele>27</ele>
        <time>2023-10-26T09:11:57.115+00:00</time>
      </trkpt>
      <trkpt lat="48.90379" lon="2.11344">
        <ele>26</ele>
        <time>2023-10-26T09:12:01.524+00:00</time>
      </trkpt>
      <trkpt lat="48.90385" lon="2.1135">
        <ele>28</ele>
        <time>2023-10-26T09:12:06+00:00</time>
      </trkpt>
      <trkpt lat="48.9039" lon="2.11353">
        <ele>28</ele>
        <time>2023-10-26T09:12:10.447+00:00</time>
      </trkpt>
      <trkpt lat="48.90394" lon="2.11354">
        <ele>28</ele>
        <time>2023-10-26T09:12:14.867+00:00</time>
      </trkpt>
      <trkpt lat="48.90397" lon="2.11352">
        <ele>28</ele>
        <time>2023-10-26T09:12:19.162+00:00</time>
      </trkpt>
      <trkpt lat="48.90403" lon="2.11354">
        <ele>26</ele>
        <time>2023-10-26T09:12:23.665+00:00</time>
      </trkpt>
      <trkpt lat="48.90408" lon="2.11355">
        <ele>26</ele>
        <time>2023-10-26T09:12:27.982+00:00</time>
      </trkpt>
      <trkpt lat="48.90414" lon="2.11358">
        <ele>26</ele>
        <time>2023-10-26T09:12:32.467+00:00</time>
      </trkpt>
      <trkpt lat="48.9042" lon="2.1136">
        <ele>26</ele>
        <time>2023-10-26T09:12:36.801+00:00</time>
      </trkpt>
      <trkpt lat="48.90425" lon="2.1136">
        <ele>26</ele>
        <time>2023-10-26T09:12:40.853+00:00</time>
      </trkpt>
      <trkpt lat="48.90433" lon="2.11357">
        <ele>23</ele>
        <time>2023-10-26T09:12:45.466+00:00</time>
      </trkpt>
      <trkpt lat="48.90439" lon="2.11356">
        <ele>23</ele>
        <time>2023-10-26T09:12:49.904+00:00</time>
      </trkpt>
      <trkpt lat="48.90443" lon="2.11353">
        <ele>23</ele>
        <time>2023-10-26T09:12:53.844+00:00</time>
      </trkpt>
      <trkpt lat="48.9045" lon="2.11357">
        <ele>23</ele>
        <time>2023-10-26T09:12:58.605+00:00</time>
      </trkpt>
      <trkpt lat="48.90455" lon="2.11363">
        <ele>23</ele>
        <time>2023-10-26T09:13:03.021+00:00</time>
      </trkpt>
      <trkpt lat="48.9046" lon="2.11366">
        <ele>25</ele>
        <time>2023-10-26T09:13:07.669+00:00</time>
      </trkpt>
      <trkpt lat="48.90465" lon="2.11369">
        <ele>25</ele>
        <time>2023-10-26T09:13:12.165+00:00</time>
      </trkpt>
      <trkpt lat="48.90471" lon="2.11372">
        <ele>25</ele>
        <time>2023-10-26T09:13:16.607+00:00</time>
      </trkpt>
      <trkpt lat="48.90476" lon="2.11375">
        <ele>25</ele>
        <time>2023-10-26T09:13:21.017+00:00</time>
      </trkpt>
      <trkpt lat="48.9048" lon="2.11378">
        <ele>25</ele>
        <time>2023-10-26T09:13:25.123+00:00</time>
      </trkpt>
      <trkpt lat="48.90484" lon="2.11381">
        <ele>25</ele>
        <time>2023-10-26T09:13:29.583+00:00</time>
      </trkpt>
      <trkpt lat="48.90489" lon="2.11383">
        <ele>26</ele>
        <time>2023-10-26T09:13:33.945+00:00</time>
      </trkpt>
      <trkpt lat="48.90494" lon="2.11386">
        <ele>26</ele>
        <time>2023-10-26T09:13:38.416+00:00</time>
      </trkpt>
      <trkpt lat="48.90497" lon="2.11391">
        <ele>26</ele>
        <time>2023-10-26T09:13:42.945+00:00</time>
      </trkpt>
      <trkpt lat="48.90501" lon="2.11395">
        <ele>26</ele>
        <time>2023-10-26T09:13:47.360+00:00</time>
      </trkpt>
      <trkpt lat="48.90504" lon="2.11399">
        <ele>26</ele>
        <time>2023-10-26T09:13:51.407+00:00</time>
      </trkpt>
      <trkpt lat="48.9051" lon="2.11403">
        <ele>26</ele>
        <time>2023-10-26T09:13:56.055+00:00</time>
      </trkpt>
      <trkpt lat="48.90516" lon="2.11405">
        <ele>27</ele>
        <time>2023-10-26T09:14:00.584+00:00</time>
      </trkpt>
      <trkpt lat="48.90521" lon="2.11407">
        <ele>27</ele>
        <time>2023-10-26T09:14:04.920+00:00</time>
      </trkpt>
      <trkpt lat="48.90526" lon="2.11409">
        <ele>27</ele>
        <time>2023-10-26T09:14:09.279+00:00</time>
      </trkpt>
      <trkpt lat="48.9053" lon="2.11411">
        <ele>27</ele>
        <time>2023-10-26T09:14:13.638+00:00</time>
      </trkpt>
      <trkpt lat="48.90536" lon="2.11413">
        <ele>27</ele>
        <time>2023-10-26T09:14:17.983+00:00</time>
      </trkpt>
      <trkpt lat="48.90542" lon="2.11417">
        <ele>26</ele>
        <time>2023-10-26T09:14:22.393+00:00</time>
      </trkpt>
      <trkpt lat="48.90548" lon="2.11419">
        <ele>26</ele>
        <time>2023-10-26T09:14:26.683+00:00</time>
      </trkpt>
      <trkpt lat="48.90554" lon="2.11423">
        <ele>26</ele>
        <time>2023-10-26T09:14:31.061+00:00</time>
      </trkpt>
      <trkpt lat="48.90558" lon="2.11426">
        <ele>26</ele>
        <time>2023-10-26T09:14:35.384+00:00</time>
      </trkpt>
      <trkpt lat="48.90563" lon="2.11428">
        <ele>26</ele>
        <time>2023-10-26T09:14:39.761+00:00</time>
      </trkpt>
      <trkpt lat="48.90569" lon="2.11431">
        <ele>27</ele>
        <time>2023-10-26T09:14:44.119+00:00</time>
      </trkpt>
      <trkpt lat="48.90574" lon="2.11434">
        <ele>25</ele>
        <time>2023-10-26T09:14:48.474+00:00</time>
      </trkpt>
      <trkpt lat="48.90579" lon="2.11436">
        <ele>25</ele>
        <time>2023-10-26T09:14:52.908+00:00</time>
      </trkpt>
      <trkpt lat="48.90584" lon="2.11439">
        <ele>25</ele>
        <time>2023-10-26T09:14:57.312+00:00</time>
      </trkpt>
      <trkpt lat="48.90589" lon="2.11442">
        <ele>25</ele>
        <time>2023-10-26T09:15:01.727+00:00</time>
      </trkpt>
      <trkpt lat="48.90595" lon="2.11444">
        <ele>25</ele>
        <time>2023-10-26T09:15:05.702+00:00</time>
      </trkpt>
      <trkpt lat="48.90601" lon="2.11446">
        <ele>24</ele>
        <time>2023-10-26T09:15:10.307+00:00</time>
      </trkpt>
      <trkpt lat="48.90606" lon="2.11448">
        <ele>24</ele>
        <time>2023-10-26T09:15:14.706+00:00</time>
      </trkpt>
      <trkpt lat="48.90611" lon="2.1145">
        <ele>24</ele>
        <time>2023-10-26T09:15:19.106+00:00</time>
      </trkpt>
      <trkpt lat="48.90617" lon="2.11453">
        <ele>24</ele>
        <time>2023-10-26T09:15:23.412+00:00</time>
      </trkpt>
      <trkpt lat="48.90623" lon="2.11455">
        <ele>24</ele>
        <time>2023-10-26T09:15:27.806+00:00</time>
      </trkpt>
      <trkpt lat="48.90629" lon="2.11458">
        <ele>24</ele>
        <time>2023-10-26T09:15:32.112+00:00</time>
      </trkpt>
      <trkpt lat="48.90635" lon="2.1146">
        <ele>24</ele>
        <time>2023-10-26T09:15:36.402+00:00</time>
      </trkpt>
      <trkpt lat="48.9064" lon="2.11462">
        <ele>24</ele>
        <time>2023-10-26T09:15:40.762+00:00</time>
      </trkpt>
      <trkpt lat="48.90644" lon="2.11464">
        <ele>24</ele>
        <time>2023-10-26T09:15:45.068+00:00</time>
      </trkpt>
      <trkpt lat="48.90649" lon="2.11467">
        <ele>24</ele>
        <time>2023-10-26T09:15:49.393+00:00</time>
      </trkpt>
      <trkpt lat="48.90653" lon="2.11468">
        <ele>24</ele>
        <time>2023-10-26T09:15:53.802+00:00</time>
      </trkpt>
      <trkpt lat="48.90659" lon="2.11471">
        <ele>24</ele>
        <time>2023-10-26T09:15:58.404+00:00</time>
      </trkpt>
      <trkpt lat="48.90665" lon="2.11473">
        <ele>24</ele>
        <time>2023-10-26T09:16:02.860+00:00</time>
      </trkpt>
      <trkpt lat="48.90672" lon="2.11476">
        <ele>24</ele>
        <time>2023-10-26T09:16:07.269+00:00</time>
      </trkpt>
      <trkpt lat="48.90678" lon="2.11477">
        <ele>24</ele>
        <time>2023-10-26T09:16:11.624+00:00</time>
      </trkpt>
      <trkpt lat="48.90684" lon="2.11478">
        <ele>24</ele>
        <time>2023-10-26T09:16:15.906+00:00</time>
      </trkpt>
      <trkpt lat="48.90688" lon="2.11479">
        <ele>24</ele>
        <time>2023-10-26T09:16:20.186+00:00</time>
      </trkpt>
      <trkpt lat="48.90692" lon="2.11478">
        <ele>24</ele>
        <time>2023-10-26T09:16:24.467+00:00</time>
      </trkpt>
      <trkpt lat="48.90698" lon="2.1148">
        <ele>24</ele>
        <time>2023-10-26T09:16:28.945+00:00</time>
      </trkpt>
      <trkpt lat="48.90704" lon="2.11483">
        <ele>24</ele>
        <time>2023-10-26T09:16:33.250+00:00</time>
      </trkpt>
      <trkpt lat="48.9071" lon="2.11484">
        <ele>23</ele>
        <time>2023-10-26T09:16:37.666+00:00</time>
      </trkpt>
      <trkpt lat="48.90716" lon="2.11484">
        <ele>23</ele>
        <time>2023-10-26T09:16:41.866+00:00</time>
      </trkpt>
      <trkpt lat="48.90721" lon="2.11486">
        <ele>23</ele>
        <time>2023-10-26T09:16:46.247+00:00</time>
      </trkpt>
      <trkpt lat="48.90725" lon="2.11489">
        <ele>24</ele>
        <time>2023-10-26T09:16:50.485+00:00</time>
      </trkpt>
      <trkpt lat="48.9073" lon="2.11492">
        <ele>24</ele>
        <time>2023-10-26T09:16:54.947+00:00</time>
      </trkpt>
      <trkpt lat="48.90737" lon="2.11493">
        <ele>22</ele>
        <time>2023-10-26T09:16:59.267+00:00</time>
      </trkpt>
      <trkpt lat="48.90742" lon="2.11494">
        <ele>22</ele>
        <time>2023-10-26T09:17:03.044+00:00</time>
      </trkpt>
      <trkpt lat="48.90747" lon="2.11495">
        <ele>22</ele>
        <time>2023-10-26T09:17:07.786+00:00</time>
      </trkpt>
      <trkpt lat="48.90752" lon="2.11498">
        <ele>22</ele>
        <time>2023-10-26T09:17:12.166+00:00</time>
      </trkpt>
      <trkpt lat="48.90757" lon="2.11499">
        <ele>22</ele>
        <time>2023-10-26T09:17:16.035+00:00</time>
      </trkpt>
      <trkpt lat="48.9076" lon="2.11501">
        <ele>22</ele>
        <time>2023-10-26T09:17:20.647+00:00</time>
      </trkpt>
      <trkpt lat="48.90766" lon="2.11503">
        <ele>22</ele>
        <time>2023-10-26T09:17:24.973+00:00</time>
      </trkpt>
      <trkpt lat="48.90772" lon="2.11506">
        <ele>22</ele>
        <time>2023-10-26T09:17:29.446+00:00</time>
      </trkpt>
      <trkpt lat="48.90778" lon="2.11508">
        <ele>22</ele>
        <time>2023-10-26T09:17:33.702+00:00</time>
      </trkpt>
      <trkpt lat="48.90785" lon="2.11511">
        <ele>22</ele>
        <time>2023-10-26T09:17:37.605+00:00</time>
      </trkpt>
      <trkpt lat="48.90791" lon="2.11514">
        <ele>22</ele>
        <time>2023-10-26T09:17:42.253+00:00</time>
      </trkpt>
      <trkpt lat="48.90797" lon="2.11515">
        <ele>24</ele>
        <time>2023-10-26T09:17:46.754+00:00</time>
      </trkpt>
      <trkpt lat="48.90802" lon="2.11516">
        <ele>24</ele>
        <time>2023-10-26T09:17:51.147+00:00</time>
      </trkpt>
      <trkpt lat="48.90806" lon="2.11517">
        <ele>24</ele>
        <time>2023-10-26T09:17:55.687+00:00</time>
      </trkpt>
      <trkpt lat="48.90811" lon="2.11521">
        <ele>24</ele>
        <time>2023-10-26T09:18:00.245+00:00</time>
      </trkpt>
      <trkpt lat="48.90814" lon="2.11523">
        <ele>24</ele>
        <time>2023-10-26T09:18:04.182+00:00</time>
      </trkpt>
      <trkpt lat="48.90819" lon="2.11528">
        <ele>24</ele>
        <time>2023-10-26T09:18:08.591+00:00</time>
      </trkpt>
      <trkpt lat="48.90823" lon="2.11534">
        <ele>25</ele>
        <time>2023-10-26T09:18:13.001+00:00</time>
      </trkpt>
      <trkpt lat="48.90828" lon="2.11534">
        <ele>25</ele>
        <time>2023-10-26T09:18:17.410+00:00</time>
      </trkpt>
      <trkpt lat="48.90833" lon="2.11531">
        <ele>25</ele>
        <time>2023-10-26T09:18:21.700+00:00</time>
      </trkpt>
      <trkpt lat="48.90839" lon="2.1153">
        <ele>25</ele>
        <time>2023-10-26T09:18:26.105+00:00</time>
      </trkpt>
      <trkpt lat="48.90845" lon="2.11529">
        <ele>25</ele>
        <time>2023-10-26T09:18:29.923+00:00</time>
      </trkpt>
      <trkpt lat="48.9085" lon="2.11533">
        <ele>26</ele>
        <time>2023-10-26T09:18:34.452+00:00</time>
      </trkpt>
      <trkpt lat="48.90855" lon="2.11536">
        <ele>26</ele>
        <time>2023-10-26T09:18:38.981+00:00</time>
      </trkpt>
      <trkpt lat="48.9086" lon="2.11539">
        <ele>26</ele>
        <time>2023-10-26T09:18:43.364+00:00</time>
      </trkpt>
      <trkpt lat="48.90866" lon="2.11541">
        <ele>26</ele>
        <time>2023-10-26T09:18:47.806+00:00</time>
      </trkpt>
      <trkpt lat="48.90871" lon="2.11544">
        <ele>27</ele>
        <time>2023-10-26T09:18:52.209+00:00</time>
      </trkpt>
      <trkpt lat="48.90876" lon="2.11547">
        <ele>28</ele>
        <time>2023-10-26T09:18:56.584+00:00</time>
      </trkpt>
      <trkpt lat="48.90882" lon="2.11548">
        <ele>28</ele>
        <time>2023-10-26T09:19:00.964+00:00</time>
      </trkpt>
      <trkpt lat="48.90888" lon="2.1155">
        <ele>28</ele>
        <time>2023-10-26T09:19:05.319+00:00</time>
      </trkpt>
      <trkpt lat="48.90894" lon="2.1155">
        <ele>28</ele>
        <time>2023-10-26T09:19:09.706+00:00</time>
      </trkpt>
      <trkpt lat="48.909" lon="2.11551">
        <ele>28</ele>
        <time>2023-10-26T09:19:13.989+00:00</time>
      </trkpt>
      <trkpt lat="48.90906" lon="2.11553">
        <ele>26</ele>
        <time>2023-10-26T09:19:18.306+00:00</time>
      </trkpt>
      <trkpt lat="48.90912" lon="2.11556">
        <ele>26</ele>
        <time>2023-10-26T09:19:22.599+00:00</time>
      </trkpt>
      <trkpt lat="48.90918" lon="2.11559">
        <ele>26</ele>
        <time>2023-10-26T09:19:26.889+00:00</time>
      </trkpt>
      <trkpt lat="48.90924" lon="2.11562">
        <ele>26</ele>
        <time>2023-10-26T09:19:31.344+00:00</time>
      </trkpt>
      <trkpt lat="48.9093" lon="2.11566">
        <ele>26</ele>
        <time>2023-10-26T09:19:35.709+00:00</time>
      </trkpt>
      <trkpt lat="48.90935" lon="2.11572">
        <ele>26</ele>
        <time>2023-10-26T09:19:40.118+00:00</time>
      </trkpt>
      <trkpt lat="48.9094" lon="2.11578">
        <ele>26</ele>
        <time>2023-10-26T09:19:44.484+00:00</time>
      </trkpt>
      <trkpt lat="48.90947" lon="2.11583">
        <ele>26</ele>
        <time>2023-10-26T09:19:48.937+00:00</time>
      </trkpt>
      <trkpt lat="48.90952" lon="2.11587">
        <ele>26</ele>
        <time>2023-10-26T09:19:53.466+00:00</time>
      </trkpt>
      <trkpt lat="48.90958" lon="2.11588">
        <ele>26</ele>
        <time>2023-10-26T09:19:57.994+00:00</time>
      </trkpt>
      <trkpt lat="48.90963" lon="2.11589">
        <ele>27</ele>
        <time>2023-10-26T09:20:02.379+00:00</time>
      </trkpt>
      <trkpt lat="48.90967" lon="2.11591">
        <ele>27</ele>
        <time>2023-10-26T09:20:06.759+00:00</time>
      </trkpt>
      <trkpt lat="48.9097" lon="2.11595">
        <ele>27</ele>
        <time>2023-10-26T09:20:10.627+00:00</time>
      </trkpt>
      <trkpt lat="48.90974" lon="2.11597">
        <ele>27</ele>
        <time>2023-10-26T09:20:15.262+00:00</time>
      </trkpt>
      <trkpt lat="48.9098" lon="2.11599">
        <ele>27</ele>
        <time>2023-10-26T09:20:19.472+00:00</time>
      </trkpt>
      <trkpt lat="48.90985" lon="2.11602">
        <ele>27</ele>
        <time>2023-10-26T09:20:23.982+00:00</time>
      </trkpt>
      <trkpt lat="48.9099" lon="2.11606">
        <ele>27</ele>
        <time>2023-10-26T09:20:28.419+00:00</time>
      </trkpt>
      <trkpt lat="48.90995" lon="2.11611">
        <ele>27</ele>
        <time>2023-10-26T09:20:32.858+00:00</time>
      </trkpt>
      <trkpt lat="48.91" lon="2.11615">
        <ele>27</ele>
        <time>2023-10-26T09:20:37.287+00:00</time>
      </trkpt>
      <trkpt lat="48.91005" lon="2.11617">
        <ele>27</ele>
        <time>2023-10-26T09:20:41.613+00:00</time>
      </trkpt>
      <trkpt lat="48.9101" lon="2.11619">
        <ele>27</ele>
        <time>2023-10-26T09:20:46.022+00:00</time>
      </trkpt>
      <trkpt lat="48.91016" lon="2.11622">
        <ele>27</ele>
        <time>2023-10-26T09:20:50.426+00:00</time>
      </trkpt>
      <trkpt lat="48.91023" lon="2.11625">
        <ele>27</ele>
        <time>2023-10-26T09:20:54.841+00:00</time>
      </trkpt>
      <trkpt lat="48.91029" lon="2.11627">
        <ele>27</ele>
        <time>2023-10-26T09:20:59.345+00:00</time>
      </trkpt>
      <trkpt lat="48.91035" lon="2.11628">
        <ele>27</ele>
        <time>2023-10-26T09:21:03.702+00:00</time>
      </trkpt>
      <trkpt lat="48.91041" lon="2.11631">
        <ele>27</ele>
        <time>2023-10-26T09:21:08.069+00:00</time>
      </trkpt>
      <trkpt lat="48.91045" lon="2.11634">
        <ele>27</ele>
        <time>2023-10-26T09:21:12.472+00:00</time>
      </trkpt>
      <trkpt lat="48.9105" lon="2.11638">
        <ele>27</ele>
        <time>2023-10-26T09:21:16.885+00:00</time>
      </trkpt>
      <trkpt lat="48.91055" lon="2.11641">
        <ele>27</ele>
        <time>2023-10-26T09:21:21.246+00:00</time>
      </trkpt>
      <trkpt lat="48.9106" lon="2.11645">
        <ele>27</ele>
        <time>2023-10-26T09:21:25.584+00:00</time>
      </trkpt>
      <trkpt lat="48.91065" lon="2.11649">
        <ele>27</ele>
        <time>2023-10-26T09:21:29.997+00:00</time>
      </trkpt>
      <trkpt lat="48.91071" lon="2.11651">
        <ele>26</ele>
        <time>2023-10-26T09:21:34.401+00:00</time>
      </trkpt>
      <trkpt lat="48.91077" lon="2.11655">
        <ele>25</ele>
        <time>2023-10-26T09:21:38.816+00:00</time>
      </trkpt>
      <trkpt lat="48.91082" lon="2.11659">
        <ele>25</ele>
        <time>2023-10-26T09:21:43.163+00:00</time>
      </trkpt>
      <trkpt lat="48.91088" lon="2.11663">
        <ele>25</ele>
        <time>2023-10-26T09:21:47.516+00:00</time>
      </trkpt>
      <trkpt lat="48.91094" lon="2.11665">
        <ele>25</ele>
        <time>2023-10-26T09:21:51.920+00:00</time>
      </trkpt>
      <trkpt lat="48.91098" lon="2.11665">
        <ele>24</ele>
        <time>2023-10-26T09:21:56.320+00:00</time>
      </trkpt>
      <trkpt lat="48.91104" lon="2.11667">
        <ele>24</ele>
        <time>2023-10-26T09:22:00.622+00:00</time>
      </trkpt>
      <trkpt lat="48.91111" lon="2.1167">
        <ele>24</ele>
        <time>2023-10-26T09:22:05.034+00:00</time>
      </trkpt>
      <trkpt lat="48.91116" lon="2.11674">
        <ele>24</ele>
        <time>2023-10-26T09:22:09.801+00:00</time>
      </trkpt>
      <trkpt lat="48.91121" lon="2.11678">
        <ele>24</ele>
        <time>2023-10-26T09:22:14.267+00:00</time>
      </trkpt>
      <trkpt lat="48.91126" lon="2.11683">
        <ele>22</ele>
        <time>2023-10-26T09:22:18.620+00:00</time>
      </trkpt>
      <trkpt lat="48.91129" lon="2.11687">
        <ele>22</ele>
        <time>2023-10-26T09:22:23.149+00:00</time>
      </trkpt>
      <trkpt lat="48.91135" lon="2.11689">
        <ele>22</ele>
        <time>2023-10-26T09:22:27.201+00:00</time>
      </trkpt>
      <trkpt lat="48.91142" lon="2.11691">
        <ele>22</ele>
        <time>2023-10-26T09:22:31.848+00:00</time>
      </trkpt>
      <trkpt lat="48.91148" lon="2.11693">
        <ele>22</ele>
        <time>2023-10-26T09:22:36.362+00:00</time>
      </trkpt>
      <trkpt lat="48.91154" lon="2.11696">
        <ele>21</ele>
        <time>2023-10-26T09:22:40.667+00:00</time>
      </trkpt>
      <trkpt lat="48.91159" lon="2.117">
        <ele>21</ele>
        <time>2023-10-26T09:22:45.042+00:00</time>
      </trkpt>
      <trkpt lat="48.91163" lon="2.11704">
        <ele>21</ele>
        <time>2023-10-26T09:22:49.423+00:00</time>
      </trkpt>
      <trkpt lat="48.91168" lon="2.11708">
        <ele>22</ele>
        <time>2023-10-26T09:22:53.767+00:00</time>
      </trkpt>
      <trkpt lat="48.91173" lon="2.11713">
        <ele>22</ele>
        <time>2023-10-26T09:22:58.161+00:00</time>
      </trkpt>
      <trkpt lat="48.91178" lon="2.11717">
        <ele>22</ele>
        <time>2023-10-26T09:23:02.422+00:00</time>
      </trkpt>
      <trkpt lat="48.91183" lon="2.11722">
        <ele>21</ele>
        <time>2023-10-26T09:23:06.702+00:00</time>
      </trkpt>
      <trkpt lat="48.91189" lon="2.11725">
        <ele>21</ele>
        <time>2023-10-26T09:23:11.103+00:00</time>
      </trkpt>
      <trkpt lat="48.91195" lon="2.11726">
        <ele>21</ele>
        <time>2023-10-26T09:23:15.469+00:00</time>
      </trkpt>
      <trkpt lat="48.91201" lon="2.11729">
        <ele>21</ele>
        <time>2023-10-26T09:23:19.802+00:00</time>
      </trkpt>
      <trkpt lat="48.91206" lon="2.11732">
        <ele>21</ele>
        <time>2023-10-26T09:23:24.220+00:00</time>
      </trkpt>
      <trkpt lat="48.91211" lon="2.11735">
        <ele>20</ele>
        <time>2023-10-26T09:23:28.640+00:00</time>
      </trkpt>
      <trkpt lat="48.91216" lon="2.11736">
        <ele>22</ele>
        <time>2023-10-26T09:23:33.104+00:00</time>
      </trkpt>
      <trkpt lat="48.91222" lon="2.1174">
        <ele>22</ele>
        <time>2023-10-26T09:23:37.513+00:00</time>
      </trkpt>
      <trkpt lat="48.91229" lon="2.11743">
        <ele>22</ele>
        <time>2023-10-26T09:23:41.987+00:00</time>
      </trkpt>
      <trkpt lat="48.91235" lon="2.11745">
        <ele>22</ele>
        <time>2023-10-26T09:23:46.389+00:00</time>
      </trkpt>
      <trkpt lat="48.9124" lon="2.11748">
        <ele>21</ele>
        <time>2023-10-26T09:23:50.847+00:00</time>
      </trkpt>
      <trkpt lat="48.91245" lon="2.11751">
        <ele>21</ele>
        <time>2023-10-26T09:23:55.270+00:00</time>
      </trkpt>
      <trkpt lat="48.9125" lon="2.11753">
        <ele>21</ele>
        <time>2023-10-26T09:23:59.544+00:00</time>
      </trkpt>
      <trkpt lat="48.91255" lon="2.11756">
        <ele>21</ele>
        <time>2023-10-26T09:24:03.613+00:00</time>
      </trkpt>
      <trkpt lat="48.9126" lon="2.11759">
        <ele>21</ele>
        <time>2023-10-26T09:24:08.087+00:00</time>
      </trkpt>
      <trkpt lat="48.91265" lon="2.11762">
        <ele>20</ele>
        <time>2023-10-26T09:24:12.406+00:00</time>
      </trkpt>
      <trkpt lat="48.9127" lon="2.11768">
        <ele>22</ele>
        <time>2023-10-26T09:24:16.702+00:00</time>
      </trkpt>
      <trkpt lat="48.91275" lon="2.11773">
        <ele>22</ele>
        <time>2023-10-26T09:24:21.090+00:00</time>
      </trkpt>
      <trkpt lat="48.9128" lon="2.11776">
        <ele>22</ele>
        <time>2023-10-26T09:24:25.422+00:00</time>
      </trkpt>
      <trkpt lat="48.91285" lon="2.1178">
        <ele>22</ele>
        <time>2023-10-26T09:24:29.831+00:00</time>
      </trkpt>
      <trkpt lat="48.9129" lon="2.11783">
        <ele>22</ele>
        <time>2023-10-26T09:24:34.225+00:00</time>
      </trkpt>
      <trkpt lat="48.91295" lon="2.11787">
        <ele>22</ele>
        <time>2023-10-26T09:24:38.585+00:00</time>
      </trkpt>
      <trkpt lat="48.91301" lon="2.1179">
        <ele>22</ele>
        <time>2023-10-26T09:24:42.907+00:00</time>
      </trkpt>
      <trkpt lat="48.91305" lon="2.11792">
        <ele>24</ele>
        <time>2023-10-26T09:24:47.224+00:00</time>
      </trkpt>
      <trkpt lat="48.91309" lon="2.11795">
        <ele>24</ele>
        <time>2023-10-26T09:24:51.521+00:00</time>
      </trkpt>
      <trkpt lat="48.91315" lon="2.11798">
        <ele>24</ele>
        <time>2023-10-26T09:24:55.887+00:00</time>
      </trkpt>
      <trkpt lat="48.91321" lon="2.118">
        <ele>24</ele>
        <time>2023-10-26T09:25:00.186+00:00</time>
      </trkpt>
      <trkpt lat="48.91327" lon="2.11803">
        <ele>24</ele>
        <time>2023-10-26T09:25:04.483+00:00</time>
      </trkpt>
      <trkpt lat="48.91333" lon="2.11806">
        <ele>24</ele>
        <time>2023-10-26T09:25:08.801+00:00</time>
      </trkpt>
      <trkpt lat="48.91339" lon="2.1181">
        <ele>24</ele>
        <time>2023-10-26T09:25:13.146+00:00</time>
      </trkpt>
      <trkpt lat="48.91344" lon="2.11815">
        <ele>24</ele>
        <time>2023-10-26T09:25:17.484+00:00</time>
      </trkpt>
      <trkpt lat="48.91347" lon="2.11819">
        <ele>24</ele>
        <time>2023-10-26T09:25:21.791+00:00</time>
      </trkpt>
      <trkpt lat="48.91353" lon="2.11824">
        <ele>25</ele>
        <time>2023-10-26T09:25:26.081+00:00</time>
      </trkpt>
      <trkpt lat="48.91358" lon="2.11828">
        <ele>25</ele>
        <time>2023-10-26T09:25:30.469+00:00</time>
      </trkpt>
      <trkpt lat="48.91363" lon="2.1183">
        <ele>25</ele>
        <time>2023-10-26T09:25:34.702+00:00</time>
      </trkpt>
      <trkpt lat="48.91369" lon="2.11833">
        <ele>25</ele>
        <time>2023-10-26T09:25:39.071+00:00</time>
      </trkpt>
      <trkpt lat="48.91374" lon="2.11836">
        <ele>25</ele>
        <time>2023-10-26T09:25:43.361+00:00</time>
      </trkpt>
      <trkpt lat="48.91379" lon="2.1184">
        <ele>25</ele>
        <time>2023-10-26T09:25:47.702+00:00</time>
      </trkpt>
      <trkpt lat="48.91382" lon="2.11844">
        <ele>25</ele>
        <time>2023-10-26T09:25:52.045+00:00</time>
      </trkpt>
      <trkpt lat="48.91386" lon="2.11848">
        <ele>26</ele>
        <time>2023-10-26T09:25:56.351+00:00</time>
      </trkpt>
      <trkpt lat="48.9139" lon="2.11851">
        <ele>26</ele>
        <time>2023-10-26T09:26:00.726+00:00</time>
      </trkpt>
      <trkpt lat="48.91396" lon="2.11853">
        <ele>26</ele>
        <time>2023-10-26T09:26:05.051+00:00</time>
      </trkpt>
      <trkpt lat="48.91402" lon="2.11855">
        <ele>26</ele>
        <time>2023-10-26T09:26:09.447+00:00</time>
      </trkpt>
      <trkpt lat="48.91407" lon="2.11859">
        <ele>24</ele>
        <time>2023-10-26T09:26:13.846+00:00</time>
      </trkpt>
      <trkpt lat="48.91414" lon="2.11864">
        <ele>24</ele>
        <time>2023-10-26T09:26:18.160+00:00</time>
      </trkpt>
      <trkpt lat="48.91421" lon="2.11869">
        <ele>24</ele>
        <time>2023-10-26T09:26:22.569+00:00</time>
      </trkpt>
      <trkpt lat="48.91428" lon="2.11872">
        <ele>24</ele>
        <time>2023-10-26T09:26:26.860+00:00</time>
      </trkpt>
      <trkpt lat="48.91434" lon="2.11873">
        <ele>24</ele>
        <time>2023-10-26T09:26:31.226+00:00</time>
      </trkpt>
      <trkpt lat="48.91439" lon="2.11877">
        <ele>26</ele>
        <time>2023-10-26T09:26:35.479+00:00</time>
      </trkpt>
      <trkpt lat="48.91444" lon="2.11881">
        <ele>26</ele>
        <time>2023-10-26T09:26:39.765+00:00</time>
      </trkpt>
      <trkpt lat="48.9145" lon="2.11885">
        <ele>26</ele>
        <time>2023-10-26T09:26:44.020+00:00</time>
      </trkpt>
      <trkpt lat="48.91455" lon="2.1189">
        <ele>26</ele>
        <time>2023-10-26T09:26:48.427+00:00</time>
      </trkpt>
      <trkpt lat="48.91459" lon="2.11894">
        <ele>25</ele>
        <time>2023-10-26T09:26:52.776+00:00</time>
      </trkpt>
      <trkpt lat="48.91465" lon="2.11897">
        <ele>25</ele>
        <time>2023-10-26T09:26:57.105+00:00</time>
      </trkpt>
      <trkpt lat="48.91471" lon="2.11901">
        <ele>25</ele>
        <time>2023-10-26T09:27:01.366+00:00</time>
      </trkpt>
      <trkpt lat="48.91476" lon="2.11905">
        <ele>26</ele>
        <time>2023-10-26T09:27:05.688+00:00</time>
      </trkpt>
      <trkpt lat="48.91481" lon="2.11909">
        <ele>26</ele>
        <time>2023-10-26T09:27:09.881+00:00</time>
      </trkpt>
      <trkpt lat="48.91485" lon="2.11912">
        <ele>26</ele>
        <time>2023-10-26T09:27:14.171+00:00</time>
      </trkpt>
      <trkpt lat="48.91489" lon="2.11915">
        <ele>24</ele>
        <time>2023-10-26T09:27:18.461+00:00</time>
      </trkpt>
      <trkpt lat="48.91493" lon="2.11918">
        <ele>24</ele>
        <time>2023-10-26T09:27:22.751+00:00</time>
      </trkpt>
      <trkpt lat="48.915" lon="2.1192">
        <ele>24</ele>
        <time>2023-10-26T09:27:27.042+00:00</time>
      </trkpt>
      <trkpt lat="48.91506" lon="2.11922">
        <ele>24</ele>
        <time>2023-10-26T09:27:31.388+00:00</time>
      </trkpt>
      <trkpt lat="48.91511" lon="2.11925">
        <ele>24</ele>
        <time>2023-10-26T09:27:35.705+00:00</time>
      </trkpt>
      <trkpt lat="48.91517" lon="2.11928">
        <ele>20</ele>
        <time>2023-10-26T09:27:40.026+00:00</time>
      </trkpt>
      <trkpt lat="48.91524" lon="2.11931">
        <ele>23</ele>
        <time>2023-10-26T09:27:44.327+00:00</time>
      </trkpt>
      <trkpt lat="48.9153" lon="2.11935">
        <ele>23</ele>
        <time>2023-10-26T09:27:48.570+00:00</time>
      </trkpt>
      <trkpt lat="48.91534" lon="2.1194">
        <ele>23</ele>
        <time>2023-10-26T09:27:52.757+00:00</time>
      </trkpt>
      <trkpt lat="48.91538" lon="2.11946">
        <ele>23</ele>
        <time>2023-10-26T09:27:57.021+00:00</time>
      </trkpt>
      <trkpt lat="48.91542" lon="2.11952">
        <ele>22</ele>
        <time>2023-10-26T09:28:01.241+00:00</time>
      </trkpt>
      <trkpt lat="48.91548" lon="2.11958">
        <ele>22</ele>
        <time>2023-10-26T09:28:05.521+00:00</time>
      </trkpt>
      <trkpt lat="48.91554" lon="2.11963">
        <ele>24</ele>
        <time>2023-10-26T09:28:09.821+00:00</time>
      </trkpt>
      <trkpt lat="48.9156" lon="2.11967">
        <ele>24</ele>
        <time>2023-10-26T09:28:14.080+00:00</time>
      </trkpt>
      <trkpt lat="48.91565" lon="2.11971">
        <ele>24</ele>
        <time>2023-10-26T09:28:18.401+00:00</time>
      </trkpt>
      <trkpt lat="48.91571" lon="2.11975">
        <ele>22</ele>
        <time>2023-10-26T09:28:22.663+00:00</time>
      </trkpt>
      <trkpt lat="48.91576" lon="2.11978">
        <ele>22</ele>
        <time>2023-10-26T09:28:26.961+00:00</time>
      </trkpt>
      <trkpt lat="48.91581" lon="2.1198">
        <ele>22</ele>
        <time>2023-10-26T09:28:31.205+00:00</time>
      </trkpt>
      <trkpt lat="48.91587" lon="2.11983">
        <ele>22</ele>
        <time>2023-10-26T09:28:35.489+00:00</time>
      </trkpt>
      <trkpt lat="48.91592" lon="2.11986">
        <ele>22</ele>
        <time>2023-10-26T09:28:39.775+00:00</time>
      </trkpt>
      <trkpt lat="48.91597" lon="2.11989">
        <ele>23</ele>
        <time>2023-10-26T09:28:43.702+00:00</time>
      </trkpt>
      <trkpt lat="48.91603" lon="2.11993">
        <ele>24</ele>
        <time>2023-10-26T09:28:48.323+00:00</time>
      </trkpt>
      <trkpt lat="48.91607" lon="2.11998">
        <ele>24</ele>
        <time>2023-10-26T09:28:52.251+00:00</time>
      </trkpt>
      <trkpt lat="48.91613" lon="2.12002">
        <ele>24</ele>
        <time>2023-10-26T09:28:56.947+00:00</time>
      </trkpt>
      <trkpt lat="48.91617" lon="2.12005">
        <ele>24</ele>
        <time>2023-10-26T09:29:01.188+00:00</time>
      </trkpt>
      <trkpt lat="48.91622" lon="2.12008">
        <ele>24</ele>
        <time>2023-10-26T09:29:05.465+00:00</time>
      </trkpt>
      <trkpt lat="48.91626" lon="2.12011">
        <ele>25</ele>
        <time>2023-10-26T09:29:09.649+00:00</time>
      </trkpt>
      <trkpt lat="48.91632" lon="2.12015">
        <ele>25</ele>
        <time>2023-10-26T09:29:13.940+00:00</time>
      </trkpt>
      <trkpt lat="48.91638" lon="2.12019">
        <ele>25</ele>
        <time>2023-10-26T09:29:18.285+00:00</time>
      </trkpt>
      <trkpt lat="48.91644" lon="2.12023">
        <ele>25</ele>
        <time>2023-10-26T09:29:22.585+00:00</time>
      </trkpt>
      <trkpt lat="48.91649" lon="2.12026">
        <ele>25</ele>
        <time>2023-10-26T09:29:26.929+00:00</time>
      </trkpt>
      <trkpt lat="48.91655" lon="2.1203">
        <ele>26</ele>
        <time>2023-10-26T09:29:31.345+00:00</time>
      </trkpt>
      <trkpt lat="48.9166" lon="2.12033">
        <ele>26</ele>
        <time>2023-10-26T09:29:35.629+00:00</time>
      </trkpt>
      <trkpt lat="48.91665" lon="2.12035">
        <ele>26</ele>
        <time>2023-10-26T09:29:39.926+00:00</time>
      </trkpt>
      <trkpt lat="48.91671" lon="2.12039">
        <ele>26</ele>
        <time>2023-10-26T09:29:44.209+00:00</time>
      </trkpt>
      <trkpt lat="48.91676" lon="2.12043">
        <ele>26</ele>
        <time>2023-10-26T09:29:48.702+00:00</time>
      </trkpt>
      <trkpt lat="48.9168" lon="2.12048">
        <ele>26</ele>
        <time>2023-10-26T09:29:53.147+00:00</time>
      </trkpt>
      <trkpt lat="48.91685" lon="2.12052">
        <ele>25</ele>
        <time>2023-10-26T09:29:57.640+00:00</time>
      </trkpt>
      <trkpt lat="48.91689" lon="2.12056">
        <ele>25</ele>
        <time>2023-10-26T09:30:02.062+00:00</time>
      </trkpt>
      <trkpt lat="48.91695" lon="2.12059">
        <ele>25</ele>
        <time>2023-10-26T09:30:06.461+00:00</time>
      </trkpt>
      <trkpt lat="48.91702" lon="2.12062">
        <ele>25</ele>
        <time>2023-10-26T09:30:10.784+00:00</time>
      </trkpt>
      <trkpt lat="48.91708" lon="2.12065">
        <ele>25</ele>
        <time>2023-10-26T09:30:15.121+00:00</time>
      </trkpt>
      <trkpt lat="48.91709" lon="2.12066">
        <ele>25</ele>
        <time>2023-10-26T09:30:19.246+00:00</time>
      </trkpt>
      <trkpt lat="48.91708" lon="2.12066">
        <ele>25</ele>
        <time>2023-10-26T09:30:23.417+00:00</time>
      </trkpt>
      <trkpt lat="48.91708" lon="2.12065">
        <ele>25</ele>
        <time>2023-10-26T09:30:28.183+00:00</time>
      </trkpt>
      <trkpt lat="48.91709" lon="2.12063">
        <ele>25</ele>
        <time>2023-10-26T09:30:32.702+00:00</time>
      </trkpt>
      <trkpt lat="48.91715" lon="2.12066">
        <ele>25</ele>
        <time>2023-10-26T09:30:37.360+00:00</time>
      </trkpt>
      <trkpt lat="48.91718" lon="2.12072">
        <ele>25</ele>
        <time>2023-10-26T09:30:41.411+00:00</time>
      </trkpt>
      <trkpt lat="48.91722" lon="2.12074">
        <ele>25</ele>
        <time>2023-10-26T09:30:45.463+00:00</time>
      </trkpt>
      <trkpt lat="48.91727" lon="2.12079">
        <ele>25</ele>
        <time>2023-10-26T09:30:49.634+00:00</time>
      </trkpt>
      <trkpt lat="48.91732" lon="2.12084">
        <ele>25</ele>
        <time>2023-10-26T09:30:54.163+00:00</time>
      </trkpt>
      <trkpt lat="48.91736" lon="2.12087">
        <ele>25</ele>
        <time>2023-10-26T09:30:58.666+00:00</time>
      </trkpt>
      <trkpt lat="48.91743" lon="2.1209">
        <ele>25</ele>
        <time>2023-10-26T09:31:02.982+00:00</time>
      </trkpt>
      <trkpt lat="48.91749" lon="2.12093">
        <ele>25</ele>
        <time>2023-10-26T09:31:07.391+00:00</time>
      </trkpt>
      <trkpt lat="48.91754" lon="2.12095">
        <ele>25</ele>
        <time>2023-10-26T09:31:11.906+00:00</time>
      </trkpt>
      <trkpt lat="48.91759" lon="2.12097">
        <ele>25</ele>
        <time>2023-10-26T09:31:16.329+00:00</time>
      </trkpt>
      <trkpt lat="48.91762" lon="2.12103">
        <ele>27</ele>
        <time>2023-10-26T09:31:20.857+00:00</time>
      </trkpt>
      <trkpt lat="48.91765" lon="2.12111">
        <ele>26</ele>
        <time>2023-10-26T09:31:25.624+00:00</time>
      </trkpt>
      <trkpt lat="48.9177" lon="2.12118">
        <ele>26</ele>
        <time>2023-10-26T09:31:30.034+00:00</time>
      </trkpt>
      <trkpt lat="48.91776" lon="2.12124">
        <ele>26</ele>
        <time>2023-10-26T09:31:34.438+00:00</time>
      </trkpt>
      <trkpt lat="48.91785" lon="2.12124">
        <ele>26</ele>
        <time>2023-10-26T09:31:38.808+00:00</time>
      </trkpt>
      <trkpt lat="48.91794" lon="2.12124">
        <ele>26</ele>
        <time>2023-10-26T09:31:43.149+00:00</time>
      </trkpt>
      <trkpt lat="48.918" lon="2.12126">
        <ele>25</ele>
        <time>2023-10-26T09:31:47.546+00:00</time>
      </trkpt>
      <trkpt lat="48.91806" lon="2.12129">
        <ele>25</ele>
        <time>2023-10-26T09:31:51.842+00:00</time>
      </trkpt>
      <trkpt lat="48.91812" lon="2.12133">
        <ele>25</ele>
        <time>2023-10-26T09:31:56.246+00:00</time>
      </trkpt>
      <trkpt lat="48.91816" lon="2.12136">
        <ele>25</ele>
        <time>2023-10-26T09:32:00.626+00:00</time>
      </trkpt>
      <trkpt lat="48.91821" lon="2.1214">
        <ele>24</ele>
        <time>2023-10-26T09:32:04.951+00:00</time>
      </trkpt>
      <trkpt lat="48.91827" lon="2.12144">
        <ele>24</ele>
        <time>2023-10-26T09:32:09.346+00:00</time>
      </trkpt>
      <trkpt lat="48.91833" lon="2.12148">
        <ele>24</ele>
        <time>2023-10-26T09:32:13.702+00:00</time>
      </trkpt>
      <trkpt lat="48.91838" lon="2.12151">
        <ele>24</ele>
        <time>2023-10-26T09:32:18.060+00:00</time>
      </trkpt>
      <trkpt lat="48.91843" lon="2.12155">
        <ele>23</ele>
        <time>2023-10-26T09:32:22.447+00:00</time>
      </trkpt>
      <trkpt lat="48.91848" lon="2.12159">
        <ele>22</ele>
        <time>2023-10-26T09:32:26.764+00:00</time>
      </trkpt>
      <trkpt lat="48.91852" lon="2.12164">
        <ele>22</ele>
        <time>2023-10-26T09:32:31.103+00:00</time>
      </trkpt>
      <trkpt lat="48.91855" lon="2.12171">
        <ele>22</ele>
        <time>2023-10-26T09:32:35.587+00:00</time>
      </trkpt>
      <trkpt lat="48.9186" lon="2.12174">
        <ele>22</ele>
        <time>2023-10-26T09:32:39.988+00:00</time>
      </trkpt>
      <trkpt lat="48.91864" lon="2.12178">
        <ele>22</ele>
        <time>2023-10-26T09:32:44.444+00:00</time>
      </trkpt>
      <trkpt lat="48.91868" lon="2.12183">
        <ele>23</ele>
        <time>2023-10-26T09:32:48.881+00:00</time>
      </trkpt>
      <trkpt lat="48.91873" lon="2.12188">
        <ele>23</ele>
        <time>2023-10-26T09:32:53.217+00:00</time>
      </trkpt>
      <trkpt lat="48.91878" lon="2.12192">
        <ele>23</ele>
        <time>2023-10-26T09:32:57.702+00:00</time>
      </trkpt>
      <trkpt lat="48.91883" lon="2.12196">
        <ele>23</ele>
        <time>2023-10-26T09:33:02.121+00:00</time>
      </trkpt>
      <trkpt lat="48.91888" lon="2.122">
        <ele>23</ele>
        <time>2023-10-26T09:33:06.440+00:00</time>
      </trkpt>
      <trkpt lat="48.91892" lon="2.12204">
        <ele>23</ele>
        <time>2023-10-26T09:33:10.762+00:00</time>
      </trkpt>
      <trkpt lat="48.91897" lon="2.12208">
        <ele>23</ele>
        <time>2023-10-26T09:33:15.120+00:00</time>
      </trkpt>
      <trkpt lat="48.91903" lon="2.12211">
        <ele>23</ele>
        <time>2023-10-26T09:33:19.441+00:00</time>
      </trkpt>
      <trkpt lat="48.91908" lon="2.12214">
        <ele>23</ele>
        <time>2023-10-26T09:33:23.799+00:00</time>
      </trkpt>
      <trkpt lat="48.91912" lon="2.12218">
        <ele>23</ele>
        <time>2023-10-26T09:33:28.119+00:00</time>
      </trkpt>
      <trkpt lat="48.91916" lon="2.12222">
        <ele>23</ele>
        <time>2023-10-26T09:33:32.459+00:00</time>
      </trkpt>
      <trkpt lat="48.91921" lon="2.12227">
        <ele>23</ele>
        <time>2023-10-26T09:33:36.781+00:00</time>
      </trkpt>
      <trkpt lat="48.91926" lon="2.12231">
        <ele>23</ele>
        <time>2023-10-26T09:33:41.160+00:00</time>
      </trkpt>
      <trkpt lat="48.91931" lon="2.12235">
        <ele>23</ele>
        <time>2023-10-26T09:33:45.465+00:00</time>
      </trkpt>
      <trkpt lat="48.91935" lon="2.12239">
        <ele>24</ele>
        <time>2023-10-26T09:33:49.938+00:00</time>
      </trkpt>
      <trkpt lat="48.91938" lon="2.12244">
        <ele>24</ele>
        <time>2023-10-26T09:33:54.219+00:00</time>
      </trkpt>
      <trkpt lat="48.91942" lon="2.12249">
        <ele>24</ele>
        <time>2023-10-26T09:33:58.524+00:00</time>
      </trkpt>
      <trkpt lat="48.91943" lon="2.12252">
        <ele>24</ele>
        <time>2023-10-26T09:34:02.576+00:00</time>
      </trkpt>
      <trkpt lat="48.91949" lon="2.12257">
        <ele>24</ele>
        <time>2023-10-26T09:34:07.223+00:00</time>
      </trkpt>
      <trkpt lat="48.91956" lon="2.12259">
        <ele>24</ele>
        <time>2023-10-26T09:34:11.633+00:00</time>
      </trkpt>
      <trkpt lat="48.91962" lon="2.12262">
        <ele>24</ele>
        <time>2023-10-26T09:34:16.042+00:00</time>
      </trkpt>
      <trkpt lat="48.91967" lon="2.12266">
        <ele>27</ele>
        <time>2023-10-26T09:34:20.452+00:00</time>
      </trkpt>
      <trkpt lat="48.91971" lon="2.12272">
        <ele>27</ele>
        <time>2023-10-26T09:34:24.844+00:00</time>
      </trkpt>
      <trkpt lat="48.91976" lon="2.12276">
        <ele>27</ele>
        <time>2023-10-26T09:34:29.151+00:00</time>
      </trkpt>
      <trkpt lat="48.91983" lon="2.12278">
        <ele>27</ele>
        <time>2023-10-26T09:34:33.547+00:00</time>
      </trkpt>
      <trkpt lat="48.91989" lon="2.12282">
        <ele>28</ele>
        <time>2023-10-26T09:34:37.927+00:00</time>
      </trkpt>
      <trkpt lat="48.91994" lon="2.12287">
        <ele>28</ele>
        <time>2023-10-26T09:34:42.227+00:00</time>
      </trkpt>
      <trkpt lat="48.92" lon="2.12292">
        <ele>30</ele>
        <time>2023-10-26T09:34:46.470+00:00</time>
      </trkpt>
      <trkpt lat="48.92005" lon="2.12297">
        <ele>30</ele>
        <time>2023-10-26T09:34:50.785+00:00</time>
      </trkpt>
      <trkpt lat="48.9201" lon="2.12302">
        <ele>30</ele>
        <time>2023-10-26T09:34:55.012+00:00</time>
      </trkpt>
      <trkpt lat="48.92015" lon="2.12307">
        <ele>30</ele>
        <time>2023-10-26T09:34:59.288+00:00</time>
      </trkpt>
      <trkpt lat="48.92021" lon="2.12311">
        <ele>30</ele>
        <time>2023-10-26T09:35:03.473+00:00</time>
      </trkpt>
      <trkpt lat="48.92027" lon="2.12315">
        <ele>30</ele>
        <time>2023-10-26T09:35:07.702+00:00</time>
      </trkpt>
      <trkpt lat="48.92032" lon="2.12319">
        <ele>30</ele>
        <time>2023-10-26T09:35:11.941+00:00</time>
      </trkpt>
      <trkpt lat="48.92037" lon="2.12323">
        <ele>30</ele>
        <time>2023-10-26T09:35:16.201+00:00</time>
      </trkpt>
      <trkpt lat="48.92043" lon="2.12327">
        <ele>27</ele>
        <time>2023-10-26T09:35:20.401+00:00</time>
      </trkpt>
      <trkpt lat="48.92047" lon="2.12332">
        <ele>27</ele>
        <time>2023-10-26T09:35:24.209+00:00</time>
      </trkpt>
      <trkpt lat="48.92051" lon="2.12337">
        <ele>27</ele>
        <time>2023-10-26T09:35:28.865+00:00</time>
      </trkpt>
      <trkpt lat="48.92055" lon="2.12343">
        <ele>27</ele>
        <time>2023-10-26T09:35:32.702+00:00</time>
      </trkpt>
      <trkpt lat="48.9206" lon="2.12349">
        <ele>27</ele>
        <time>2023-10-26T09:35:37.437+00:00</time>
      </trkpt>
      <trkpt lat="48.92065" lon="2.12353">
        <ele>27</ele>
        <time>2023-10-26T09:35:41.702+00:00</time>
      </trkpt>
      <trkpt lat="48.9207" lon="2.12358">
        <ele>26</ele>
        <time>2023-10-26T09:35:45.984+00:00</time>
      </trkpt>
      <trkpt lat="48.92073" lon="2.12363">
        <ele>26</ele>
        <time>2023-10-26T09:35:50.189+00:00</time>
      </trkpt>
      <trkpt lat="48.92078" lon="2.12366">
        <ele>26</ele>
        <time>2023-10-26T09:35:54.565+00:00</time>
      </trkpt>
      <trkpt lat="48.92084" lon="2.12371">
        <ele>26</ele>
        <time>2023-10-26T09:35:58.884+00:00</time>
      </trkpt>
      <trkpt lat="48.92091" lon="2.12375">
        <ele>27</ele>
        <time>2023-10-26T09:36:03.185+00:00</time>
      </trkpt>
      <trkpt lat="48.92097" lon="2.1238">
        <ele>27</ele>
        <time>2023-10-26T09:36:07.469+00:00</time>
      </trkpt>
      <trkpt lat="48.92102" lon="2.12385">
        <ele>27</ele>
        <time>2023-10-26T09:36:11.702+00:00</time>
      </trkpt>
      <trkpt lat="48.92105" lon="2.12389">
        <ele>27</ele>
        <time>2023-10-26T09:36:14.977+00:00</time>
      </trkpt>
      <trkpt lat="48.92111" lon="2.12393">
        <ele>27</ele>
        <time>2023-10-26T09:36:20.221+00:00</time>
      </trkpt>
      <trkpt lat="48.92116" lon="2.12396">
        <ele>27</ele>
        <time>2023-10-26T09:36:24.584+00:00</time>
      </trkpt>
      <trkpt lat="48.9212" lon="2.12402">
        <ele>27</ele>
        <time>2023-10-26T09:36:28.984+00:00</time>
      </trkpt>
      <trkpt lat="48.92124" lon="2.12407">
        <ele>27</ele>
        <time>2023-10-26T09:36:32.856+00:00</time>
      </trkpt>
      <trkpt lat="48.9213" lon="2.12412">
        <ele>26</ele>
        <time>2023-10-26T09:36:38.207+00:00</time>
      </trkpt>
      <trkpt lat="48.92135" lon="2.12416">
        <ele>26</ele>
        <time>2023-10-26T09:36:43.412+00:00</time>
      </trkpt>
      <trkpt lat="48.92139" lon="2.12421">
        <ele>26</ele>
        <time>2023-10-26T09:36:47.465+00:00</time>
      </trkpt>
      <trkpt lat="48.92144" lon="2.12427">
        <ele>26</ele>
        <time>2023-10-26T09:36:52.268+00:00</time>
      </trkpt>
      <trkpt lat="48.92148" lon="2.12431">
        <ele>26</ele>
        <time>2023-10-26T09:36:56.347+00:00</time>
      </trkpt>
      <trkpt lat="48.92153" lon="2.12437">
        <ele>25</ele>
        <time>2023-10-26T09:37:01.045+00:00</time>
      </trkpt>
      <trkpt lat="48.92158" lon="2.12438">
        <ele>25</ele>
        <time>2023-10-26T09:37:05.223+00:00</time>
      </trkpt>
      <trkpt lat="48.92163" lon="2.12444">
        <ele>25</ele>
        <time>2023-10-26T09:37:09.478+00:00</time>
      </trkpt>
      <trkpt lat="48.92168" lon="2.12452">
        <ele>25</ele>
        <time>2023-10-26T09:37:14.125+00:00</time>
      </trkpt>
      <trkpt lat="48.92173" lon="2.12458">
        <ele>25</ele>
        <time>2023-10-26T09:37:18.311+00:00</time>
      </trkpt>
      <trkpt lat="48.92177" lon="2.12465">
        <ele>24</ele>
        <time>2023-10-26T09:37:23.011+00:00</time>
      </trkpt>
      <trkpt lat="48.9218" lon="2.12471">
        <ele>24</ele>
        <time>2023-10-26T09:37:27.316+00:00</time>
      </trkpt>
      <trkpt lat="48.92185" lon="2.12476">
        <ele>24</ele>
        <time>2023-10-26T09:37:31.760+00:00</time>
      </trkpt>
      <trkpt lat="48.92188" lon="2.12478">
        <ele>24</ele>
        <time>2023-10-26T09:37:36.265+00:00</time>
      </trkpt>
      <trkpt lat="48.92188" lon="2.12479">
        <ele>24</ele>
        <time>2023-10-26T09:37:40.469+00:00</time>
      </trkpt>
      <trkpt lat="48.92187" lon="2.12479">
        <ele>24</ele>
        <time>2023-10-26T09:38:08.471+00:00</time>
      </trkpt>
      <trkpt lat="48.9219" lon="2.12482">
        <ele>24</ele>
        <time>2023-10-26T09:38:13.479+00:00</time>
      </trkpt>
      <trkpt lat="48.92193" lon="2.12485">
        <ele>24</ele>
        <time>2023-10-26T09:38:18.466+00:00</time>
      </trkpt>
      <trkpt lat="48.92199" lon="2.1249">
        <ele>23</ele>
        <time>2023-10-26T09:38:23.466+00:00</time>
      </trkpt>
      <trkpt lat="48.92204" lon="2.12494">
        <ele>23</ele>
        <time>2023-10-26T09:38:27.465+00:00</time>
      </trkpt>
      <trkpt lat="48.9221" lon="2.125">
        <ele>22</ele>
        <time>2023-10-26T09:38:32.463+00:00</time>
      </trkpt>
      <trkpt lat="48.92217" lon="2.12502">
        <ele>22</ele>
        <time>2023-10-26T09:38:37.469+00:00</time>
      </trkpt>
      <trkpt lat="48.9222" lon="2.12508">
        <ele>22</ele>
        <time>2023-10-26T09:38:41.481+00:00</time>
      </trkpt>
      <trkpt lat="48.92226" lon="2.12513">
        <ele>22</ele>
        <time>2023-10-26T09:38:46.467+00:00</time>
      </trkpt>
      <trkpt lat="48.92231" lon="2.1252">
        <ele>22</ele>
        <time>2023-10-26T09:38:51.469+00:00</time>
      </trkpt>
      <trkpt lat="48.92236" lon="2.12524">
        <ele>21</ele>
        <time>2023-10-26T09:38:55.499+00:00</time>
      </trkpt>
      <trkpt lat="48.92243" lon="2.1253">
        <ele>21</ele>
        <time>2023-10-26T09:39:00.472+00:00</time>
      </trkpt>
      <trkpt lat="48.92248" lon="2.12537">
        <ele>21</ele>
        <time>2023-10-26T09:39:05.478+00:00</time>
      </trkpt>
      <trkpt lat="48.92253" lon="2.12543">
        <ele>24</ele>
        <time>2023-10-26T09:39:10.467+00:00</time>
      </trkpt>
      <trkpt lat="48.92259" lon="2.12547">
        <ele>24</ele>
        <time>2023-10-26T09:39:14.465+00:00</time>
      </trkpt>
      <trkpt lat="48.92264" lon="2.12551">
        <ele>28</ele>
        <time>2023-10-26T09:39:18.525+00:00</time>
      </trkpt>
      <trkpt lat="48.92271" lon="2.12557">
        <ele>28</ele>
        <time>2023-10-26T09:39:23.482+00:00</time>
      </trkpt>
      <trkpt lat="48.92277" lon="2.12559">
        <ele>28</ele>
        <time>2023-10-26T09:39:28.478+00:00</time>
      </trkpt>
      <trkpt lat="48.92284" lon="2.12561">
        <ele>28</ele>
        <time>2023-10-26T09:39:33.485+00:00</time>
      </trkpt>
      <trkpt lat="48.92289" lon="2.12568">
        <ele>28</ele>
        <time>2023-10-26T09:39:38.474+00:00</time>
      </trkpt>
      <trkpt lat="48.92294" lon="2.12573">
        <ele>32</ele>
        <time>2023-10-26T09:39:42.467+00:00</time>
      </trkpt>
      <trkpt lat="48.92297" lon="2.12579">
        <ele>32</ele>
        <time>2023-10-26T09:39:47.485+00:00</time>
      </trkpt>
      <trkpt lat="48.923" lon="2.12586">
        <ele>32</ele>
        <time>2023-10-26T09:39:52.473+00:00</time>
      </trkpt>
      <trkpt lat="48.92304" lon="2.12591">
        <ele>32</ele>
        <time>2023-10-26T09:39:57.492+00:00</time>
      </trkpt>
      <trkpt lat="48.92308" lon="2.12598">
        <ele>33</ele>
        <time>2023-10-26T09:40:02.472+00:00</time>
      </trkpt>
      <trkpt lat="48.92313" lon="2.12605">
        <ele>33</ele>
        <time>2023-10-26T09:40:07.471+00:00</time>
      </trkpt>
      <trkpt lat="48.92319" lon="2.12611">
        <ele>33</ele>
        <time>2023-10-26T09:40:12.471+00:00</time>
      </trkpt>
      <trkpt lat="48.92324" lon="2.12616">
        <ele>30</ele>
        <time>2023-10-26T09:40:17.469+00:00</time>
      </trkpt>
      <trkpt lat="48.92327" lon="2.12618">
        <ele>30</ele>
        <time>2023-10-26T09:40:22.472+00:00</time>
      </trkpt>
      <trkpt lat="48.92328" lon="2.12622">
        <ele>30</ele>
        <time>2023-10-26T09:40:27.479+00:00</time>
      </trkpt>
      <trkpt lat="48.92333" lon="2.12626">
        <ele>29</ele>
        <time>2023-10-26T09:40:32.476+00:00</time>
      </trkpt>
      <trkpt lat="48.92338" lon="2.1263">
        <ele>29</ele>
        <time>2023-10-26T09:40:37.472+00:00</time>
      </trkpt>
      <trkpt lat="48.92344" lon="2.12636">
        <ele>29</ele>
        <time>2023-10-26T09:40:42.519+00:00</time>
      </trkpt>
      <trkpt lat="48.9235" lon="2.12642">
        <ele>23</ele>
        <time>2023-10-26T09:40:47.481+00:00</time>
      </trkpt>
      <trkpt lat="48.92356" lon="2.12648">
        <ele>23</ele>
        <time>2023-10-26T09:40:52.480+00:00</time>
      </trkpt>
      <trkpt lat="48.92361" lon="2.12652">
        <ele>23</ele>
        <time>2023-10-26T09:40:57.465+00:00</time>
      </trkpt>
      <trkpt lat="48.92363" lon="2.12655">
        <ele>24</ele>
        <time>2023-10-26T09:41:02.472+00:00</time>
      </trkpt>
      <trkpt lat="48.92366" lon="2.12658">
        <ele>24</ele>
        <time>2023-10-26T09:41:07.476+00:00</time>
      </trkpt>
      <trkpt lat="48.92369" lon="2.12662">
        <ele>24</ele>
        <time>2023-10-26T09:41:11.470+00:00</time>
      </trkpt>
      <trkpt lat="48.92373" lon="2.12669">
        <ele>24</ele>
        <time>2023-10-26T09:41:16.465+00:00</time>
      </trkpt>
      <trkpt lat="48.92378" lon="2.12673">
        <ele>22</ele>
        <time>2023-10-26T09:41:20.465+00:00</time>
      </trkpt>
      <trkpt lat="48.92382" lon="2.12678">
        <ele>22</ele>
        <time>2023-10-26T09:41:25.469+00:00</time>
      </trkpt>
      <trkpt lat="48.92385" lon="2.12682">
        <ele>23</ele>
        <time>2023-10-26T09:41:29.466+00:00</time>
      </trkpt>
      <trkpt lat="48.92389" lon="2.12686">
        <ele>23</ele>
        <time>2023-10-26T09:41:34.494+00:00</time>
      </trkpt>
      <trkpt lat="48.92394" lon="2.12691">
        <ele>23</ele>
        <time>2023-10-26T09:41:39.483+00:00</time>
      </trkpt>
      <trkpt lat="48.92398" lon="2.12697">
        <ele>23</ele>
        <time>2023-10-26T09:41:44.477+00:00</time>
      </trkpt>
      <trkpt lat="48.92404" lon="2.12701">
        <ele>21</ele>
        <time>2023-10-26T09:41:49.471+00:00</time>
      </trkpt>
      <trkpt lat="48.92409" lon="2.12707">
        <ele>21</ele>
        <time>2023-10-26T09:41:54.468+00:00</time>
      </trkpt>
      <trkpt lat="48.92414" lon="2.12713">
        <ele>22</ele>
        <time>2023-10-26T09:41:59.469+00:00</time>
      </trkpt>
      <trkpt lat="48.9242" lon="2.12718">
        <ele>22</ele>
        <time>2023-10-26T09:42:04.470+00:00</time>
      </trkpt>
      <trkpt lat="48.92425" lon="2.12723">
        <ele>22</ele>
        <time>2023-10-26T09:42:09.472+00:00</time>
      </trkpt>
      <trkpt lat="48.92429" lon="2.12728">
        <ele>22</ele>
        <time>2023-10-26T09:42:13.531+00:00</time>
      </trkpt>
      <trkpt lat="48.92435" lon="2.12732">
        <ele>23</ele>
        <time>2023-10-26T09:42:18.475+00:00</time>
      </trkpt>
      <trkpt lat="48.92438" lon="2.12737">
        <ele>24</ele>
        <time>2023-10-26T09:42:23.473+00:00</time>
      </trkpt>
      <trkpt lat="48.92441" lon="2.1274">
        <ele>24</ele>
        <time>2023-10-26T09:42:28.474+00:00</time>
      </trkpt>
      <trkpt lat="48.92445" lon="2.12745">
        <ele>24</ele>
        <time>2023-10-26T09:42:33.483+00:00</time>
      </trkpt>
      <trkpt lat="48.9245" lon="2.1275">
        <ele>24</ele>
        <time>2023-10-26T09:42:38.469+00:00</time>
      </trkpt>
      <trkpt lat="48.92454" lon="2.12756">
        <ele>24</ele>
        <time>2023-10-26T09:42:43.472+00:00</time>
      </trkpt>
      <trkpt lat="48.92458" lon="2.12762">
        <ele>22</ele>
        <time>2023-10-26T09:42:48.484+00:00</time>
      </trkpt>
      <trkpt lat="48.92463" lon="2.12768">
        <ele>22</ele>
        <time>2023-10-26T09:42:53.479+00:00</time>
      </trkpt>
      <trkpt lat="48.92467" lon="2.12773">
        <ele>22</ele>
        <time>2023-10-26T09:42:57.474+00:00</time>
      </trkpt>
      <trkpt lat="48.92473" lon="2.1278">
        <ele>22</ele>
        <time>2023-10-26T09:43:02.473+00:00</time>
      </trkpt>
      <trkpt lat="48.92477" lon="2.12786">
        <ele>22</ele>
        <time>2023-10-26T09:43:07.467+00:00</time>
      </trkpt>
      <trkpt lat="48.92483" lon="2.12792">
        <ele>22</ele>
        <time>2023-10-26T09:43:12.470+00:00</time>
      </trkpt>
      <trkpt lat="48.92487" lon="2.12799">
        <ele>20</ele>
        <time>2023-10-26T09:43:17.469+00:00</time>
      </trkpt>
      <trkpt lat="48.92492" lon="2.12805">
        <ele>20</ele>
        <time>2023-10-26T09:43:21.469+00:00</time>
      </trkpt>
      <trkpt lat="48.92496" lon="2.12812">
        <ele>20</ele>
        <time>2023-10-26T09:43:26.469+00:00</time>
      </trkpt>
      <trkpt lat="48.925" lon="2.12818">
        <ele>20</ele>
        <time>2023-10-26T09:43:31.470+00:00</time>
      </trkpt>
      <trkpt lat="48.92504" lon="2.12824">
        <ele>22</ele>
        <time>2023-10-26T09:43:36.470+00:00</time>
      </trkpt>
      <trkpt lat="48.92508" lon="2.12828">
        <ele>22</ele>
        <time>2023-10-26T09:43:40.469+00:00</time>
      </trkpt>
      <trkpt lat="48.92512" lon="2.12834">
        <ele>22</ele>
        <time>2023-10-26T09:43:44.471+00:00</time>
      </trkpt>
      <trkpt lat="48.92516" lon="2.12841">
        <ele>20</ele>
        <time>2023-10-26T09:43:49.467+00:00</time>
      </trkpt>
      <trkpt lat="48.92521" lon="2.12848">
        <ele>21</ele>
        <time>2023-10-26T09:43:54.474+00:00</time>
      </trkpt>
      <trkpt lat="48.92525" lon="2.12853">
        <ele>21</ele>
        <time>2023-10-26T09:43:59.482+00:00</time>
      </trkpt>
      <trkpt lat="48.92529" lon="2.12859">
        <ele>21</ele>
        <time>2023-10-26T09:44:04.470+00:00</time>
      </trkpt>
      <trkpt lat="48.92533" lon="2.12865">
        <ele>21</ele>
        <time>2023-10-26T09:44:09.477+00:00</time>
      </trkpt>
      <trkpt lat="48.92537" lon="2.12872">
        <ele>21</ele>
        <time>2023-10-26T09:44:14.477+00:00</time>
      </trkpt>
      <trkpt lat="48.92541" lon="2.12878">
        <ele>23</ele>
        <time>2023-10-26T09:44:18.506+00:00</time>
      </trkpt>
      <trkpt lat="48.92546" lon="2.12886">
        <ele>22</ele>
        <time>2023-10-26T09:44:23.471+00:00</time>
      </trkpt>
      <trkpt lat="48.92551" lon="2.12893">
        <ele>22</ele>
        <time>2023-10-26T09:44:28.469+00:00</time>
      </trkpt>
      <trkpt lat="48.92556" lon="2.12901">
        <ele>22</ele>
        <time>2023-10-26T09:44:33.468+00:00</time>
      </trkpt>
      <trkpt lat="48.92562" lon="2.12908">
        <ele>23</ele>
        <time>2023-10-26T09:44:38.472+00:00</time>
      </trkpt>
      <trkpt lat="48.92566" lon="2.12915">
        <ele>23</ele>
        <time>2023-10-26T09:44:43.466+00:00</time>
      </trkpt>
      <trkpt lat="48.92571" lon="2.12923">
        <ele>24</ele>
        <time>2023-10-26T09:44:48.471+00:00</time>
      </trkpt>
      <trkpt lat="48.92575" lon="2.1293">
        <ele>24</ele>
        <time>2023-10-26T09:44:53.472+00:00</time>
      </trkpt>
      <trkpt lat="48.92578" lon="2.12936">
        <ele>26</ele>
        <time>2023-10-26T09:44:58.470+00:00</time>
      </trkpt>
      <trkpt lat="48.92582" lon="2.12943">
        <ele>26</ele>
        <time>2023-10-26T09:45:03.465+00:00</time>
      </trkpt>
      <trkpt lat="48.92586" lon="2.12951">
        <ele>26</ele>
        <time>2023-10-26T09:45:08.469+00:00</time>
      </trkpt>
      <trkpt lat="48.92591" lon="2.12958">
        <ele>26</ele>
        <time>2023-10-26T09:45:13.468+00:00</time>
      </trkpt>
      <trkpt lat="48.92595" lon="2.12966">
        <ele>28</ele>
        <time>2023-10-26T09:45:18.469+00:00</time>
      </trkpt>
      <trkpt lat="48.92599" lon="2.12973">
        <ele>29</ele>
        <time>2023-10-26T09:45:23.469+00:00</time>
      </trkpt>
      <trkpt lat="48.92603" lon="2.1298">
        <ele>29</ele>
        <time>2023-10-26T09:45:28.469+00:00</time>
      </trkpt>
      <trkpt lat="48.92607" lon="2.12987">
        <ele>28</ele>
        <time>2023-10-26T09:45:33.471+00:00</time>
      </trkpt>
      <trkpt lat="48.9261" lon="2.12993">
        <ele>28</ele>
        <time>2023-10-26T09:45:37.472+00:00</time>
      </trkpt>
      <trkpt lat="48.92614" lon="2.12999">
        <ele>28</ele>
        <time>2023-10-26T09:45:42.466+00:00</time>
      </trkpt>
      <trkpt lat="48.92619" lon="2.13006">
        <ele>28</ele>
        <time>2023-10-26T09:45:47.473+00:00</time>
      </trkpt>
      <trkpt lat="48.92623" lon="2.13014">
        <ele>28</ele>
        <time>2023-10-26T09:45:52.473+00:00</time>
      </trkpt>
      <trkpt lat="48.92628" lon="2.13021">
        <ele>27</ele>
        <time>2023-10-26T09:45:57.469+00:00</time>
      </trkpt>
      <trkpt lat="48.92632" lon="2.13028">
        <ele>27</ele>
        <time>2023-10-26T09:46:02.471+00:00</time>
      </trkpt>
      <trkpt lat="48.92635" lon="2.13035">
        <ele>27</ele>
        <time>2023-10-26T09:46:07.472+00:00</time>
      </trkpt>
      <trkpt lat="48.92638" lon="2.13041">
        <ele>27</ele>
        <time>2023-10-26T09:46:11.507+00:00</time>
      </trkpt>
      <trkpt lat="48.92644" lon="2.13047">
        <ele>27</ele>
        <time>2023-10-26T09:46:16.470+00:00</time>
      </trkpt>
      <trkpt lat="48.92649" lon="2.13053">
        <ele>27</ele>
        <time>2023-10-26T09:46:21.469+00:00</time>
      </trkpt>
      <trkpt lat="48.92654" lon="2.13059">
        <ele>25</ele>
        <time>2023-10-26T09:46:26.470+00:00</time>
      </trkpt>
      <trkpt lat="48.92659" lon="2.13064">
        <ele>25</ele>
        <time>2023-10-26T09:46:30.474+00:00</time>
      </trkpt>
      <trkpt lat="48.92663" lon="2.13069">
        <ele>25</ele>
        <time>2023-10-26T09:46:34.474+00:00</time>
      </trkpt>
      <trkpt lat="48.92668" lon="2.13077">
        <ele>26</ele>
        <time>2023-10-26T09:46:39.471+00:00</time>
      </trkpt>
      <trkpt lat="48.92672" lon="2.13085">
        <ele>26</ele>
        <time>2023-10-26T09:46:44.474+00:00</time>
      </trkpt>
      <trkpt lat="48.92676" lon="2.13093">
        <ele>26</ele>
        <time>2023-10-26T09:46:49.481+00:00</time>
      </trkpt>
      <trkpt lat="48.9268" lon="2.13101">
        <ele>28</ele>
        <time>2023-10-26T09:46:54.467+00:00</time>
      </trkpt>
      <trkpt lat="48.92685" lon="2.13107">
        <ele>27</ele>
        <time>2023-10-26T09:46:59.477+00:00</time>
      </trkpt>
      <trkpt lat="48.92688" lon="2.13113">
        <ele>27</ele>
        <time>2023-10-26T09:47:03.470+00:00</time>
      </trkpt>
      <trkpt lat="48.92692" lon="2.13121">
        <ele>27</ele>
        <time>2023-10-26T09:47:08.477+00:00</time>
      </trkpt>
      <trkpt lat="48.92695" lon="2.13127">
        <ele>28</ele>
        <time>2023-10-26T09:47:12.474+00:00</time>
      </trkpt>
      <trkpt lat="48.927" lon="2.13134">
        <ele>28</ele>
        <time>2023-10-26T09:47:17.473+00:00</time>
      </trkpt>
      <trkpt lat="48.92705" lon="2.13141">
        <ele>28</ele>
        <time>2023-10-26T09:47:22.466+00:00</time>
      </trkpt>
      <trkpt lat="48.9271" lon="2.13146">
        <ele>27</ele>
        <time>2023-10-26T09:47:26.468+00:00</time>
      </trkpt>
      <trkpt lat="48.92715" lon="2.13154">
        <ele>28</ele>
        <time>2023-10-26T09:47:31.475+00:00</time>
      </trkpt>
      <trkpt lat="48.92719" lon="2.13162">
        <ele>28</ele>
        <time>2023-10-26T09:47:36.476+00:00</time>
      </trkpt>
      <trkpt lat="48.92722" lon="2.1317">
        <ele>28</ele>
        <time>2023-10-26T09:47:41.464+00:00</time>
      </trkpt>
      <trkpt lat="48.92726" lon="2.13175">
        <ele>28</ele>
        <time>2023-10-26T09:47:45.476+00:00</time>
      </trkpt>
      <trkpt lat="48.9273" lon="2.13182">
        <ele>27</ele>
        <time>2023-10-26T09:47:50.475+00:00</time>
      </trkpt>
      <trkpt lat="48.92734" lon="2.13188">
        <ele>27</ele>
        <time>2023-10-26T09:47:54.474+00:00</time>
      </trkpt>
      <trkpt lat="48.9274" lon="2.13197">
        <ele>24</ele>
        <time>2023-10-26T09:47:59.466+00:00</time>
      </trkpt>
      <trkpt lat="48.92746" lon="2.13204">
        <ele>24</ele>
        <time>2023-10-26T09:48:04.473+00:00</time>
      </trkpt>
      <trkpt lat="48.92751" lon="2.13209">
        <ele>23</ele>
        <time>2023-10-26T09:48:09.468+00:00</time>
      </trkpt>
      <trkpt lat="48.92757" lon="2.13214">
        <ele>23</ele>
        <time>2023-10-26T09:48:14.468+00:00</time>
      </trkpt>
      <trkpt lat="48.92765" lon="2.1322">
        <ele>20</ele>
        <time>2023-10-26T09:48:19.466+00:00</time>
      </trkpt>
      <trkpt lat="48.92768" lon="2.13225">
        <ele>20</ele>
        <time>2023-10-26T09:48:23.474+00:00</time>
      </trkpt>
      <trkpt lat="48.92774" lon="2.13232">
        <ele>20</ele>
        <time>2023-10-26T09:48:28.470+00:00</time>
      </trkpt>
      <trkpt lat="48.92778" lon="2.13239">
        <ele>22</ele>
        <time>2023-10-26T09:48:33.466+00:00</time>
      </trkpt>
      <trkpt lat="48.92779" lon="2.13245">
        <ele>22</ele>
        <time>2023-10-26T09:48:37.478+00:00</time>
      </trkpt>
      <trkpt lat="48.92783" lon="2.13252">
        <ele>22</ele>
        <time>2023-10-26T09:48:42.471+00:00</time>
      </trkpt>
      <trkpt lat="48.92787" lon="2.13257">
        <ele>22</ele>
        <time>2023-10-26T09:48:46.473+00:00</time>
      </trkpt>
      <trkpt lat="48.92791" lon="2.13263">
        <ele>22</ele>
        <time>2023-10-26T09:48:50.520+00:00</time>
      </trkpt>
      <trkpt lat="48.92794" lon="2.1327">
        <ele>23</ele>
        <time>2023-10-26T09:48:55.474+00:00</time>
      </trkpt>
      <trkpt lat="48.92798" lon="2.13278">
        <ele>23</ele>
        <time>2023-10-26T09:49:00.484+00:00</time>
      </trkpt>
      <trkpt lat="48.92803" lon="2.13285">
        <ele>23</ele>
        <time>2023-10-26T09:49:05.471+00:00</time>
      </trkpt>
      <trkpt lat="48.92808" lon="2.13293">
        <ele>25</ele>
        <time>2023-10-26T09:49:10.476+00:00</time>
      </trkpt>
      <trkpt lat="48.92814" lon="2.13299">
        <ele>25</ele>
        <time>2023-10-26T09:49:15.472+00:00</time>
      </trkpt>
      <trkpt lat="48.92818" lon="2.13306">
        <ele>25</ele>
        <time>2023-10-26T09:49:20.479+00:00</time>
      </trkpt>
      <trkpt lat="48.92824" lon="2.13313">
        <ele>24</ele>
        <time>2023-10-26T09:49:25.477+00:00</time>
      </trkpt>
      <trkpt lat="48.92829" lon="2.1332">
        <ele>25</ele>
        <time>2023-10-26T09:49:30.480+00:00</time>
      </trkpt>
      <trkpt lat="48.92833" lon="2.13328">
        <ele>25</ele>
        <time>2023-10-26T09:49:35.480+00:00</time>
      </trkpt>
      <trkpt lat="48.92838" lon="2.13334">
        <ele>25</ele>
        <time>2023-10-26T09:49:40.475+00:00</time>
      </trkpt>
      <trkpt lat="48.92843" lon="2.1334">
        <ele>25</ele>
        <time>2023-10-26T09:49:45.474+00:00</time>
      </trkpt>
      <trkpt lat="48.92847" lon="2.13347">
        <ele>25</ele>
        <time>2023-10-26T09:49:50.474+00:00</time>
      </trkpt>
      <trkpt lat="48.92851" lon="2.13354">
        <ele>24</ele>
        <time>2023-10-26T09:49:55.471+00:00</time>
      </trkpt>
      <trkpt lat="48.92856" lon="2.13361">
        <ele>24</ele>
        <time>2023-10-26T09:50:00.479+00:00</time>
      </trkpt>
      <trkpt lat="48.9286" lon="2.13366">
        <ele>24</ele>
        <time>2023-10-26T09:50:04.471+00:00</time>
      </trkpt>
      <trkpt lat="48.92865" lon="2.13372">
        <ele>24</ele>
        <time>2023-10-26T09:50:09.471+00:00</time>
      </trkpt>
      <trkpt lat="48.9287" lon="2.13379">
        <ele>26</ele>
        <time>2023-10-26T09:50:14.472+00:00</time>
      </trkpt>
      <trkpt lat="48.92874" lon="2.13387">
        <ele>26</ele>
        <time>2023-10-26T09:50:19.471+00:00</time>
      </trkpt>
      <trkpt lat="48.92878" lon="2.13395">
        <ele>24</ele>
        <time>2023-10-26T09:50:24.475+00:00</time>
      </trkpt>
      <trkpt lat="48.92882" lon="2.13404">
        <ele>25</ele>
        <time>2023-10-26T09:50:29.473+00:00</time>
      </trkpt>
      <trkpt lat="48.92886" lon="2.1341">
        <ele>25</ele>
        <time>2023-10-26T09:50:33.472+00:00</time>
      </trkpt>
      <trkpt lat="48.92891" lon="2.13418">
        <ele>25</ele>
        <time>2023-10-26T09:50:38.471+00:00</time>
      </trkpt>
      <trkpt lat="48.92896" lon="2.13426">
        <ele>25</ele>
        <time>2023-10-26T09:50:42.469+00:00</time>
      </trkpt>
      <trkpt lat="48.92901" lon="2.13434">
        <ele>26</ele>
        <time>2023-10-26T09:50:47.477+00:00</time>
      </trkpt>
      <trkpt lat="48.92906" lon="2.13442">
        <ele>25</ele>
        <time>2023-10-26T09:50:52.476+00:00</time>
      </trkpt>
      <trkpt lat="48.9291" lon="2.1345">
        <ele>25</ele>
        <time>2023-10-26T09:50:56.479+00:00</time>
      </trkpt>
      <trkpt lat="48.92915" lon="2.13458">
        <ele>25</ele>
        <time>2023-10-26T09:51:01.476+00:00</time>
      </trkpt>
      <trkpt lat="48.92918" lon="2.13467">
        <ele>27</ele>
        <time>2023-10-26T09:51:06.474+00:00</time>
      </trkpt>
      <trkpt lat="48.92921" lon="2.13475">
        <ele>27</ele>
        <time>2023-10-26T09:51:11.479+00:00</time>
      </trkpt>
      <trkpt lat="48.92925" lon="2.13481">
        <ele>27</ele>
        <time>2023-10-26T09:51:16.480+00:00</time>
      </trkpt>
      <trkpt lat="48.9293" lon="2.13486">
        <ele>27</ele>
        <time>2023-10-26T09:51:21.478+00:00</time>
      </trkpt>
      <trkpt lat="48.92931" lon="2.13488">
        <ele>27</ele>
        <time>2023-10-26T09:51:26.475+00:00</time>
      </trkpt>
      <trkpt lat="48.92931" lon="2.13488">
        <ele>27</ele>
        <time>2023-10-26T09:51:31.484+00:00</time>
      </trkpt>
      <trkpt lat="48.92933" lon="2.13491">
        <ele>27</ele>
        <time>2023-10-26T09:51:35.513+00:00</time>
      </trkpt>
      <trkpt lat="48.92936" lon="2.13496">
        <ele>27</ele>
        <time>2023-10-26T09:51:40.472+00:00</time>
      </trkpt>
      <trkpt lat="48.92939" lon="2.13503">
        <ele>27</ele>
        <time>2023-10-26T09:51:45.474+00:00</time>
      </trkpt>
      <trkpt lat="48.92943" lon="2.1351">
        <ele>27</ele>
        <time>2023-10-26T09:51:50.471+00:00</time>
      </trkpt>
      <trkpt lat="48.92948" lon="2.13517">
        <ele>28</ele>
        <time>2023-10-26T09:51:55.473+00:00</time>
      </trkpt>
      <trkpt lat="48.92953" lon="2.13525">
        <ele>28</ele>
        <time>2023-10-26T09:52:00.470+00:00</time>
      </trkpt>
      <trkpt lat="48.92958" lon="2.13532">
        <ele>28</ele>
        <time>2023-10-26T09:52:05.474+00:00</time>
      </trkpt>
      <trkpt lat="48.92963" lon="2.13538">
        <ele>24</ele>
        <time>2023-10-26T09:52:09.470+00:00</time>
      </trkpt>
      <trkpt lat="48.9297" lon="2.13544">
        <ele>26</ele>
        <time>2023-10-26T09:52:14.468+00:00</time>
      </trkpt>
      <trkpt lat="48.92976" lon="2.13551">
        <ele>26</ele>
        <time>2023-10-26T09:52:19.501+00:00</time>
      </trkpt>
      <trkpt lat="48.9298" lon="2.13558">
        <ele>26</ele>
        <time>2023-10-26T09:52:24.469+00:00</time>
      </trkpt>
      <trkpt lat="48.92984" lon="2.13565">
        <ele>26</ele>
        <time>2023-10-26T09:52:29.470+00:00</time>
      </trkpt>
      <trkpt lat="48.92988" lon="2.13573">
        <ele>27</ele>
        <time>2023-10-26T09:52:34.469+00:00</time>
      </trkpt>
      <trkpt lat="48.92993" lon="2.1358">
        <ele>27</ele>
        <time>2023-10-26T09:52:39.472+00:00</time>
      </trkpt>
      <trkpt lat="48.92998" lon="2.13586">
        <ele>27</ele>
        <time>2023-10-26T09:52:44.472+00:00</time>
      </trkpt>
      <trkpt lat="48.93002" lon="2.13592">
        <ele>27</ele>
        <time>2023-10-26T09:52:49.469+00:00</time>
      </trkpt>
      <trkpt lat="48.93006" lon="2.13599">
        <ele>27</ele>
        <time>2023-10-26T09:52:53.507+00:00</time>
      </trkpt>
      <trkpt lat="48.9301" lon="2.13605">
        <ele>27</ele>
        <time>2023-10-26T09:52:58.466+00:00</time>
      </trkpt>
      <trkpt lat="48.93015" lon="2.13605">
        <ele>26</ele>
        <time>2023-10-26T09:53:21.465+00:00</time>
      </trkpt>
      <trkpt lat="48.93013" lon="2.1361">
        <ele>27</ele>
        <time>2023-10-26T09:53:26.478+00:00</time>
      </trkpt>
      <trkpt lat="48.93019" lon="2.13616">
        <ele>26</ele>
        <time>2023-10-26T09:53:31.468+00:00</time>
      </trkpt>
      <trkpt lat="48.93024" lon="2.13623">
        <ele>26</ele>
        <time>2023-10-26T09:53:36.471+00:00</time>
      </trkpt>
      <trkpt lat="48.93027" lon="2.13629">
        <ele>25</ele>
        <time>2023-10-26T09:53:40.482+00:00</time>
      </trkpt>
      <trkpt lat="48.93032" lon="2.13635">
        <ele>25</ele>
        <time>2023-10-26T09:53:45.471+00:00</time>
      </trkpt>
      <trkpt lat="48.93036" lon="2.13642">
        <ele>25</ele>
        <time>2023-10-26T09:53:50.467+00:00</time>
      </trkpt>
      <trkpt lat="48.93038" lon="2.13648">
        <ele>25</ele>
        <time>2023-10-26T09:53:54.472+00:00</time>
      </trkpt>
      <trkpt lat="48.93042" lon="2.13652">
        <ele>25</ele>
        <time>2023-10-26T09:53:59.473+00:00</time>
      </trkpt>
      <trkpt lat="48.93045" lon="2.13658">
        <ele>25</ele>
        <time>2023-10-26T09:54:03.476+00:00</time>
      </trkpt>
      <trkpt lat="48.93047" lon="2.13658">
        <ele>25</ele>
        <time>2023-10-26T09:54:08.525+00:00</time>
      </trkpt>
      <trkpt lat="48.93049" lon="2.13656">
        <ele>25</ele>
        <time>2023-10-26T09:54:13.475+00:00</time>
      </trkpt>
      <trkpt lat="48.93054" lon="2.13659">
        <ele>25</ele>
        <time>2023-10-26T09:54:18.475+00:00</time>
      </trkpt>
      <trkpt lat="48.93061" lon="2.13662">
        <ele>25</ele>
        <time>2023-10-26T09:54:23.474+00:00</time>
      </trkpt>
      <trkpt lat="48.93065" lon="2.13669">
        <ele>25</ele>
        <time>2023-10-26T09:54:28.474+00:00</time>
      </trkpt>
      <trkpt lat="48.9307" lon="2.13676">
        <ele>25</ele>
        <time>2023-10-26T09:54:33.481+00:00</time>
      </trkpt>
      <trkpt lat="48.93074" lon="2.13681">
        <ele>23</ele>
        <time>2023-10-26T09:54:38.475+00:00</time>
      </trkpt>
      <trkpt lat="48.93077" lon="2.13686">
        <ele>23</ele>
        <time>2023-10-26T09:54:42.521+00:00</time>
      </trkpt>
      <trkpt lat="48.93081" lon="2.13692">
        <ele>23</ele>
        <time>2023-10-26T09:54:47.475+00:00</time>
      </trkpt>
      <trkpt lat="48.93084" lon="2.13699">
        <ele>23</ele>
        <time>2023-10-26T09:54:52.476+00:00</time>
      </trkpt>
      <trkpt lat="48.93089" lon="2.13706">
        <ele>23</ele>
        <time>2023-10-26T09:54:57.476+00:00</time>
      </trkpt>
      <trkpt lat="48.93093" lon="2.13712">
        <ele>23</ele>
        <time>2023-10-26T09:55:02.474+00:00</time>
      </trkpt>
      <trkpt lat="48.93097" lon="2.13719">
        <ele>23</ele>
        <time>2023-10-26T09:55:07.475+00:00</time>
      </trkpt>
      <trkpt lat="48.931" lon="2.13724">
        <ele>23</ele>
        <time>2023-10-26T09:55:11.467+00:00</time>
      </trkpt>
      <trkpt lat="48.93104" lon="2.13731">
        <ele>23</ele>
        <time>2023-10-26T09:55:16.469+00:00</time>
      </trkpt>
      <trkpt lat="48.93108" lon="2.13738">
        <ele>25</ele>
        <time>2023-10-26T09:55:21.480+00:00</time>
      </trkpt>
      <trkpt lat="48.93113" lon="2.13745">
        <ele>25</ele>
        <time>2023-10-26T09:55:26.471+00:00</time>
      </trkpt>
      <trkpt lat="48.93117" lon="2.13751">
        <ele>25</ele>
        <time>2023-10-26T09:55:31.470+00:00</time>
      </trkpt>
      <trkpt lat="48.93119" lon="2.13757">
        <ele>25</ele>
        <time>2023-10-26T09:55:35.473+00:00</time>
      </trkpt>
      <trkpt lat="48.93121" lon="2.13762">
        <ele>25</ele>
        <time>2023-10-26T09:55:39.465+00:00</time>
      </trkpt>
      <trkpt lat="48.93124" lon="2.13767">
        <ele>26</ele>
        <time>2023-10-26T09:55:44.471+00:00</time>
      </trkpt>
      <trkpt lat="48.93127" lon="2.13774">
        <ele>25</ele>
        <time>2023-10-26T09:55:49.479+00:00</time>
      </trkpt>
      <trkpt lat="48.9313" lon="2.13782">
        <ele>25</ele>
        <time>2023-10-26T09:55:54.474+00:00</time>
      </trkpt>
      <trkpt lat="48.93134" lon="2.1379">
        <ele>25</ele>
        <time>2023-10-26T09:55:59.476+00:00</time>
      </trkpt>
      <trkpt lat="48.93137" lon="2.13796">
        <ele>25</ele>
        <time>2023-10-26T09:56:04.476+00:00</time>
      </trkpt>
      <trkpt lat="48.93141" lon="2.13804">
        <ele>25</ele>
        <time>2023-10-26T09:56:09.474+00:00</time>
      </trkpt>
      <trkpt lat="48.93145" lon="2.1381">
        <ele>25</ele>
        <time>2023-10-26T09:56:13.474+00:00</time>
      </trkpt>
      <trkpt lat="48.93148" lon="2.13817">
        <ele>25</ele>
        <time>2023-10-26T09:56:18.478+00:00</time>
      </trkpt>
      <trkpt lat="48.93151" lon="2.13825">
        <ele>24</ele>
        <time>2023-10-26T09:56:23.473+00:00</time>
      </trkpt>
      <trkpt lat="48.93157" lon="2.1383">
        <ele>24</ele>
        <time>2023-10-26T09:56:28.470+00:00</time>
      </trkpt>
      <trkpt lat="48.93163" lon="2.13835">
        <ele>24</ele>
        <time>2023-10-26T09:56:33.474+00:00</time>
      </trkpt>
      <trkpt lat="48.93168" lon="2.13842">
        <ele>24</ele>
        <time>2023-10-26T09:56:38.472+00:00</time>
      </trkpt>
      <trkpt lat="48.9317" lon="2.13848">
        <ele>22</ele>
        <time>2023-10-26T09:56:42.472+00:00</time>
      </trkpt>
      <trkpt lat="48.93169" lon="2.13855">
        <ele>22</ele>
        <time>2023-10-26T09:56:47.472+00:00</time>
      </trkpt>
      <trkpt lat="48.93167" lon="2.13862">
        <ele>22</ele>
        <time>2023-10-26T09:56:52.471+00:00</time>
      </trkpt>
      <trkpt lat="48.93174" lon="2.13866">
        <ele>22</ele>
        <time>2023-10-26T09:57:17.473+00:00</time>
      </trkpt>
      <trkpt lat="48.93177" lon="2.13872">
        <ele>22</ele>
        <time>2023-10-26T09:57:21.480+00:00</time>
      </trkpt>
      <trkpt lat="48.93182" lon="2.13878">
        <ele>20</ele>
        <time>2023-10-26T09:57:26.474+00:00</time>
      </trkpt>
      <trkpt lat="48.93187" lon="2.13886">
        <ele>20</ele>
        <time>2023-10-26T09:57:31.472+00:00</time>
      </trkpt>
      <trkpt lat="48.93191" lon="2.13892">
        <ele>20</ele>
        <time>2023-10-26T09:57:35.475+00:00</time>
      </trkpt>
      <trkpt lat="48.93195" lon="2.13897">
        <ele>20</ele>
        <time>2023-10-26T09:57:39.475+00:00</time>
      </trkpt>
      <trkpt lat="48.932" lon="2.13904">
        <ele>21</ele>
        <time>2023-10-26T09:57:44.476+00:00</time>
      </trkpt>
      <trkpt lat="48.93205" lon="2.1391">
        <ele>21</ele>
        <time>2023-10-26T09:57:49.476+00:00</time>
      </trkpt>
      <trkpt lat="48.93209" lon="2.13918">
        <ele>21</ele>
        <time>2023-10-26T09:57:54.467+00:00</time>
      </trkpt>
      <trkpt lat="48.93213" lon="2.13922">
        <ele>21</ele>
        <time>2023-10-26T09:57:58.477+00:00</time>
      </trkpt>
      <trkpt lat="48.93216" lon="2.13928">
        <ele>21</ele>
        <time>2023-10-26T09:58:03.471+00:00</time>
      </trkpt>
      <trkpt lat="48.93219" lon="2.13933">
        <ele>23</ele>
        <time>2023-10-26T09:58:07.471+00:00</time>
      </trkpt>
      <trkpt lat="48.93224" lon="2.13938">
        <ele>23</ele>
        <time>2023-10-26T09:58:12.473+00:00</time>
      </trkpt>
      <trkpt lat="48.93229" lon="2.13947">
        <ele>23</ele>
        <time>2023-10-26T09:58:17.475+00:00</time>
      </trkpt>
      <trkpt lat="48.93235" lon="2.13957">
        <ele>23</ele>
        <time>2023-10-26T09:58:22.471+00:00</time>
      </trkpt>
      <trkpt lat="48.93239" lon="2.13965">
        <ele>22</ele>
        <time>2023-10-26T09:58:27.471+00:00</time>
      </trkpt>
      <trkpt lat="48.93244" lon="2.13971">
        <ele>22</ele>
        <time>2023-10-26T09:58:32.471+00:00</time>
      </trkpt>
      <trkpt lat="48.93248" lon="2.13978">
        <ele>22</ele>
        <time>2023-10-26T09:58:37.470+00:00</time>
      </trkpt>
      <trkpt lat="48.93251" lon="2.13984">
        <ele>22</ele>
        <time>2023-10-26T09:58:41.511+00:00</time>
      </trkpt>
      <trkpt lat="48.93256" lon="2.13994">
        <ele>22</ele>
        <time>2023-10-26T09:58:46.470+00:00</time>
      </trkpt>
      <trkpt lat="48.9326" lon="2.14003">
        <ele>22</ele>
        <time>2023-10-26T09:58:51.470+00:00</time>
      </trkpt>
      <trkpt lat="48.93264" lon="2.14009">
        <ele>22</ele>
        <time>2023-10-26T09:58:55.476+00:00</time>
      </trkpt>
      <trkpt lat="48.93268" lon="2.14016">
        <ele>21</ele>
        <time>2023-10-26T09:59:00.472+00:00</time>
      </trkpt>
      <trkpt lat="48.93272" lon="2.14021">
        <ele>21</ele>
        <time>2023-10-26T09:59:04.517+00:00</time>
      </trkpt>
      <trkpt lat="48.93276" lon="2.14027">
        <ele>21</ele>
        <time>2023-10-26T09:59:09.469+00:00</time>
      </trkpt>
      <trkpt lat="48.93279" lon="2.14031">
        <ele>21</ele>
        <time>2023-10-26T09:59:13.475+00:00</time>
      </trkpt>
      <trkpt lat="48.93284" lon="2.14038">
        <ele>21</ele>
        <time>2023-10-26T09:59:18.475+00:00</time>
      </trkpt>
      <trkpt lat="48.93288" lon="2.14046">
        <ele>23</ele>
        <time>2023-10-26T09:59:23.473+00:00</time>
      </trkpt>
      <trkpt lat="48.93291" lon="2.14055">
        <ele>23</ele>
        <time>2023-10-26T09:59:27.472+00:00</time>
      </trkpt>
      <trkpt lat="48.93296" lon="2.14065">
        <ele>21</ele>
        <time>2023-10-26T09:59:32.465+00:00</time>
      </trkpt>
      <trkpt lat="48.933" lon="2.14073">
        <ele>22</ele>
        <time>2023-10-26T09:59:37.471+00:00</time>
      </trkpt>
      <trkpt lat="48.93304" lon="2.14082">
        <ele>22</ele>
        <time>2023-10-26T09:59:42.474+00:00</time>
      </trkpt>
      <trkpt lat="48.93309" lon="2.14088">
        <ele>22</ele>
        <time>2023-10-26T09:59:47.470+00:00</time>
      </trkpt>
      <trkpt lat="48.93314" lon="2.14096">
        <ele>22</ele>
        <time>2023-10-26T09:59:52.473+00:00</time>
      </trkpt>
      <trkpt lat="48.93319" lon="2.14104">
        <ele>23</ele>
        <time>2023-10-26T09:59:57.466+00:00</time>
      </trkpt>
      <trkpt lat="48.93323" lon="2.14113">
        <ele>22</ele>
        <time>2023-10-26T10:00:02.468+00:00</time>
      </trkpt>
      <trkpt lat="48.93327" lon="2.14118">
        <ele>22</ele>
        <time>2023-10-26T10:00:06.475+00:00</time>
      </trkpt>
      <trkpt lat="48.93333" lon="2.14125">
        <ele>22</ele>
        <time>2023-10-26T10:00:11.473+00:00</time>
      </trkpt>
      <trkpt lat="48.93338" lon="2.14132">
        <ele>23</ele>
        <time>2023-10-26T10:00:16.467+00:00</time>
      </trkpt>
      <trkpt lat="48.93343" lon="2.1414">
        <ele>23</ele>
        <time>2023-10-26T10:00:21.471+00:00</time>
      </trkpt>
      <trkpt lat="48.93348" lon="2.14147">
        <ele>24</ele>
        <time>2023-10-26T10:00:26.473+00:00</time>
      </trkpt>
      <trkpt lat="48.93353" lon="2.14152">
        <ele>24</ele>
        <time>2023-10-26T10:00:31.470+00:00</time>
      </trkpt>
      <trkpt lat="48.93358" lon="2.14158">
        <ele>24</ele>
        <time>2023-10-26T10:00:36.473+00:00</time>
      </trkpt>
      <trkpt lat="48.93362" lon="2.14165">
        <ele>24</ele>
        <time>2023-10-26T10:00:41.469+00:00</time>
      </trkpt>
      <trkpt lat="48.93366" lon="2.14173">
        <ele>24</ele>
        <time>2023-10-26T10:00:46.472+00:00</time>
      </trkpt>
      <trkpt lat="48.9337" lon="2.1418">
        <ele>24</ele>
        <time>2023-10-26T10:00:51.471+00:00</time>
      </trkpt>
      <trkpt lat="48.93373" lon="2.14187">
        <ele>24</ele>
        <time>2023-10-26T10:00:55.520+00:00</time>
      </trkpt>
      <trkpt lat="48.93377" lon="2.14195">
        <ele>23</ele>
        <time>2023-10-26T10:01:00.482+00:00</time>
      </trkpt>
      <trkpt lat="48.93382" lon="2.14203">
        <ele>23</ele>
        <time>2023-10-26T10:01:05.471+00:00</time>
      </trkpt>
      <trkpt lat="48.93386" lon="2.1421">
        <ele>23</ele>
        <time>2023-10-26T10:01:10.475+00:00</time>
      </trkpt>
      <trkpt lat="48.93391" lon="2.14217">
        <ele>23</ele>
        <time>2023-10-26T10:01:15.477+00:00</time>
      </trkpt>
      <trkpt lat="48.93396" lon="2.14224">
        <ele>23</ele>
        <time>2023-10-26T10:01:20.476+00:00</time>
      </trkpt>
      <trkpt lat="48.93401" lon="2.14232">
        <ele>23</ele>
        <time>2023-10-26T10:01:25.478+00:00</time>
      </trkpt>
      <trkpt lat="48.93407" lon="2.14239">
        <ele>21</ele>
        <time>2023-10-26T10:01:30.476+00:00</time>
      </trkpt>
      <trkpt lat="48.93411" lon="2.14246">
        <ele>21</ele>
        <time>2023-10-26T10:01:35.476+00:00</time>
      </trkpt>
      <trkpt lat="48.93416" lon="2.14254">
        <ele>21</ele>
        <time>2023-10-26T10:01:40.476+00:00</time>
      </trkpt>
      <trkpt lat="48.93421" lon="2.14262">
        <ele>21</ele>
        <time>2023-10-26T10:01:45.471+00:00</time>
      </trkpt>
      <trkpt lat="48.93426" lon="2.14268">
        <ele>22</ele>
        <time>2023-10-26T10:01:50.480+00:00</time>
      </trkpt>
      <trkpt lat="48.9343" lon="2.14276">
        <ele>22</ele>
        <time>2023-10-26T10:01:55.476+00:00</time>
      </trkpt>
      <trkpt lat="48.93435" lon="2.14283">
        <ele>19</ele>
        <time>2023-10-26T10:02:00.475+00:00</time>
      </trkpt>
      <trkpt lat="48.9344" lon="2.14291">
        <ele>19</ele>
        <time>2023-10-26T10:02:05.473+00:00</time>
      </trkpt>
      <trkpt lat="48.93445" lon="2.14296">
        <ele>21</ele>
        <time>2023-10-26T10:02:10.495+00:00</time>
      </trkpt>
      <trkpt lat="48.9345" lon="2.14301">
        <ele>21</ele>
        <time>2023-10-26T10:02:15.473+00:00</time>
      </trkpt>
      <trkpt lat="48.93455" lon="2.14307">
        <ele>21</ele>
        <time>2023-10-26T10:02:20.478+00:00</time>
      </trkpt>
      <trkpt lat="48.9346" lon="2.14312">
        <ele>19</ele>
        <time>2023-10-26T10:02:25.473+00:00</time>
      </trkpt>
      <trkpt lat="48.93465" lon="2.14318">
        <ele>19</ele>
        <time>2023-10-26T10:02:30.474+00:00</time>
      </trkpt>
      <trkpt lat="48.93471" lon="2.14324">
        <ele>20</ele>
        <time>2023-10-26T10:02:35.475+00:00</time>
      </trkpt>
      <trkpt lat="48.93475" lon="2.14328">
        <ele>20</ele>
        <time>2023-10-26T10:02:39.513+00:00</time>
      </trkpt>
      <trkpt lat="48.9348" lon="2.14335">
        <ele>20</ele>
        <time>2023-10-26T10:02:44.474+00:00</time>
      </trkpt>
      <trkpt lat="48.93485" lon="2.14341">
        <ele>20</ele>
        <time>2023-10-26T10:02:49.473+00:00</time>
      </trkpt>
      <trkpt lat="48.9349" lon="2.14347">
        <ele>21</ele>
        <time>2023-10-26T10:02:54.470+00:00</time>
      </trkpt>
      <trkpt lat="48.93496" lon="2.14352">
        <ele>21</ele>
        <time>2023-10-26T10:02:59.473+00:00</time>
      </trkpt>
      <trkpt lat="48.93501" lon="2.14359">
        <ele>21</ele>
        <time>2023-10-26T10:03:04.471+00:00</time>
      </trkpt>
      <trkpt lat="48.93507" lon="2.14364">
        <ele>21</ele>
        <time>2023-10-26T10:03:09.477+00:00</time>
      </trkpt>
      <trkpt lat="48.93512" lon="2.14368">
        <ele>21</ele>
        <time>2023-10-26T10:03:13.514+00:00</time>
      </trkpt>
      <trkpt lat="48.93517" lon="2.14375">
        <ele>22</ele>
        <time>2023-10-26T10:03:18.473+00:00</time>
      </trkpt>
      <trkpt lat="48.93522" lon="2.14381">
        <ele>23</ele>
        <time>2023-10-26T10:03:23.470+00:00</time>
      </trkpt>
      <trkpt lat="48.93527" lon="2.14386">
        <ele>23</ele>
        <time>2023-10-26T10:03:28.466+00:00</time>
      </trkpt>
      <trkpt lat="48.93533" lon="2.14392">
        <ele>23</ele>
        <time>2023-10-26T10:03:33.472+00:00</time>
      </trkpt>
      <trkpt lat="48.93538" lon="2.14399">
        <ele>23</ele>
        <time>2023-10-26T10:03:38.476+00:00</time>
      </trkpt>
      <trkpt lat="48.93544" lon="2.14406">
        <ele>25</ele>
        <time>2023-10-26T10:03:43.470+00:00</time>
      </trkpt>
      <trkpt lat="48.93549" lon="2.14413">
        <ele>25</ele>
        <time>2023-10-26T10:03:48.473+00:00</time>
      </trkpt>
      <trkpt lat="48.93554" lon="2.14418">
        <ele>25</ele>
        <time>2023-10-26T10:03:52.471+00:00</time>
      </trkpt>
      <trkpt lat="48.93557" lon="2.14424">
        <ele>25</ele>
        <time>2023-10-26T10:03:56.481+00:00</time>
      </trkpt>
      <trkpt lat="48.93562" lon="2.1443">
        <ele>25</ele>
        <time>2023-10-26T10:04:01.472+00:00</time>
      </trkpt>
      <trkpt lat="48.93568" lon="2.14437">
        <ele>25</ele>
        <time>2023-10-26T10:04:06.477+00:00</time>
      </trkpt>
      <trkpt lat="48.93573" lon="2.14444">
        <ele>25</ele>
        <time>2023-10-26T10:04:11.476+00:00</time>
      </trkpt>
      <trkpt lat="48.93577" lon="2.14451">
        <ele>25</ele>
        <time>2023-10-26T10:04:15.473+00:00</time>
      </trkpt>
      <trkpt lat="48.93582" lon="2.14459">
        <ele>24</ele>
        <time>2023-10-26T10:04:20.475+00:00</time>
      </trkpt>
      <trkpt lat="48.93587" lon="2.14466">
        <ele>24</ele>
        <time>2023-10-26T10:04:25.477+00:00</time>
      </trkpt>
      <trkpt lat="48.93592" lon="2.14473">
        <ele>24</ele>
        <time>2023-10-26T10:04:30.470+00:00</time>
      </trkpt>
      <trkpt lat="48.93596" lon="2.14479">
        <ele>24</ele>
        <time>2023-10-26T10:04:35.473+00:00</time>
      </trkpt>
      <trkpt lat="48.936" lon="2.14486">
        <ele>24</ele>
        <time>2023-10-26T10:04:40.478+00:00</time>
      </trkpt>
      <trkpt lat="48.93604" lon="2.14492">
        <ele>24</ele>
        <time>2023-10-26T10:04:44.471+00:00</time>
      </trkpt>
      <trkpt lat="48.93609" lon="2.14499">
        <ele>24</ele>
        <time>2023-10-26T10:04:49.471+00:00</time>
      </trkpt>
      <trkpt lat="48.93613" lon="2.14504">
        <ele>24</ele>
        <time>2023-10-26T10:04:53.475+00:00</time>
      </trkpt>
      <trkpt lat="48.93617" lon="2.14509">
        <ele>24</ele>
        <time>2023-10-26T10:04:58.473+00:00</time>
      </trkpt>
      <trkpt lat="48.93621" lon="2.14516">
        <ele>23</ele>
        <time>2023-10-26T10:05:02.485+00:00</time>
      </trkpt>
      <trkpt lat="48.93626" lon="2.14524">
        <ele>23</ele>
        <time>2023-10-26T10:05:07.478+00:00</time>
      </trkpt>
      <trkpt lat="48.9363" lon="2.14533">
        <ele>23</ele>
        <time>2023-10-26T10:05:12.477+00:00</time>
      </trkpt>
      <trkpt lat="48.93635" lon="2.14541">
        <ele>23</ele>
        <time>2023-10-26T10:05:17.478+00:00</time>
      </trkpt>
      <trkpt lat="48.9364" lon="2.14548">
        <ele>23</ele>
        <time>2023-10-26T10:05:22.476+00:00</time>
      </trkpt>
      <trkpt lat="48.93645" lon="2.14556">
        <ele>23</ele>
        <time>2023-10-26T10:05:27.475+00:00</time>
      </trkpt>
      <trkpt lat="48.9365" lon="2.14561">
        <ele>23</ele>
        <time>2023-10-26T10:05:32.476+00:00</time>
      </trkpt>
      <trkpt lat="48.93655" lon="2.14568">
        <ele>23</ele>
        <time>2023-10-26T10:05:37.471+00:00</time>
      </trkpt>
      <trkpt lat="48.93658" lon="2.14573">
        <ele>24</ele>
        <time>2023-10-26T10:05:41.481+00:00</time>
      </trkpt>
      <trkpt lat="48.93663" lon="2.14581">
        <ele>24</ele>
        <time>2023-10-26T10:05:46.477+00:00</time>
      </trkpt>
      <trkpt lat="48.93668" lon="2.14588">
        <ele>24</ele>
        <time>2023-10-26T10:05:51.477+00:00</time>
      </trkpt>
      <trkpt lat="48.93673" lon="2.14596">
        <ele>24</ele>
        <time>2023-10-26T10:05:56.484+00:00</time>
      </trkpt>
      <trkpt lat="48.93677" lon="2.14603">
        <ele>23</ele>
        <time>2023-10-26T10:06:01.474+00:00</time>
      </trkpt>
      <trkpt lat="48.93681" lon="2.1461">
        <ele>25</ele>
        <time>2023-10-26T10:06:06.475+00:00</time>
      </trkpt>
      <trkpt lat="48.93684" lon="2.14615">
        <ele>25</ele>
        <time>2023-10-26T10:06:10.471+00:00</time>
      </trkpt>
      <trkpt lat="48.93689" lon="2.14622">
        <ele>25</ele>
        <time>2023-10-26T10:06:15.467+00:00</time>
      </trkpt>
      <trkpt lat="48.93693" lon="2.14628">
        <ele>25</ele>
        <time>2023-10-26T10:06:19.471+00:00</time>
      </trkpt>
      <trkpt lat="48.93698" lon="2.14634">
        <ele>25</ele>
        <time>2023-10-26T10:06:23.471+00:00</time>
      </trkpt>
      <trkpt lat="48.93703" lon="2.14641">
        <ele>25</ele>
        <time>2023-10-26T10:06:28.473+00:00</time>
      </trkpt>
      <trkpt lat="48.93707" lon="2.14647">
        <ele>25</ele>
        <time>2023-10-26T10:06:33.470+00:00</time>
      </trkpt>
      <trkpt lat="48.93711" lon="2.14653">
        <ele>24</ele>
        <time>2023-10-26T10:06:38.477+00:00</time>
      </trkpt>
      <trkpt lat="48.93716" lon="2.14659">
        <ele>24</ele>
        <time>2023-10-26T10:06:43.474+00:00</time>
      </trkpt>
      <trkpt lat="48.93721" lon="2.14665">
        <ele>24</ele>
        <time>2023-10-26T10:06:48.474+00:00</time>
      </trkpt>
      <trkpt lat="48.93724" lon="2.14671">
        <ele>24</ele>
        <time>2023-10-26T10:06:52.479+00:00</time>
      </trkpt>
      <trkpt lat="48.93729" lon="2.14678">
        <ele>24</ele>
        <time>2023-10-26T10:06:57.471+00:00</time>
      </trkpt>
      <trkpt lat="48.93735" lon="2.14685">
        <ele>23</ele>
        <time>2023-10-26T10:07:02.485+00:00</time>
      </trkpt>
      <trkpt lat="48.93739" lon="2.14692">
        <ele>23</ele>
        <time>2023-10-26T10:07:07.468+00:00</time>
      </trkpt>
      <trkpt lat="48.93744" lon="2.14699">
        <ele>23</ele>
        <time>2023-10-26T10:07:12.476+00:00</time>
      </trkpt>
      <trkpt lat="48.93748" lon="2.14707">
        <ele>23</ele>
        <time>2023-10-26T10:07:17.479+00:00</time>
      </trkpt>
      <trkpt lat="48.93752" lon="2.14715">
        <ele>25</ele>
        <time>2023-10-26T10:07:22.474+00:00</time>
      </trkpt>
      <trkpt lat="48.93757" lon="2.14723">
        <ele>25</ele>
        <time>2023-10-26T10:07:27.483+00:00</time>
      </trkpt>
      <trkpt lat="48.9376" lon="2.1473">
        <ele>25</ele>
        <time>2023-10-26T10:07:31.513+00:00</time>
      </trkpt>
      <trkpt lat="48.93764" lon="2.14738">
        <ele>21</ele>
        <time>2023-10-26T10:07:36.472+00:00</time>
      </trkpt>
      <trkpt lat="48.93767" lon="2.14746">
        <ele>21</ele>
        <time>2023-10-26T10:07:40.471+00:00</time>
      </trkpt>
      <trkpt lat="48.93771" lon="2.14755">
        <ele>21</ele>
        <time>2023-10-26T10:07:45.472+00:00</time>
      </trkpt>
      <trkpt lat="48.93775" lon="2.14763">
        <ele>21</ele>
        <time>2023-10-26T10:07:50.472+00:00</time>
      </trkpt>
      <trkpt lat="48.93779" lon="2.1477">
        <ele>23</ele>
        <time>2023-10-26T10:07:54.512+00:00</time>
      </trkpt>
      <trkpt lat="48.93783" lon="2.14778">
        <ele>23</ele>
        <time>2023-10-26T10:07:59.468+00:00</time>
      </trkpt>
      <trkpt lat="48.93787" lon="2.14786">
        <ele>23</ele>
        <time>2023-10-26T10:08:04.476+00:00</time>
      </trkpt>
      <trkpt lat="48.9379" lon="2.14793">
        <ele>23</ele>
        <time>2023-10-26T10:08:08.479+00:00</time>
      </trkpt>
      <trkpt lat="48.93792" lon="2.148">
        <ele>20</ele>
        <time>2023-10-26T10:08:12.522+00:00</time>
      </trkpt>
      <trkpt lat="48.93795" lon="2.14806">
        <ele>20</ele>
        <time>2023-10-26T10:08:16.472+00:00</time>
      </trkpt>
      <trkpt lat="48.93797" lon="2.14815">
        <ele>20</ele>
        <time>2023-10-26T10:08:21.472+00:00</time>
      </trkpt>
      <trkpt lat="48.93801" lon="2.14824">
        <ele>21</ele>
        <time>2023-10-26T10:08:26.470+00:00</time>
      </trkpt>
      <trkpt lat="48.93805" lon="2.14833">
        <ele>21</ele>
        <time>2023-10-26T10:08:31.470+00:00</time>
      </trkpt>
      <trkpt lat="48.93809" lon="2.14841">
        <ele>21</ele>
        <time>2023-10-26T10:08:36.474+00:00</time>
      </trkpt>
      <trkpt lat="48.93812" lon="2.14848">
        <ele>22</ele>
        <time>2023-10-26T10:08:41.472+00:00</time>
      </trkpt>
      <trkpt lat="48.93815" lon="2.14856">
        <ele>22</ele>
        <time>2023-10-26T10:08:46.469+00:00</time>
      </trkpt>
      <trkpt lat="48.93819" lon="2.14864">
        <ele>22</ele>
        <time>2023-10-26T10:08:51.472+00:00</time>
      </trkpt>
      <trkpt lat="48.93821" lon="2.14873">
        <ele>21</ele>
        <time>2023-10-26T10:08:56.472+00:00</time>
      </trkpt>
      <trkpt lat="48.93823" lon="2.14879">
        <ele>24</ele>
        <time>2023-10-26T10:09:00.474+00:00</time>
      </trkpt>
      <trkpt lat="48.93827" lon="2.14886">
        <ele>24</ele>
        <time>2023-10-26T10:09:05.471+00:00</time>
      </trkpt>
      <trkpt lat="48.93828" lon="2.1489">
        <ele>24</ele>
        <time>2023-10-26T10:09:10.478+00:00</time>
      </trkpt>
      <trkpt lat="48.93829" lon="2.14888">
        <ele>24</ele>
        <time>2023-10-26T10:09:15.477+00:00</time>
      </trkpt>
      <trkpt lat="48.93834" lon="2.14888">
        <ele>24</ele>
        <time>2023-10-26T10:09:20.481+00:00</time>
      </trkpt>
      <trkpt lat="48.93837" lon="2.14897">
        <ele>24</ele>
        <time>2023-10-26T10:09:25.472+00:00</time>
      </trkpt>
      <trkpt lat="48.93841" lon="2.14903">
        <ele>24</ele>
        <time>2023-10-26T10:09:30.473+00:00</time>
      </trkpt>
      <trkpt lat="48.93844" lon="2.14905">
        <ele>25</ele>
        <time>2023-10-26T10:09:34.512+00:00</time>
      </trkpt>
      <trkpt lat="48.93848" lon="2.14912">
        <ele>24</ele>
        <time>2023-10-26T10:09:39.472+00:00</time>
      </trkpt>
      <trkpt lat="48.93851" lon="2.14918">
        <ele>24</ele>
        <time>2023-10-26T10:09:43.475+00:00</time>
      </trkpt>
      <trkpt lat="48.93854" lon="2.14926">
        <ele>24</ele>
        <time>2023-10-26T10:09:48.476+00:00</time>
      </trkpt>
      <trkpt lat="48.93856" lon="2.14933">
        <ele>25</ele>
        <time>2023-10-26T10:09:53.474+00:00</time>
      </trkpt>
      <trkpt lat="48.93858" lon="2.14939">
        <ele>25</ele>
        <time>2023-10-26T10:09:57.473+00:00</time>
      </trkpt>
      <trkpt lat="48.93862" lon="2.14946">
        <ele>25</ele>
        <time>2023-10-26T10:10:02.477+00:00</time>
      </trkpt>
      <trkpt lat="48.93866" lon="2.14952">
        <ele>25</ele>
        <time>2023-10-26T10:10:07.481+00:00</time>
      </trkpt>
      <trkpt lat="48.93868" lon="2.1496">
        <ele>26</ele>
        <time>2023-10-26T10:10:12.474+00:00</time>
      </trkpt>
      <trkpt lat="48.9387" lon="2.14968">
        <ele>26</ele>
        <time>2023-10-26T10:10:17.473+00:00</time>
      </trkpt>
      <trkpt lat="48.93874" lon="2.14975">
        <ele>26</ele>
        <time>2023-10-26T10:10:22.477+00:00</time>
      </trkpt>
      <trkpt lat="48.93876" lon="2.1498">
        <ele>24</ele>
        <time>2023-10-26T10:10:27.474+00:00</time>
      </trkpt>
      <trkpt lat="48.93881" lon="2.14987">
        <ele>22</ele>
        <time>2023-10-26T10:10:32.480+00:00</time>
      </trkpt>
      <trkpt lat="48.93883" lon="2.14997">
        <ele>22</ele>
        <time>2023-10-26T10:10:37.488+00:00</time>
      </trkpt>
      <trkpt lat="48.93885" lon="2.15007">
        <ele>22</ele>
        <time>2023-10-26T10:10:42.471+00:00</time>
      </trkpt>
      <trkpt lat="48.93889" lon="2.15015">
        <ele>22</ele>
        <time>2023-10-26T10:10:47.475+00:00</time>
      </trkpt>
      <trkpt lat="48.93893" lon="2.15024">
        <ele>22</ele>
        <time>2023-10-26T10:10:52.483+00:00</time>
      </trkpt>
      <trkpt lat="48.93897" lon="2.15033">
        <ele>22</ele>
        <time>2023-10-26T10:10:57.474+00:00</time>
      </trkpt>
      <trkpt lat="48.93901" lon="2.15041">
        <ele>22</ele>
        <time>2023-10-26T10:11:02.476+00:00</time>
      </trkpt>
      <trkpt lat="48.93904" lon="2.15048">
        <ele>18</ele>
        <time>2023-10-26T10:11:07.469+00:00</time>
      </trkpt>
      <trkpt lat="48.93906" lon="2.15056">
        <ele>18</ele>
        <time>2023-10-26T10:11:12.473+00:00</time>
      </trkpt>
      <trkpt lat="48.9391" lon="2.15064">
        <ele>18</ele>
        <time>2023-10-26T10:11:17.475+00:00</time>
      </trkpt>
      <trkpt lat="48.93913" lon="2.15072">
        <ele>20</ele>
        <time>2023-10-26T10:11:22.472+00:00</time>
      </trkpt>
      <trkpt lat="48.93916" lon="2.15081">
        <ele>20</ele>
        <time>2023-10-26T10:11:27.475+00:00</time>
      </trkpt>
      <trkpt lat="48.93919" lon="2.15087">
        <ele>20</ele>
        <time>2023-10-26T10:11:31.472+00:00</time>
      </trkpt>
      <trkpt lat="48.93923" lon="2.15094">
        <ele>20</ele>
        <time>2023-10-26T10:11:36.477+00:00</time>
      </trkpt>
      <trkpt lat="48.93926" lon="2.15102">
        <ele>24</ele>
        <time>2023-10-26T10:11:41.473+00:00</time>
      </trkpt>
      <trkpt lat="48.9393" lon="2.1511">
        <ele>24</ele>
        <time>2023-10-26T10:11:46.473+00:00</time>
      </trkpt>
      <trkpt lat="48.93934" lon="2.15119">
        <ele>25</ele>
        <time>2023-10-26T10:11:51.474+00:00</time>
      </trkpt>
      <trkpt lat="48.93936" lon="2.15128">
        <ele>26</ele>
        <time>2023-10-26T10:11:56.472+00:00</time>
      </trkpt>
      <trkpt lat="48.9394" lon="2.15136">
        <ele>26</ele>
        <time>2023-10-26T10:12:01.474+00:00</time>
      </trkpt>
      <trkpt lat="48.93942" lon="2.15142">
        <ele>26</ele>
        <time>2023-10-26T10:12:05.482+00:00</time>
      </trkpt>
      <trkpt lat="48.93945" lon="2.1515">
        <ele>26</ele>
        <time>2023-10-26T10:12:10.475+00:00</time>
      </trkpt>
      <trkpt lat="48.93948" lon="2.15157">
        <ele>25</ele>
        <time>2023-10-26T10:12:14.478+00:00</time>
      </trkpt>
      <trkpt lat="48.93952" lon="2.15164">
        <ele>25</ele>
        <time>2023-10-26T10:12:19.475+00:00</time>
      </trkpt>
      <trkpt lat="48.93956" lon="2.15172">
        <ele>25</ele>
        <time>2023-10-26T10:12:24.477+00:00</time>
      </trkpt>
      <trkpt lat="48.93959" lon="2.15179">
        <ele>24</ele>
        <time>2023-10-26T10:12:29.471+00:00</time>
      </trkpt>
      <trkpt lat="48.93962" lon="2.15186">
        <ele>23</ele>
        <time>2023-10-26T10:12:33.477+00:00</time>
      </trkpt>
      <trkpt lat="48.93966" lon="2.15194">
        <ele>23</ele>
        <time>2023-10-26T10:12:38.477+00:00</time>
      </trkpt>
      <trkpt lat="48.9397" lon="2.15202">
        <ele>23</ele>
        <time>2023-10-26T10:12:43.476+00:00</time>
      </trkpt>
      <trkpt lat="48.93974" lon="2.15209">
        <ele>23</ele>
        <time>2023-10-26T10:12:48.476+00:00</time>
      </trkpt>
      <trkpt lat="48.93977" lon="2.15217">
        <ele>23</ele>
        <time>2023-10-26T10:12:53.481+00:00</time>
      </trkpt>
      <trkpt lat="48.93981" lon="2.15226">
        <ele>23</ele>
        <time>2023-10-26T10:12:58.479+00:00</time>
      </trkpt>
      <trkpt lat="48.93983" lon="2.15233">
        <ele>23</ele>
        <time>2023-10-26T10:13:02.512+00:00</time>
      </trkpt>
      <trkpt lat="48.93987" lon="2.1524">
        <ele>23</ele>
        <time>2023-10-26T10:13:07.473+00:00</time>
      </trkpt>
      <trkpt lat="48.9399" lon="2.15247">
        <ele>23</ele>
        <time>2023-10-26T10:13:11.474+00:00</time>
      </trkpt>
      <trkpt lat="48.93993" lon="2.15254">
        <ele>23</ele>
        <time>2023-10-26T10:13:16.475+00:00</time>
      </trkpt>
      <trkpt lat="48.93996" lon="2.15259">
        <ele>23</ele>
        <time>2023-10-26T10:13:21.470+00:00</time>
      </trkpt>
      <trkpt lat="48.93994" lon="2.15266">
        <ele>25</ele>
        <time>2023-10-26T10:13:26.472+00:00</time>
      </trkpt>
      <trkpt lat="48.9399" lon="2.1527">
        <ele>25</ele>
        <time>2023-10-26T10:13:30.477+00:00</time>
      </trkpt>
      <trkpt lat="48.93986" lon="2.15266">
        <ele>25</ele>
        <time>2023-10-26T10:13:35.474+00:00</time>
      </trkpt>
      <trkpt lat="48.93984" lon="2.15267">
        <ele>25</ele>
        <time>2023-10-26T10:13:39.487+00:00</time>
      </trkpt>
      <trkpt lat="48.93989" lon="2.1527">
        <ele>25</ele>
        <time>2023-10-26T10:13:44.479+00:00</time>
      </trkpt>
      <trkpt lat="48.93994" lon="2.15276">
        <ele>25</ele>
        <time>2023-10-26T10:13:49.482+00:00</time>
      </trkpt>
      <trkpt lat="48.93998" lon="2.15282">
        <ele>25</ele>
        <time>2023-10-26T10:13:54.476+00:00</time>
      </trkpt>
      <trkpt lat="48.94001" lon="2.15288">
        <ele>25</ele>
        <time>2023-10-26T10:13:58.472+00:00</time>
      </trkpt>
      <trkpt lat="48.94005" lon="2.15298">
        <ele>27</ele>
        <time>2023-10-26T10:14:03.473+00:00</time>
      </trkpt>
      <trkpt lat="48.94009" lon="2.15306">
        <ele>27</ele>
        <time>2023-10-26T10:14:08.472+00:00</time>
      </trkpt>
      <trkpt lat="48.94014" lon="2.15316">
        <ele>27</ele>
        <time>2023-10-26T10:14:13.470+00:00</time>
      </trkpt>
      <trkpt lat="48.9402" lon="2.15326">
        <ele>26</ele>
        <time>2023-10-26T10:14:18.473+00:00</time>
      </trkpt>
      <trkpt lat="48.94025" lon="2.15331">
        <ele>26</ele>
        <time>2023-10-26T10:14:23.475+00:00</time>
      </trkpt>
      <trkpt lat="48.94029" lon="2.15336">
        <ele>26</ele>
        <time>2023-10-26T10:14:27.473+00:00</time>
      </trkpt>
      <trkpt lat="48.94034" lon="2.1534">
        <ele>26</ele>
        <time>2023-10-26T10:14:32.474+00:00</time>
      </trkpt>
      <trkpt lat="48.94038" lon="2.15346">
        <ele>26</ele>
        <time>2023-10-26T10:14:37.467+00:00</time>
      </trkpt>
      <trkpt lat="48.94043" lon="2.15354">
        <ele>21</ele>
        <time>2023-10-26T10:14:42.474+00:00</time>
      </trkpt>
      <trkpt lat="48.94047" lon="2.15361">
        <ele>21</ele>
        <time>2023-10-26T10:14:47.472+00:00</time>
      </trkpt>
      <trkpt lat="48.94051" lon="2.15365">
        <ele>21</ele>
        <time>2023-10-26T10:14:52.479+00:00</time>
      </trkpt>
      <trkpt lat="48.94055" lon="2.15369">
        <ele>21</ele>
        <time>2023-10-26T10:14:57.470+00:00</time>
      </trkpt>
      <trkpt lat="48.9406" lon="2.15376">
        <ele>22</ele>
        <time>2023-10-26T10:15:02.473+00:00</time>
      </trkpt>
      <trkpt lat="48.94063" lon="2.15381">
        <ele>22</ele>
        <time>2023-10-26T10:15:06.472+00:00</time>
      </trkpt>
      <trkpt lat="48.94068" lon="2.15388">
        <ele>22</ele>
        <time>2023-10-26T10:15:11.473+00:00</time>
      </trkpt>
      <trkpt lat="48.94072" lon="2.15397">
        <ele>22</ele>
        <time>2023-10-26T10:15:16.475+00:00</time>
      </trkpt>
      <trkpt lat="48.94075" lon="2.15406">
        <ele>21</ele>
        <time>2023-10-26T10:15:21.475+00:00</time>
      </trkpt>
      <trkpt lat="48.94079" lon="2.15415">
        <ele>21</ele>
        <time>2023-10-26T10:15:26.472+00:00</time>
      </trkpt>
      <trkpt lat="48.94083" lon="2.15424">
        <ele>21</ele>
        <time>2023-10-26T10:15:31.471+00:00</time>
      </trkpt>
      <trkpt lat="48.94088" lon="2.15432">
        <ele>22</ele>
        <time>2023-10-26T10:15:36.474+00:00</time>
      </trkpt>
      <trkpt lat="48.94091" lon="2.1544">
        <ele>22</ele>
        <time>2023-10-26T10:15:40.472+00:00</time>
      </trkpt>
      <trkpt lat="48.94095" lon="2.15449">
        <ele>22</ele>
        <time>2023-10-26T10:15:45.477+00:00</time>
      </trkpt>
      <trkpt lat="48.94099" lon="2.15457">
        <ele>16</ele>
        <time>2023-10-26T10:15:50.480+00:00</time>
      </trkpt>
      <trkpt lat="48.94104" lon="2.15463">
        <ele>19</ele>
        <time>2023-10-26T10:15:55.476+00:00</time>
      </trkpt>
      <trkpt lat="48.94111" lon="2.15467">
        <ele>19</ele>
        <time>2023-10-26T10:16:00.483+00:00</time>
      </trkpt>
      <trkpt lat="48.94116" lon="2.15475">
        <ele>19</ele>
        <time>2023-10-26T10:16:05.477+00:00</time>
      </trkpt>
      <trkpt lat="48.94121" lon="2.15481">
        <ele>19</ele>
        <time>2023-10-26T10:16:10.473+00:00</time>
      </trkpt>
      <trkpt lat="48.94125" lon="2.15486">
        <ele>18</ele>
        <time>2023-10-26T10:16:14.474+00:00</time>
      </trkpt>
      <trkpt lat="48.9413" lon="2.15491">
        <ele>23</ele>
        <time>2023-10-26T10:16:19.473+00:00</time>
      </trkpt>
      <trkpt lat="48.94134" lon="2.15498">
        <ele>23</ele>
        <time>2023-10-26T10:16:24.476+00:00</time>
      </trkpt>
      <trkpt lat="48.94139" lon="2.15505">
        <ele>23</ele>
        <time>2023-10-26T10:16:29.472+00:00</time>
      </trkpt>
      <trkpt lat="48.94144" lon="2.15513">
        <ele>23</ele>
        <time>2023-10-26T10:16:34.477+00:00</time>
      </trkpt>
      <trkpt lat="48.9415" lon="2.15521">
        <ele>25</ele>
        <time>2023-10-26T10:16:39.477+00:00</time>
      </trkpt>
      <trkpt lat="48.94153" lon="2.15527">
        <ele>25</ele>
        <time>2023-10-26T10:16:43.471+00:00</time>
      </trkpt>
      <trkpt lat="48.94155" lon="2.15531">
        <ele>25</ele>
        <time>2023-10-26T10:16:48.476+00:00</time>
      </trkpt>
      <trkpt lat="48.94159" lon="2.15537">
        <ele>25</ele>
        <time>2023-10-26T10:16:53.475+00:00</time>
      </trkpt>
      <trkpt lat="48.94164" lon="2.15544">
        <ele>26</ele>
        <time>2023-10-26T10:16:58.474+00:00</time>
      </trkpt>
      <trkpt lat="48.94169" lon="2.1555">
        <ele>26</ele>
        <time>2023-10-26T10:17:03.475+00:00</time>
      </trkpt>
      <trkpt lat="48.94173" lon="2.15556">
        <ele>26</ele>
        <time>2023-10-26T10:17:08.477+00:00</time>
      </trkpt>
      <trkpt lat="48.94178" lon="2.15563">
        <ele>26</ele>
        <time>2023-10-26T10:17:13.474+00:00</time>
      </trkpt>
      <trkpt lat="48.94183" lon="2.1557">
        <ele>24</ele>
        <time>2023-10-26T10:17:18.475+00:00</time>
      </trkpt>
      <trkpt lat="48.94187" lon="2.15577">
        <ele>24</ele>
        <time>2023-10-26T10:17:23.477+00:00</time>
      </trkpt>
      <trkpt lat="48.94192" lon="2.15582">
        <ele>24</ele>
        <time>2023-10-26T10:17:27.474+00:00</time>
      </trkpt>
      <trkpt lat="48.94197" lon="2.1559">
        <ele>24</ele>
        <time>2023-10-26T10:17:32.474+00:00</time>
      </trkpt>
      <trkpt lat="48.94203" lon="2.15597">
        <ele>24</ele>
        <time>2023-10-26T10:17:37.474+00:00</time>
      </trkpt>
      <trkpt lat="48.94208" lon="2.15603">
        <ele>25</ele>
        <time>2023-10-26T10:17:42.473+00:00</time>
      </trkpt>
      <trkpt lat="48.94212" lon="2.15607">
        <ele>22</ele>
        <time>2023-10-26T10:17:46.485+00:00</time>
      </trkpt>
      <trkpt lat="48.94218" lon="2.15612">
        <ele>22</ele>
        <time>2023-10-26T10:17:51.479+00:00</time>
      </trkpt>
      <trkpt lat="48.94222" lon="2.15616">
        <ele>22</ele>
        <time>2023-10-26T10:17:55.533+00:00</time>
      </trkpt>
      <trkpt lat="48.94227" lon="2.15622">
        <ele>22</ele>
        <time>2023-10-26T10:18:00.478+00:00</time>
      </trkpt>
      <trkpt lat="48.94232" lon="2.15627">
        <ele>25</ele>
        <time>2023-10-26T10:18:05.478+00:00</time>
      </trkpt>
      <trkpt lat="48.94238" lon="2.15632">
        <ele>24</ele>
        <time>2023-10-26T10:18:10.481+00:00</time>
      </trkpt>
      <trkpt lat="48.94242" lon="2.15638">
        <ele>24</ele>
        <time>2023-10-26T10:18:15.477+00:00</time>
      </trkpt>
      <trkpt lat="48.94247" lon="2.15644">
        <ele>24</ele>
        <time>2023-10-26T10:18:20.475+00:00</time>
      </trkpt>
      <trkpt lat="48.94252" lon="2.1565">
        <ele>24</ele>
        <time>2023-10-26T10:18:25.473+00:00</time>
      </trkpt>
      <trkpt lat="48.94257" lon="2.15657">
        <ele>25</ele>
        <time>2023-10-26T10:18:30.480+00:00</time>
      </trkpt>
      <trkpt lat="48.94262" lon="2.15663">
        <ele>25</ele>
        <time>2023-10-26T10:18:35.489+00:00</time>
      </trkpt>
      <trkpt lat="48.94266" lon="2.15671">
        <ele>23</ele>
        <time>2023-10-26T10:18:40.476+00:00</time>
      </trkpt>
      <trkpt lat="48.9427" lon="2.15678">
        <ele>23</ele>
        <time>2023-10-26T10:18:45.522+00:00</time>
      </trkpt>
      <trkpt lat="48.94275" lon="2.15686">
        <ele>24</ele>
        <time>2023-10-26T10:18:50.481+00:00</time>
      </trkpt>
      <trkpt lat="48.9428" lon="2.15694">
        <ele>24</ele>
        <time>2023-10-26T10:18:55.485+00:00</time>
      </trkpt>
      <trkpt lat="48.94284" lon="2.157">
        <ele>24</ele>
        <time>2023-10-26T10:19:00.483+00:00</time>
      </trkpt>
      <trkpt lat="48.94289" lon="2.15707">
        <ele>24</ele>
        <time>2023-10-26T10:19:05.478+00:00</time>
      </trkpt>
      <trkpt lat="48.94294" lon="2.15712">
        <ele>24</ele>
        <time>2023-10-26T10:19:10.484+00:00</time>
      </trkpt>
      <trkpt lat="48.94298" lon="2.15718">
        <ele>24</ele>
        <time>2023-10-26T10:19:15.483+00:00</time>
      </trkpt>
      <trkpt lat="48.94301" lon="2.15726">
        <ele>24</ele>
        <time>2023-10-26T10:19:20.486+00:00</time>
      </trkpt>
      <trkpt lat="48.94305" lon="2.15734">
        <ele>24</ele>
        <time>2023-10-26T10:19:25.475+00:00</time>
      </trkpt>
      <trkpt lat="48.94309" lon="2.15742">
        <ele>23</ele>
        <time>2023-10-26T10:19:30.473+00:00</time>
      </trkpt>
      <trkpt lat="48.94312" lon="2.15751">
        <ele>23</ele>
        <time>2023-10-26T10:19:35.469+00:00</time>
      </trkpt>
      <trkpt lat="48.94317" lon="2.15757">
        <ele>23</ele>
        <time>2023-10-26T10:19:40.473+00:00</time>
      </trkpt>
      <trkpt lat="48.94321" lon="2.15762">
        <ele>22</ele>
        <time>2023-10-26T10:19:45.474+00:00</time>
      </trkpt>
      <trkpt lat="48.94326" lon="2.15768">
        <ele>23</ele>
        <time>2023-10-26T10:19:50.474+00:00</time>
      </trkpt>
      <trkpt lat="48.9433" lon="2.15774">
        <ele>23</ele>
        <time>2023-10-26T10:19:55.477+00:00</time>
      </trkpt>
      <trkpt lat="48.94335" lon="2.15781">
        <ele>23</ele>
        <time>2023-10-26T10:20:00.474+00:00</time>
      </trkpt>
      <trkpt lat="48.9434" lon="2.15787">
        <ele>23</ele>
        <time>2023-10-26T10:20:04.476+00:00</time>
      </trkpt>
      <trkpt lat="48.94345" lon="2.15793">
        <ele>23</ele>
        <time>2023-10-26T10:20:09.474+00:00</time>
      </trkpt>
      <trkpt lat="48.9435" lon="2.15801">
        <ele>23</ele>
        <time>2023-10-26T10:20:14.476+00:00</time>
      </trkpt>
      <trkpt lat="48.94356" lon="2.15809">
        <ele>23</ele>
        <time>2023-10-26T10:20:19.473+00:00</time>
      </trkpt>
      <trkpt lat="48.94361" lon="2.15816">
        <ele>23</ele>
        <time>2023-10-26T10:20:24.472+00:00</time>
      </trkpt>
      <trkpt lat="48.94366" lon="2.15823">
        <ele>23</ele>
        <time>2023-10-26T10:20:29.473+00:00</time>
      </trkpt>
      <trkpt lat="48.9437" lon="2.1583">
        <ele>23</ele>
        <time>2023-10-26T10:20:34.473+00:00</time>
      </trkpt>
      <trkpt lat="48.94375" lon="2.15836">
        <ele>23</ele>
        <time>2023-10-26T10:20:39.470+00:00</time>
      </trkpt>
      <trkpt lat="48.94379" lon="2.15842">
        <ele>22</ele>
        <time>2023-10-26T10:20:43.474+00:00</time>
      </trkpt>
      <trkpt lat="48.94384" lon="2.15849">
        <ele>22</ele>
        <time>2023-10-26T10:20:48.474+00:00</time>
      </trkpt>
      <trkpt lat="48.94388" lon="2.15857">
        <ele>22</ele>
        <time>2023-10-26T10:20:53.475+00:00</time>
      </trkpt>
      <trkpt lat="48.94393" lon="2.15865">
        <ele>22</ele>
        <time>2023-10-26T10:20:58.473+00:00</time>
      </trkpt>
      <trkpt lat="48.94396" lon="2.15871">
        <ele>22</ele>
        <time>2023-10-26T10:21:02.484+00:00</time>
      </trkpt>
      <trkpt lat="48.944" lon="2.15878">
        <ele>23</ele>
        <time>2023-10-26T10:21:07.479+00:00</time>
      </trkpt>
      <trkpt lat="48.94404" lon="2.15884">
        <ele>22</ele>
        <time>2023-10-26T10:21:11.479+00:00</time>
      </trkpt>
      <trkpt lat="48.94408" lon="2.15891">
        <ele>22</ele>
        <time>2023-10-26T10:21:16.478+00:00</time>
      </trkpt>
      <trkpt lat="48.94413" lon="2.15896">
        <ele>22</ele>
        <time>2023-10-26T10:21:21.477+00:00</time>
      </trkpt>
      <trkpt lat="48.94417" lon="2.15901">
        <ele>22</ele>
        <time>2023-10-26T10:21:26.477+00:00</time>
      </trkpt>
      <trkpt lat="48.94421" lon="2.15907">
        <ele>23</ele>
        <time>2023-10-26T10:21:30.473+00:00</time>
      </trkpt>
      <trkpt lat="48.94425" lon="2.15913">
        <ele>23</ele>
        <time>2023-10-26T10:21:34.472+00:00</time>
      </trkpt>
      <trkpt lat="48.94429" lon="2.15922">
        <ele>23</ele>
        <time>2023-10-26T10:21:39.473+00:00</time>
      </trkpt>
      <trkpt lat="48.94434" lon="2.1593">
        <ele>22</ele>
        <time>2023-10-26T10:21:44.474+00:00</time>
      </trkpt>
      <trkpt lat="48.94441" lon="2.15938">
        <ele>23</ele>
        <time>2023-10-26T10:21:49.473+00:00</time>
      </trkpt>
      <trkpt lat="48.94448" lon="2.15944">
        <ele>23</ele>
        <time>2023-10-26T10:21:54.472+00:00</time>
      </trkpt>
      <trkpt lat="48.94453" lon="2.15949">
        <ele>23</ele>
        <time>2023-10-26T10:21:59.476+00:00</time>
      </trkpt>
      <trkpt lat="48.94458" lon="2.15956">
        <ele>23</ele>
        <time>2023-10-26T10:22:04.470+00:00</time>
      </trkpt>
      <trkpt lat="48.94463" lon="2.15964">
        <ele>16</ele>
        <time>2023-10-26T10:22:09.475+00:00</time>
      </trkpt>
      <trkpt lat="48.94469" lon="2.15971">
        <ele>16</ele>
        <time>2023-10-26T10:22:14.473+00:00</time>
      </trkpt>
      <trkpt lat="48.94473" lon="2.15978">
        <ele>16</ele>
        <time>2023-10-26T10:22:19.475+00:00</time>
      </trkpt>
      <trkpt lat="48.94478" lon="2.15992">
        <ele>15</ele>
        <time>2023-10-26T10:22:47.487+00:00</time>
      </trkpt>
      <trkpt lat="48.94475" lon="2.15995">
        <ele>15</ele>
        <time>2023-10-26T10:22:52.475+00:00</time>
      </trkpt>
      <trkpt lat="48.94471" lon="2.15997">
        <ele>15</ele>
        <time>2023-10-26T10:22:57.476+00:00</time>
      </trkpt>
      <trkpt lat="48.94468" lon="2.16003">
        <ele>15</ele>
        <time>2023-10-26T10:23:02.481+00:00</time>
      </trkpt>
      <trkpt lat="48.94466" lon="2.16008">
        <ele>15</ele>
        <time>2023-10-26T10:23:07.478+00:00</time>
      </trkpt>
      <trkpt lat="48.94464" lon="2.16013">
        <ele>15</ele>
        <time>2023-10-26T10:23:11.474+00:00</time>
      </trkpt>
      <trkpt lat="48.9446" lon="2.16019">
        <ele>20</ele>
        <time>2023-10-26T10:23:16.476+00:00</time>
      </trkpt>
      <trkpt lat="48.94455" lon="2.16027">
        <ele>25</ele>
        <time>2023-10-26T10:23:21.472+00:00</time>
      </trkpt>
      <trkpt lat="48.94451" lon="2.16033">
        <ele>25</ele>
        <time>2023-10-26T10:23:26.474+00:00</time>
      </trkpt>
      <trkpt lat="48.94445" lon="2.16041">
        <ele>25</ele>
        <time>2023-10-26T10:23:31.474+00:00</time>
      </trkpt>
      <trkpt lat="48.94442" lon="2.16048">
        <ele>26</ele>
        <time>2023-10-26T10:23:36.475+00:00</time>
      </trkpt>
      <trkpt lat="48.94437" lon="2.16055">
        <ele>26</ele>
        <time>2023-10-26T10:23:41.474+00:00</time>
      </trkpt>
      <trkpt lat="48.94434" lon="2.16058">
        <ele>26</ele>
        <time>2023-10-26T10:23:45.512+00:00</time>
      </trkpt>
      <trkpt lat="48.9443" lon="2.1606">
        <ele>29</ele>
        <time>2023-10-26T10:23:50.475+00:00</time>
      </trkpt>
      <trkpt lat="48.94428" lon="2.16065">
        <ele>29</ele>
        <time>2023-10-26T10:23:55.475+00:00</time>
      </trkpt>
      <trkpt lat="48.94426" lon="2.16072">
        <ele>29</ele>
        <time>2023-10-26T10:24:00.476+00:00</time>
      </trkpt>
      <trkpt lat="48.94424" lon="2.16078">
        <ele>29</ele>
        <time>2023-10-26T10:24:05.479+00:00</time>
      </trkpt>
      <trkpt lat="48.9442" lon="2.16085">
        <ele>29</ele>
        <time>2023-10-26T10:24:10.476+00:00</time>
      </trkpt>
      <trkpt lat="48.94417" lon="2.16091">
        <ele>29</ele>
        <time>2023-10-26T10:24:14.479+00:00</time>
      </trkpt>
      <trkpt lat="48.94416" lon="2.16098">
        <ele>28</ele>
        <time>2023-10-26T10:24:19.478+00:00</time>
      </trkpt>
      <trkpt lat="48.94417" lon="2.16106">
        <ele>28</ele>
        <time>2023-10-26T10:24:24.474+00:00</time>
      </trkpt>
      <trkpt lat="48.9442" lon="2.16112">
        <ele>28</ele>
        <time>2023-10-26T10:24:28.488+00:00</time>
      </trkpt>
      <trkpt lat="48.94422" lon="2.1612">
        <ele>28</ele>
        <time>2023-10-26T10:24:33.468+00:00</time>
      </trkpt>
      <trkpt lat="48.94423" lon="2.16129">
        <ele>28</ele>
        <time>2023-10-26T10:24:38.483+00:00</time>
      </trkpt>
      <trkpt lat="48.94423" lon="2.16133">
        <ele>28</ele>
        <time>2023-10-26T10:24:43.481+00:00</time>
      </trkpt>
      <trkpt lat="48.94424" lon="2.1614">
        <ele>28</ele>
        <time>2023-10-26T10:38:59.470+00:00</time>
      </trkpt>
      <trkpt lat="48.94423" lon="2.16144">
        <ele>28</ele>
        <time>2023-10-26T10:39:03.479+00:00</time>
      </trkpt>
      <trkpt lat="48.94423" lon="2.16146">
        <ele>28</ele>
        <time>2023-10-26T10:39:08.491+00:00</time>
      </trkpt>
      <trkpt lat="48.94422" lon="2.16148">
        <ele>28</ele>
        <time>2023-10-26T10:39:13.471+00:00</time>
      </trkpt>
      <trkpt lat="48.94421" lon="2.16151">
        <ele>28</ele>
        <time>2023-10-26T10:39:17.471+00:00</time>
      </trkpt>
      <trkpt lat="48.94428" lon="2.16145">
        <ele>28</ele>
        <time>2023-10-26T10:42:23.475+00:00</time>
      </trkpt>
      <trkpt lat="48.94429" lon="2.16147">
        <ele>28</ele>
        <time>2023-10-26T10:42:28.506+00:00</time>
      </trkpt>
      <trkpt lat="48.9443" lon="2.16149">
        <ele>28</ele>
        <time>2023-10-26T10:42:33.481+00:00</time>
      </trkpt>
      <trkpt lat="48.94431" lon="2.16151">
        <ele>26</ele>
        <time>2023-10-26T10:42:38.476+00:00</time>
      </trkpt>
      <trkpt lat="48.94431" lon="2.16152">
        <ele>26</ele>
        <time>2023-10-26T10:42:42.477+00:00</time>
      </trkpt>
      <trkpt lat="48.94434" lon="2.1615">
        <ele>26</ele>
        <time>2023-10-26T10:42:55.474+00:00</time>
      </trkpt>
      <trkpt lat="48.94431" lon="2.1615">
        <ele>26</ele>
        <time>2023-10-26T10:43:00.474+00:00</time>
      </trkpt>
      <trkpt lat="48.94429" lon="2.1615">
        <ele>28</ele>
        <time>2023-10-26T10:43:04.486+00:00</time>
      </trkpt>
      <trkpt lat="48.94426" lon="2.16149">
        <ele>28</ele>
        <time>2023-10-26T10:43:09.481+00:00</time>
      </trkpt>
      <trkpt lat="48.94424" lon="2.16148">
        <ele>28</ele>
        <time>2023-10-26T10:43:13.477+00:00</time>
      </trkpt>
      <trkpt lat="48.94422" lon="2.16146">
        <ele>28</ele>
        <time>2023-10-26T10:43:52.514+00:00</time>
      </trkpt>
      <trkpt lat="48.94425" lon="2.16147">
        <ele>28</ele>
        <time>2023-10-26T10:43:57.479+00:00</time>
      </trkpt>
      <trkpt lat="48.94428" lon="2.16149">
        <ele>28</ele>
        <time>2023-10-26T10:44:01.476+00:00</time>
      </trkpt>
      <trkpt lat="48.94429" lon="2.16152">
        <ele>28</ele>
        <time>2023-10-26T10:44:06.476+00:00</time>
      </trkpt>
      <trkpt lat="48.9443" lon="2.16151">
        <ele>28</ele>
        <time>2023-10-26T10:44:11.477+00:00</time>
      </trkpt>
      <trkpt lat="48.9443" lon="2.16151">
        <ele>28</ele>
        <time>2023-10-26T10:44:15.488+00:00</time>
      </trkpt>
      <trkpt lat="48.94429" lon="2.16149">
        <ele>28</ele>
        <time>2023-10-26T10:44:20.482+00:00</time>
      </trkpt>
      <trkpt lat="48.94426" lon="2.16147">
        <ele>28</ele>
        <time>2023-10-26T10:44:25.482+00:00</time>
      </trkpt>
      <trkpt lat="48.94424" lon="2.16145">
        <ele>28</ele>
        <time>2023-10-26T10:44:29.489+00:00</time>
      </trkpt>
      <trkpt lat="48.9442" lon="2.16145">
        <ele>28</ele>
        <time>2023-10-26T10:44:34.485+00:00</time>
      </trkpt>
      <trkpt lat="48.9442" lon="2.16149">
        <ele>28</ele>
        <time>2023-10-26T10:45:49.514+00:00</time>
      </trkpt>
      <trkpt lat="48.9442" lon="2.16149">
        <ele>28</ele>
        <time>2023-10-26T10:45:54.477+00:00</time>
      </trkpt>
      <trkpt lat="48.94423" lon="2.16149">
        <ele>28</ele>
        <time>2023-10-26T10:45:59.476+00:00</time>
      </trkpt>
      <trkpt lat="48.94425" lon="2.16151">
        <ele>28</ele>
        <time>2023-10-26T10:46:03.477+00:00</time>
      </trkpt>
      <trkpt lat="48.94427" lon="2.16152">
        <ele>28</ele>
        <time>2023-10-26T10:46:07.476+00:00</time>
      </trkpt>
      <trkpt lat="48.94428" lon="2.16145">
        <ele>28</ele>
        <time>2023-10-26T10:46:36.483+00:00</time>
      </trkpt>
      <trkpt lat="48.94426" lon="2.16144">
        <ele>28</ele>
        <time>2023-10-26T10:46:41.485+00:00</time>
      </trkpt>
      <trkpt lat="48.94425" lon="2.16142">
        <ele>28</ele>
        <time>2023-10-26T10:46:46.486+00:00</time>
      </trkpt>
      <trkpt lat="48.94424" lon="2.16138">
        <ele>28</ele>
        <time>2023-10-26T10:46:50.485+00:00</time>
      </trkpt>
      <trkpt lat="48.94423" lon="2.16137">
        <ele>28</ele>
        <time>2023-10-26T10:46:55.472+00:00</time>
      </trkpt>
      <trkpt lat="48.94422" lon="2.16137">
        <ele>28</ele>
        <time>2023-10-26T11:07:58.475+00:00</time>
      </trkpt>
      <trkpt lat="48.9442" lon="2.16134">
        <ele>28</ele>
        <time>2023-10-26T11:08:03.480+00:00</time>
      </trkpt>
      <trkpt lat="48.94418" lon="2.16127">
        <ele>28</ele>
        <time>2023-10-26T11:08:07.482+00:00</time>
      </trkpt>
      <trkpt lat="48.94415" lon="2.16119">
        <ele>28</ele>
        <time>2023-10-26T11:08:11.473+00:00</time>
      </trkpt>
      <trkpt lat="48.94411" lon="2.16111">
        <ele>28</ele>
        <time>2023-10-26T11:08:16.483+00:00</time>
      </trkpt>
      <trkpt lat="48.94409" lon="2.161">
        <ele>28</ele>
        <time>2023-10-26T11:08:20.483+00:00</time>
      </trkpt>
      <trkpt lat="48.94399" lon="2.16089">
        <ele>30</ele>
        <time>2023-10-26T11:08:25.475+00:00</time>
      </trkpt>
      <trkpt lat="48.94388" lon="2.1608">
        <ele>30</ele>
        <time>2023-10-26T11:08:30.475+00:00</time>
      </trkpt>
      <trkpt lat="48.94383" lon="2.16078">
        <ele>30</ele>
        <time>2023-10-26T11:08:34.477+00:00</time>
      </trkpt>
      <trkpt lat="48.94384" lon="2.16074">
        <ele>30</ele>
        <time>2023-10-26T11:09:34.474+00:00</time>
      </trkpt>
      <trkpt lat="48.94395" lon="2.16087">
        <ele>30</ele>
        <time>2023-10-26T11:09:39.480+00:00</time>
      </trkpt>
      <trkpt lat="48.94402" lon="2.16099">
        <ele>29</ele>
        <time>2023-10-26T11:09:43.478+00:00</time>
      </trkpt>
      <trkpt lat="48.94407" lon="2.16111">
        <ele>28</ele>
        <time>2023-10-26T11:09:48.470+00:00</time>
      </trkpt>
      <trkpt lat="48.94412" lon="2.16122">
        <ele>28</ele>
        <time>2023-10-26T11:09:52.479+00:00</time>
      </trkpt>
      <trkpt lat="48.94416" lon="2.1613">
        <ele>28</ele>
        <time>2023-10-26T11:09:57.470+00:00</time>
      </trkpt>
      <trkpt lat="48.9442" lon="2.16137">
        <ele>28</ele>
        <time>2023-10-26T11:10:02.477+00:00</time>
      </trkpt>
      <trkpt lat="48.94423" lon="2.16142">
        <ele>28</ele>
        <time>2023-10-26T11:10:06.472+00:00</time>
      </trkpt>
      <trkpt lat="48.94425" lon="2.16143">
        <ele>28</ele>
        <time>2023-10-26T11:10:11.481+00:00</time>
      </trkpt>
      <trkpt lat="48.94419" lon="2.16136">
        <ele>28</ele>
        <time>2023-10-26T11:21:08.280+00:00</time>
      </trkpt>
      <trkpt lat="48.94419" lon="2.16136">
        <ele>28</ele>
        <time>2023-10-26T11:21:13.238+00:00</time>
      </trkpt>
      <trkpt lat="48.94419" lon="2.16136">
        <ele>28</ele>
        <time>2023-10-26T11:21:18.264+00:00</time>
      </trkpt>
      <trkpt lat="48.94419" lon="2.16137">
        <ele>28</ele>
        <time>2023-10-26T11:21:23.576+00:00</time>
      </trkpt>
      <trkpt lat="48.94475" lon="2.16103">
        <ele>26</ele>
        <time>2023-10-26T11:21:30.471+00:00</time>
      </trkpt>
      <trkpt lat="48.94509" lon="2.1608">
        <ele>26</ele>
        <time>2023-10-26T11:21:34.479+00:00</time>
      </trkpt>
      <trkpt lat="48.94523" lon="2.16056">
        <ele>26</ele>
        <time>2023-10-26T11:21:39.476+00:00</time>
      </trkpt>
      <trkpt lat="48.94526" lon="2.1606">
        <ele>26</ele>
        <time>2023-10-26T11:21:44.477+00:00</time>
      </trkpt>
      <trkpt lat="48.9453" lon="2.16069">
        <ele>26</ele>
        <time>2023-10-26T11:21:49.475+00:00</time>
      </trkpt>
      <trkpt lat="48.94534" lon="2.16076">
        <ele>26</ele>
        <time>2023-10-26T11:21:54.477+00:00</time>
      </trkpt>
      <trkpt lat="48.94537" lon="2.16083">
        <ele>26</ele>
        <time>2023-10-26T11:21:59.476+00:00</time>
      </trkpt>
      <trkpt lat="48.94541" lon="2.16088">
        <ele>26</ele>
        <time>2023-10-26T11:22:03.515+00:00</time>
      </trkpt>
      <trkpt lat="48.94544" lon="2.16094">
        <ele>25</ele>
        <time>2023-10-26T11:22:08.477+00:00</time>
      </trkpt>
      <trkpt lat="48.94548" lon="2.161">
        <ele>25</ele>
        <time>2023-10-26T11:22:13.486+00:00</time>
      </trkpt>
      <trkpt lat="48.94553" lon="2.16107">
        <ele>25</ele>
        <time>2023-10-26T11:22:18.479+00:00</time>
      </trkpt>
      <trkpt lat="48.94557" lon="2.16114">
        <ele>25</ele>
        <time>2023-10-26T11:22:23.476+00:00</time>
      </trkpt>
      <trkpt lat="48.94561" lon="2.16119">
        <ele>25</ele>
        <time>2023-10-26T11:22:28.488+00:00</time>
      </trkpt>
      <trkpt lat="48.94565" lon="2.16124">
        <ele>25</ele>
        <time>2023-10-26T11:22:33.476+00:00</time>
      </trkpt>
      <trkpt lat="48.94567" lon="2.16129">
        <ele>25</ele>
        <time>2023-10-26T11:22:37.475+00:00</time>
      </trkpt>
      <trkpt lat="48.94572" lon="2.16134">
        <ele>25</ele>
        <time>2023-10-26T11:22:42.489+00:00</time>
      </trkpt>
      <trkpt lat="48.94576" lon="2.16139">
        <ele>25</ele>
        <time>2023-10-26T11:22:47.479+00:00</time>
      </trkpt>
      <trkpt lat="48.9458" lon="2.16145">
        <ele>25</ele>
        <time>2023-10-26T11:22:52.480+00:00</time>
      </trkpt>
      <trkpt lat="48.94583" lon="2.16153">
        <ele>26</ele>
        <time>2023-10-26T11:22:57.478+00:00</time>
      </trkpt>
      <trkpt lat="48.94587" lon="2.1616">
        <ele>26</ele>
        <time>2023-10-26T11:23:02.480+00:00</time>
      </trkpt>
      <trkpt lat="48.94591" lon="2.16167">
        <ele>26</ele>
        <time>2023-10-26T11:23:07.479+00:00</time>
      </trkpt>
      <trkpt lat="48.94594" lon="2.16173">
        <ele>26</ele>
        <time>2023-10-26T11:23:11.471+00:00</time>
      </trkpt>
      <trkpt lat="48.94598" lon="2.16181">
        <ele>25</ele>
        <time>2023-10-26T11:23:16.474+00:00</time>
      </trkpt>
      <trkpt lat="48.94603" lon="2.16188">
        <ele>25</ele>
        <time>2023-10-26T11:23:21.475+00:00</time>
      </trkpt>
      <trkpt lat="48.94606" lon="2.16195">
        <ele>25</ele>
        <time>2023-10-26T11:23:25.474+00:00</time>
      </trkpt>
      <trkpt lat="48.9461" lon="2.16203">
        <ele>25</ele>
        <time>2023-10-26T11:23:30.470+00:00</time>
      </trkpt>
      <trkpt lat="48.94614" lon="2.1621">
        <ele>25</ele>
        <time>2023-10-26T11:23:35.477+00:00</time>
      </trkpt>
      <trkpt lat="48.94618" lon="2.16216">
        <ele>25</ele>
        <time>2023-10-26T11:23:40.473+00:00</time>
      </trkpt>
      <trkpt lat="48.94622" lon="2.16224">
        <ele>25</ele>
        <time>2023-10-26T11:23:45.514+00:00</time>
      </trkpt>
      <trkpt lat="48.94626" lon="2.16231">
        <ele>23</ele>
        <time>2023-10-26T11:23:50.476+00:00</time>
      </trkpt>
      <trkpt lat="48.94629" lon="2.16237">
        <ele>24</ele>
        <time>2023-10-26T11:23:55.476+00:00</time>
      </trkpt>
      <trkpt lat="48.94633" lon="2.16244">
        <ele>24</ele>
        <time>2023-10-26T11:24:00.477+00:00</time>
      </trkpt>
      <trkpt lat="48.94637" lon="2.16252">
        <ele>24</ele>
        <time>2023-10-26T11:24:05.474+00:00</time>
      </trkpt>
      <trkpt lat="48.94641" lon="2.16259">
        <ele>24</ele>
        <time>2023-10-26T11:24:10.476+00:00</time>
      </trkpt>
      <trkpt lat="48.94645" lon="2.16265">
        <ele>24</ele>
        <time>2023-10-26T11:24:15.477+00:00</time>
      </trkpt>
      <trkpt lat="48.94648" lon="2.16271">
        <ele>24</ele>
        <time>2023-10-26T11:24:19.504+00:00</time>
      </trkpt>
      <trkpt lat="48.94652" lon="2.16279">
        <ele>24</ele>
        <time>2023-10-26T11:24:24.477+00:00</time>
      </trkpt>
      <trkpt lat="48.94656" lon="2.16286">
        <ele>22</ele>
        <time>2023-10-26T11:24:29.471+00:00</time>
      </trkpt>
      <trkpt lat="48.94659" lon="2.16293">
        <ele>22</ele>
        <time>2023-10-26T11:24:33.473+00:00</time>
      </trkpt>
      <trkpt lat="48.94663" lon="2.16301">
        <ele>22</ele>
        <time>2023-10-26T11:24:38.479+00:00</time>
      </trkpt>
      <trkpt lat="48.94666" lon="2.16308">
        <ele>22</ele>
        <time>2023-10-26T11:24:42.479+00:00</time>
      </trkpt>
      <trkpt lat="48.9467" lon="2.16316">
        <ele>22</ele>
        <time>2023-10-26T11:24:47.487+00:00</time>
      </trkpt>
      <trkpt lat="48.94674" lon="2.16325">
        <ele>22</ele>
        <time>2023-10-26T11:24:52.481+00:00</time>
      </trkpt>
      <trkpt lat="48.94678" lon="2.16332">
        <ele>22</ele>
        <time>2023-10-26T11:24:57.487+00:00</time>
      </trkpt>
      <trkpt lat="48.94682" lon="2.1634">
        <ele>22</ele>
        <time>2023-10-26T11:25:02.472+00:00</time>
      </trkpt>
      <trkpt lat="48.94685" lon="2.16346">
        <ele>22</ele>
        <time>2023-10-26T11:25:06.474+00:00</time>
      </trkpt>
      <trkpt lat="48.94689" lon="2.16352">
        <ele>21</ele>
        <time>2023-10-26T11:25:11.475+00:00</time>
      </trkpt>
      <trkpt lat="48.94693" lon="2.16358">
        <ele>21</ele>
        <time>2023-10-26T11:25:16.474+00:00</time>
      </trkpt>
      <trkpt lat="48.94698" lon="2.1636">
        <ele>21</ele>
        <time>2023-10-26T11:25:21.474+00:00</time>
      </trkpt>
      <trkpt lat="48.94703" lon="2.16366">
        <ele>21</ele>
        <time>2023-10-26T11:25:26.476+00:00</time>
      </trkpt>
      <trkpt lat="48.94707" lon="2.16373">
        <ele>21</ele>
        <time>2023-10-26T11:25:31.475+00:00</time>
      </trkpt>
      <trkpt lat="48.9471" lon="2.16378">
        <ele>20</ele>
        <time>2023-10-26T11:25:35.513+00:00</time>
      </trkpt>
      <trkpt lat="48.94712" lon="2.1639">
        <ele>20</ele>
        <time>2023-10-26T11:25:40.473+00:00</time>
      </trkpt>
      <trkpt lat="48.94715" lon="2.16399">
        <ele>20</ele>
        <time>2023-10-26T11:25:44.474+00:00</time>
      </trkpt>
      <trkpt lat="48.94719" lon="2.16408">
        <ele>21</ele>
        <time>2023-10-26T11:25:49.472+00:00</time>
      </trkpt>
      <trkpt lat="48.94723" lon="2.16417">
        <ele>21</ele>
        <time>2023-10-26T11:25:54.471+00:00</time>
      </trkpt>
      <trkpt lat="48.94727" lon="2.16425">
        <ele>21</ele>
        <time>2023-10-26T11:25:59.470+00:00</time>
      </trkpt>
      <trkpt lat="48.9473" lon="2.16433">
        <ele>22</ele>
        <time>2023-10-26T11:26:04.469+00:00</time>
      </trkpt>
      <trkpt lat="48.94735" lon="2.16441">
        <ele>22</ele>
        <time>2023-10-26T11:26:09.471+00:00</time>
      </trkpt>
      <trkpt lat="48.94739" lon="2.16449">
        <ele>22</ele>
        <time>2023-10-26T11:26:14.472+00:00</time>
      </trkpt>
      <trkpt lat="48.94742" lon="2.16458">
        <ele>22</ele>
        <time>2023-10-26T11:26:19.597+00:00</time>
      </trkpt>
      <trkpt lat="48.94746" lon="2.16467">
        <ele>23</ele>
        <time>2023-10-26T11:26:24.475+00:00</time>
      </trkpt>
      <trkpt lat="48.9475" lon="2.16477">
        <ele>23</ele>
        <time>2023-10-26T11:26:29.486+00:00</time>
      </trkpt>
      <trkpt lat="48.94753" lon="2.16486">
        <ele>24</ele>
        <time>2023-10-26T11:26:34.481+00:00</time>
      </trkpt>
      <trkpt lat="48.94758" lon="2.16495">
        <ele>24</ele>
        <time>2023-10-26T11:26:39.477+00:00</time>
      </trkpt>
      <trkpt lat="48.94762" lon="2.16505">
        <ele>24</ele>
        <time>2023-10-26T11:26:44.487+00:00</time>
      </trkpt>
      <trkpt lat="48.94767" lon="2.16514">
        <ele>24</ele>
        <time>2023-10-26T11:26:49.476+00:00</time>
      </trkpt>
      <trkpt lat="48.94771" lon="2.16523">
        <ele>24</ele>
        <time>2023-10-26T11:26:54.486+00:00</time>
      </trkpt>
      <trkpt lat="48.94775" lon="2.16532">
        <ele>24</ele>
        <time>2023-10-26T11:26:59.485+00:00</time>
      </trkpt>
      <trkpt lat="48.94779" lon="2.1654">
        <ele>24</ele>
        <time>2023-10-26T11:27:04.524+00:00</time>
      </trkpt>
      <trkpt lat="48.94783" lon="2.16547">
        <ele>24</ele>
        <time>2023-10-26T11:27:09.479+00:00</time>
      </trkpt>
      <trkpt lat="48.94785" lon="2.16551">
        <ele>24</ele>
        <time>2023-10-26T11:27:13.481+00:00</time>
      </trkpt>
      <trkpt lat="48.94788" lon="2.16557">
        <ele>24</ele>
        <time>2023-10-26T11:27:18.479+00:00</time>
      </trkpt>
      <trkpt lat="48.94791" lon="2.16565">
        <ele>24</ele>
        <time>2023-10-26T11:27:23.480+00:00</time>
      </trkpt>
      <trkpt lat="48.94794" lon="2.1657">
        <ele>24</ele>
        <time>2023-10-26T11:27:27.475+00:00</time>
      </trkpt>
      <trkpt lat="48.94797" lon="2.16578">
        <ele>24</ele>
        <time>2023-10-26T11:27:32.476+00:00</time>
      </trkpt>
      <trkpt lat="48.948" lon="2.16586">
        <ele>24</ele>
        <time>2023-10-26T11:27:37.472+00:00</time>
      </trkpt>
      <trkpt lat="48.94804" lon="2.16594">
        <ele>24</ele>
        <time>2023-10-26T11:27:42.477+00:00</time>
      </trkpt>
      <trkpt lat="48.94808" lon="2.16602">
        <ele>25</ele>
        <time>2023-10-26T11:27:47.473+00:00</time>
      </trkpt>
      <trkpt lat="48.94812" lon="2.16609">
        <ele>25</ele>
        <time>2023-10-26T11:27:52.476+00:00</time>
      </trkpt>
      <trkpt lat="48.94815" lon="2.16618">
        <ele>25</ele>
        <time>2023-10-26T11:27:57.474+00:00</time>
      </trkpt>
      <trkpt lat="48.94818" lon="2.16625">
        <ele>28</ele>
        <time>2023-10-26T11:28:01.469+00:00</time>
      </trkpt>
      <trkpt lat="48.94822" lon="2.16633">
        <ele>26</ele>
        <time>2023-10-26T11:28:05.477+00:00</time>
      </trkpt>
      <trkpt lat="48.94826" lon="2.1664">
        <ele>26</ele>
        <time>2023-10-26T11:28:10.475+00:00</time>
      </trkpt>
      <trkpt lat="48.9483" lon="2.16648">
        <ele>26</ele>
        <time>2023-10-26T11:28:15.485+00:00</time>
      </trkpt>
      <trkpt lat="48.94834" lon="2.16656">
        <ele>27</ele>
        <time>2023-10-26T11:28:20.481+00:00</time>
      </trkpt>
      <trkpt lat="48.94836" lon="2.16663">
        <ele>27</ele>
        <time>2023-10-26T11:28:24.474+00:00</time>
      </trkpt>
      <trkpt lat="48.9484" lon="2.16671">
        <ele>27</ele>
        <time>2023-10-26T11:28:29.481+00:00</time>
      </trkpt>
      <trkpt lat="48.94842" lon="2.16679">
        <ele>27</ele>
        <time>2023-10-26T11:28:34.485+00:00</time>
      </trkpt>
      <trkpt lat="48.94846" lon="2.16686">
        <ele>27</ele>
        <time>2023-10-26T11:28:39.479+00:00</time>
      </trkpt>
      <trkpt lat="48.9485" lon="2.16695">
        <ele>25</ele>
        <time>2023-10-26T11:28:44.481+00:00</time>
      </trkpt>
      <trkpt lat="48.94854" lon="2.16703">
        <ele>25</ele>
        <time>2023-10-26T11:28:49.481+00:00</time>
      </trkpt>
      <trkpt lat="48.94858" lon="2.16712">
        <ele>26</ele>
        <time>2023-10-26T11:28:54.478+00:00</time>
      </trkpt>
      <trkpt lat="48.94862" lon="2.16721">
        <ele>26</ele>
        <time>2023-10-26T11:28:59.477+00:00</time>
      </trkpt>
      <trkpt lat="48.94865" lon="2.1673">
        <ele>26</ele>
        <time>2023-10-26T11:29:04.478+00:00</time>
      </trkpt>
      <trkpt lat="48.94868" lon="2.16737">
        <ele>25</ele>
        <time>2023-10-26T11:29:08.511+00:00</time>
      </trkpt>
      <trkpt lat="48.94872" lon="2.16745">
        <ele>25</ele>
        <time>2023-10-26T11:29:13.474+00:00</time>
      </trkpt>
      <trkpt lat="48.9487" lon="2.1675">
        <ele>25</ele>
        <time>2023-10-26T11:29:38.476+00:00</time>
      </trkpt>
      <trkpt lat="48.94869" lon="2.16748">
        <ele>25</ele>
        <time>2023-10-26T11:29:42.499+00:00</time>
      </trkpt>
      <trkpt lat="48.94866" lon="2.1674">
        <ele>25</ele>
        <time>2023-10-26T11:29:47.477+00:00</time>
      </trkpt>
      <trkpt lat="48.94866" lon="2.1674">
        <ele>25</ele>
        <time>2023-10-26T11:29:52.475+00:00</time>
      </trkpt>
      <trkpt lat="48.94865" lon="2.1674">
        <ele>25</ele>
        <time>2023-10-26T11:29:57.471+00:00</time>
      </trkpt>
      <trkpt lat="48.94865" lon="2.1674">
        <ele>25</ele>
        <time>2023-10-26T11:30:01.476+00:00</time>
      </trkpt>
      <trkpt lat="48.94864" lon="2.16745">
        <ele>25</ele>
        <time>2023-10-26T11:30:05.480+00:00</time>
      </trkpt>
      <trkpt lat="48.94866" lon="2.16756">
        <ele>25</ele>
        <time>2023-10-26T11:30:10.471+00:00</time>
      </trkpt>
      <trkpt lat="48.9487" lon="2.16762">
        <ele>25</ele>
        <time>2023-10-26T11:30:15.471+00:00</time>
      </trkpt>
      <trkpt lat="48.94871" lon="2.1677">
        <ele>25</ele>
        <time>2023-10-26T11:30:19.494+00:00</time>
      </trkpt>
      <trkpt lat="48.94872" lon="2.16781">
        <ele>25</ele>
        <time>2023-10-26T11:30:24.477+00:00</time>
      </trkpt>
      <trkpt lat="48.94874" lon="2.16788">
        <ele>25</ele>
        <time>2023-10-26T11:30:29.473+00:00</time>
      </trkpt>
      <trkpt lat="48.94875" lon="2.1679">
        <ele>25</ele>
        <time>2023-10-26T11:30:34.477+00:00</time>
      </trkpt>
      <trkpt lat="48.94876" lon="2.16793">
        <ele>26</ele>
        <time>2023-10-26T11:30:38.515+00:00</time>
      </trkpt>
      <trkpt lat="48.94876" lon="2.16801">
        <ele>26</ele>
        <time>2023-10-26T11:30:43.478+00:00</time>
      </trkpt>
      <trkpt lat="48.94874" lon="2.16811">
        <ele>25</ele>
        <time>2023-10-26T11:30:48.479+00:00</time>
      </trkpt>
      <trkpt lat="48.94871" lon="2.16821">
        <ele>27</ele>
        <time>2023-10-26T11:30:53.480+00:00</time>
      </trkpt>
      <trkpt lat="48.94867" lon="2.1683">
        <ele>27</ele>
        <time>2023-10-26T11:30:58.477+00:00</time>
      </trkpt>
      <trkpt lat="48.94864" lon="2.16838">
        <ele>27</ele>
        <time>2023-10-26T11:31:03.477+00:00</time>
      </trkpt>
      <trkpt lat="48.9486" lon="2.16848">
        <ele>28</ele>
        <time>2023-10-26T11:31:08.474+00:00</time>
      </trkpt>
      <trkpt lat="48.94857" lon="2.16855">
        <ele>28</ele>
        <time>2023-10-26T11:31:12.476+00:00</time>
      </trkpt>
      <trkpt lat="48.94851" lon="2.16863">
        <ele>28</ele>
        <time>2023-10-26T11:31:17.477+00:00</time>
      </trkpt>
      <trkpt lat="48.94848" lon="2.1687">
        <ele>28</ele>
        <time>2023-10-26T11:31:21.483+00:00</time>
      </trkpt>
      <trkpt lat="48.94844" lon="2.16877">
        <ele>27</ele>
        <time>2023-10-26T11:31:26.479+00:00</time>
      </trkpt>
      <trkpt lat="48.9484" lon="2.16885">
        <ele>27</ele>
        <time>2023-10-26T11:31:31.476+00:00</time>
      </trkpt>
      <trkpt lat="48.94837" lon="2.16893">
        <ele>27</ele>
        <time>2023-10-26T11:31:35.476+00:00</time>
      </trkpt>
      <trkpt lat="48.94833" lon="2.16901">
        <ele>27</ele>
        <time>2023-10-26T11:31:40.476+00:00</time>
      </trkpt>
      <trkpt lat="48.94829" lon="2.16908">
        <ele>27</ele>
        <time>2023-10-26T11:31:45.476+00:00</time>
      </trkpt>
      <trkpt lat="48.94828" lon="2.16914">
        <ele>27</ele>
        <time>2023-10-26T11:31:50.480+00:00</time>
      </trkpt>
      <trkpt lat="48.9483" lon="2.16922">
        <ele>27</ele>
        <time>2023-10-26T11:31:55.477+00:00</time>
      </trkpt>
      <trkpt lat="48.94826" lon="2.16929">
        <ele>27</ele>
        <time>2023-10-26T11:32:00.480+00:00</time>
      </trkpt>
      <trkpt lat="48.94823" lon="2.16934">
        <ele>26</ele>
        <time>2023-10-26T11:32:04.515+00:00</time>
      </trkpt>
      <trkpt lat="48.94818" lon="2.16943">
        <ele>28</ele>
        <time>2023-10-26T11:32:09.482+00:00</time>
      </trkpt>
      <trkpt lat="48.94814" lon="2.16951">
        <ele>28</ele>
        <time>2023-10-26T11:32:14.477+00:00</time>
      </trkpt>
      <trkpt lat="48.9481" lon="2.16956">
        <ele>28</ele>
        <time>2023-10-26T11:32:18.487+00:00</time>
      </trkpt>
      <trkpt lat="48.94806" lon="2.16964">
        <ele>27</ele>
        <time>2023-10-26T11:32:23.476+00:00</time>
      </trkpt>
      <trkpt lat="48.94803" lon="2.1697">
        <ele>27</ele>
        <time>2023-10-26T11:32:27.476+00:00</time>
      </trkpt>
      <trkpt lat="48.948" lon="2.16979">
        <ele>27</ele>
        <time>2023-10-26T11:32:32.477+00:00</time>
      </trkpt>
      <trkpt lat="48.94797" lon="2.16986">
        <ele>26</ele>
        <time>2023-10-26T11:32:37.475+00:00</time>
      </trkpt>
      <trkpt lat="48.94795" lon="2.16994">
        <ele>26</ele>
        <time>2023-10-26T11:32:42.474+00:00</time>
      </trkpt>
      <trkpt lat="48.94792" lon="2.17">
        <ele>26</ele>
        <time>2023-10-26T11:32:46.489+00:00</time>
      </trkpt>
      <trkpt lat="48.94788" lon="2.17009">
        <ele>28</ele>
        <time>2023-10-26T11:32:51.485+00:00</time>
      </trkpt>
      <trkpt lat="48.94786" lon="2.17019">
        <ele>27</ele>
        <time>2023-10-26T11:32:56.478+00:00</time>
      </trkpt>
      <trkpt lat="48.94783" lon="2.17029">
        <ele>27</ele>
        <time>2023-10-26T11:33:01.489+00:00</time>
      </trkpt>
      <trkpt lat="48.94779" lon="2.17038">
        <ele>27</ele>
        <time>2023-10-26T11:33:06.479+00:00</time>
      </trkpt>
      <trkpt lat="48.94774" lon="2.17046">
        <ele>27</ele>
        <time>2023-10-26T11:33:11.473+00:00</time>
      </trkpt>
      <trkpt lat="48.94771" lon="2.17055">
        <ele>27</ele>
        <time>2023-10-26T11:33:16.483+00:00</time>
      </trkpt>
      <trkpt lat="48.94767" lon="2.17065">
        <ele>27</ele>
        <time>2023-10-26T11:33:21.484+00:00</time>
      </trkpt>
      <trkpt lat="48.94764" lon="2.17074">
        <ele>28</ele>
        <time>2023-10-26T11:33:26.478+00:00</time>
      </trkpt>
      <trkpt lat="48.94761" lon="2.17082">
        <ele>29</ele>
        <time>2023-10-26T11:33:31.483+00:00</time>
      </trkpt>
      <trkpt lat="48.94759" lon="2.17088">
        <ele>29</ele>
        <time>2023-10-26T11:33:36.491+00:00</time>
      </trkpt>
      <trkpt lat="48.94761" lon="2.17096">
        <ele>29</ele>
        <time>2023-10-26T11:33:41.476+00:00</time>
      </trkpt>
      <trkpt lat="48.94765" lon="2.17102">
        <ele>29</ele>
        <time>2023-10-26T11:33:45.485+00:00</time>
      </trkpt>
      <trkpt lat="48.94768" lon="2.17111">
        <ele>29</ele>
        <time>2023-10-26T11:33:50.481+00:00</time>
      </trkpt>
      <trkpt lat="48.94771" lon="2.1712">
        <ele>29</ele>
        <time>2023-10-26T11:33:55.472+00:00</time>
      </trkpt>
      <trkpt lat="48.94775" lon="2.17129">
        <ele>30</ele>
        <time>2023-10-26T11:34:00.478+00:00</time>
      </trkpt>
      <trkpt lat="48.94778" lon="2.17136">
        <ele>30</ele>
        <time>2023-10-26T11:34:04.512+00:00</time>
      </trkpt>
      <trkpt lat="48.94782" lon="2.17143">
        <ele>30</ele>
        <time>2023-10-26T11:34:09.472+00:00</time>
      </trkpt>
      <trkpt lat="48.94786" lon="2.17148">
        <ele>30</ele>
        <time>2023-10-26T11:34:14.470+00:00</time>
      </trkpt>
      <trkpt lat="48.94791" lon="2.17153">
        <ele>30</ele>
        <time>2023-10-26T11:34:19.476+00:00</time>
      </trkpt>
      <trkpt lat="48.94796" lon="2.17158">
        <ele>30</ele>
        <time>2023-10-26T11:34:24.479+00:00</time>
      </trkpt>
      <trkpt lat="48.94801" lon="2.17163">
        <ele>30</ele>
        <time>2023-10-26T11:34:29.477+00:00</time>
      </trkpt>
      <trkpt lat="48.94806" lon="2.17167">
        <ele>30</ele>
        <time>2023-10-26T11:34:34.477+00:00</time>
      </trkpt>
      <trkpt lat="48.9481" lon="2.17172">
        <ele>30</ele>
        <time>2023-10-26T11:34:38.482+00:00</time>
      </trkpt>
      <trkpt lat="48.94815" lon="2.1718">
        <ele>30</ele>
        <time>2023-10-26T11:34:43.484+00:00</time>
      </trkpt>
      <trkpt lat="48.94818" lon="2.17187">
        <ele>30</ele>
        <time>2023-10-26T11:34:48.471+00:00</time>
      </trkpt>
      <trkpt lat="48.94823" lon="2.17194">
        <ele>31</ele>
        <time>2023-10-26T11:34:53.480+00:00</time>
      </trkpt>
      <trkpt lat="48.94829" lon="2.172">
        <ele>31</ele>
        <time>2023-10-26T11:34:58.478+00:00</time>
      </trkpt>
      <trkpt lat="48.94835" lon="2.17206">
        <ele>31</ele>
        <time>2023-10-26T11:35:03.479+00:00</time>
      </trkpt>
      <trkpt lat="48.94841" lon="2.17212">
        <ele>32</ele>
        <time>2023-10-26T11:35:08.481+00:00</time>
      </trkpt>
      <trkpt lat="48.94845" lon="2.17217">
        <ele>32</ele>
        <time>2023-10-26T11:35:13.477+00:00</time>
      </trkpt>
      <trkpt lat="48.94848" lon="2.17222">
        <ele>32</ele>
        <time>2023-10-26T11:35:17.537+00:00</time>
      </trkpt>
      <trkpt lat="48.94853" lon="2.17229">
        <ele>32</ele>
        <time>2023-10-26T11:35:22.483+00:00</time>
      </trkpt>
      <trkpt lat="48.94858" lon="2.17236">
        <ele>32</ele>
        <time>2023-10-26T11:35:27.492+00:00</time>
      </trkpt>
      <trkpt lat="48.94863" lon="2.17242">
        <ele>33</ele>
        <time>2023-10-26T11:35:32.472+00:00</time>
      </trkpt>
      <trkpt lat="48.94867" lon="2.17248">
        <ele>33</ele>
        <time>2023-10-26T11:35:37.471+00:00</time>
      </trkpt>
      <trkpt lat="48.94871" lon="2.17252">
        <ele>33</ele>
        <time>2023-10-26T11:35:41.475+00:00</time>
      </trkpt>
      <trkpt lat="48.94876" lon="2.17257">
        <ele>32</ele>
        <time>2023-10-26T11:35:46.505+00:00</time>
      </trkpt>
      <trkpt lat="48.94881" lon="2.17262">
        <ele>32</ele>
        <time>2023-10-26T11:35:51.474+00:00</time>
      </trkpt>
      <trkpt lat="48.94886" lon="2.17265">
        <ele>33</ele>
        <time>2023-10-26T11:35:56.471+00:00</time>
      </trkpt>
      <trkpt lat="48.94889" lon="2.17267">
        <ele>33</ele>
        <time>2023-10-26T11:36:00.470+00:00</time>
      </trkpt>
      <trkpt lat="48.94893" lon="2.17272">
        <ele>33</ele>
        <time>2023-10-26T11:36:05.470+00:00</time>
      </trkpt>
      <trkpt lat="48.94897" lon="2.17275">
        <ele>33</ele>
        <time>2023-10-26T11:36:09.506+00:00</time>
      </trkpt>
      <trkpt lat="48.94903" lon="2.17281">
        <ele>32</ele>
        <time>2023-10-26T11:36:14.476+00:00</time>
      </trkpt>
      <trkpt lat="48.94909" lon="2.17288">
        <ele>32</ele>
        <time>2023-10-26T11:36:19.475+00:00</time>
      </trkpt>
      <trkpt lat="48.94914" lon="2.17293">
        <ele>33</ele>
        <time>2023-10-26T11:36:23.483+00:00</time>
      </trkpt>
      <trkpt lat="48.94918" lon="2.17298">
        <ele>33</ele>
        <time>2023-10-26T11:36:28.478+00:00</time>
      </trkpt>
      <trkpt lat="48.94923" lon="2.17302">
        <ele>33</ele>
        <time>2023-10-26T11:36:33.480+00:00</time>
      </trkpt>
      <trkpt lat="48.94928" lon="2.17309">
        <ele>33</ele>
        <time>2023-10-26T11:36:38.477+00:00</time>
      </trkpt>
      <trkpt lat="48.94932" lon="2.17313">
        <ele>33</ele>
        <time>2023-10-26T11:36:43.474+00:00</time>
      </trkpt>
      <trkpt lat="48.94937" lon="2.1732">
        <ele>33</ele>
        <time>2023-10-26T11:36:48.472+00:00</time>
      </trkpt>
      <trkpt lat="48.94942" lon="2.17325">
        <ele>33</ele>
        <time>2023-10-26T11:36:53.490+00:00</time>
      </trkpt>
      <trkpt lat="48.94947" lon="2.17329">
        <ele>33</ele>
        <time>2023-10-26T11:36:58.479+00:00</time>
      </trkpt>
      <trkpt lat="48.94953" lon="2.17336">
        <ele>33</ele>
        <time>2023-10-26T11:37:03.479+00:00</time>
      </trkpt>
      <trkpt lat="48.9496" lon="2.17345">
        <ele>32</ele>
        <time>2023-10-26T11:37:08.480+00:00</time>
      </trkpt>
      <trkpt lat="48.94967" lon="2.17353">
        <ele>33</ele>
        <time>2023-10-26T11:37:13.484+00:00</time>
      </trkpt>
      <trkpt lat="48.94974" lon="2.1736">
        <ele>33</ele>
        <time>2023-10-26T11:37:18.477+00:00</time>
      </trkpt>
      <trkpt lat="48.94978" lon="2.17365">
        <ele>33</ele>
        <time>2023-10-26T11:37:23.526+00:00</time>
      </trkpt>
      <trkpt lat="48.94979" lon="2.1737">
        <ele>33</ele>
        <time>2023-10-26T11:37:28.473+00:00</time>
      </trkpt>
      <trkpt lat="48.94983" lon="2.17373">
        <ele>33</ele>
        <time>2023-10-26T11:37:33.476+00:00</time>
      </trkpt>
      <trkpt lat="48.94988" lon="2.17376">
        <ele>33</ele>
        <time>2023-10-26T11:37:38.475+00:00</time>
      </trkpt>
      <trkpt lat="48.94994" lon="2.17383">
        <ele>33</ele>
        <time>2023-10-26T11:37:43.469+00:00</time>
      </trkpt>
      <trkpt lat="48.95001" lon="2.17389">
        <ele>33</ele>
        <time>2023-10-26T11:37:48.475+00:00</time>
      </trkpt>
      <trkpt lat="48.95005" lon="2.17392">
        <ele>33</ele>
        <time>2023-10-26T11:37:52.471+00:00</time>
      </trkpt>
      <trkpt lat="48.95011" lon="2.17395">
        <ele>33</ele>
        <time>2023-10-26T11:37:57.478+00:00</time>
      </trkpt>
      <trkpt lat="48.95016" lon="2.174">
        <ele>32</ele>
        <time>2023-10-26T11:38:02.474+00:00</time>
      </trkpt>
      <trkpt lat="48.95022" lon="2.17405">
        <ele>32</ele>
        <time>2023-10-26T11:38:07.474+00:00</time>
      </trkpt>
      <trkpt lat="48.95027" lon="2.17412">
        <ele>32</ele>
        <time>2023-10-26T11:38:12.470+00:00</time>
      </trkpt>
      <trkpt lat="48.95033" lon="2.17419">
        <ele>32</ele>
        <time>2023-10-26T11:38:17.474+00:00</time>
      </trkpt>
      <trkpt lat="48.95038" lon="2.17422">
        <ele>32</ele>
        <time>2023-10-26T11:38:21.484+00:00</time>
      </trkpt>
      <trkpt lat="48.95045" lon="2.17427">
        <ele>30</ele>
        <time>2023-10-26T11:38:26.476+00:00</time>
      </trkpt>
      <trkpt lat="48.9505" lon="2.17433">
        <ele>32</ele>
        <time>2023-10-26T11:38:31.476+00:00</time>
      </trkpt>
      <trkpt lat="48.95057" lon="2.17438">
        <ele>32</ele>
        <time>2023-10-26T11:38:36.476+00:00</time>
      </trkpt>
      <trkpt lat="48.95064" lon="2.17444">
        <ele>32</ele>
        <time>2023-10-26T11:38:41.474+00:00</time>
      </trkpt>
      <trkpt lat="48.9507" lon="2.1745">
        <ele>28</ele>
        <time>2023-10-26T11:38:46.475+00:00</time>
      </trkpt>
      <trkpt lat="48.95076" lon="2.17454">
        <ele>28</ele>
        <time>2023-10-26T11:38:51.475+00:00</time>
      </trkpt>
      <trkpt lat="48.9508" lon="2.17458">
        <ele>28</ele>
        <time>2023-10-26T11:38:55.513+00:00</time>
      </trkpt>
      <trkpt lat="48.95084" lon="2.17463">
        <ele>31</ele>
        <time>2023-10-26T11:39:00.471+00:00</time>
      </trkpt>
      <trkpt lat="48.95089" lon="2.17468">
        <ele>31</ele>
        <time>2023-10-26T11:39:05.475+00:00</time>
      </trkpt>
      <trkpt lat="48.95092" lon="2.17472">
        <ele>31</ele>
        <time>2023-10-26T11:39:09.478+00:00</time>
      </trkpt>
      <trkpt lat="48.95096" lon="2.17478">
        <ele>31</ele>
        <time>2023-10-26T11:39:14.475+00:00</time>
      </trkpt>
      <trkpt lat="48.95101" lon="2.17482">
        <ele>29</ele>
        <time>2023-10-26T11:39:19.490+00:00</time>
      </trkpt>
      <trkpt lat="48.95106" lon="2.17486">
        <ele>29</ele>
        <time>2023-10-26T11:39:23.531+00:00</time>
      </trkpt>
      <trkpt lat="48.95112" lon="2.17489">
        <ele>33</ele>
        <time>2023-10-26T11:39:28.475+00:00</time>
      </trkpt>
      <trkpt lat="48.95119" lon="2.17495">
        <ele>33</ele>
        <time>2023-10-26T11:39:33.479+00:00</time>
      </trkpt>
      <trkpt lat="48.95124" lon="2.17501">
        <ele>33</ele>
        <time>2023-10-26T11:39:38.480+00:00</time>
      </trkpt>
      <trkpt lat="48.95131" lon="2.17507">
        <ele>32</ele>
        <time>2023-10-26T11:39:43.479+00:00</time>
      </trkpt>
      <trkpt lat="48.95137" lon="2.17511">
        <ele>32</ele>
        <time>2023-10-26T11:39:48.482+00:00</time>
      </trkpt>
      <trkpt lat="48.95143" lon="2.17514">
        <ele>37</ele>
        <time>2023-10-26T11:39:53.476+00:00</time>
      </trkpt>
      <trkpt lat="48.95148" lon="2.17519">
        <ele>37</ele>
        <time>2023-10-26T11:39:58.476+00:00</time>
      </trkpt>
      <trkpt lat="48.95154" lon="2.17521">
        <ele>35</ele>
        <time>2023-10-26T11:40:03.470+00:00</time>
      </trkpt>
      <trkpt lat="48.95159" lon="2.17525">
        <ele>35</ele>
        <time>2023-10-26T11:40:07.512+00:00</time>
      </trkpt>
      <trkpt lat="48.95164" lon="2.17532">
        <ele>35</ele>
        <time>2023-10-26T11:40:12.477+00:00</time>
      </trkpt>
      <trkpt lat="48.95169" lon="2.17537">
        <ele>35</ele>
        <time>2023-10-26T11:40:17.478+00:00</time>
      </trkpt>
      <trkpt lat="48.95175" lon="2.17543">
        <ele>38</ele>
        <time>2023-10-26T11:40:22.471+00:00</time>
      </trkpt>
      <trkpt lat="48.95181" lon="2.17549">
        <ele>32</ele>
        <time>2023-10-26T11:40:27.481+00:00</time>
      </trkpt>
      <trkpt lat="48.95186" lon="2.17556">
        <ele>32</ele>
        <time>2023-10-26T11:40:32.478+00:00</time>
      </trkpt>
      <trkpt lat="48.95193" lon="2.17563">
        <ele>32</ele>
        <time>2023-10-26T11:40:37.477+00:00</time>
      </trkpt>
      <trkpt lat="48.95198" lon="2.17567">
        <ele>32</ele>
        <time>2023-10-26T11:40:41.477+00:00</time>
      </trkpt>
      <trkpt lat="48.95205" lon="2.17571">
        <ele>36</ele>
        <time>2023-10-26T11:40:46.471+00:00</time>
      </trkpt>
      <trkpt lat="48.95212" lon="2.17571">
        <ele>32</ele>
        <time>2023-10-26T11:40:51.476+00:00</time>
      </trkpt>
      <trkpt lat="48.95217" lon="2.17578">
        <ele>32</ele>
        <time>2023-10-26T11:40:56.477+00:00</time>
      </trkpt>
      <trkpt lat="48.95222" lon="2.17583">
        <ele>32</ele>
        <time>2023-10-26T11:41:01.475+00:00</time>
      </trkpt>
      <trkpt lat="48.95223" lon="2.17585">
        <ele>32</ele>
        <time>2023-10-26T11:41:05.471+00:00</time>
      </trkpt>
      <trkpt lat="48.95225" lon="2.17588">
        <ele>32</ele>
        <time>2023-10-26T11:41:10.477+00:00</time>
      </trkpt>
      <trkpt lat="48.9523" lon="2.17591">
        <ele>32</ele>
        <time>2023-10-26T11:41:15.482+00:00</time>
      </trkpt>
      <trkpt lat="48.95235" lon="2.17592">
        <ele>32</ele>
        <time>2023-10-26T11:41:19.480+00:00</time>
      </trkpt>
      <trkpt lat="48.9524" lon="2.17592">
        <ele>29</ele>
        <time>2023-10-26T11:41:24.480+00:00</time>
      </trkpt>
      <trkpt lat="48.95246" lon="2.17597">
        <ele>29</ele>
        <time>2023-10-26T11:41:29.477+00:00</time>
      </trkpt>
      <trkpt lat="48.95249" lon="2.17601">
        <ele>34</ele>
        <time>2023-10-26T11:41:33.477+00:00</time>
      </trkpt>
      <trkpt lat="48.95255" lon="2.17606">
        <ele>34</ele>
        <time>2023-10-26T11:41:38.480+00:00</time>
      </trkpt>
      <trkpt lat="48.95261" lon="2.17609">
        <ele>34</ele>
        <time>2023-10-26T11:41:43.477+00:00</time>
      </trkpt>
      <trkpt lat="48.95267" lon="2.17615">
        <ele>28</ele>
        <time>2023-10-26T11:41:48.474+00:00</time>
      </trkpt>
      <trkpt lat="48.95272" lon="2.17622">
        <ele>28</ele>
        <time>2023-10-26T11:41:53.477+00:00</time>
      </trkpt>
      <trkpt lat="48.95277" lon="2.17629">
        <ele>32</ele>
        <time>2023-10-26T11:41:58.476+00:00</time>
      </trkpt>
      <trkpt lat="48.95281" lon="2.17635">
        <ele>32</ele>
        <time>2023-10-26T11:42:02.480+00:00</time>
      </trkpt>
      <trkpt lat="48.95287" lon="2.17639">
        <ele>32</ele>
        <time>2023-10-26T11:42:07.479+00:00</time>
      </trkpt>
      <trkpt lat="48.95293" lon="2.17644">
        <ele>27</ele>
        <time>2023-10-26T11:42:12.479+00:00</time>
      </trkpt>
      <trkpt lat="48.95299" lon="2.17651">
        <ele>27</ele>
        <time>2023-10-26T11:42:17.477+00:00</time>
      </trkpt>
      <trkpt lat="48.95304" lon="2.1766">
        <ele>30</ele>
        <time>2023-10-26T11:42:22.477+00:00</time>
      </trkpt>
      <trkpt lat="48.95309" lon="2.17664">
        <ele>30</ele>
        <time>2023-10-26T11:42:26.487+00:00</time>
      </trkpt>
      <trkpt lat="48.95315" lon="2.17667">
        <ele>30</ele>
        <time>2023-10-26T11:42:31.477+00:00</time>
      </trkpt>
      <trkpt lat="48.9532" lon="2.17671">
        <ele>28</ele>
        <time>2023-10-26T11:42:35.479+00:00</time>
      </trkpt>
      <trkpt lat="48.95324" lon="2.17674">
        <ele>28</ele>
        <time>2023-10-26T11:42:40.487+00:00</time>
      </trkpt>
      <trkpt lat="48.95328" lon="2.17679">
        <ele>28</ele>
        <time>2023-10-26T11:42:45.483+00:00</time>
      </trkpt>
      <trkpt lat="48.95332" lon="2.17683">
        <ele>34</ele>
        <time>2023-10-26T11:42:50.491+00:00</time>
      </trkpt>
      <trkpt lat="48.95337" lon="2.17689">
        <ele>34</ele>
        <time>2023-10-26T11:42:55.479+00:00</time>
      </trkpt>
      <trkpt lat="48.95341" lon="2.17691">
        <ele>34</ele>
        <time>2023-10-26T11:43:00.483+00:00</time>
      </trkpt>
      <trkpt lat="48.95342" lon="2.17691">
        <ele>34</ele>
        <time>2023-10-26T11:43:05.477+00:00</time>
      </trkpt>
      <trkpt lat="48.95343" lon="2.17691">
        <ele>34</ele>
        <time>2023-10-26T11:43:34.472+00:00</time>
      </trkpt>
      <trkpt lat="48.95347" lon="2.17695">
        <ele>29</ele>
        <time>2023-10-26T11:43:39.478+00:00</time>
      </trkpt>
      <trkpt lat="48.95352" lon="2.17699">
        <ele>29</ele>
        <time>2023-10-26T11:43:43.477+00:00</time>
      </trkpt>
      <trkpt lat="48.95359" lon="2.17704">
        <ele>29</ele>
        <time>2023-10-26T11:43:48.478+00:00</time>
      </trkpt>
      <trkpt lat="48.95365" lon="2.17708">
        <ele>29</ele>
        <time>2023-10-26T11:43:52.478+00:00</time>
      </trkpt>
      <trkpt lat="48.95369" lon="2.17712">
        <ele>34</ele>
        <time>2023-10-26T11:43:56.478+00:00</time>
      </trkpt>
      <trkpt lat="48.95373" lon="2.17715">
        <ele>34</ele>
        <time>2023-10-26T11:44:00.483+00:00</time>
      </trkpt>
      <trkpt lat="48.95378" lon="2.17719">
        <ele>30</ele>
        <time>2023-10-26T11:44:05.483+00:00</time>
      </trkpt>
      <trkpt lat="48.95383" lon="2.17719">
        <ele>30</ele>
        <time>2023-10-26T11:44:10.479+00:00</time>
      </trkpt>
      <trkpt lat="48.95387" lon="2.17723">
        <ele>30</ele>
        <time>2023-10-26T11:44:15.479+00:00</time>
      </trkpt>
      <trkpt lat="48.95391" lon="2.17729">
        <ele>30</ele>
        <time>2023-10-26T11:44:20.481+00:00</time>
      </trkpt>
      <trkpt lat="48.95397" lon="2.17736">
        <ele>30</ele>
        <time>2023-10-26T11:44:25.478+00:00</time>
      </trkpt>
      <trkpt lat="48.95402" lon="2.17741">
        <ele>34</ele>
        <time>2023-10-26T11:44:30.478+00:00</time>
      </trkpt>
      <trkpt lat="48.95407" lon="2.17747">
        <ele>30</ele>
        <time>2023-10-26T11:44:35.483+00:00</time>
      </trkpt>
      <trkpt lat="48.95413" lon="2.17753">
        <ele>30</ele>
        <time>2023-10-26T11:44:40.481+00:00</time>
      </trkpt>
      <trkpt lat="48.95418" lon="2.17758">
        <ele>30</ele>
        <time>2023-10-26T11:44:45.481+00:00</time>
      </trkpt>
      <trkpt lat="48.95424" lon="2.17763">
        <ele>30</ele>
        <time>2023-10-26T11:44:50.487+00:00</time>
      </trkpt>
      <trkpt lat="48.95429" lon="2.17767">
        <ele>33</ele>
        <time>2023-10-26T11:44:54.476+00:00</time>
      </trkpt>
      <trkpt lat="48.95435" lon="2.17773">
        <ele>31</ele>
        <time>2023-10-26T11:44:59.478+00:00</time>
      </trkpt>
      <trkpt lat="48.95441" lon="2.1778">
        <ele>31</ele>
        <time>2023-10-26T11:45:04.480+00:00</time>
      </trkpt>
      <trkpt lat="48.95447" lon="2.17786">
        <ele>31</ele>
        <time>2023-10-26T11:45:09.478+00:00</time>
      </trkpt>
      <trkpt lat="48.95452" lon="2.17791">
        <ele>31</ele>
        <time>2023-10-26T11:45:14.481+00:00</time>
      </trkpt>
      <trkpt lat="48.95458" lon="2.17796">
        <ele>33</ele>
        <time>2023-10-26T11:45:19.481+00:00</time>
      </trkpt>
      <trkpt lat="48.95463" lon="2.17799">
        <ele>31</ele>
        <time>2023-10-26T11:45:24.478+00:00</time>
      </trkpt>
      <trkpt lat="48.95468" lon="2.17802">
        <ele>31</ele>
        <time>2023-10-26T11:45:28.478+00:00</time>
      </trkpt>
      <trkpt lat="48.95472" lon="2.17805">
        <ele>31</ele>
        <time>2023-10-26T11:45:32.525+00:00</time>
      </trkpt>
      <trkpt lat="48.95478" lon="2.17808">
        <ele>31</ele>
        <time>2023-10-26T11:45:37.480+00:00</time>
      </trkpt>
      <trkpt lat="48.95484" lon="2.17811">
        <ele>31</ele>
        <time>2023-10-26T11:45:42.481+00:00</time>
      </trkpt>
      <trkpt lat="48.9549" lon="2.17814">
        <ele>31</ele>
        <time>2023-10-26T11:45:47.479+00:00</time>
      </trkpt>
      <trkpt lat="48.95496" lon="2.17817">
        <ele>31</ele>
        <time>2023-10-26T11:45:52.482+00:00</time>
      </trkpt>
      <trkpt lat="48.955" lon="2.1782">
        <ele>32</ele>
        <time>2023-10-26T11:45:57.474+00:00</time>
      </trkpt>
      <trkpt lat="48.95505" lon="2.17821">
        <ele>32</ele>
        <time>2023-10-26T11:46:02.476+00:00</time>
      </trkpt>
      <trkpt lat="48.95509" lon="2.17822">
        <ele>32</ele>
        <time>2023-10-26T11:46:07.473+00:00</time>
      </trkpt>
      <trkpt lat="48.95514" lon="2.17823">
        <ele>33</ele>
        <time>2023-10-26T11:46:11.481+00:00</time>
      </trkpt>
      <trkpt lat="48.95519" lon="2.17826">
        <ele>33</ele>
        <time>2023-10-26T11:46:16.495+00:00</time>
      </trkpt>
      <trkpt lat="48.95525" lon="2.17833">
        <ele>33</ele>
        <time>2023-10-26T11:46:21.485+00:00</time>
      </trkpt>
      <trkpt lat="48.9553" lon="2.17839">
        <ele>33</ele>
        <time>2023-10-26T11:46:26.490+00:00</time>
      </trkpt>
      <trkpt lat="48.95534" lon="2.17845">
        <ele>33</ele>
        <time>2023-10-26T11:46:35.475+00:00</time>
      </trkpt>
      <trkpt lat="48.95534" lon="2.17846">
        <ele>33</ele>
        <time>2023-10-26T11:46:40.475+00:00</time>
      </trkpt>
      <trkpt lat="48.95536" lon="2.17848">
        <ele>34</ele>
        <time>2023-10-26T11:46:45.472+00:00</time>
      </trkpt>
      <trkpt lat="48.95539" lon="2.17849">
        <ele>34</ele>
        <time>2023-10-26T11:46:50.477+00:00</time>
      </trkpt>
      <trkpt lat="48.95541" lon="2.17851">
        <ele>34</ele>
        <time>2023-10-26T11:46:55.477+00:00</time>
      </trkpt>
      <trkpt lat="48.95544" lon="2.17854">
        <ele>35</ele>
        <time>2023-10-26T11:46:59.477+00:00</time>
      </trkpt>
      <trkpt lat="48.95549" lon="2.17855">
        <ele>35</ele>
        <time>2023-10-26T11:47:04.477+00:00</time>
      </trkpt>
      <trkpt lat="48.95554" lon="2.17857">
        <ele>35</ele>
        <time>2023-10-26T11:47:09.477+00:00</time>
      </trkpt>
      <trkpt lat="48.95559" lon="2.17861">
        <ele>35</ele>
        <time>2023-10-26T11:47:13.476+00:00</time>
      </trkpt>
      <trkpt lat="48.95564" lon="2.17867">
        <ele>35</ele>
        <time>2023-10-26T11:47:18.480+00:00</time>
      </trkpt>
      <trkpt lat="48.95568" lon="2.17873">
        <ele>35</ele>
        <time>2023-10-26T11:47:22.486+00:00</time>
      </trkpt>
      <trkpt lat="48.95574" lon="2.17879">
        <ele>38</ele>
        <time>2023-10-26T11:47:27.473+00:00</time>
      </trkpt>
      <trkpt lat="48.95579" lon="2.17885">
        <ele>38</ele>
        <time>2023-10-26T11:47:31.482+00:00</time>
      </trkpt>
      <trkpt lat="48.95585" lon="2.17891">
        <ele>38</ele>
        <time>2023-10-26T11:47:36.484+00:00</time>
      </trkpt>
      <trkpt lat="48.9559" lon="2.17897">
        <ele>38</ele>
        <time>2023-10-26T11:47:41.475+00:00</time>
      </trkpt>
      <trkpt lat="48.95597" lon="2.17902">
        <ele>38</ele>
        <time>2023-10-26T11:47:46.485+00:00</time>
      </trkpt>
      <trkpt lat="48.95603" lon="2.17904">
        <ele>37</ele>
        <time>2023-10-26T11:47:51.486+00:00</time>
      </trkpt>
      <trkpt lat="48.9561" lon="2.17909">
        <ele>37</ele>
        <time>2023-10-26T11:47:56.481+00:00</time>
      </trkpt>
      <trkpt lat="48.95616" lon="2.17914">
        <ele>37</ele>
        <time>2023-10-26T11:48:01.482+00:00</time>
      </trkpt>
      <trkpt lat="48.95622" lon="2.17918">
        <ele>37</ele>
        <time>2023-10-26T11:48:06.481+00:00</time>
      </trkpt>
      <trkpt lat="48.95627" lon="2.1792">
        <ele>31</ele>
        <time>2023-10-26T11:48:10.479+00:00</time>
      </trkpt>
      <trkpt lat="48.95633" lon="2.17924">
        <ele>31</ele>
        <time>2023-10-26T11:48:15.477+00:00</time>
      </trkpt>
      <trkpt lat="48.9564" lon="2.17929">
        <ele>31</ele>
        <time>2023-10-26T11:48:20.471+00:00</time>
      </trkpt>
      <trkpt lat="48.95647" lon="2.17934">
        <ele>33</ele>
        <time>2023-10-26T11:48:25.474+00:00</time>
      </trkpt>
      <trkpt lat="48.95654" lon="2.17938">
        <ele>29</ele>
        <time>2023-10-26T11:48:30.476+00:00</time>
      </trkpt>
      <trkpt lat="48.9566" lon="2.17942">
        <ele>29</ele>
        <time>2023-10-26T11:48:35.478+00:00</time>
      </trkpt>
      <trkpt lat="48.95664" lon="2.17944">
        <ele>29</ele>
        <time>2023-10-26T11:48:39.478+00:00</time>
      </trkpt>
      <trkpt lat="48.9567" lon="2.17948">
        <ele>29</ele>
        <time>2023-10-26T11:48:44.477+00:00</time>
      </trkpt>
      <trkpt lat="48.95676" lon="2.1795">
        <ele>29</ele>
        <time>2023-10-26T11:48:49.475+00:00</time>
      </trkpt>
      <trkpt lat="48.95682" lon="2.17952">
        <ele>26</ele>
        <time>2023-10-26T11:48:54.476+00:00</time>
      </trkpt>
      <trkpt lat="48.95687" lon="2.17955">
        <ele>26</ele>
        <time>2023-10-26T11:48:58.486+00:00</time>
      </trkpt>
      <trkpt lat="48.95695" lon="2.17959">
        <ele>30</ele>
        <time>2023-10-26T11:49:03.481+00:00</time>
      </trkpt>
      <trkpt lat="48.957" lon="2.17962">
        <ele>30</ele>
        <time>2023-10-26T11:49:07.524+00:00</time>
      </trkpt>
      <trkpt lat="48.95706" lon="2.17964">
        <ele>30</ele>
        <time>2023-10-26T11:49:12.487+00:00</time>
      </trkpt>
      <trkpt lat="48.95712" lon="2.17966">
        <ele>29</ele>
        <time>2023-10-26T11:49:17.476+00:00</time>
      </trkpt>
      <trkpt lat="48.95718" lon="2.1797">
        <ele>29</ele>
        <time>2023-10-26T11:49:22.484+00:00</time>
      </trkpt>
      <trkpt lat="48.95724" lon="2.17973">
        <ele>29</ele>
        <time>2023-10-26T11:49:27.478+00:00</time>
      </trkpt>
      <trkpt lat="48.9573" lon="2.17978">
        <ele>29</ele>
        <time>2023-10-26T11:49:32.479+00:00</time>
      </trkpt>
      <trkpt lat="48.95736" lon="2.17981">
        <ele>29</ele>
        <time>2023-10-26T11:49:36.518+00:00</time>
      </trkpt>
      <trkpt lat="48.95742" lon="2.17983">
        <ele>29</ele>
        <time>2023-10-26T11:49:41.484+00:00</time>
      </trkpt>
      <trkpt lat="48.95747" lon="2.17986">
        <ele>29</ele>
        <time>2023-10-26T11:49:46.476+00:00</time>
      </trkpt>
      <trkpt lat="48.95752" lon="2.17989">
        <ele>34</ele>
        <time>2023-10-26T11:49:51.476+00:00</time>
      </trkpt>
      <trkpt lat="48.95757" lon="2.17992">
        <ele>34</ele>
        <time>2023-10-26T11:49:56.478+00:00</time>
      </trkpt>
      <trkpt lat="48.95763" lon="2.17993">
        <ele>34</ele>
        <time>2023-10-26T11:50:01.482+00:00</time>
      </trkpt>
      <trkpt lat="48.95769" lon="2.17993">
        <ele>28</ele>
        <time>2023-10-26T11:50:06.476+00:00</time>
      </trkpt>
      <trkpt lat="48.95775" lon="2.17995">
        <ele>28</ele>
        <time>2023-10-26T11:50:11.478+00:00</time>
      </trkpt>
      <trkpt lat="48.95779" lon="2.17998">
        <ele>28</ele>
        <time>2023-10-26T11:50:15.514+00:00</time>
      </trkpt>
      <trkpt lat="48.95786" lon="2.18">
        <ele>28</ele>
        <time>2023-10-26T11:50:20.479+00:00</time>
      </trkpt>
      <trkpt lat="48.95793" lon="2.18002">
        <ele>26</ele>
        <time>2023-10-26T11:50:25.475+00:00</time>
      </trkpt>
      <trkpt lat="48.95799" lon="2.18006">
        <ele>26</ele>
        <time>2023-10-26T11:50:30.477+00:00</time>
      </trkpt>
      <trkpt lat="48.95805" lon="2.18008">
        <ele>26</ele>
        <time>2023-10-26T11:50:35.478+00:00</time>
      </trkpt>
      <trkpt lat="48.95811" lon="2.18013">
        <ele>26</ele>
        <time>2023-10-26T11:50:40.476+00:00</time>
      </trkpt>
      <trkpt lat="48.95817" lon="2.18019">
        <ele>30</ele>
        <time>2023-10-26T11:50:45.480+00:00</time>
      </trkpt>
      <trkpt lat="48.95822" lon="2.18022">
        <ele>26</ele>
        <time>2023-10-26T11:50:49.480+00:00</time>
      </trkpt>
      <trkpt lat="48.95829" lon="2.18025">
        <ele>26</ele>
        <time>2023-10-26T11:50:54.480+00:00</time>
      </trkpt>
      <trkpt lat="48.95834" lon="2.18027">
        <ele>26</ele>
        <time>2023-10-26T11:50:59.484+00:00</time>
      </trkpt>
      <trkpt lat="48.95838" lon="2.1803">
        <ele>26</ele>
        <time>2023-10-26T11:51:04.481+00:00</time>
      </trkpt>
      <trkpt lat="48.95843" lon="2.18033">
        <ele>26</ele>
        <time>2023-10-26T11:51:09.481+00:00</time>
      </trkpt>
      <trkpt lat="48.95848" lon="2.18036">
        <ele>26</ele>
        <time>2023-10-26T11:51:14.479+00:00</time>
      </trkpt>
      <trkpt lat="48.95853" lon="2.18038">
        <ele>26</ele>
        <time>2023-10-26T11:51:18.516+00:00</time>
      </trkpt>
      <trkpt lat="48.95858" lon="2.18039">
        <ele>26</ele>
        <time>2023-10-26T11:51:23.480+00:00</time>
      </trkpt>
      <trkpt lat="48.95863" lon="2.18038">
        <ele>26</ele>
        <time>2023-10-26T11:51:28.479+00:00</time>
      </trkpt>
      <trkpt lat="48.95869" lon="2.18038">
        <ele>26</ele>
        <time>2023-10-26T11:51:33.491+00:00</time>
      </trkpt>
      <trkpt lat="48.95877" lon="2.18038">
        <ele>25</ele>
        <time>2023-10-26T11:51:38.483+00:00</time>
      </trkpt>
      <trkpt lat="48.95883" lon="2.18035">
        <ele>25</ele>
        <time>2023-10-26T11:51:43.482+00:00</time>
      </trkpt>
      <trkpt lat="48.95887" lon="2.18035">
        <ele>25</ele>
        <time>2023-10-26T11:51:48.481+00:00</time>
      </trkpt>
      <trkpt lat="48.95891" lon="2.18032">
        <ele>25</ele>
        <time>2023-10-26T11:51:52.508+00:00</time>
      </trkpt>
      <trkpt lat="48.95896" lon="2.1803">
        <ele>25</ele>
        <time>2023-10-26T11:51:57.476+00:00</time>
      </trkpt>
      <trkpt lat="48.95902" lon="2.18029">
        <ele>25</ele>
        <time>2023-10-26T11:52:02.479+00:00</time>
      </trkpt>
      <trkpt lat="48.95907" lon="2.18029">
        <ele>24</ele>
        <time>2023-10-26T11:52:07.480+00:00</time>
      </trkpt>
      <trkpt lat="48.95912" lon="2.1804">
        <ele>24</ele>
        <time>2023-10-26T11:52:12.482+00:00</time>
      </trkpt>
      <trkpt lat="48.95917" lon="2.18051">
        <ele>25</ele>
        <time>2023-10-26T11:52:17.477+00:00</time>
      </trkpt>
      <trkpt lat="48.95919" lon="2.18063">
        <ele>25</ele>
        <time>2023-10-26T11:52:22.477+00:00</time>
      </trkpt>
      <trkpt lat="48.95925" lon="2.18075">
        <ele>28</ele>
        <time>2023-10-26T11:52:27.476+00:00</time>
      </trkpt>
      <trkpt lat="48.9593" lon="2.18081">
        <ele>28</ele>
        <time>2023-10-26T11:52:31.478+00:00</time>
      </trkpt>
      <trkpt lat="48.95937" lon="2.18089">
        <ele>26</ele>
        <time>2023-10-26T11:52:36.479+00:00</time>
      </trkpt>
      <trkpt lat="48.95942" lon="2.18093">
        <ele>26</ele>
        <time>2023-10-26T11:52:41.475+00:00</time>
      </trkpt>
      <trkpt lat="48.95948" lon="2.18098">
        <ele>33</ele>
        <time>2023-10-26T11:52:46.476+00:00</time>
      </trkpt>
      <trkpt lat="48.95951" lon="2.18104">
        <ele>33</ele>
        <time>2023-10-26T11:52:51.479+00:00</time>
      </trkpt>
      <trkpt lat="48.95956" lon="2.18109">
        <ele>33</ele>
        <time>2023-10-26T11:52:56.477+00:00</time>
      </trkpt>
      <trkpt lat="48.95959" lon="2.18113">
        <ele>30</ele>
        <time>2023-10-26T11:53:01.482+00:00</time>
      </trkpt>
      <trkpt lat="48.95963" lon="2.18117">
        <ele>30</ele>
        <time>2023-10-26T11:53:06.476+00:00</time>
      </trkpt>
      <trkpt lat="48.95966" lon="2.18122">
        <ele>30</ele>
        <time>2023-10-26T11:53:11.479+00:00</time>
      </trkpt>
      <trkpt lat="48.9597" lon="2.18126">
        <ele>39</ele>
        <time>2023-10-26T11:53:15.479+00:00</time>
      </trkpt>
      <trkpt lat="48.95974" lon="2.1813">
        <ele>39</ele>
        <time>2023-10-26T11:53:20.481+00:00</time>
      </trkpt>
      <trkpt lat="48.9598" lon="2.18134">
        <ele>39</ele>
        <time>2023-10-26T11:53:25.476+00:00</time>
      </trkpt>
      <trkpt lat="48.95984" lon="2.18139">
        <ele>39</ele>
        <time>2023-10-26T11:53:30.479+00:00</time>
      </trkpt>
      <trkpt lat="48.95988" lon="2.18144">
        <ele>36</ele>
        <time>2023-10-26T11:53:34.522+00:00</time>
      </trkpt>
      <trkpt lat="48.95991" lon="2.18149">
        <ele>36</ele>
        <time>2023-10-26T11:53:39.493+00:00</time>
      </trkpt>
      <trkpt lat="48.95995" lon="2.18154">
        <ele>43</ele>
        <time>2023-10-26T11:53:44.487+00:00</time>
      </trkpt>
      <trkpt lat="48.95999" lon="2.1816">
        <ele>43</ele>
        <time>2023-10-26T11:53:49.485+00:00</time>
      </trkpt>
      <trkpt lat="48.96003" lon="2.18166">
        <ele>43</ele>
        <time>2023-10-26T11:53:54.483+00:00</time>
      </trkpt>
      <trkpt lat="48.96009" lon="2.18171">
        <ele>43</ele>
        <time>2023-10-26T11:53:59.484+00:00</time>
      </trkpt>
      <trkpt lat="48.96016" lon="2.18177">
        <ele>40</ele>
        <time>2023-10-26T11:54:04.476+00:00</time>
      </trkpt>
      <trkpt lat="48.9602" lon="2.1818">
        <ele>40</ele>
        <time>2023-10-26T11:54:08.473+00:00</time>
      </trkpt>
      <trkpt lat="48.96023" lon="2.18186">
        <ele>46</ele>
        <time>2023-10-26T11:54:13.479+00:00</time>
      </trkpt>
      <trkpt lat="48.96031" lon="2.1819">
        <ele>46</ele>
        <time>2023-10-26T11:54:21.478+00:00</time>
      </trkpt>
      <trkpt lat="48.96036" lon="2.18192">
        <ele>46</ele>
        <time>2023-10-26T11:54:26.484+00:00</time>
      </trkpt>
      <trkpt lat="48.9604" lon="2.18194">
        <ele>46</ele>
        <time>2023-10-26T11:54:31.474+00:00</time>
      </trkpt>
      <trkpt lat="48.96046" lon="2.18197">
        <ele>44</ele>
        <time>2023-10-26T11:54:36.499+00:00</time>
      </trkpt>
      <trkpt lat="48.96051" lon="2.18202">
        <ele>44</ele>
        <time>2023-10-26T11:54:41.473+00:00</time>
      </trkpt>
      <trkpt lat="48.96055" lon="2.18205">
        <ele>44</ele>
        <time>2023-10-26T11:54:46.472+00:00</time>
      </trkpt>
      <trkpt lat="48.96058" lon="2.18209">
        <ele>49</ele>
        <time>2023-10-26T11:54:51.475+00:00</time>
      </trkpt>
      <trkpt lat="48.96061" lon="2.18213">
        <ele>49</ele>
        <time>2023-10-26T11:54:55.492+00:00</time>
      </trkpt>
      <trkpt lat="48.96065" lon="2.18217">
        <ele>49</ele>
        <time>2023-10-26T11:55:00.472+00:00</time>
      </trkpt>
      <trkpt lat="48.96068" lon="2.18222">
        <ele>49</ele>
        <time>2023-10-26T11:55:04.493+00:00</time>
      </trkpt>
      <trkpt lat="48.96073" lon="2.18225">
        <ele>48</ele>
        <time>2023-10-26T11:55:09.488+00:00</time>
      </trkpt>
      <trkpt lat="48.96078" lon="2.18228">
        <ele>48</ele>
        <time>2023-10-26T11:55:14.486+00:00</time>
      </trkpt>
      <trkpt lat="48.96087" lon="2.18231">
        <ele>48</ele>
        <time>2023-10-26T11:55:19.481+00:00</time>
      </trkpt>
      <trkpt lat="48.96092" lon="2.18232">
        <ele>48</ele>
        <time>2023-10-26T11:55:24.493+00:00</time>
      </trkpt>
      <trkpt lat="48.96096" lon="2.18234">
        <ele>48</ele>
        <time>2023-10-26T11:55:29.476+00:00</time>
      </trkpt>
      <trkpt lat="48.961" lon="2.18235">
        <ele>46</ele>
        <time>2023-10-26T11:55:33.523+00:00</time>
      </trkpt>
      <trkpt lat="48.96105" lon="2.18237">
        <ele>53</ele>
        <time>2023-10-26T11:55:38.475+00:00</time>
      </trkpt>
      <trkpt lat="48.9611" lon="2.18239">
        <ele>53</ele>
        <time>2023-10-26T11:55:43.482+00:00</time>
      </trkpt>
      <trkpt lat="48.96115" lon="2.18242">
        <ele>53</ele>
        <time>2023-10-26T11:55:48.472+00:00</time>
      </trkpt>
      <trkpt lat="48.9612" lon="2.18246">
        <ele>53</ele>
        <time>2023-10-26T11:55:53.481+00:00</time>
      </trkpt>
      <trkpt lat="48.96123" lon="2.18249">
        <ele>53</ele>
        <time>2023-10-26T11:55:58.478+00:00</time>
      </trkpt>
      <trkpt lat="48.96129" lon="2.18257">
        <ele>53</ele>
        <time>2023-10-26T11:57:08.477+00:00</time>
      </trkpt>
      <trkpt lat="48.9613" lon="2.18257">
        <ele>53</ele>
        <time>2023-10-26T11:57:12.494+00:00</time>
      </trkpt>
      <trkpt lat="48.96133" lon="2.18261">
        <ele>53</ele>
        <time>2023-10-26T11:57:17.477+00:00</time>
      </trkpt>
      <trkpt lat="48.96136" lon="2.18264">
        <ele>58</ele>
        <time>2023-10-26T11:57:21.475+00:00</time>
      </trkpt>
      <trkpt lat="48.96138" lon="2.18267">
        <ele>58</ele>
        <time>2023-10-26T11:57:25.477+00:00</time>
      </trkpt>
      <trkpt lat="48.96144" lon="2.18271">
        <ele>58</ele>
        <time>2023-10-26T11:57:30.483+00:00</time>
      </trkpt>
      <trkpt lat="48.96149" lon="2.18273">
        <ele>58</ele>
        <time>2023-10-26T11:57:34.475+00:00</time>
      </trkpt>
      <trkpt lat="48.96154" lon="2.18276">
        <ele>58</ele>
        <time>2023-10-26T11:57:39.504+00:00</time>
      </trkpt>
      <trkpt lat="48.96158" lon="2.18279">
        <ele>58</ele>
        <time>2023-10-26T11:57:44.492+00:00</time>
      </trkpt>
      <trkpt lat="48.96161" lon="2.18282">
        <ele>58</ele>
        <time>2023-10-26T11:57:49.475+00:00</time>
      </trkpt>
      <trkpt lat="48.96165" lon="2.18282">
        <ele>58</ele>
        <time>2023-10-26T11:57:54.480+00:00</time>
      </trkpt>
      <trkpt lat="48.96168" lon="2.18283">
        <ele>58</ele>
        <time>2023-10-26T11:57:58.474+00:00</time>
      </trkpt>
      <trkpt lat="48.96174" lon="2.18287">
        <ele>58</ele>
        <time>2023-10-26T11:58:03.477+00:00</time>
      </trkpt>
      <trkpt lat="48.96177" lon="2.18291">
        <ele>58</ele>
        <time>2023-10-26T11:58:07.483+00:00</time>
      </trkpt>
      <trkpt lat="48.96182" lon="2.18293">
        <ele>61</ele>
        <time>2023-10-26T11:58:12.475+00:00</time>
      </trkpt>
      <trkpt lat="48.96186" lon="2.18296">
        <ele>61</ele>
        <time>2023-10-26T11:58:16.481+00:00</time>
      </trkpt>
      <trkpt lat="48.96191" lon="2.18299">
        <ele>61</ele>
        <time>2023-10-26T11:58:21.489+00:00</time>
      </trkpt>
      <trkpt lat="48.96196" lon="2.18296">
        <ele>61</ele>
        <time>2023-10-26T11:58:26.487+00:00</time>
      </trkpt>
      <trkpt lat="48.96202" lon="2.18294">
        <ele>61</ele>
        <time>2023-10-26T11:58:31.489+00:00</time>
      </trkpt>
      <trkpt lat="48.96206" lon="2.18291">
        <ele>57</ele>
        <time>2023-10-26T11:58:36.491+00:00</time>
      </trkpt>
      <trkpt lat="48.96212" lon="2.1829">
        <ele>57</ele>
        <time>2023-10-26T11:58:41.486+00:00</time>
      </trkpt>
      <trkpt lat="48.96217" lon="2.1829">
        <ele>57</ele>
        <time>2023-10-26T11:58:46.479+00:00</time>
      </trkpt>
      <trkpt lat="48.96219" lon="2.18288">
        <ele>57</ele>
        <time>2023-10-26T11:58:51.479+00:00</time>
      </trkpt>
      <trkpt lat="48.96224" lon="2.18287">
        <ele>57</ele>
        <time>2023-10-26T11:58:56.476+00:00</time>
      </trkpt>
      <trkpt lat="48.96229" lon="2.18293">
        <ele>60</ele>
        <time>2023-10-26T11:59:01.482+00:00</time>
      </trkpt>
      <trkpt lat="48.96234" lon="2.18295">
        <ele>60</ele>
        <time>2023-10-26T11:59:06.484+00:00</time>
      </trkpt>
      <trkpt lat="48.96241" lon="2.18297">
        <ele>60</ele>
        <time>2023-10-26T11:59:11.493+00:00</time>
      </trkpt>
      <trkpt lat="48.96245" lon="2.183">
        <ele>60</ele>
        <time>2023-10-26T11:59:15.482+00:00</time>
      </trkpt>
      <trkpt lat="48.96251" lon="2.18302">
        <ele>60</ele>
        <time>2023-10-26T11:59:20.489+00:00</time>
      </trkpt>
      <trkpt lat="48.96257" lon="2.18305">
        <ele>60</ele>
        <time>2023-10-26T11:59:25.483+00:00</time>
      </trkpt>
      <trkpt lat="48.96263" lon="2.18309">
        <ele>60</ele>
        <time>2023-10-26T11:59:30.491+00:00</time>
      </trkpt>
      <trkpt lat="48.9627" lon="2.18312">
        <ele>58</ele>
        <time>2023-10-26T11:59:35.484+00:00</time>
      </trkpt>
      <trkpt lat="48.96276" lon="2.18315">
        <ele>58</ele>
        <time>2023-10-26T11:59:40.490+00:00</time>
      </trkpt>
      <trkpt lat="48.96281" lon="2.18315">
        <ele>58</ele>
        <time>2023-10-26T11:59:44.481+00:00</time>
      </trkpt>
      <trkpt lat="48.96287" lon="2.18316">
        <ele>58</ele>
        <time>2023-10-26T11:59:49.477+00:00</time>
      </trkpt>
      <trkpt lat="48.96292" lon="2.18316">
        <ele>57</ele>
        <time>2023-10-26T11:59:53.476+00:00</time>
      </trkpt>
      <trkpt lat="48.963" lon="2.18316">
        <ele>57</ele>
        <time>2023-10-26T11:59:58.480+00:00</time>
      </trkpt>
      <trkpt lat="48.96308" lon="2.18316">
        <ele>57</ele>
        <time>2023-10-26T12:00:03.480+00:00</time>
      </trkpt>
      <trkpt lat="48.96313" lon="2.18316">
        <ele>57</ele>
        <time>2023-10-26T12:00:08.481+00:00</time>
      </trkpt>
      <trkpt lat="48.96317" lon="2.18314">
        <ele>57</ele>
        <time>2023-10-26T12:00:12.523+00:00</time>
      </trkpt>
      <trkpt lat="48.96323" lon="2.18313">
        <ele>57</ele>
        <time>2023-10-26T12:00:17.479+00:00</time>
      </trkpt>
      <trkpt lat="48.96324" lon="2.18312">
        <ele>57</ele>
        <time>2023-10-26T12:00:21.485+00:00</time>
      </trkpt>
      <trkpt lat="48.96327" lon="2.18311">
        <ele>57</ele>
        <time>2023-10-26T12:00:26.478+00:00</time>
      </trkpt>
      <trkpt lat="48.96333" lon="2.18313">
        <ele>57</ele>
        <time>2023-10-26T12:00:31.480+00:00</time>
      </trkpt>
      <trkpt lat="48.96342" lon="2.18314">
        <ele>57</ele>
        <time>2023-10-26T12:00:35.521+00:00</time>
      </trkpt>
      <trkpt lat="48.96352" lon="2.18316">
        <ele>58</ele>
        <time>2023-10-26T12:00:40.487+00:00</time>
      </trkpt>
      <trkpt lat="48.96361" lon="2.18315">
        <ele>58</ele>
        <time>2023-10-26T12:00:45.477+00:00</time>
      </trkpt>
      <trkpt lat="48.96369" lon="2.18314">
        <ele>58</ele>
        <time>2023-10-26T12:00:50.476+00:00</time>
      </trkpt>
      <trkpt lat="48.96374" lon="2.18315">
        <ele>58</ele>
        <time>2023-10-26T12:00:54.481+00:00</time>
      </trkpt>
      <trkpt lat="48.96379" lon="2.18316">
        <ele>60</ele>
        <time>2023-10-26T12:00:59.480+00:00</time>
      </trkpt>
      <trkpt lat="48.96385" lon="2.18318">
        <ele>60</ele>
        <time>2023-10-26T12:01:04.474+00:00</time>
      </trkpt>
      <trkpt lat="48.96392" lon="2.1832">
        <ele>65</ele>
        <time>2023-10-26T12:01:09.479+00:00</time>
      </trkpt>
      <trkpt lat="48.96398" lon="2.18321">
        <ele>65</ele>
        <time>2023-10-26T12:01:14.478+00:00</time>
      </trkpt>
      <trkpt lat="48.96407" lon="2.1832">
        <ele>65</ele>
        <time>2023-10-26T12:02:15.486+00:00</time>
      </trkpt>
      <trkpt lat="48.96407" lon="2.1832">
        <ele>65</ele>
        <time>2023-10-26T12:02:20.475+00:00</time>
      </trkpt>
      <trkpt lat="48.96407" lon="2.1832">
        <ele>65</ele>
        <time>2023-10-26T12:02:25.482+00:00</time>
      </trkpt>
      <trkpt lat="48.96408" lon="2.1832">
        <ele>65</ele>
        <time>2023-10-26T12:02:30.484+00:00</time>
      </trkpt>
      <trkpt lat="48.96413" lon="2.18321">
        <ele>65</ele>
        <time>2023-10-26T12:02:34.479+00:00</time>
      </trkpt>
      <trkpt lat="48.96418" lon="2.18322">
        <ele>65</ele>
        <time>2023-10-26T12:02:38.514+00:00</time>
      </trkpt>
      <trkpt lat="48.96423" lon="2.18323">
        <ele>65</ele>
        <time>2023-10-26T12:02:43.478+00:00</time>
      </trkpt>
      <trkpt lat="48.96429" lon="2.18324">
        <ele>65</ele>
        <time>2023-10-26T12:02:48.481+00:00</time>
      </trkpt>
      <trkpt lat="48.96435" lon="2.18324">
        <ele>65</ele>
        <time>2023-10-26T12:02:53.479+00:00</time>
      </trkpt>
      <trkpt lat="48.96441" lon="2.18325">
        <ele>65</ele>
        <time>2023-10-26T12:02:58.472+00:00</time>
      </trkpt>
      <trkpt lat="48.96445" lon="2.18325">
        <ele>65</ele>
        <time>2023-10-26T12:03:02.477+00:00</time>
      </trkpt>
      <trkpt lat="48.96449" lon="2.18324">
        <ele>65</ele>
        <time>2023-10-26T12:03:07.480+00:00</time>
      </trkpt>
      <trkpt lat="48.96453" lon="2.18324">
        <ele>65</ele>
        <time>2023-10-26T12:03:11.486+00:00</time>
      </trkpt>
      <trkpt lat="48.9646" lon="2.18325">
        <ele>65</ele>
        <time>2023-10-26T12:03:16.496+00:00</time>
      </trkpt>
      <trkpt lat="48.96464" lon="2.18329">
        <ele>65</ele>
        <time>2023-10-26T12:03:21.484+00:00</time>
      </trkpt>
      <trkpt lat="48.9647" lon="2.18329">
        <ele>65</ele>
        <time>2023-10-26T12:03:26.491+00:00</time>
      </trkpt>
      <trkpt lat="48.96476" lon="2.18328">
        <ele>65</ele>
        <time>2023-10-26T12:03:31.487+00:00</time>
      </trkpt>
      <trkpt lat="48.96484" lon="2.1833">
        <ele>65</ele>
        <time>2023-10-26T12:03:36.492+00:00</time>
      </trkpt>
      <trkpt lat="48.96491" lon="2.1833">
        <ele>64</ele>
        <time>2023-10-26T12:03:41.476+00:00</time>
      </trkpt>
      <trkpt lat="48.96498" lon="2.18328">
        <ele>64</ele>
        <time>2023-10-26T12:03:46.479+00:00</time>
      </trkpt>
      <trkpt lat="48.96503" lon="2.18326">
        <ele>64</ele>
        <time>2023-10-26T12:03:50.494+00:00</time>
      </trkpt>
      <trkpt lat="48.96515" lon="2.18321">
        <ele>64</ele>
        <time>2023-10-26T12:04:14.477+00:00</time>
      </trkpt>
      <trkpt lat="48.96515" lon="2.18321">
        <ele>64</ele>
        <time>2023-10-26T12:04:19.479+00:00</time>
      </trkpt>
      <trkpt lat="48.96518" lon="2.1832">
        <ele>64</ele>
        <time>2023-10-26T12:04:24.478+00:00</time>
      </trkpt>
      <trkpt lat="48.96523" lon="2.18319">
        <ele>58</ele>
        <time>2023-10-26T12:04:29.474+00:00</time>
      </trkpt>
      <trkpt lat="48.9653" lon="2.18317">
        <ele>58</ele>
        <time>2023-10-26T12:04:34.473+00:00</time>
      </trkpt>
      <trkpt lat="48.96534" lon="2.18315">
        <ele>58</ele>
        <time>2023-10-26T12:04:38.483+00:00</time>
      </trkpt>
      <trkpt lat="48.96541" lon="2.18313">
        <ele>58</ele>
        <time>2023-10-26T12:04:43.482+00:00</time>
      </trkpt>
      <trkpt lat="48.96548" lon="2.18313">
        <ele>57</ele>
        <time>2023-10-26T12:04:48.478+00:00</time>
      </trkpt>
      <trkpt lat="48.96554" lon="2.18312">
        <ele>57</ele>
        <time>2023-10-26T12:04:53.480+00:00</time>
      </trkpt>
      <trkpt lat="48.9656" lon="2.18309">
        <ele>57</ele>
        <time>2023-10-26T12:04:58.480+00:00</time>
      </trkpt>
      <trkpt lat="48.96566" lon="2.18309">
        <ele>57</ele>
        <time>2023-10-26T12:05:03.479+00:00</time>
      </trkpt>
      <trkpt lat="48.9657" lon="2.1831">
        <ele>60</ele>
        <time>2023-10-26T12:05:07.491+00:00</time>
      </trkpt>
      <trkpt lat="48.96575" lon="2.18312">
        <ele>60</ele>
        <time>2023-10-26T12:05:11.483+00:00</time>
      </trkpt>
      <trkpt lat="48.9658" lon="2.18313">
        <ele>60</ele>
        <time>2023-10-26T12:05:16.483+00:00</time>
      </trkpt>
      <trkpt lat="48.96583" lon="2.18316">
        <ele>60</ele>
        <time>2023-10-26T12:05:21.484+00:00</time>
      </trkpt>
      <trkpt lat="48.96585" lon="2.18315">
        <ele>60</ele>
        <time>2023-10-26T12:05:26.481+00:00</time>
      </trkpt>
      <trkpt lat="48.96589" lon="2.18316">
        <ele>60</ele>
        <time>2023-10-26T12:05:31.481+00:00</time>
      </trkpt>
      <trkpt lat="48.96593" lon="2.18315">
        <ele>60</ele>
        <time>2023-10-26T12:05:36.483+00:00</time>
      </trkpt>
      <trkpt lat="48.96596" lon="2.18314">
        <ele>60</ele>
        <time>2023-10-26T12:05:40.525+00:00</time>
      </trkpt>
      <trkpt lat="48.966" lon="2.18314">
        <ele>60</ele>
        <time>2023-10-26T12:05:45.474+00:00</time>
      </trkpt>
      <trkpt lat="48.96606" lon="2.18313">
        <ele>60</ele>
        <time>2023-10-26T12:05:50.475+00:00</time>
      </trkpt>
      <trkpt lat="48.96612" lon="2.18312">
        <ele>60</ele>
        <time>2023-10-26T12:05:55.474+00:00</time>
      </trkpt>
      <trkpt lat="48.96618" lon="2.1831">
        <ele>60</ele>
        <time>2023-10-26T12:05:59.481+00:00</time>
      </trkpt>
      <trkpt lat="48.96625" lon="2.1831">
        <ele>60</ele>
        <time>2023-10-26T12:06:04.478+00:00</time>
      </trkpt>
      <trkpt lat="48.96632" lon="2.18311">
        <ele>59</ele>
        <time>2023-10-26T12:06:09.476+00:00</time>
      </trkpt>
      <trkpt lat="48.96639" lon="2.18313">
        <ele>59</ele>
        <time>2023-10-26T12:06:14.483+00:00</time>
      </trkpt>
      <trkpt lat="48.96644" lon="2.18315">
        <ele>59</ele>
        <time>2023-10-26T12:06:18.617+00:00</time>
      </trkpt>
      <trkpt lat="48.96649" lon="2.18315">
        <ele>59</ele>
        <time>2023-10-26T12:06:23.482+00:00</time>
      </trkpt>
      <trkpt lat="48.96656" lon="2.18315">
        <ele>62</ele>
        <time>2023-10-26T12:06:27.486+00:00</time>
      </trkpt>
      <trkpt lat="48.96665" lon="2.18316">
        <ele>62</ele>
        <time>2023-10-26T12:06:32.477+00:00</time>
      </trkpt>
      <trkpt lat="48.96671" lon="2.18317">
        <ele>62</ele>
        <time>2023-10-26T12:06:37.482+00:00</time>
      </trkpt>
      <trkpt lat="48.96678" lon="2.18316">
        <ele>62</ele>
        <time>2023-10-26T12:06:41.479+00:00</time>
      </trkpt>
      <trkpt lat="48.96685" lon="2.18315">
        <ele>64</ele>
        <time>2023-10-26T12:06:46.483+00:00</time>
      </trkpt>
      <trkpt lat="48.96692" lon="2.18313">
        <ele>64</ele>
        <time>2023-10-26T12:06:51.492+00:00</time>
      </trkpt>
      <trkpt lat="48.96697" lon="2.18311">
        <ele>64</ele>
        <time>2023-10-26T12:06:56.476+00:00</time>
      </trkpt>
      <trkpt lat="48.96703" lon="2.18309">
        <ele>64</ele>
        <time>2023-10-26T12:07:01.486+00:00</time>
      </trkpt>
      <trkpt lat="48.96711" lon="2.1831">
        <ele>64</ele>
        <time>2023-10-26T12:07:06.483+00:00</time>
      </trkpt>
      <trkpt lat="48.96718" lon="2.1831">
        <ele>64</ele>
        <time>2023-10-26T12:07:11.489+00:00</time>
      </trkpt>
      <trkpt lat="48.96724" lon="2.18309">
        <ele>64</ele>
        <time>2023-10-26T12:07:16.478+00:00</time>
      </trkpt>
      <trkpt lat="48.96728" lon="2.18306">
        <ele>64</ele>
        <time>2023-10-26T12:07:20.477+00:00</time>
      </trkpt>
      <trkpt lat="48.96733" lon="2.18305">
        <ele>64</ele>
        <time>2023-10-26T12:07:25.478+00:00</time>
      </trkpt>
      <trkpt lat="48.96738" lon="2.18302">
        <ele>64</ele>
        <time>2023-10-26T12:07:30.481+00:00</time>
      </trkpt>
      <trkpt lat="48.96744" lon="2.183">
        <ele>64</ele>
        <time>2023-10-26T12:07:35.480+00:00</time>
      </trkpt>
      <trkpt lat="48.9675" lon="2.18297">
        <ele>64</ele>
        <time>2023-10-26T12:07:40.481+00:00</time>
      </trkpt>
      <trkpt lat="48.96754" lon="2.18296">
        <ele>64</ele>
        <time>2023-10-26T12:07:45.478+00:00</time>
      </trkpt>
      <trkpt lat="48.96757" lon="2.18296">
        <ele>64</ele>
        <time>2023-10-26T12:07:50.483+00:00</time>
      </trkpt>
      <trkpt lat="48.96759" lon="2.18297">
        <ele>64</ele>
        <time>2023-10-26T12:07:54.478+00:00</time>
      </trkpt>
      <trkpt lat="48.96759" lon="2.18297">
        <ele>64</ele>
        <time>2023-10-26T12:07:59.478+00:00</time>
      </trkpt>
      <trkpt lat="48.96762" lon="2.18296">
        <ele>64</ele>
        <time>2023-10-26T12:08:04.480+00:00</time>
      </trkpt>
      <trkpt lat="48.96767" lon="2.18297">
        <ele>64</ele>
        <time>2023-10-26T12:08:09.476+00:00</time>
      </trkpt>
      <trkpt lat="48.96773" lon="2.18297">
        <ele>64</ele>
        <time>2023-10-26T12:08:14.480+00:00</time>
      </trkpt>
      <trkpt lat="48.96779" lon="2.18295">
        <ele>64</ele>
        <time>2023-10-26T12:08:19.479+00:00</time>
      </trkpt>
      <trkpt lat="48.96783" lon="2.18296">
        <ele>64</ele>
        <time>2023-10-26T12:08:23.477+00:00</time>
      </trkpt>
      <trkpt lat="48.96784" lon="2.18296">
        <ele>64</ele>
        <time>2023-10-26T12:08:28.537+00:00</time>
      </trkpt>
      <trkpt lat="48.96786" lon="2.18295">
        <ele>64</ele>
        <time>2023-10-26T12:08:33.478+00:00</time>
      </trkpt>
      <trkpt lat="48.96789" lon="2.18294">
        <ele>64</ele>
        <time>2023-10-26T12:08:37.485+00:00</time>
      </trkpt>
      <trkpt lat="48.96794" lon="2.18294">
        <ele>64</ele>
        <time>2023-10-26T12:08:42.485+00:00</time>
      </trkpt>
      <trkpt lat="48.96799" lon="2.18292">
        <ele>64</ele>
        <time>2023-10-26T12:08:47.490+00:00</time>
      </trkpt>
      <trkpt lat="48.96804" lon="2.18288">
        <ele>62</ele>
        <time>2023-10-26T12:08:52.482+00:00</time>
      </trkpt>
      <trkpt lat="48.96811" lon="2.18286">
        <ele>62</ele>
        <time>2023-10-26T12:08:57.481+00:00</time>
      </trkpt>
      <trkpt lat="48.96815" lon="2.18286">
        <ele>62</ele>
        <time>2023-10-26T12:09:02.475+00:00</time>
      </trkpt>
      <trkpt lat="48.96822" lon="2.18285">
        <ele>64</ele>
        <time>2023-10-26T12:09:07.480+00:00</time>
      </trkpt>
      <trkpt lat="48.96831" lon="2.18286">
        <ele>64</ele>
        <time>2023-10-26T12:09:12.485+00:00</time>
      </trkpt>
      <trkpt lat="48.96838" lon="2.18286">
        <ele>64</ele>
        <time>2023-10-26T12:09:17.484+00:00</time>
      </trkpt>
      <trkpt lat="48.96844" lon="2.18286">
        <ele>64</ele>
        <time>2023-10-26T12:09:22.479+00:00</time>
      </trkpt>
      <trkpt lat="48.9685" lon="2.18286">
        <ele>65</ele>
        <time>2023-10-26T12:09:27.488+00:00</time>
      </trkpt>
      <trkpt lat="48.96854" lon="2.18283">
        <ele>65</ele>
        <time>2023-10-26T12:09:31.514+00:00</time>
      </trkpt>
      <trkpt lat="48.96859" lon="2.18282">
        <ele>65</ele>
        <time>2023-10-26T12:09:36.480+00:00</time>
      </trkpt>
      <trkpt lat="48.96865" lon="2.18279">
        <ele>65</ele>
        <time>2023-10-26T12:09:41.483+00:00</time>
      </trkpt>
      <trkpt lat="48.9687" lon="2.18275">
        <ele>65</ele>
        <time>2023-10-26T12:09:46.481+00:00</time>
      </trkpt>
      <trkpt lat="48.96877" lon="2.18274">
        <ele>65</ele>
        <time>2023-10-26T12:09:51.479+00:00</time>
      </trkpt>
      <trkpt lat="48.96883" lon="2.18271">
        <ele>65</ele>
        <time>2023-10-26T12:09:56.483+00:00</time>
      </trkpt>
      <trkpt lat="48.96888" lon="2.18271">
        <ele>65</ele>
        <time>2023-10-26T12:10:00.492+00:00</time>
      </trkpt>
      <trkpt lat="48.96896" lon="2.18272">
        <ele>65</ele>
        <time>2023-10-26T12:10:05.486+00:00</time>
      </trkpt>
      <trkpt lat="48.96902" lon="2.18273">
        <ele>65</ele>
        <time>2023-10-26T12:10:10.479+00:00</time>
      </trkpt>
      <trkpt lat="48.96908" lon="2.18272">
        <ele>64</ele>
        <time>2023-10-26T12:10:15.479+00:00</time>
      </trkpt>
      <trkpt lat="48.96914" lon="2.18269">
        <ele>64</ele>
        <time>2023-10-26T12:10:20.479+00:00</time>
      </trkpt>
      <trkpt lat="48.96918" lon="2.18266">
        <ele>64</ele>
        <time>2023-10-26T12:10:24.476+00:00</time>
      </trkpt>
      <trkpt lat="48.96925" lon="2.18261">
        <ele>62</ele>
        <time>2023-10-26T12:10:29.479+00:00</time>
      </trkpt>
      <trkpt lat="48.96931" lon="2.18259">
        <ele>63</ele>
        <time>2023-10-26T12:10:34.484+00:00</time>
      </trkpt>
      <trkpt lat="48.96938" lon="2.18257">
        <ele>63</ele>
        <time>2023-10-26T12:10:39.489+00:00</time>
      </trkpt>
      <trkpt lat="48.96946" lon="2.18256">
        <ele>63</ele>
        <time>2023-10-26T12:10:44.487+00:00</time>
      </trkpt>
      <trkpt lat="48.96955" lon="2.18256">
        <ele>63</ele>
        <time>2023-10-26T12:10:49.481+00:00</time>
      </trkpt>
      <trkpt lat="48.96962" lon="2.18262">
        <ele>63</ele>
        <time>2023-10-26T12:10:54.484+00:00</time>
      </trkpt>
      <trkpt lat="48.9697" lon="2.18265">
        <ele>66</ele>
        <time>2023-10-26T12:10:58.530+00:00</time>
      </trkpt>
      <trkpt lat="48.96977" lon="2.18261">
        <ele>63</ele>
        <time>2023-10-26T12:11:03.483+00:00</time>
      </trkpt>
      <trkpt lat="48.96982" lon="2.18249">
        <ele>63</ele>
        <time>2023-10-26T12:11:08.484+00:00</time>
      </trkpt>
      <trkpt lat="48.96984" lon="2.18242">
        <ele>63</ele>
        <time>2023-10-26T12:11:13.479+00:00</time>
      </trkpt>
      <trkpt lat="48.96985" lon="2.18237">
        <ele>63</ele>
        <time>2023-10-26T12:11:18.481+00:00</time>
      </trkpt>
      <trkpt lat="48.96985" lon="2.18232">
        <ele>60</ele>
        <time>2023-10-26T12:11:23.486+00:00</time>
      </trkpt>
      <trkpt lat="48.96984" lon="2.18226">
        <ele>60</ele>
        <time>2023-10-26T12:11:37.537+00:00</time>
      </trkpt>
      <trkpt lat="48.96984" lon="2.18225">
        <ele>60</ele>
        <time>2023-10-26T12:11:41.514+00:00</time>
      </trkpt>
      <trkpt lat="48.96988" lon="2.18223">
        <ele>61</ele>
        <time>2023-10-26T12:11:46.475+00:00</time>
      </trkpt>
      <trkpt lat="48.96991" lon="2.18222">
        <ele>61</ele>
        <time>2023-10-26T12:11:50.475+00:00</time>
      </trkpt>
      <trkpt lat="48.96996" lon="2.1822">
        <ele>61</ele>
        <time>2023-10-26T12:11:55.477+00:00</time>
      </trkpt>
      <trkpt lat="48.97001" lon="2.18218">
        <ele>61</ele>
        <time>2023-10-26T12:12:00.477+00:00</time>
      </trkpt>
      <trkpt lat="48.97007" lon="2.18216">
        <ele>61</ele>
        <time>2023-10-26T12:12:05.480+00:00</time>
      </trkpt>
      <trkpt lat="48.97014" lon="2.18214">
        <ele>65</ele>
        <time>2023-10-26T12:12:10.478+00:00</time>
      </trkpt>
      <trkpt lat="48.9702" lon="2.18211">
        <ele>65</ele>
        <time>2023-10-26T12:12:15.474+00:00</time>
      </trkpt>
      <trkpt lat="48.97026" lon="2.18207">
        <ele>61</ele>
        <time>2023-10-26T12:12:20.478+00:00</time>
      </trkpt>
      <trkpt lat="48.97032" lon="2.18206">
        <ele>61</ele>
        <time>2023-10-26T12:12:25.477+00:00</time>
      </trkpt>
      <trkpt lat="48.97037" lon="2.18203">
        <ele>61</ele>
        <time>2023-10-26T12:12:30.482+00:00</time>
      </trkpt>
      <trkpt lat="48.97042" lon="2.182">
        <ele>63</ele>
        <time>2023-10-26T12:12:35.484+00:00</time>
      </trkpt>
      <trkpt lat="48.97046" lon="2.18198">
        <ele>63</ele>
        <time>2023-10-26T12:12:40.476+00:00</time>
      </trkpt>
      <trkpt lat="48.9705" lon="2.18196">
        <ele>63</ele>
        <time>2023-10-26T12:12:44.493+00:00</time>
      </trkpt>
      <trkpt lat="48.97055" lon="2.18192">
        <ele>63</ele>
        <time>2023-10-26T12:12:49.483+00:00</time>
      </trkpt>
      <trkpt lat="48.97056" lon="2.1819">
        <ele>63</ele>
        <time>2023-10-26T12:12:53.480+00:00</time>
      </trkpt>
      <trkpt lat="48.97056" lon="2.18189">
        <ele>63</ele>
        <time>2023-10-26T12:13:08.482+00:00</time>
      </trkpt>
      <trkpt lat="48.97064" lon="2.18183">
        <ele>63</ele>
        <time>2023-10-26T12:13:13.476+00:00</time>
      </trkpt>
      <trkpt lat="48.97069" lon="2.18176">
        <ele>59</ele>
        <time>2023-10-26T12:13:18.478+00:00</time>
      </trkpt>
      <trkpt lat="48.97074" lon="2.18171">
        <ele>59</ele>
        <time>2023-10-26T12:13:22.472+00:00</time>
      </trkpt>
      <trkpt lat="48.97081" lon="2.18167">
        <ele>59</ele>
        <time>2023-10-26T12:13:27.475+00:00</time>
      </trkpt>
      <trkpt lat="48.97088" lon="2.18164">
        <ele>59</ele>
        <time>2023-10-26T12:13:32.475+00:00</time>
      </trkpt>
      <trkpt lat="48.97095" lon="2.18159">
        <ele>59</ele>
        <time>2023-10-26T12:13:37.475+00:00</time>
      </trkpt>
      <trkpt lat="48.97101" lon="2.18155">
        <ele>60</ele>
        <time>2023-10-26T12:13:42.485+00:00</time>
      </trkpt>
      <trkpt lat="48.97108" lon="2.1815">
        <ele>57</ele>
        <time>2023-10-26T12:13:47.477+00:00</time>
      </trkpt>
      <trkpt lat="48.97113" lon="2.18145">
        <ele>57</ele>
        <time>2023-10-26T12:13:52.482+00:00</time>
      </trkpt>
      <trkpt lat="48.97117" lon="2.1814">
        <ele>57</ele>
        <time>2023-10-26T12:13:57.480+00:00</time>
      </trkpt>
      <trkpt lat="48.97124" lon="2.18133">
        <ele>57</ele>
        <time>2023-10-26T12:14:02.483+00:00</time>
      </trkpt>
      <trkpt lat="48.97131" lon="2.18128">
        <ele>62</ele>
        <time>2023-10-26T12:14:07.485+00:00</time>
      </trkpt>
      <trkpt lat="48.97136" lon="2.18122">
        <ele>57</ele>
        <time>2023-10-26T12:14:12.482+00:00</time>
      </trkpt>
      <trkpt lat="48.97141" lon="2.18115">
        <ele>57</ele>
        <time>2023-10-26T12:14:17.483+00:00</time>
      </trkpt>
      <trkpt lat="48.97145" lon="2.18111">
        <ele>57</ele>
        <time>2023-10-26T12:14:22.482+00:00</time>
      </trkpt>
      <trkpt lat="48.97145" lon="2.18111">
        <ele>57</ele>
        <time>2023-10-26T12:14:27.482+00:00</time>
      </trkpt>
      <trkpt lat="48.97144" lon="2.18107">
        <ele>57</ele>
        <time>2023-10-26T12:16:30.475+00:00</time>
      </trkpt>
      <trkpt lat="48.97144" lon="2.18107">
        <ele>57</ele>
        <time>2023-10-26T12:16:35.529+00:00</time>
      </trkpt>
      <trkpt lat="48.97146" lon="2.18106">
        <ele>57</ele>
        <time>2023-10-26T12:16:40.481+00:00</time>
      </trkpt>
      <trkpt lat="48.97148" lon="2.18103">
        <ele>57</ele>
        <time>2023-10-26T12:16:44.484+00:00</time>
      </trkpt>
      <trkpt lat="48.97152" lon="2.181">
        <ele>57</ele>
        <time>2023-10-26T12:16:49.477+00:00</time>
      </trkpt>
      <trkpt lat="48.97159" lon="2.18095">
        <ele>59</ele>
        <time>2023-10-26T12:16:57.481+00:00</time>
      </trkpt>
      <trkpt lat="48.97162" lon="2.18093">
        <ele>59</ele>
        <time>2023-10-26T12:17:01.495+00:00</time>
      </trkpt>
      <trkpt lat="48.97163" lon="2.1809">
        <ele>59</ele>
        <time>2023-10-26T12:17:06.486+00:00</time>
      </trkpt>
      <trkpt lat="48.97163" lon="2.1809">
        <ele>59</ele>
        <time>2023-10-26T12:17:11.486+00:00</time>
      </trkpt>
      <trkpt lat="48.97166" lon="2.18087">
        <ele>59</ele>
        <time>2023-10-26T12:17:15.527+00:00</time>
      </trkpt>
      <trkpt lat="48.97171" lon="2.18084">
        <ele>59</ele>
        <time>2023-10-26T12:17:20.493+00:00</time>
      </trkpt>
      <trkpt lat="48.97175" lon="2.18081">
        <ele>59</ele>
        <time>2023-10-26T12:17:25.489+00:00</time>
      </trkpt>
      <trkpt lat="48.9718" lon="2.18078">
        <ele>59</ele>
        <time>2023-10-26T12:17:30.492+00:00</time>
      </trkpt>
      <trkpt lat="48.97185" lon="2.18074">
        <ele>59</ele>
        <time>2023-10-26T12:17:35.481+00:00</time>
      </trkpt>
      <trkpt lat="48.97189" lon="2.1807">
        <ele>59</ele>
        <time>2023-10-26T12:17:40.484+00:00</time>
      </trkpt>
      <trkpt lat="48.97193" lon="2.18066">
        <ele>55</ele>
        <time>2023-10-26T12:17:44.478+00:00</time>
      </trkpt>
      <trkpt lat="48.97198" lon="2.1806">
        <ele>55</ele>
        <time>2023-10-26T12:17:49.483+00:00</time>
      </trkpt>
      <trkpt lat="48.97205" lon="2.18057">
        <ele>55</ele>
        <time>2023-10-26T12:17:54.480+00:00</time>
      </trkpt>
      <trkpt lat="48.97209" lon="2.18053">
        <ele>49</ele>
        <time>2023-10-26T12:17:59.479+00:00</time>
      </trkpt>
      <trkpt lat="48.97213" lon="2.18047">
        <ele>49</ele>
        <time>2023-10-26T12:18:04.483+00:00</time>
      </trkpt>
      <trkpt lat="48.97216" lon="2.18041">
        <ele>44</ele>
        <time>2023-10-26T12:18:09.480+00:00</time>
      </trkpt>
      <trkpt lat="48.97219" lon="2.18038">
        <ele>44</ele>
        <time>2023-10-26T12:18:14.480+00:00</time>
      </trkpt>
      <trkpt lat="48.97222" lon="2.18035">
        <ele>44</ele>
        <time>2023-10-26T12:18:18.479+00:00</time>
      </trkpt>
      <trkpt lat="48.97227" lon="2.18033">
        <ele>44</ele>
        <time>2023-10-26T12:18:23.480+00:00</time>
      </trkpt>
      <trkpt lat="48.9723" lon="2.18028">
        <ele>44</ele>
        <time>2023-10-26T12:18:28.480+00:00</time>
      </trkpt>
      <trkpt lat="48.97233" lon="2.18024">
        <ele>44</ele>
        <time>2023-10-26T12:18:32.481+00:00</time>
      </trkpt>
      <trkpt lat="48.97235" lon="2.18021">
        <ele>44</ele>
        <time>2023-10-26T12:18:36.490+00:00</time>
      </trkpt>
      <trkpt lat="48.97239" lon="2.18017">
        <ele>39</ele>
        <time>2023-10-26T12:18:41.528+00:00</time>
      </trkpt>
      <trkpt lat="48.97242" lon="2.18011">
        <ele>36</ele>
        <time>2023-10-26T12:18:46.481+00:00</time>
      </trkpt>
      <trkpt lat="48.97246" lon="2.18004">
        <ele>36</ele>
        <time>2023-10-26T12:18:51.495+00:00</time>
      </trkpt>
      <trkpt lat="48.9725" lon="2.18">
        <ele>36</ele>
        <time>2023-10-26T12:18:56.484+00:00</time>
      </trkpt>
      <trkpt lat="48.97253" lon="2.17997">
        <ele>36</ele>
        <time>2023-10-26T12:19:01.488+00:00</time>
      </trkpt>
      <trkpt lat="48.97258" lon="2.17995">
        <ele>36</ele>
        <time>2023-10-26T12:19:06.482+00:00</time>
      </trkpt>
      <trkpt lat="48.97263" lon="2.17991">
        <ele>36</ele>
        <time>2023-10-26T12:19:11.486+00:00</time>
      </trkpt>
      <trkpt lat="48.97267" lon="2.17986">
        <ele>34</ele>
        <time>2023-10-26T12:19:16.482+00:00</time>
      </trkpt>
      <trkpt lat="48.97269" lon="2.17982">
        <ele>33</ele>
        <time>2023-10-26T12:19:21.478+00:00</time>
      </trkpt>
      <trkpt lat="48.97273" lon="2.17979">
        <ele>33</ele>
        <time>2023-10-26T12:19:26.485+00:00</time>
      </trkpt>
      <trkpt lat="48.97275" lon="2.17978">
        <ele>33</ele>
        <time>2023-10-26T12:19:30.475+00:00</time>
      </trkpt>
      <trkpt lat="48.97279" lon="2.17975">
        <ele>33</ele>
        <time>2023-10-26T12:19:35.480+00:00</time>
      </trkpt>
      <trkpt lat="48.97282" lon="2.17969">
        <ele>33</ele>
        <time>2023-10-26T12:19:40.483+00:00</time>
      </trkpt>
      <trkpt lat="48.97286" lon="2.17965">
        <ele>33</ele>
        <time>2023-10-26T12:19:45.481+00:00</time>
      </trkpt>
      <trkpt lat="48.97288" lon="2.1796">
        <ele>33</ele>
        <time>2023-10-26T12:19:50.480+00:00</time>
      </trkpt>
      <trkpt lat="48.97293" lon="2.17956">
        <ele>32</ele>
        <time>2023-10-26T12:19:55.476+00:00</time>
      </trkpt>
      <trkpt lat="48.97301" lon="2.17956">
        <ele>32</ele>
        <time>2023-10-26T12:20:00.477+00:00</time>
      </trkpt>
      <trkpt lat="48.97306" lon="2.17959">
        <ele>35</ele>
        <time>2023-10-26T12:20:04.479+00:00</time>
      </trkpt>
      <trkpt lat="48.97313" lon="2.1796">
        <ele>35</ele>
        <time>2023-10-26T12:20:09.512+00:00</time>
      </trkpt>
      <trkpt lat="48.97319" lon="2.17959">
        <ele>35</ele>
        <time>2023-10-26T12:20:14.476+00:00</time>
      </trkpt>
      <trkpt lat="48.97324" lon="2.17961">
        <ele>38</ele>
        <time>2023-10-26T12:20:18.488+00:00</time>
      </trkpt>
      <trkpt lat="48.97325" lon="2.17966">
        <ele>38</ele>
        <time>2023-10-26T12:20:23.480+00:00</time>
      </trkpt>
      <trkpt lat="48.97326" lon="2.17967">
        <ele>38</ele>
        <time>2023-10-26T12:20:27.489+00:00</time>
      </trkpt>
      <trkpt lat="48.97328" lon="2.1797">
        <ele>38</ele>
        <time>2023-10-26T12:20:32.482+00:00</time>
      </trkpt>
      <trkpt lat="48.97332" lon="2.17974">
        <ele>38</ele>
        <time>2023-10-26T12:20:36.519+00:00</time>
      </trkpt>
      <trkpt lat="48.97338" lon="2.1798">
        <ele>38</ele>
        <time>2023-10-26T12:20:41.481+00:00</time>
      </trkpt>
      <trkpt lat="48.97342" lon="2.17982">
        <ele>38</ele>
        <time>2023-10-26T12:20:46.479+00:00</time>
      </trkpt>
      <trkpt lat="48.97346" lon="2.17987">
        <ele>42</ele>
        <time>2023-10-26T12:20:51.478+00:00</time>
      </trkpt>
      <trkpt lat="48.97348" lon="2.17988">
        <ele>45</ele>
        <time>2023-10-26T12:20:54.300+00:00</time>
      </trkpt>
      <trkpt lat="48.9735" lon="2.17994">
        <ele>45</ele>
        <time>2023-10-26T12:21:01.480+00:00</time>
      </trkpt>
      <trkpt lat="48.97353" lon="2.18">
        <ele>45</ele>
        <time>2023-10-26T12:21:06.480+00:00</time>
      </trkpt>
      <trkpt lat="48.97356" lon="2.18006">
        <ele>45</ele>
        <time>2023-10-26T12:21:10.515+00:00</time>
      </trkpt>
      <trkpt lat="48.97355" lon="2.18013">
        <ele>45</ele>
        <time>2023-10-26T12:21:15.486+00:00</time>
      </trkpt>
      <trkpt lat="48.97352" lon="2.18018">
        <ele>49</ele>
        <time>2023-10-26T12:21:20.484+00:00</time>
      </trkpt>
      <trkpt lat="48.97349" lon="2.18023">
        <ele>49</ele>
        <time>2023-10-26T12:21:25.480+00:00</time>
      </trkpt>
      <trkpt lat="48.97349" lon="2.18027">
        <ele>49</ele>
        <time>2023-10-26T12:21:29.480+00:00</time>
      </trkpt>
      <trkpt lat="48.97348" lon="2.18034">
        <ele>49</ele>
        <time>2023-10-26T12:21:33.483+00:00</time>
      </trkpt>
      <trkpt lat="48.97346" lon="2.18042">
        <ele>46</ele>
        <time>2023-10-26T12:21:38.481+00:00</time>
      </trkpt>
      <trkpt lat="48.97348" lon="2.18046">
        <ele>53</ele>
        <time>2023-10-26T12:21:43.495+00:00</time>
      </trkpt>
      <trkpt lat="48.97354" lon="2.18046">
        <ele>53</ele>
        <time>2023-10-26T12:21:48.480+00:00</time>
      </trkpt>
      <trkpt lat="48.97357" lon="2.18047">
        <ele>53</ele>
        <time>2023-10-26T12:21:53.486+00:00</time>
      </trkpt>
      <trkpt lat="48.97361" lon="2.18044">
        <ele>53</ele>
        <time>2023-10-26T12:21:58.492+00:00</time>
      </trkpt>
      <trkpt lat="48.97364" lon="2.18042">
        <ele>53</ele>
        <time>2023-10-26T12:22:03.484+00:00</time>
      </trkpt>
      <trkpt lat="48.97367" lon="2.18042">
        <ele>53</ele>
        <time>2023-10-26T12:22:07.484+00:00</time>
      </trkpt>
      <trkpt lat="48.97373" lon="2.18039">
        <ele>49</ele>
        <time>2023-10-26T12:22:12.484+00:00</time>
      </trkpt>
      <trkpt lat="48.97377" lon="2.18039">
        <ele>52</ele>
        <time>2023-10-26T12:22:17.495+00:00</time>
      </trkpt>
      <trkpt lat="48.97381" lon="2.18038">
        <ele>52</ele>
        <time>2023-10-26T12:22:22.476+00:00</time>
      </trkpt>
      <trkpt lat="48.97385" lon="2.18039">
        <ele>52</ele>
        <time>2023-10-26T12:22:27.479+00:00</time>
      </trkpt>
      <trkpt lat="48.9739" lon="2.18039">
        <ele>52</ele>
        <time>2023-10-26T12:22:31.480+00:00</time>
      </trkpt>
      <trkpt lat="48.97392" lon="2.18041">
        <ele>52</ele>
        <time>2023-10-26T12:22:35.516+00:00</time>
      </trkpt>
      <trkpt lat="48.97395" lon="2.18043">
        <ele>56</ele>
        <time>2023-10-26T12:22:40.483+00:00</time>
      </trkpt>
      <trkpt lat="48.97398" lon="2.18045">
        <ele>56</ele>
        <time>2023-10-26T12:22:44.494+00:00</time>
      </trkpt>
      <trkpt lat="48.97401" lon="2.18047">
        <ele>56</ele>
        <time>2023-10-26T12:22:49.497+00:00</time>
      </trkpt>
      <trkpt lat="48.97406" lon="2.18049">
        <ele>60</ele>
        <time>2023-10-26T12:22:54.487+00:00</time>
      </trkpt>
      <trkpt lat="48.97409" lon="2.1805">
        <ele>60</ele>
        <time>2023-10-26T12:22:58.483+00:00</time>
      </trkpt>
      <trkpt lat="48.97414" lon="2.18053">
        <ele>60</ele>
        <time>2023-10-26T12:23:03.482+00:00</time>
      </trkpt>
      <trkpt lat="48.97419" lon="2.18049">
        <ele>60</ele>
        <time>2023-10-26T12:23:08.475+00:00</time>
      </trkpt>
      <trkpt lat="48.97422" lon="2.18041">
        <ele>59</ele>
        <time>2023-10-26T12:23:13.486+00:00</time>
      </trkpt>
      <trkpt lat="48.97422" lon="2.18033">
        <ele>59</ele>
        <time>2023-10-26T12:23:18.490+00:00</time>
      </trkpt>
      <trkpt lat="48.97423" lon="2.18025">
        <ele>59</ele>
        <time>2023-10-26T12:23:23.482+00:00</time>
      </trkpt>
      <trkpt lat="48.97424" lon="2.18016">
        <ele>59</ele>
        <time>2023-10-26T12:23:28.488+00:00</time>
      </trkpt>
      <trkpt lat="48.97424" lon="2.1801">
        <ele>56</ele>
        <time>2023-10-26T12:23:32.474+00:00</time>
      </trkpt>
      <trkpt lat="48.97426" lon="2.18002">
        <ele>56</ele>
        <time>2023-10-26T12:23:37.478+00:00</time>
      </trkpt>
      <trkpt lat="48.97429" lon="2.18">
        <ele>56</ele>
        <time>2023-10-26T12:23:42.482+00:00</time>
      </trkpt>
      <trkpt lat="48.97429" lon="2.17996">
        <ele>56</ele>
        <time>2023-10-26T12:23:47.484+00:00</time>
      </trkpt>
      <trkpt lat="48.9743" lon="2.17989">
        <ele>56</ele>
        <time>2023-10-26T12:23:52.481+00:00</time>
      </trkpt>
      <trkpt lat="48.97433" lon="2.1798">
        <ele>62</ele>
        <time>2023-10-26T12:23:57.475+00:00</time>
      </trkpt>
      <trkpt lat="48.97435" lon="2.17972">
        <ele>62</ele>
        <time>2023-10-26T12:24:02.480+00:00</time>
      </trkpt>
      <trkpt lat="48.97437" lon="2.17963">
        <ele>62</ele>
        <time>2023-10-26T12:24:07.475+00:00</time>
      </trkpt>
      <trkpt lat="48.97439" lon="2.17956">
        <ele>58</ele>
        <time>2023-10-26T12:24:11.480+00:00</time>
      </trkpt>
      <trkpt lat="48.97442" lon="2.17949">
        <ele>58</ele>
        <time>2023-10-26T12:24:16.479+00:00</time>
      </trkpt>
      <trkpt lat="48.97444" lon="2.17944">
        <ele>58</ele>
        <time>2023-10-26T12:24:20.483+00:00</time>
      </trkpt>
      <trkpt lat="48.97449" lon="2.17941">
        <ele>58</ele>
        <time>2023-10-26T12:24:25.481+00:00</time>
      </trkpt>
      <trkpt lat="48.97453" lon="2.17938">
        <ele>58</ele>
        <time>2023-10-26T12:24:29.496+00:00</time>
      </trkpt>
      <trkpt lat="48.97458" lon="2.17935">
        <ele>58</ele>
        <time>2023-10-26T12:24:34.481+00:00</time>
      </trkpt>
      <trkpt lat="48.97463" lon="2.17932">
        <ele>61</ele>
        <time>2023-10-26T12:24:39.482+00:00</time>
      </trkpt>
      <trkpt lat="48.97468" lon="2.17929">
        <ele>57</ele>
        <time>2023-10-26T12:24:44.486+00:00</time>
      </trkpt>
      <trkpt lat="48.97474" lon="2.17927">
        <ele>57</ele>
        <time>2023-10-26T12:24:49.486+00:00</time>
      </trkpt>
      <trkpt lat="48.97479" lon="2.1792">
        <ele>57</ele>
        <time>2023-10-26T12:24:54.485+00:00</time>
      </trkpt>
      <trkpt lat="48.97487" lon="2.17917">
        <ele>57</ele>
        <time>2023-10-26T12:24:59.483+00:00</time>
      </trkpt>
      <trkpt lat="48.97493" lon="2.17914">
        <ele>57</ele>
        <time>2023-10-26T12:25:04.483+00:00</time>
      </trkpt>
      <trkpt lat="48.97499" lon="2.17912">
        <ele>57</ele>
        <time>2023-10-26T12:25:09.533+00:00</time>
      </trkpt>
      <trkpt lat="48.97503" lon="2.17908">
        <ele>57</ele>
        <time>2023-10-26T12:25:14.491+00:00</time>
      </trkpt>
      <trkpt lat="48.97509" lon="2.17904">
        <ele>57</ele>
        <time>2023-10-26T12:25:19.486+00:00</time>
      </trkpt>
      <trkpt lat="48.97514" lon="2.17901">
        <ele>57</ele>
        <time>2023-10-26T12:25:24.483+00:00</time>
      </trkpt>
      <trkpt lat="48.97521" lon="2.17898">
        <ele>57</ele>
        <time>2023-10-26T12:25:29.482+00:00</time>
      </trkpt>
      <trkpt lat="48.97526" lon="2.17895">
        <ele>57</ele>
        <time>2023-10-26T12:25:33.480+00:00</time>
      </trkpt>
      <trkpt lat="48.97531" lon="2.17893">
        <ele>57</ele>
        <time>2023-10-26T12:25:38.475+00:00</time>
      </trkpt>
      <trkpt lat="48.97535" lon="2.1789">
        <ele>57</ele>
        <time>2023-10-26T12:25:42.481+00:00</time>
      </trkpt>
      <trkpt lat="48.97541" lon="2.17887">
        <ele>57</ele>
        <time>2023-10-26T12:25:47.485+00:00</time>
      </trkpt>
      <trkpt lat="48.97547" lon="2.17882">
        <ele>62</ele>
        <time>2023-10-26T12:25:52.473+00:00</time>
      </trkpt>
      <trkpt lat="48.97552" lon="2.17877">
        <ele>62</ele>
        <time>2023-10-26T12:25:56.480+00:00</time>
      </trkpt>
      <trkpt lat="48.97559" lon="2.17874">
        <ele>59</ele>
        <time>2023-10-26T12:26:01.483+00:00</time>
      </trkpt>
      <trkpt lat="48.97565" lon="2.17872">
        <ele>59</ele>
        <time>2023-10-26T12:26:05.480+00:00</time>
      </trkpt>
      <trkpt lat="48.97574" lon="2.17867">
        <ele>62</ele>
        <time>2023-10-26T12:26:10.483+00:00</time>
      </trkpt>
      <trkpt lat="48.97579" lon="2.17863">
        <ele>62</ele>
        <time>2023-10-26T12:26:15.486+00:00</time>
      </trkpt>
      <trkpt lat="48.97584" lon="2.1786">
        <ele>62</ele>
        <time>2023-10-26T12:26:19.483+00:00</time>
      </trkpt>
      <trkpt lat="48.9759" lon="2.17857">
        <ele>62</ele>
        <time>2023-10-26T12:26:24.492+00:00</time>
      </trkpt>
      <trkpt lat="48.97597" lon="2.17852">
        <ele>62</ele>
        <time>2023-10-26T12:26:29.482+00:00</time>
      </trkpt>
      <trkpt lat="48.97603" lon="2.17849">
        <ele>60</ele>
        <time>2023-10-26T12:26:34.482+00:00</time>
      </trkpt>
      <trkpt lat="48.97605" lon="2.1785">
        <ele>60</ele>
        <time>2023-10-26T12:26:39.483+00:00</time>
      </trkpt>
      <trkpt lat="48.97606" lon="2.17853">
        <ele>60</ele>
        <time>2023-10-26T12:28:21.485+00:00</time>
      </trkpt>
      <trkpt lat="48.97606" lon="2.17854">
        <ele>60</ele>
        <time>2023-10-26T12:28:26.479+00:00</time>
      </trkpt>
      <trkpt lat="48.97609" lon="2.17853">
        <ele>60</ele>
        <time>2023-10-26T12:28:31.477+00:00</time>
      </trkpt>
      <trkpt lat="48.97614" lon="2.17852">
        <ele>60</ele>
        <time>2023-10-26T12:28:35.478+00:00</time>
      </trkpt>
      <trkpt lat="48.97618" lon="2.17849">
        <ele>60</ele>
        <time>2023-10-26T12:28:40.488+00:00</time>
      </trkpt>
      <trkpt lat="48.97621" lon="2.17845">
        <ele>58</ele>
        <time>2023-10-26T12:28:45.487+00:00</time>
      </trkpt>
      <trkpt lat="48.97627" lon="2.17843">
        <ele>57</ele>
        <time>2023-10-26T12:28:50.479+00:00</time>
      </trkpt>
      <trkpt lat="48.97632" lon="2.1784">
        <ele>57</ele>
        <time>2023-10-26T12:28:55.488+00:00</time>
      </trkpt>
      <trkpt lat="48.97638" lon="2.17836">
        <ele>57</ele>
        <time>2023-10-26T12:29:00.489+00:00</time>
      </trkpt>
      <trkpt lat="48.97643" lon="2.17832">
        <ele>57</ele>
        <time>2023-10-26T12:29:05.482+00:00</time>
      </trkpt>
      <trkpt lat="48.97649" lon="2.17828">
        <ele>57</ele>
        <time>2023-10-26T12:29:10.484+00:00</time>
      </trkpt>
      <trkpt lat="48.97655" lon="2.17825">
        <ele>59</ele>
        <time>2023-10-26T12:29:15.487+00:00</time>
      </trkpt>
      <trkpt lat="48.97659" lon="2.17822">
        <ele>59</ele>
        <time>2023-10-26T12:29:19.476+00:00</time>
      </trkpt>
      <trkpt lat="48.97666" lon="2.17817">
        <ele>56</ele>
        <time>2023-10-26T12:29:24.483+00:00</time>
      </trkpt>
      <trkpt lat="48.97672" lon="2.17811">
        <ele>56</ele>
        <time>2023-10-26T12:29:29.480+00:00</time>
      </trkpt>
      <trkpt lat="48.97674" lon="2.17804">
        <ele>56</ele>
        <time>2023-10-26T12:29:34.477+00:00</time>
      </trkpt>
      <trkpt lat="48.97674" lon="2.17797">
        <ele>56</ele>
        <time>2023-10-26T12:29:39.484+00:00</time>
      </trkpt>
      <trkpt lat="48.97678" lon="2.17792">
        <ele>56</ele>
        <time>2023-10-26T12:29:44.482+00:00</time>
      </trkpt>
      <trkpt lat="48.97681" lon="2.1779">
        <ele>56</ele>
        <time>2023-10-26T12:29:49.480+00:00</time>
      </trkpt>
      <trkpt lat="48.97683" lon="2.17789">
        <ele>56</ele>
        <time>2023-10-26T12:29:54.479+00:00</time>
      </trkpt>
      <trkpt lat="48.97686" lon="2.17786">
        <ele>56</ele>
        <time>2023-10-26T12:29:58.515+00:00</time>
      </trkpt>
      <trkpt lat="48.97689" lon="2.17783">
        <ele>56</ele>
        <time>2023-10-26T12:30:03.475+00:00</time>
      </trkpt>
      <trkpt lat="48.97693" lon="2.1778">
        <ele>56</ele>
        <time>2023-10-26T12:30:08.481+00:00</time>
      </trkpt>
      <trkpt lat="48.97698" lon="2.17778">
        <ele>56</ele>
        <time>2023-10-26T12:30:12.475+00:00</time>
      </trkpt>
      <trkpt lat="48.97702" lon="2.17777">
        <ele>56</ele>
        <time>2023-10-26T12:30:17.488+00:00</time>
      </trkpt>
      <trkpt lat="48.97706" lon="2.17774">
        <ele>56</ele>
        <time>2023-10-26T12:30:21.483+00:00</time>
      </trkpt>
      <trkpt lat="48.9771" lon="2.1777">
        <ele>57</ele>
        <time>2023-10-26T12:30:26.485+00:00</time>
      </trkpt>
      <trkpt lat="48.97714" lon="2.17764">
        <ele>57</ele>
        <time>2023-10-26T12:30:31.483+00:00</time>
      </trkpt>
      <trkpt lat="48.97719" lon="2.17758">
        <ele>51</ele>
        <time>2023-10-26T12:30:36.490+00:00</time>
      </trkpt>
      <trkpt lat="48.97725" lon="2.17756">
        <ele>51</ele>
        <time>2023-10-26T12:30:41.483+00:00</time>
      </trkpt>
      <trkpt lat="48.97733" lon="2.17754">
        <ele>51</ele>
        <time>2023-10-26T12:30:46.494+00:00</time>
      </trkpt>
      <trkpt lat="48.9774" lon="2.17752">
        <ele>55</ele>
        <time>2023-10-26T12:30:50.483+00:00</time>
      </trkpt>
      <trkpt lat="48.97747" lon="2.17744">
        <ele>55</ele>
        <time>2023-10-26T12:30:55.482+00:00</time>
      </trkpt>
      <trkpt lat="48.97753" lon="2.17741">
        <ele>55</ele>
        <time>2023-10-26T12:31:00.480+00:00</time>
      </trkpt>
      <trkpt lat="48.97759" lon="2.17738">
        <ele>55</ele>
        <time>2023-10-26T12:31:05.484+00:00</time>
      </trkpt>
      <trkpt lat="48.97765" lon="2.17737">
        <ele>54</ele>
        <time>2023-10-26T12:31:10.480+00:00</time>
      </trkpt>
      <trkpt lat="48.97772" lon="2.17737">
        <ele>54</ele>
        <time>2023-10-26T12:31:15.479+00:00</time>
      </trkpt>
      <trkpt lat="48.97775" lon="2.17735">
        <ele>49</ele>
        <time>2023-10-26T12:31:19.481+00:00</time>
      </trkpt>
      <trkpt lat="48.9778" lon="2.17726">
        <ele>49</ele>
        <time>2023-10-26T12:31:24.481+00:00</time>
      </trkpt>
      <trkpt lat="48.97782" lon="2.17716">
        <ele>49</ele>
        <time>2023-10-26T12:31:29.481+00:00</time>
      </trkpt>
      <trkpt lat="48.97784" lon="2.17707">
        <ele>45</ele>
        <time>2023-10-26T12:31:34.480+00:00</time>
      </trkpt>
      <trkpt lat="48.97786" lon="2.17701">
        <ele>45</ele>
        <time>2023-10-26T12:31:38.482+00:00</time>
      </trkpt>
      <trkpt lat="48.97793" lon="2.17689">
        <ele>51</ele>
        <time>2023-10-26T12:32:07.483+00:00</time>
      </trkpt>
      <trkpt lat="48.97789" lon="2.17686">
        <ele>45</ele>
        <time>2023-10-26T12:32:12.493+00:00</time>
      </trkpt>
      <trkpt lat="48.97784" lon="2.17686">
        <ele>45</ele>
        <time>2023-10-26T12:32:16.528+00:00</time>
      </trkpt>
      <trkpt lat="48.9778" lon="2.17689">
        <ele>45</ele>
        <time>2023-10-26T12:32:21.491+00:00</time>
      </trkpt>
      <trkpt lat="48.97777" lon="2.17689">
        <ele>45</ele>
        <time>2023-10-26T12:32:26.482+00:00</time>
      </trkpt>
      <trkpt lat="48.97774" lon="2.17688">
        <ele>45</ele>
        <time>2023-10-26T12:33:17.489+00:00</time>
      </trkpt>
      <trkpt lat="48.97781" lon="2.17684">
        <ele>45</ele>
        <time>2023-10-26T12:33:22.487+00:00</time>
      </trkpt>
      <trkpt lat="48.97787" lon="2.1768">
        <ele>40</ele>
        <time>2023-10-26T12:33:27.487+00:00</time>
      </trkpt>
      <trkpt lat="48.97789" lon="2.17677">
        <ele>40</ele>
        <time>2023-10-26T12:33:32.485+00:00</time>
      </trkpt>
      <trkpt lat="48.97794" lon="2.17674">
        <ele>47</ele>
        <time>2023-10-26T12:33:37.486+00:00</time>
      </trkpt>
      <trkpt lat="48.97799" lon="2.17671">
        <ele>47</ele>
        <time>2023-10-26T12:33:42.484+00:00</time>
      </trkpt>
      <trkpt lat="48.97804" lon="2.17669">
        <ele>47</ele>
        <time>2023-10-26T12:33:47.489+00:00</time>
      </trkpt>
      <trkpt lat="48.97808" lon="2.17666">
        <ele>47</ele>
        <time>2023-10-26T12:33:52.486+00:00</time>
      </trkpt>
      <trkpt lat="48.97814" lon="2.17663">
        <ele>47</ele>
        <time>2023-10-26T12:33:57.482+00:00</time>
      </trkpt>
      <trkpt lat="48.97819" lon="2.17657">
        <ele>47</ele>
        <time>2023-10-26T12:34:02.526+00:00</time>
      </trkpt>
      <trkpt lat="48.97824" lon="2.17651">
        <ele>47</ele>
        <time>2023-10-26T12:34:07.497+00:00</time>
      </trkpt>
      <trkpt lat="48.97828" lon="2.17643">
        <ele>47</ele>
        <time>2023-10-26T12:34:12.496+00:00</time>
      </trkpt>
      <trkpt lat="48.9783" lon="2.17636">
        <ele>47</ele>
        <time>2023-10-26T12:34:17.483+00:00</time>
      </trkpt>
      <trkpt lat="48.97835" lon="2.17631">
        <ele>47</ele>
        <time>2023-10-26T12:34:22.485+00:00</time>
      </trkpt>
      <trkpt lat="48.9784" lon="2.17628">
        <ele>47</ele>
        <time>2023-10-26T12:34:27.489+00:00</time>
      </trkpt>
      <trkpt lat="48.97846" lon="2.17626">
        <ele>47</ele>
        <time>2023-10-26T12:34:32.484+00:00</time>
      </trkpt>
      <trkpt lat="48.97853" lon="2.17624">
        <ele>45</ele>
        <time>2023-10-26T12:34:37.485+00:00</time>
      </trkpt>
      <trkpt lat="48.97861" lon="2.17624">
        <ele>45</ele>
        <time>2023-10-26T12:34:42.527+00:00</time>
      </trkpt>
      <trkpt lat="48.97866" lon="2.17624">
        <ele>45</ele>
        <time>2023-10-26T12:34:47.483+00:00</time>
      </trkpt>
      <trkpt lat="48.9787" lon="2.1762">
        <ele>45</ele>
        <time>2023-10-26T12:34:52.487+00:00</time>
      </trkpt>
      <trkpt lat="48.97874" lon="2.17615">
        <ele>45</ele>
        <time>2023-10-26T12:34:57.480+00:00</time>
      </trkpt>
      <trkpt lat="48.97879" lon="2.17611">
        <ele>54</ele>
        <time>2023-10-26T12:35:02.477+00:00</time>
      </trkpt>
      <trkpt lat="48.97883" lon="2.17607">
        <ele>54</ele>
        <time>2023-10-26T12:35:07.495+00:00</time>
      </trkpt>
      <trkpt lat="48.97888" lon="2.17604">
        <ele>54</ele>
        <time>2023-10-26T12:35:12.488+00:00</time>
      </trkpt>
      <trkpt lat="48.97893" lon="2.176">
        <ele>54</ele>
        <time>2023-10-26T12:35:17.487+00:00</time>
      </trkpt>
      <trkpt lat="48.97897" lon="2.17596">
        <ele>48</ele>
        <time>2023-10-26T12:35:22.482+00:00</time>
      </trkpt>
      <trkpt lat="48.97902" lon="2.17592">
        <ele>48</ele>
        <time>2023-10-26T12:35:27.489+00:00</time>
      </trkpt>
      <trkpt lat="48.97906" lon="2.1759">
        <ele>54</ele>
        <time>2023-10-26T12:35:32.478+00:00</time>
      </trkpt>
      <trkpt lat="48.9791" lon="2.17585">
        <ele>54</ele>
        <time>2023-10-26T12:35:37.478+00:00</time>
      </trkpt>
      <trkpt lat="48.97914" lon="2.17581">
        <ele>54</ele>
        <time>2023-10-26T12:35:41.482+00:00</time>
      </trkpt>
      <trkpt lat="48.9792" lon="2.17576">
        <ele>54</ele>
        <time>2023-10-26T12:35:46.498+00:00</time>
      </trkpt>
      <trkpt lat="48.97926" lon="2.17572">
        <ele>54</ele>
        <time>2023-10-26T12:35:51.488+00:00</time>
      </trkpt>
      <trkpt lat="48.97933" lon="2.17568">
        <ele>53</ele>
        <time>2023-10-26T12:35:56.488+00:00</time>
      </trkpt>
      <trkpt lat="48.97939" lon="2.17567">
        <ele>53</ele>
        <time>2023-10-26T12:36:01.483+00:00</time>
      </trkpt>
      <trkpt lat="48.97942" lon="2.17562">
        <ele>53</ele>
        <time>2023-10-26T12:36:05.482+00:00</time>
      </trkpt>
      <trkpt lat="48.97949" lon="2.17558">
        <ele>53</ele>
        <time>2023-10-26T12:36:10.492+00:00</time>
      </trkpt>
      <trkpt lat="48.97956" lon="2.17555">
        <ele>53</ele>
        <time>2023-10-26T12:36:15.483+00:00</time>
      </trkpt>
      <trkpt lat="48.97961" lon="2.17552">
        <ele>53</ele>
        <time>2023-10-26T12:36:20.475+00:00</time>
      </trkpt>
      <trkpt lat="48.97965" lon="2.17551">
        <ele>53</ele>
        <time>2023-10-26T12:36:25.484+00:00</time>
      </trkpt>
      <trkpt lat="48.97969" lon="2.1755">
        <ele>53</ele>
        <time>2023-10-26T12:36:30.481+00:00</time>
      </trkpt>
      <trkpt lat="48.97971" lon="2.17544">
        <ele>53</ele>
        <time>2023-10-26T12:36:35.482+00:00</time>
      </trkpt>
      <trkpt lat="48.9797" lon="2.17537">
        <ele>48</ele>
        <time>2023-10-26T12:36:39.483+00:00</time>
      </trkpt>
      <trkpt lat="48.97972" lon="2.1753">
        <ele>48</ele>
        <time>2023-10-26T12:36:44.481+00:00</time>
      </trkpt>
      <trkpt lat="48.97974" lon="2.17524">
        <ele>48</ele>
        <time>2023-10-26T12:36:48.485+00:00</time>
      </trkpt>
      <trkpt lat="48.97978" lon="2.17516">
        <ele>48</ele>
        <time>2023-10-26T12:36:53.485+00:00</time>
      </trkpt>
      <trkpt lat="48.97983" lon="2.17512">
        <ele>40</ele>
        <time>2023-10-26T12:36:58.482+00:00</time>
      </trkpt>
      <trkpt lat="48.97989" lon="2.17508">
        <ele>36</ele>
        <time>2023-10-26T12:37:03.485+00:00</time>
      </trkpt>
      <trkpt lat="48.97991" lon="2.17506">
        <ele>36</ele>
        <time>2023-10-26T12:37:07.484+00:00</time>
      </trkpt>
      <trkpt lat="48.97995" lon="2.17499">
        <ele>36</ele>
        <time>2023-10-26T12:37:12.486+00:00</time>
      </trkpt>
      <trkpt lat="48.97997" lon="2.17494">
        <ele>36</ele>
        <time>2023-10-26T12:37:17.479+00:00</time>
      </trkpt>
      <trkpt lat="48.97998" lon="2.17491">
        <ele>36</ele>
        <time>2023-10-26T12:37:22.476+00:00</time>
      </trkpt>
      <trkpt lat="48.97998" lon="2.17487">
        <ele>36</ele>
        <time>2023-10-26T12:37:27.493+00:00</time>
      </trkpt>
      <trkpt lat="48.98" lon="2.17481">
        <ele>31</ele>
        <time>2023-10-26T12:37:32.491+00:00</time>
      </trkpt>
      <trkpt lat="48.98003" lon="2.17476">
        <ele>31</ele>
        <time>2023-10-26T12:37:37.484+00:00</time>
      </trkpt>
      <trkpt lat="48.98005" lon="2.17472">
        <ele>31</ele>
        <time>2023-10-26T12:37:41.528+00:00</time>
      </trkpt>
      <trkpt lat="48.98007" lon="2.17467">
        <ele>31</ele>
        <time>2023-10-26T12:37:46.484+00:00</time>
      </trkpt>
      <trkpt lat="48.98011" lon="2.17464">
        <ele>31</ele>
        <time>2023-10-26T12:37:51.485+00:00</time>
      </trkpt>
      <trkpt lat="48.98015" lon="2.17461">
        <ele>30</ele>
        <time>2023-10-26T12:37:55.475+00:00</time>
      </trkpt>
      <trkpt lat="48.98018" lon="2.17457">
        <ele>29</ele>
        <time>2023-10-26T12:37:59.480+00:00</time>
      </trkpt>
      <trkpt lat="48.98022" lon="2.17448">
        <ele>29</ele>
        <time>2023-10-26T12:38:04.482+00:00</time>
      </trkpt>
      <trkpt lat="48.98024" lon="2.17442">
        <ele>29</ele>
        <time>2023-10-26T12:38:08.489+00:00</time>
      </trkpt>
      <trkpt lat="48.98027" lon="2.17438">
        <ele>29</ele>
        <time>2023-10-26T12:38:13.488+00:00</time>
      </trkpt>
      <trkpt lat="48.9803" lon="2.17436">
        <ele>29</ele>
        <time>2023-10-26T12:38:18.476+00:00</time>
      </trkpt>
      <trkpt lat="48.98033" lon="2.17435">
        <ele>29</ele>
        <time>2023-10-26T12:38:22.532+00:00</time>
      </trkpt>
      <trkpt lat="48.98038" lon="2.17437">
        <ele>29</ele>
        <time>2023-10-26T12:38:27.483+00:00</time>
      </trkpt>
      <trkpt lat="48.98043" lon="2.17444">
        <ele>34</ele>
        <time>2023-10-26T12:38:32.481+00:00</time>
      </trkpt>
      <trkpt lat="48.98045" lon="2.17447">
        <ele>34</ele>
        <time>2023-10-26T12:38:47.487+00:00</time>
      </trkpt>
      <trkpt lat="48.98042" lon="2.17445">
        <ele>34</ele>
        <time>2023-10-26T12:38:51.532+00:00</time>
      </trkpt>
      <trkpt lat="48.98039" lon="2.1744">
        <ele>29</ele>
        <time>2023-10-26T12:38:56.488+00:00</time>
      </trkpt>
      <trkpt lat="48.98036" lon="2.17435">
        <ele>29</ele>
        <time>2023-10-26T12:39:01.483+00:00</time>
      </trkpt>
      <trkpt lat="48.98036" lon="2.17434">
        <ele>29</ele>
        <time>2023-10-26T12:39:06.478+00:00</time>
      </trkpt>
      <trkpt lat="48.98037" lon="2.17435">
        <ele>29</ele>
        <time>2023-10-26T12:39:38.476+00:00</time>
      </trkpt>
      <trkpt lat="48.98033" lon="2.17426">
        <ele>27</ele>
        <time>2023-10-26T12:39:43.520+00:00</time>
      </trkpt>
      <trkpt lat="48.98024" lon="2.17408">
        <ele>27</ele>
        <time>2023-10-26T12:39:48.485+00:00</time>
      </trkpt>
      <trkpt lat="48.98019" lon="2.17396">
        <ele>26</ele>
        <time>2023-10-26T12:39:53.495+00:00</time>
      </trkpt>
      <trkpt lat="48.98016" lon="2.17385">
        <ele>26</ele>
        <time>2023-10-26T12:39:58.478+00:00</time>
      </trkpt>
      <trkpt lat="48.98012" lon="2.1736">
        <ele>23</ele>
        <time>2023-10-26T12:40:13.479+00:00</time>
      </trkpt>
      <trkpt lat="48.98015" lon="2.17355">
        <ele>25</ele>
        <time>2023-10-26T12:40:17.479+00:00</time>
      </trkpt>
      <trkpt lat="48.98017" lon="2.17348">
        <ele>25</ele>
        <time>2023-10-26T12:40:22.483+00:00</time>
      </trkpt>
      <trkpt lat="48.98022" lon="2.17345">
        <ele>23</ele>
        <time>2023-10-26T12:40:27.482+00:00</time>
      </trkpt>
      <trkpt lat="48.98028" lon="2.17341">
        <ele>23</ele>
        <time>2023-10-26T12:40:32.478+00:00</time>
      </trkpt>
      <trkpt lat="48.98032" lon="2.17333">
        <ele>23</ele>
        <time>2023-10-26T12:40:37.475+00:00</time>
      </trkpt>
      <trkpt lat="48.98037" lon="2.17324">
        <ele>23</ele>
        <time>2023-10-26T12:40:42.482+00:00</time>
      </trkpt>
      <trkpt lat="48.98039" lon="2.17319">
        <ele>23</ele>
        <time>2023-10-26T12:40:46.504+00:00</time>
      </trkpt>
      <trkpt lat="48.98042" lon="2.17317">
        <ele>24</ele>
        <time>2023-10-26T12:40:51.485+00:00</time>
      </trkpt>
      <trkpt lat="48.98044" lon="2.17316">
        <ele>24</ele>
        <time>2023-10-26T12:40:56.481+00:00</time>
      </trkpt>
      <trkpt lat="48.98043" lon="2.17314">
        <ele>24</ele>
        <time>2023-10-26T12:41:01.487+00:00</time>
      </trkpt>
      <trkpt lat="48.98041" lon="2.17306">
        <ele>23</ele>
        <time>2023-10-26T12:41:06.481+00:00</time>
      </trkpt>
      <trkpt lat="48.98042" lon="2.17294">
        <ele>24</ele>
        <time>2023-10-26T12:41:11.477+00:00</time>
      </trkpt>
      <trkpt lat="48.98042" lon="2.17283">
        <ele>22</ele>
        <time>2023-10-26T12:41:15.519+00:00</time>
      </trkpt>
      <trkpt lat="48.9804" lon="2.1727">
        <ele>23</ele>
        <time>2023-10-26T12:41:20.490+00:00</time>
      </trkpt>
      <trkpt lat="48.9804" lon="2.1726">
        <ele>22</ele>
        <time>2023-10-26T12:41:25.488+00:00</time>
      </trkpt>
      <trkpt lat="48.98044" lon="2.1726">
        <ele>21</ele>
        <time>2023-10-26T12:41:29.494+00:00</time>
      </trkpt>
      <trkpt lat="48.98049" lon="2.17271">
        <ele>22</ele>
        <time>2023-10-26T12:42:50.482+00:00</time>
      </trkpt>
      <trkpt lat="48.98049" lon="2.17273">
        <ele>22</ele>
        <time>2023-10-26T12:42:54.485+00:00</time>
      </trkpt>
      <trkpt lat="48.98049" lon="2.17276">
        <ele>22</ele>
        <time>2023-10-26T12:42:58.480+00:00</time>
      </trkpt>
      <trkpt lat="48.98048" lon="2.17278">
        <ele>22</ele>
        <time>2023-10-26T12:43:03.480+00:00</time>
      </trkpt>
      <trkpt lat="48.98048" lon="2.17278">
        <ele>22</ele>
        <time>2023-10-26T12:43:08.483+00:00</time>
      </trkpt>
      <trkpt lat="48.98047" lon="2.17276">
        <ele>22</ele>
        <time>2023-10-26T12:47:10.485+00:00</time>
      </trkpt>
      <trkpt lat="48.98049" lon="2.17285">
        <ele>22</ele>
        <time>2023-10-26T12:47:15.470+00:00</time>
      </trkpt>
      <trkpt lat="48.98052" lon="2.17291">
        <ele>22</ele>
        <time>2023-10-26T12:47:19.483+00:00</time>
      </trkpt>
      <trkpt lat="48.98056" lon="2.17299">
        <ele>24</ele>
        <time>2023-10-26T12:47:23.485+00:00</time>
      </trkpt>
      <trkpt lat="48.98059" lon="2.1731">
        <ele>24</ele>
        <time>2023-10-26T12:47:28.484+00:00</time>
      </trkpt>
      <trkpt lat="48.98062" lon="2.1732">
        <ele>27</ele>
        <time>2023-10-26T12:47:33.482+00:00</time>
      </trkpt>
      <trkpt lat="48.98067" lon="2.17327">
        <ele>27</ele>
        <time>2023-10-26T12:47:38.485+00:00</time>
      </trkpt>
      <trkpt lat="48.98072" lon="2.17334">
        <ele>29</ele>
        <time>2023-10-26T12:47:43.481+00:00</time>
      </trkpt>
      <trkpt lat="48.98075" lon="2.17341">
        <ele>29</ele>
        <time>2023-10-26T12:47:47.493+00:00</time>
      </trkpt>
      <trkpt lat="48.98077" lon="2.17352">
        <ele>32</ele>
        <time>2023-10-26T12:47:52.487+00:00</time>
      </trkpt>
      <trkpt lat="48.98077" lon="2.17366">
        <ele>32</ele>
        <time>2023-10-26T12:47:57.491+00:00</time>
      </trkpt>
      <trkpt lat="48.98078" lon="2.17377">
        <ele>35</ele>
        <time>2023-10-26T12:48:02.485+00:00</time>
      </trkpt>
      <trkpt lat="48.98081" lon="2.17384">
        <ele>35</ele>
        <time>2023-10-26T12:48:07.488+00:00</time>
      </trkpt>
      <trkpt lat="48.98084" lon="2.17384">
        <ele>35</ele>
        <time>2023-10-26T12:48:12.485+00:00</time>
      </trkpt>
      <trkpt lat="48.98085" lon="2.1738">
        <ele>35</ele>
        <time>2023-10-26T12:48:17.485+00:00</time>
      </trkpt>
      <trkpt lat="48.9809" lon="2.17379">
        <ele>35</ele>
        <time>2023-10-26T12:48:22.486+00:00</time>
      </trkpt>
      <trkpt lat="48.98095" lon="2.17378">
        <ele>35</ele>
        <time>2023-10-26T12:48:26.524+00:00</time>
      </trkpt>
      <trkpt lat="48.981" lon="2.17376">
        <ele>36</ele>
        <time>2023-10-26T12:48:31.483+00:00</time>
      </trkpt>
      <trkpt lat="48.98106" lon="2.17375">
        <ele>34</ele>
        <time>2023-10-26T12:48:36.484+00:00</time>
      </trkpt>
      <trkpt lat="48.98111" lon="2.17372">
        <ele>34</ele>
        <time>2023-10-26T12:48:41.485+00:00</time>
      </trkpt>
      <trkpt lat="48.98115" lon="2.17371">
        <ele>34</ele>
        <time>2023-10-26T12:48:46.486+00:00</time>
      </trkpt>
      <trkpt lat="48.98118" lon="2.17366">
        <ele>34</ele>
        <time>2023-10-26T12:48:51.483+00:00</time>
      </trkpt>
      <trkpt lat="48.98121" lon="2.17358">
        <ele>34</ele>
        <time>2023-10-26T12:48:56.477+00:00</time>
      </trkpt>
      <trkpt lat="48.98123" lon="2.17352">
        <ele>34</ele>
        <time>2023-10-26T12:49:00.483+00:00</time>
      </trkpt>
      <trkpt lat="48.98131" lon="2.17349">
        <ele>40</ele>
        <time>2023-10-26T12:49:05.480+00:00</time>
      </trkpt>
      <trkpt lat="48.98137" lon="2.17345">
        <ele>38</ele>
        <time>2023-10-26T12:49:10.482+00:00</time>
      </trkpt>
      <trkpt lat="48.98141" lon="2.17343">
        <ele>38</ele>
        <time>2023-10-26T12:49:15.477+00:00</time>
      </trkpt>
      <trkpt lat="48.98144" lon="2.17342">
        <ele>38</ele>
        <time>2023-10-26T12:49:19.481+00:00</time>
      </trkpt>
      <trkpt lat="48.98147" lon="2.1734">
        <ele>38</ele>
        <time>2023-10-26T12:49:24.482+00:00</time>
      </trkpt>
      <trkpt lat="48.98152" lon="2.17339">
        <ele>38</ele>
        <time>2023-10-26T12:49:29.481+00:00</time>
      </trkpt>
      <trkpt lat="48.98156" lon="2.17337">
        <ele>48</ele>
        <time>2023-10-26T12:49:33.486+00:00</time>
      </trkpt>
      <trkpt lat="48.9816" lon="2.17334">
        <ele>48</ele>
        <time>2023-10-26T12:49:38.525+00:00</time>
      </trkpt>
      <trkpt lat="48.98166" lon="2.17333">
        <ele>48</ele>
        <time>2023-10-26T12:49:43.487+00:00</time>
      </trkpt>
      <trkpt lat="48.98169" lon="2.1733">
        <ele>48</ele>
        <time>2023-10-26T12:49:48.496+00:00</time>
      </trkpt>
      <trkpt lat="48.98172" lon="2.17327">
        <ele>48</ele>
        <time>2023-10-26T12:49:53.489+00:00</time>
      </trkpt>
      <trkpt lat="48.98174" lon="2.17323">
        <ele>48</ele>
        <time>2023-10-26T12:49:58.488+00:00</time>
      </trkpt>
      <trkpt lat="48.98175" lon="2.1732">
        <ele>48</ele>
        <time>2023-10-26T12:50:03.490+00:00</time>
      </trkpt>
      <trkpt lat="48.98177" lon="2.17316">
        <ele>44</ele>
        <time>2023-10-26T12:50:08.490+00:00</time>
      </trkpt>
      <trkpt lat="48.98179" lon="2.17314">
        <ele>44</ele>
        <time>2023-10-26T12:50:12.525+00:00</time>
      </trkpt>
      <trkpt lat="48.98183" lon="2.17312">
        <ele>50</ele>
        <time>2023-10-26T12:50:17.487+00:00</time>
      </trkpt>
      <trkpt lat="48.98184" lon="2.1731">
        <ele>50</ele>
        <time>2023-10-26T12:50:22.486+00:00</time>
      </trkpt>
      <trkpt lat="48.98188" lon="2.17308">
        <ele>50</ele>
        <time>2023-10-26T12:50:27.484+00:00</time>
      </trkpt>
      <trkpt lat="48.98191" lon="2.17304">
        <ele>50</ele>
        <time>2023-10-26T12:50:32.480+00:00</time>
      </trkpt>
      <trkpt lat="48.98195" lon="2.173">
        <ele>50</ele>
        <time>2023-10-26T12:50:37.489+00:00</time>
      </trkpt>
      <trkpt lat="48.98197" lon="2.17297">
        <ele>50</ele>
        <time>2023-10-26T12:50:42.486+00:00</time>
      </trkpt>
      <trkpt lat="48.982" lon="2.17293">
        <ele>50</ele>
        <time>2023-10-26T12:50:47.483+00:00</time>
      </trkpt>
      <trkpt lat="48.98203" lon="2.17289">
        <ele>47</ele>
        <time>2023-10-26T12:50:52.528+00:00</time>
      </trkpt>
      <trkpt lat="48.98205" lon="2.17286">
        <ele>47</ele>
        <time>2023-10-26T12:50:57.487+00:00</time>
      </trkpt>
      <trkpt lat="48.98205" lon="2.17286">
        <ele>47</ele>
        <time>2023-10-26T12:51:02.494+00:00</time>
      </trkpt>
      <trkpt lat="48.98207" lon="2.17285">
        <ele>47</ele>
        <time>2023-10-26T12:51:07.477+00:00</time>
      </trkpt>
      <trkpt lat="48.98211" lon="2.17281">
        <ele>51</ele>
        <time>2023-10-26T12:51:12.482+00:00</time>
      </trkpt>
      <trkpt lat="48.98216" lon="2.17278">
        <ele>51</ele>
        <time>2023-10-26T12:51:17.488+00:00</time>
      </trkpt>
      <trkpt lat="48.98221" lon="2.17273">
        <ele>51</ele>
        <time>2023-10-26T12:51:22.483+00:00</time>
      </trkpt>
      <trkpt lat="48.98224" lon="2.17269">
        <ele>51</ele>
        <time>2023-10-26T12:51:26.483+00:00</time>
      </trkpt>
      <trkpt lat="48.98228" lon="2.17262">
        <ele>47</ele>
        <time>2023-10-26T12:51:31.482+00:00</time>
      </trkpt>
      <trkpt lat="48.98233" lon="2.17257">
        <ele>47</ele>
        <time>2023-10-26T12:51:36.482+00:00</time>
      </trkpt>
      <trkpt lat="48.98237" lon="2.1725">
        <ele>54</ele>
        <time>2023-10-26T12:51:41.485+00:00</time>
      </trkpt>
      <trkpt lat="48.98241" lon="2.17244">
        <ele>54</ele>
        <time>2023-10-26T12:51:46.483+00:00</time>
      </trkpt>
      <trkpt lat="48.98244" lon="2.17238">
        <ele>54</ele>
        <time>2023-10-26T12:51:51.488+00:00</time>
      </trkpt>
      <trkpt lat="48.9825" lon="2.17231">
        <ele>50</ele>
        <time>2023-10-26T12:51:56.486+00:00</time>
      </trkpt>
      <trkpt lat="48.98255" lon="2.17226">
        <ele>50</ele>
        <time>2023-10-26T12:52:00.520+00:00</time>
      </trkpt>
      <trkpt lat="48.9826" lon="2.1722">
        <ele>50</ele>
        <time>2023-10-26T12:52:05.481+00:00</time>
      </trkpt>
      <trkpt lat="48.98264" lon="2.17214">
        <ele>50</ele>
        <time>2023-10-26T12:52:09.483+00:00</time>
      </trkpt>
      <trkpt lat="48.98268" lon="2.17207">
        <ele>54</ele>
        <time>2023-10-26T12:52:14.489+00:00</time>
      </trkpt>
      <trkpt lat="48.98271" lon="2.17201">
        <ele>54</ele>
        <time>2023-10-26T12:52:19.485+00:00</time>
      </trkpt>
      <trkpt lat="48.98275" lon="2.17194">
        <ele>54</ele>
        <time>2023-10-26T12:52:24.481+00:00</time>
      </trkpt>
      <trkpt lat="48.9828" lon="2.17188">
        <ele>54</ele>
        <time>2023-10-26T12:52:28.532+00:00</time>
      </trkpt>
      <trkpt lat="48.98285" lon="2.17182">
        <ele>54</ele>
        <time>2023-10-26T12:52:33.492+00:00</time>
      </trkpt>
      <trkpt lat="48.98291" lon="2.17176">
        <ele>51</ele>
        <time>2023-10-26T12:52:38.487+00:00</time>
      </trkpt>
      <trkpt lat="48.98297" lon="2.17169">
        <ele>59</ele>
        <time>2023-10-26T12:52:43.491+00:00</time>
      </trkpt>
      <trkpt lat="48.98303" lon="2.17164">
        <ele>59</ele>
        <time>2023-10-26T12:52:48.488+00:00</time>
      </trkpt>
      <trkpt lat="48.98308" lon="2.17158">
        <ele>59</ele>
        <time>2023-10-26T12:52:53.495+00:00</time>
      </trkpt>
      <trkpt lat="48.98313" lon="2.17151">
        <ele>54</ele>
        <time>2023-10-26T12:52:58.487+00:00</time>
      </trkpt>
      <trkpt lat="48.98317" lon="2.17145">
        <ele>54</ele>
        <time>2023-10-26T12:53:03.486+00:00</time>
      </trkpt>
      <trkpt lat="48.98322" lon="2.17139">
        <ele>61</ele>
        <time>2023-10-26T12:53:08.531+00:00</time>
      </trkpt>
      <trkpt lat="48.98326" lon="2.17133">
        <ele>61</ele>
        <time>2023-10-26T12:53:13.489+00:00</time>
      </trkpt>
      <trkpt lat="48.98331" lon="2.17128">
        <ele>61</ele>
        <time>2023-10-26T12:53:18.482+00:00</time>
      </trkpt>
      <trkpt lat="48.98337" lon="2.17124">
        <ele>58</ele>
        <time>2023-10-26T12:53:23.487+00:00</time>
      </trkpt>
      <trkpt lat="48.98344" lon="2.17116">
        <ele>58</ele>
        <time>2023-10-26T12:53:28.487+00:00</time>
      </trkpt>
      <trkpt lat="48.9835" lon="2.17107">
        <ele>62</ele>
        <time>2023-10-26T12:53:33.485+00:00</time>
      </trkpt>
      <trkpt lat="48.98354" lon="2.17101">
        <ele>62</ele>
        <time>2023-10-26T12:53:37.523+00:00</time>
      </trkpt>
      <trkpt lat="48.98359" lon="2.17094">
        <ele>60</ele>
        <time>2023-10-26T12:53:42.484+00:00</time>
      </trkpt>
      <trkpt lat="48.98364" lon="2.17086">
        <ele>60</ele>
        <time>2023-10-26T12:53:47.483+00:00</time>
      </trkpt>
      <trkpt lat="48.98368" lon="2.1708">
        <ele>60</ele>
        <time>2023-10-26T12:53:52.480+00:00</time>
      </trkpt>
      <trkpt lat="48.98372" lon="2.17076">
        <ele>60</ele>
        <time>2023-10-26T12:53:57.486+00:00</time>
      </trkpt>
      <trkpt lat="48.98376" lon="2.17069">
        <ele>64</ele>
        <time>2023-10-26T12:54:02.483+00:00</time>
      </trkpt>
      <trkpt lat="48.98379" lon="2.17063">
        <ele>64</ele>
        <time>2023-10-26T12:54:06.488+00:00</time>
      </trkpt>
      <trkpt lat="48.98383" lon="2.17057">
        <ele>64</ele>
        <time>2023-10-26T12:54:11.486+00:00</time>
      </trkpt>
      <trkpt lat="48.98387" lon="2.1705">
        <ele>64</ele>
        <time>2023-10-26T12:54:16.484+00:00</time>
      </trkpt>
      <trkpt lat="48.98393" lon="2.17043">
        <ele>64</ele>
        <time>2023-10-26T12:54:21.495+00:00</time>
      </trkpt>
      <trkpt lat="48.98396" lon="2.17036">
        <ele>61</ele>
        <time>2023-10-26T12:54:26.484+00:00</time>
      </trkpt>
      <trkpt lat="48.98401" lon="2.17027">
        <ele>61</ele>
        <time>2023-10-26T12:54:30.527+00:00</time>
      </trkpt>
      <trkpt lat="48.98408" lon="2.1702">
        <ele>67</ele>
        <time>2023-10-26T12:54:35.491+00:00</time>
      </trkpt>
      <trkpt lat="48.98413" lon="2.17013">
        <ele>66</ele>
        <time>2023-10-26T12:54:40.491+00:00</time>
      </trkpt>
      <trkpt lat="48.98416" lon="2.17008">
        <ele>66</ele>
        <time>2023-10-26T12:54:45.489+00:00</time>
      </trkpt>
      <trkpt lat="48.98418" lon="2.17003">
        <ele>66</ele>
        <time>2023-10-26T12:54:50.492+00:00</time>
      </trkpt>
      <trkpt lat="48.98421" lon="2.16998">
        <ele>66</ele>
        <time>2023-10-26T12:54:55.494+00:00</time>
      </trkpt>
      <trkpt lat="48.98426" lon="2.16993">
        <ele>66</ele>
        <time>2023-10-26T12:55:00.490+00:00</time>
      </trkpt>
      <trkpt lat="48.98433" lon="2.16987">
        <ele>70</ele>
        <time>2023-10-26T12:55:05.491+00:00</time>
      </trkpt>
      <trkpt lat="48.98438" lon="2.16982">
        <ele>67</ele>
        <time>2023-10-26T12:55:09.486+00:00</time>
      </trkpt>
      <trkpt lat="48.98442" lon="2.16977">
        <ele>67</ele>
        <time>2023-10-26T12:55:14.490+00:00</time>
      </trkpt>
      <trkpt lat="48.98447" lon="2.1697">
        <ele>67</ele>
        <time>2023-10-26T12:55:19.483+00:00</time>
      </trkpt>
      <trkpt lat="48.9845" lon="2.16963">
        <ele>67</ele>
        <time>2023-10-26T12:55:24.479+00:00</time>
      </trkpt>
      <trkpt lat="48.98451" lon="2.16955">
        <ele>63</ele>
        <time>2023-10-26T12:55:29.478+00:00</time>
      </trkpt>
      <trkpt lat="48.98454" lon="2.16948">
        <ele>63</ele>
        <time>2023-10-26T12:55:34.484+00:00</time>
      </trkpt>
      <trkpt lat="48.98456" lon="2.16942">
        <ele>63</ele>
        <time>2023-10-26T12:55:38.481+00:00</time>
      </trkpt>
      <trkpt lat="48.98459" lon="2.16935">
        <ele>68</ele>
        <time>2023-10-26T12:55:43.486+00:00</time>
      </trkpt>
      <trkpt lat="48.98464" lon="2.16929">
        <ele>64</ele>
        <time>2023-10-26T12:55:48.487+00:00</time>
      </trkpt>
      <trkpt lat="48.98467" lon="2.1692">
        <ele>64</ele>
        <time>2023-10-26T12:55:53.488+00:00</time>
      </trkpt>
      <trkpt lat="48.98471" lon="2.16909">
        <ele>64</ele>
        <time>2023-10-26T12:55:58.483+00:00</time>
      </trkpt>
      <trkpt lat="48.98475" lon="2.169">
        <ele>62</ele>
        <time>2023-10-26T12:56:03.483+00:00</time>
      </trkpt>
      <trkpt lat="48.98479" lon="2.16893">
        <ele>62</ele>
        <time>2023-10-26T12:56:08.478+00:00</time>
      </trkpt>
      <trkpt lat="48.98482" lon="2.16885">
        <ele>62</ele>
        <time>2023-10-26T12:56:12.518+00:00</time>
      </trkpt>
      <trkpt lat="48.98488" lon="2.1688">
        <ele>70</ele>
        <time>2023-10-26T12:56:17.481+00:00</time>
      </trkpt>
      <trkpt lat="48.98493" lon="2.16874">
        <ele>68</ele>
        <time>2023-10-26T12:56:22.482+00:00</time>
      </trkpt>
      <trkpt lat="48.98497" lon="2.16865">
        <ele>68</ele>
        <time>2023-10-26T12:56:27.482+00:00</time>
      </trkpt>
      <trkpt lat="48.98501" lon="2.16859">
        <ele>68</ele>
        <time>2023-10-26T12:56:32.485+00:00</time>
      </trkpt>
      <trkpt lat="48.98505" lon="2.16852">
        <ele>68</ele>
        <time>2023-10-26T12:56:37.481+00:00</time>
      </trkpt>
      <trkpt lat="48.98509" lon="2.16846">
        <ele>64</ele>
        <time>2023-10-26T12:56:42.486+00:00</time>
      </trkpt>
      <trkpt lat="48.98511" lon="2.16838">
        <ele>64</ele>
        <time>2023-10-26T12:56:47.484+00:00</time>
      </trkpt>
      <trkpt lat="48.98515" lon="2.1683">
        <ele>70</ele>
        <time>2023-10-26T12:56:52.480+00:00</time>
      </trkpt>
      <trkpt lat="48.98518" lon="2.16823">
        <ele>70</ele>
        <time>2023-10-26T12:56:57.482+00:00</time>
      </trkpt>
      <trkpt lat="48.9852" lon="2.16816">
        <ele>68</ele>
        <time>2023-10-26T12:57:02.480+00:00</time>
      </trkpt>
      <trkpt lat="48.98523" lon="2.16811">
        <ele>68</ele>
        <time>2023-10-26T12:57:06.476+00:00</time>
      </trkpt>
      <trkpt lat="48.98525" lon="2.16802">
        <ele>68</ele>
        <time>2023-10-26T12:57:11.492+00:00</time>
      </trkpt>
      <trkpt lat="48.98526" lon="2.16794">
        <ele>68</ele>
        <time>2023-10-26T12:57:15.480+00:00</time>
      </trkpt>
      <trkpt lat="48.98529" lon="2.16786">
        <ele>67</ele>
        <time>2023-10-26T12:57:20.484+00:00</time>
      </trkpt>
      <trkpt lat="48.98531" lon="2.16779">
        <ele>67</ele>
        <time>2023-10-26T12:57:24.489+00:00</time>
      </trkpt>
      <trkpt lat="48.98535" lon="2.16772">
        <ele>67</ele>
        <time>2023-10-26T12:57:29.478+00:00</time>
      </trkpt>
      <trkpt lat="48.98538" lon="2.16765">
        <ele>67</ele>
        <time>2023-10-26T12:57:34.481+00:00</time>
      </trkpt>
      <trkpt lat="48.9854" lon="2.16756">
        <ele>64</ele>
        <time>2023-10-26T12:57:39.485+00:00</time>
      </trkpt>
      <trkpt lat="48.98544" lon="2.16747">
        <ele>71</ele>
        <time>2023-10-26T12:57:44.481+00:00</time>
      </trkpt>
      <trkpt lat="48.98549" lon="2.16739">
        <ele>71</ele>
        <time>2023-10-26T12:57:49.477+00:00</time>
      </trkpt>
      <trkpt lat="48.98553" lon="2.16732">
        <ele>67</ele>
        <time>2023-10-26T12:57:54.481+00:00</time>
      </trkpt>
      <trkpt lat="48.98557" lon="2.16726">
        <ele>67</ele>
        <time>2023-10-26T12:57:59.484+00:00</time>
      </trkpt>
      <trkpt lat="48.98562" lon="2.1672">
        <ele>67</ele>
        <time>2023-10-26T12:58:04.481+00:00</time>
      </trkpt>
      <trkpt lat="48.98567" lon="2.16715">
        <ele>67</ele>
        <time>2023-10-26T12:58:09.479+00:00</time>
      </trkpt>
      <trkpt lat="48.98571" lon="2.16707">
        <ele>70</ele>
        <time>2023-10-26T12:58:14.477+00:00</time>
      </trkpt>
      <trkpt lat="48.98575" lon="2.16699">
        <ele>70</ele>
        <time>2023-10-26T12:58:19.476+00:00</time>
      </trkpt>
      <trkpt lat="48.98577" lon="2.16691">
        <ele>70</ele>
        <time>2023-10-26T12:58:24.479+00:00</time>
      </trkpt>
      <trkpt lat="48.98579" lon="2.16682">
        <ele>70</ele>
        <time>2023-10-26T12:58:29.485+00:00</time>
      </trkpt>
      <trkpt lat="48.98582" lon="2.16675">
        <ele>67</ele>
        <time>2023-10-26T12:58:34.480+00:00</time>
      </trkpt>
      <trkpt lat="48.98583" lon="2.16667">
        <ele>67</ele>
        <time>2023-10-26T12:58:38.480+00:00</time>
      </trkpt>
      <trkpt lat="48.98586" lon="2.16658">
        <ele>67</ele>
        <time>2023-10-26T12:58:43.479+00:00</time>
      </trkpt>
      <trkpt lat="48.98586" lon="2.16652">
        <ele>64</ele>
        <time>2023-10-26T12:58:47.484+00:00</time>
      </trkpt>
      <trkpt lat="48.98588" lon="2.16645">
        <ele>64</ele>
        <time>2023-10-26T12:58:51.486+00:00</time>
      </trkpt>
      <trkpt lat="48.9859" lon="2.16637">
        <ele>64</ele>
        <time>2023-10-26T12:58:55.516+00:00</time>
      </trkpt>
      <trkpt lat="48.98592" lon="2.16628">
        <ele>64</ele>
        <time>2023-10-26T12:59:00.477+00:00</time>
      </trkpt>
      <trkpt lat="48.98593" lon="2.1662">
        <ele>60</ele>
        <time>2023-10-26T12:59:04.503+00:00</time>
      </trkpt>
      <trkpt lat="48.98595" lon="2.1661">
        <ele>60</ele>
        <time>2023-10-26T12:59:09.482+00:00</time>
      </trkpt>
      <trkpt lat="48.98597" lon="2.16602">
        <ele>60</ele>
        <time>2023-10-26T12:59:13.488+00:00</time>
      </trkpt>
      <trkpt lat="48.98599" lon="2.16593">
        <ele>61</ele>
        <time>2023-10-26T12:59:18.478+00:00</time>
      </trkpt>
      <trkpt lat="48.98602" lon="2.16583">
        <ele>61</ele>
        <time>2023-10-26T12:59:23.483+00:00</time>
      </trkpt>
      <trkpt lat="48.98604" lon="2.16575">
        <ele>61</ele>
        <time>2023-10-26T12:59:28.485+00:00</time>
      </trkpt>
      <trkpt lat="48.98605" lon="2.16566">
        <ele>58</ele>
        <time>2023-10-26T12:59:33.485+00:00</time>
      </trkpt>
      <trkpt lat="48.98608" lon="2.16557">
        <ele>58</ele>
        <time>2023-10-26T12:59:38.480+00:00</time>
      </trkpt>
      <trkpt lat="48.98609" lon="2.16548">
        <ele>58</ele>
        <time>2023-10-26T12:59:43.481+00:00</time>
      </trkpt>
      <trkpt lat="48.98611" lon="2.16539">
        <ele>57</ele>
        <time>2023-10-26T12:59:48.484+00:00</time>
      </trkpt>
      <trkpt lat="48.98613" lon="2.16531">
        <ele>57</ele>
        <time>2023-10-26T12:59:52.481+00:00</time>
      </trkpt>
      <trkpt lat="48.98614" lon="2.16523">
        <ele>57</ele>
        <time>2023-10-26T12:59:56.486+00:00</time>
      </trkpt>
      <trkpt lat="48.98615" lon="2.16513">
        <ele>54</ele>
        <time>2023-10-26T13:00:01.486+00:00</time>
      </trkpt>
      <trkpt lat="48.98616" lon="2.16506">
        <ele>54</ele>
        <time>2023-10-26T13:00:05.486+00:00</time>
      </trkpt>
      <trkpt lat="48.98619" lon="2.16497">
        <ele>54</ele>
        <time>2023-10-26T13:00:10.477+00:00</time>
      </trkpt>
      <trkpt lat="48.98622" lon="2.16488">
        <ele>54</ele>
        <time>2023-10-26T13:00:15.479+00:00</time>
      </trkpt>
      <trkpt lat="48.98624" lon="2.16479">
        <ele>52</ele>
        <time>2023-10-26T13:00:20.490+00:00</time>
      </trkpt>
      <trkpt lat="48.98626" lon="2.1647">
        <ele>61</ele>
        <time>2023-10-26T13:00:25.482+00:00</time>
      </trkpt>
      <trkpt lat="48.98631" lon="2.16463">
        <ele>61</ele>
        <time>2023-10-26T13:00:30.483+00:00</time>
      </trkpt>
      <trkpt lat="48.98634" lon="2.16452">
        <ele>58</ele>
        <time>2023-10-26T13:00:35.484+00:00</time>
      </trkpt>
      <trkpt lat="48.98638" lon="2.16442">
        <ele>58</ele>
        <time>2023-10-26T13:00:40.477+00:00</time>
      </trkpt>
      <trkpt lat="48.98641" lon="2.16435">
        <ele>58</ele>
        <time>2023-10-26T13:00:44.486+00:00</time>
      </trkpt>
      <trkpt lat="48.98644" lon="2.16427">
        <ele>54</ele>
        <time>2023-10-26T13:00:49.479+00:00</time>
      </trkpt>
      <trkpt lat="48.98646" lon="2.16418">
        <ele>54</ele>
        <time>2023-10-26T13:00:54.483+00:00</time>
      </trkpt>
      <trkpt lat="48.98648" lon="2.1641">
        <ele>54</ele>
        <time>2023-10-26T13:00:59.483+00:00</time>
      </trkpt>
      <trkpt lat="48.98649" lon="2.16399">
        <ele>51</ele>
        <time>2023-10-26T13:01:04.477+00:00</time>
      </trkpt>
      <trkpt lat="48.98652" lon="2.1639">
        <ele>51</ele>
        <time>2023-10-26T13:01:09.476+00:00</time>
      </trkpt>
      <trkpt lat="48.98655" lon="2.16383">
        <ele>57</ele>
        <time>2023-10-26T13:01:13.485+00:00</time>
      </trkpt>
      <trkpt lat="48.98656" lon="2.16376">
        <ele>57</ele>
        <time>2023-10-26T13:01:17.486+00:00</time>
      </trkpt>
      <trkpt lat="48.98659" lon="2.16365">
        <ele>56</ele>
        <time>2023-10-26T13:01:22.489+00:00</time>
      </trkpt>
      <trkpt lat="48.98662" lon="2.16358">
        <ele>56</ele>
        <time>2023-10-26T13:01:26.501+00:00</time>
      </trkpt>
      <trkpt lat="48.98665" lon="2.1635">
        <ele>56</ele>
        <time>2023-10-26T13:01:31.496+00:00</time>
      </trkpt>
      <trkpt lat="48.98667" lon="2.16341">
        <ele>56</ele>
        <time>2023-10-26T13:01:36.480+00:00</time>
      </trkpt>
      <trkpt lat="48.98669" lon="2.16335">
        <ele>56</ele>
        <time>2023-10-26T13:01:40.481+00:00</time>
      </trkpt>
      <trkpt lat="48.98672" lon="2.16325">
        <ele>56</ele>
        <time>2023-10-26T13:01:45.479+00:00</time>
      </trkpt>
      <trkpt lat="48.98674" lon="2.16313">
        <ele>55</ele>
        <time>2023-10-26T13:01:50.485+00:00</time>
      </trkpt>
      <trkpt lat="48.98677" lon="2.16303">
        <ele>55</ele>
        <time>2023-10-26T13:01:55.484+00:00</time>
      </trkpt>
      <trkpt lat="48.9868" lon="2.16295">
        <ele>55</ele>
        <time>2023-10-26T13:02:00.491+00:00</time>
      </trkpt>
      <trkpt lat="48.98681" lon="2.16287">
        <ele>60</ele>
        <time>2023-10-26T13:02:05.483+00:00</time>
      </trkpt>
      <trkpt lat="48.98683" lon="2.16278">
        <ele>60</ele>
        <time>2023-10-26T13:02:10.484+00:00</time>
      </trkpt>
      <trkpt lat="48.98684" lon="2.16269">
        <ele>60</ele>
        <time>2023-10-26T13:02:14.486+00:00</time>
      </trkpt>
      <trkpt lat="48.98684" lon="2.1626">
        <ele>59</ele>
        <time>2023-10-26T13:02:19.482+00:00</time>
      </trkpt>
      <trkpt lat="48.98685" lon="2.16252">
        <ele>59</ele>
        <time>2023-10-26T13:02:24.481+00:00</time>
      </trkpt>
      <trkpt lat="48.98687" lon="2.16243">
        <ele>59</ele>
        <time>2023-10-26T13:02:29.483+00:00</time>
      </trkpt>
      <trkpt lat="48.98689" lon="2.16232">
        <ele>57</ele>
        <time>2023-10-26T13:02:34.480+00:00</time>
      </trkpt>
      <trkpt lat="48.98688" lon="2.16223">
        <ele>57</ele>
        <time>2023-10-26T13:02:39.481+00:00</time>
      </trkpt>
      <trkpt lat="48.98689" lon="2.16214">
        <ele>57</ele>
        <time>2023-10-26T13:02:43.479+00:00</time>
      </trkpt>
      <trkpt lat="48.98692" lon="2.16206">
        <ele>55</ele>
        <time>2023-10-26T13:02:48.480+00:00</time>
      </trkpt>
      <trkpt lat="48.98696" lon="2.16198">
        <ele>55</ele>
        <time>2023-10-26T13:02:53.484+00:00</time>
      </trkpt>
      <trkpt lat="48.98698" lon="2.16189">
        <ele>55</ele>
        <time>2023-10-26T13:02:58.477+00:00</time>
      </trkpt>
      <trkpt lat="48.987" lon="2.16181">
        <ele>55</ele>
        <time>2023-10-26T13:03:02.489+00:00</time>
      </trkpt>
      <trkpt lat="48.98699" lon="2.16167">
        <ele>54</ele>
        <time>2023-10-26T13:03:07.475+00:00</time>
      </trkpt>
      <trkpt lat="48.98699" lon="2.16154">
        <ele>54</ele>
        <time>2023-10-26T13:03:12.487+00:00</time>
      </trkpt>
      <trkpt lat="48.987" lon="2.16143">
        <ele>54</ele>
        <time>2023-10-26T13:03:17.492+00:00</time>
      </trkpt>
      <trkpt lat="48.98701" lon="2.16135">
        <ele>54</ele>
        <time>2023-10-26T13:03:21.493+00:00</time>
      </trkpt>
      <trkpt lat="48.98702" lon="2.16125">
        <ele>54</ele>
        <time>2023-10-26T13:03:26.486+00:00</time>
      </trkpt>
      <trkpt lat="48.98707" lon="2.16119">
        <ele>54</ele>
        <time>2023-10-26T13:03:31.477+00:00</time>
      </trkpt>
      <trkpt lat="48.98711" lon="2.16109">
        <ele>59</ele>
        <time>2023-10-26T13:03:36.478+00:00</time>
      </trkpt>
      <trkpt lat="48.98712" lon="2.16101">
        <ele>59</ele>
        <time>2023-10-26T13:03:40.482+00:00</time>
      </trkpt>
      <trkpt lat="48.98714" lon="2.16092">
        <ele>57</ele>
        <time>2023-10-26T13:03:45.485+00:00</time>
      </trkpt>
      <trkpt lat="48.98715" lon="2.16083">
        <ele>57</ele>
        <time>2023-10-26T13:03:50.482+00:00</time>
      </trkpt>
      <trkpt lat="48.98715" lon="2.16073">
        <ele>57</ele>
        <time>2023-10-26T13:03:55.482+00:00</time>
      </trkpt>
      <trkpt lat="48.98716" lon="2.16063">
        <ele>56</ele>
        <time>2023-10-26T13:04:00.485+00:00</time>
      </trkpt>
      <trkpt lat="48.98719" lon="2.16057">
        <ele>56</ele>
        <time>2023-10-26T13:04:05.483+00:00</time>
      </trkpt>
      <trkpt lat="48.98724" lon="2.16055">
        <ele>56</ele>
        <time>2023-10-26T13:04:10.483+00:00</time>
      </trkpt>
      <trkpt lat="48.98728" lon="2.16056">
        <ele>56</ele>
        <time>2023-10-26T13:04:15.483+00:00</time>
      </trkpt>
      <trkpt lat="48.98733" lon="2.16055">
        <ele>56</ele>
        <time>2023-10-26T13:04:20.485+00:00</time>
      </trkpt>
      <trkpt lat="48.98738" lon="2.16054">
        <ele>60</ele>
        <time>2023-10-26T13:04:25.484+00:00</time>
      </trkpt>
      <trkpt lat="48.98743" lon="2.16057">
        <ele>60</ele>
        <time>2023-10-26T13:04:30.481+00:00</time>
      </trkpt>
      <trkpt lat="48.98748" lon="2.16058">
        <ele>60</ele>
        <time>2023-10-26T13:04:35.485+00:00</time>
      </trkpt>
      <trkpt lat="48.98752" lon="2.16057">
        <ele>60</ele>
        <time>2023-10-26T13:04:40.486+00:00</time>
      </trkpt>
      <trkpt lat="48.98752" lon="2.16054">
        <ele>60</ele>
        <time>2023-10-26T13:04:45.481+00:00</time>
      </trkpt>
      <trkpt lat="48.98753" lon="2.16053">
        <ele>60</ele>
        <time>2023-10-26T13:04:50.484+00:00</time>
      </trkpt>
      <trkpt lat="48.98756" lon="2.16055">
        <ele>60</ele>
        <time>2023-10-26T13:04:55.481+00:00</time>
      </trkpt>
      <trkpt lat="48.98763" lon="2.16055">
        <ele>60</ele>
        <time>2023-10-26T13:05:00.482+00:00</time>
      </trkpt>
      <trkpt lat="48.98771" lon="2.16052">
        <ele>61</ele>
        <time>2023-10-26T13:05:05.481+00:00</time>
      </trkpt>
      <trkpt lat="48.98777" lon="2.16045">
        <ele>61</ele>
        <time>2023-10-26T13:05:10.482+00:00</time>
      </trkpt>
      <trkpt lat="48.98778" lon="2.16034">
        <ele>60</ele>
        <time>2023-10-26T13:05:15.481+00:00</time>
      </trkpt>
      <trkpt lat="48.98777" lon="2.16026">
        <ele>60</ele>
        <time>2023-10-26T13:05:19.477+00:00</time>
      </trkpt>
      <trkpt lat="48.98776" lon="2.16018">
        <ele>60</ele>
        <time>2023-10-26T13:05:24.480+00:00</time>
      </trkpt>
      <trkpt lat="48.98774" lon="2.16011">
        <ele>59</ele>
        <time>2023-10-26T13:05:29.479+00:00</time>
      </trkpt>
      <trkpt lat="48.98772" lon="2.16005">
        <ele>59</ele>
        <time>2023-10-26T13:05:33.486+00:00</time>
      </trkpt>
      <trkpt lat="48.98767" lon="2.15999">
        <ele>59</ele>
        <time>2023-10-26T13:05:38.482+00:00</time>
      </trkpt>
      <trkpt lat="48.98763" lon="2.15994">
        <ele>59</ele>
        <time>2023-10-26T13:05:43.485+00:00</time>
      </trkpt>
      <trkpt lat="48.98757" lon="2.15988">
        <ele>59</ele>
        <time>2023-10-26T13:05:48.488+00:00</time>
      </trkpt>
      <trkpt lat="48.98751" lon="2.15987">
        <ele>59</ele>
        <time>2023-10-26T13:05:53.486+00:00</time>
      </trkpt>
      <trkpt lat="48.98746" lon="2.15987">
        <ele>59</ele>
        <time>2023-10-26T13:05:58.488+00:00</time>
      </trkpt>
      <trkpt lat="48.98757" lon="2.15961">
        <ele>57</ele>
        <time>2023-10-26T13:09:53.477+00:00</time>
      </trkpt>
      <trkpt lat="48.98759" lon="2.15963">
        <ele>57</ele>
        <time>2023-10-26T13:09:57.479+00:00</time>
      </trkpt>
      <trkpt lat="48.98763" lon="2.15968">
        <ele>57</ele>
        <time>2023-10-26T13:10:02.482+00:00</time>
      </trkpt>
      <trkpt lat="48.98765" lon="2.15968">
        <ele>56</ele>
        <time>2023-10-26T13:10:06.476+00:00</time>
      </trkpt>
      <trkpt lat="48.98765" lon="2.15965">
        <ele>56</ele>
        <time>2023-10-26T13:10:10.477+00:00</time>
      </trkpt>
      <trkpt lat="48.98763" lon="2.15963">
        <ele>57</ele>
        <time>2023-10-26T13:10:14.505+00:00</time>
      </trkpt>
      <trkpt lat="48.98761" lon="2.15957">
        <ele>52</ele>
        <time>2023-10-26T13:10:19.489+00:00</time>
      </trkpt>
      <trkpt lat="48.9876" lon="2.15953">
        <ele>52</ele>
        <time>2023-10-26T13:10:23.504+00:00</time>
      </trkpt>
      <trkpt lat="48.98761" lon="2.15951">
        <ele>52</ele>
        <time>2023-10-26T13:10:28.486+00:00</time>
      </trkpt>
      <trkpt lat="48.98764" lon="2.15945">
        <ele>52</ele>
        <time>2023-10-26T13:10:33.492+00:00</time>
      </trkpt>
      <trkpt lat="48.98766" lon="2.15939">
        <ele>50</ele>
        <time>2023-10-26T13:10:38.477+00:00</time>
      </trkpt>
      <trkpt lat="48.98771" lon="2.15936">
        <ele>50</ele>
        <time>2023-10-26T13:10:42.486+00:00</time>
      </trkpt>
      <trkpt lat="48.98774" lon="2.15936">
        <ele>50</ele>
        <time>2023-10-26T13:10:47.474+00:00</time>
      </trkpt>
      <trkpt lat="48.98775" lon="2.15934">
        <ele>50</ele>
        <time>2023-10-26T13:10:52.479+00:00</time>
      </trkpt>
      <trkpt lat="48.98776" lon="2.15931">
        <ele>43</ele>
        <time>2023-10-26T13:10:57.478+00:00</time>
      </trkpt>
      <trkpt lat="48.98777" lon="2.15927">
        <ele>43</ele>
        <time>2023-10-26T13:11:01.480+00:00</time>
      </trkpt>
      <trkpt lat="48.98782" lon="2.15926">
        <ele>43</ele>
        <time>2023-10-26T13:11:06.481+00:00</time>
      </trkpt>
      <trkpt lat="48.98786" lon="2.15924">
        <ele>43</ele>
        <time>2023-10-26T13:11:11.486+00:00</time>
      </trkpt>
      <trkpt lat="48.98788" lon="2.15917">
        <ele>43</ele>
        <time>2023-10-26T13:11:29.481+00:00</time>
      </trkpt>
      <trkpt lat="48.98789" lon="2.15914">
        <ele>43</ele>
        <time>2023-10-26T13:11:34.487+00:00</time>
      </trkpt>
      <trkpt lat="48.98788" lon="2.15907">
        <ele>43</ele>
        <time>2023-10-26T13:11:39.490+00:00</time>
      </trkpt>
      <trkpt lat="48.98787" lon="2.15901">
        <ele>39</ele>
        <time>2023-10-26T13:11:44.484+00:00</time>
      </trkpt>
      <trkpt lat="48.98787" lon="2.15895">
        <ele>39</ele>
        <time>2023-10-26T13:11:49.491+00:00</time>
      </trkpt>
      <trkpt lat="48.9879" lon="2.1589">
        <ele>39</ele>
        <time>2023-10-26T13:11:54.489+00:00</time>
      </trkpt>
      <trkpt lat="48.98793" lon="2.15896">
        <ele>41</ele>
        <time>2023-10-26T13:11:59.480+00:00</time>
      </trkpt>
      <trkpt lat="48.98794" lon="2.15902">
        <ele>41</ele>
        <time>2023-10-26T13:12:04.488+00:00</time>
      </trkpt>
      <trkpt lat="48.98793" lon="2.15904">
        <ele>44</ele>
        <time>2023-10-26T13:12:09.477+00:00</time>
      </trkpt>
      <trkpt lat="48.98793" lon="2.15891">
        <ele>41</ele>
        <time>2023-10-26T13:13:43.477+00:00</time>
      </trkpt>
      <trkpt lat="48.98793" lon="2.1589">
        <ele>41</ele>
        <time>2023-10-26T13:13:47.487+00:00</time>
      </trkpt>
      <trkpt lat="48.98793" lon="2.1589">
        <ele>41</ele>
        <time>2023-10-26T13:13:52.483+00:00</time>
      </trkpt>
      <trkpt lat="48.98793" lon="2.15889">
        <ele>41</ele>
        <time>2023-10-26T13:13:56.483+00:00</time>
      </trkpt>
      <trkpt lat="48.98793" lon="2.15889">
        <ele>41</ele>
        <time>2023-10-26T13:14:00.475+00:00</time>
      </trkpt>
      <trkpt lat="48.98793" lon="2.15889">
        <ele>41</ele>
        <time>2023-10-26T13:14:05.484+00:00</time>
      </trkpt>
      <trkpt lat="48.98791" lon="2.15887">
        <ele>39</ele>
        <time>2023-10-26T13:14:10.492+00:00</time>
      </trkpt>
      <trkpt lat="48.98787" lon="2.15878">
        <ele>39</ele>
        <time>2023-10-26T13:14:15.499+00:00</time>
      </trkpt>
      <trkpt lat="48.98782" lon="2.1587">
        <ele>36</ele>
        <time>2023-10-26T13:14:20.493+00:00</time>
      </trkpt>
      <trkpt lat="48.98778" lon="2.15863">
        <ele>36</ele>
        <time>2023-10-26T13:14:25.489+00:00</time>
      </trkpt>
      <trkpt lat="48.98773" lon="2.15856">
        <ele>36</ele>
        <time>2023-10-26T13:14:30.491+00:00</time>
      </trkpt>
      <trkpt lat="48.98771" lon="2.15846">
        <ele>36</ele>
        <time>2023-10-26T13:14:35.489+00:00</time>
      </trkpt>
      <trkpt lat="48.98767" lon="2.15839">
        <ele>36</ele>
        <time>2023-10-26T13:14:40.489+00:00</time>
      </trkpt>
      <trkpt lat="48.98762" lon="2.15833">
        <ele>30</ele>
        <time>2023-10-26T13:14:45.477+00:00</time>
      </trkpt>
      <trkpt lat="48.98758" lon="2.15826">
        <ele>30</ele>
        <time>2023-10-26T13:14:50.482+00:00</time>
      </trkpt>
      <trkpt lat="48.98754" lon="2.1582">
        <ele>30</ele>
        <time>2023-10-26T13:14:55.477+00:00</time>
      </trkpt>
      <trkpt lat="48.9875" lon="2.15814">
        <ele>30</ele>
        <time>2023-10-26T13:14:59.482+00:00</time>
      </trkpt>
      <trkpt lat="48.98745" lon="2.15809">
        <ele>30</ele>
        <time>2023-10-26T13:15:04.481+00:00</time>
      </trkpt>
      <trkpt lat="48.98741" lon="2.15805">
        <ele>30</ele>
        <time>2023-10-26T13:15:08.508+00:00</time>
      </trkpt>
      <trkpt lat="48.98737" lon="2.15799">
        <ele>30</ele>
        <time>2023-10-26T13:15:13.485+00:00</time>
      </trkpt>
      <trkpt lat="48.98734" lon="2.15794">
        <ele>29</ele>
        <time>2023-10-26T13:15:18.481+00:00</time>
      </trkpt>
      <trkpt lat="48.98734" lon="2.15794">
        <ele>29</ele>
        <time>2023-10-26T13:15:23.482+00:00</time>
      </trkpt>
      <trkpt lat="48.98737" lon="2.15792">
        <ele>30</ele>
        <time>2023-10-26T13:15:27.487+00:00</time>
      </trkpt>
      <trkpt lat="48.9874" lon="2.15784">
        <ele>30</ele>
        <time>2023-10-26T13:15:32.478+00:00</time>
      </trkpt>
      <trkpt lat="48.98742" lon="2.15776">
        <ele>30</ele>
        <time>2023-10-26T13:15:36.500+00:00</time>
      </trkpt>
      <trkpt lat="48.98744" lon="2.15767">
        <ele>30</ele>
        <time>2023-10-26T13:15:41.490+00:00</time>
      </trkpt>
      <trkpt lat="48.98744" lon="2.15758">
        <ele>31</ele>
        <time>2023-10-26T13:15:45.480+00:00</time>
      </trkpt>
      <trkpt lat="48.98746" lon="2.1575">
        <ele>31</ele>
        <time>2023-10-26T13:15:50.482+00:00</time>
      </trkpt>
      <trkpt lat="48.98748" lon="2.15742">
        <ele>31</ele>
        <time>2023-10-26T13:15:55.490+00:00</time>
      </trkpt>
      <trkpt lat="48.9875" lon="2.15732">
        <ele>31</ele>
        <time>2023-10-26T13:16:00.485+00:00</time>
      </trkpt>
      <trkpt lat="48.98751" lon="2.15722">
        <ele>31</ele>
        <time>2023-10-26T13:16:05.475+00:00</time>
      </trkpt>
      <trkpt lat="48.98753" lon="2.15713">
        <ele>31</ele>
        <time>2023-10-26T13:16:09.480+00:00</time>
      </trkpt>
      <trkpt lat="48.98755" lon="2.15702">
        <ele>31</ele>
        <time>2023-10-26T13:16:14.481+00:00</time>
      </trkpt>
      <trkpt lat="48.98759" lon="2.15694">
        <ele>31</ele>
        <time>2023-10-26T13:16:19.477+00:00</time>
      </trkpt>
      <trkpt lat="48.98762" lon="2.15685">
        <ele>31</ele>
        <time>2023-10-26T13:16:24.482+00:00</time>
      </trkpt>
      <trkpt lat="48.98765" lon="2.15677">
        <ele>35</ele>
        <time>2023-10-26T13:16:29.481+00:00</time>
      </trkpt>
      <trkpt lat="48.98769" lon="2.15669">
        <ele>35</ele>
        <time>2023-10-26T13:16:34.479+00:00</time>
      </trkpt>
      <trkpt lat="48.98773" lon="2.1566">
        <ele>35</ele>
        <time>2023-10-26T13:16:39.486+00:00</time>
      </trkpt>
      <trkpt lat="48.98777" lon="2.15648">
        <ele>32</ele>
        <time>2023-10-26T13:16:44.485+00:00</time>
      </trkpt>
      <trkpt lat="48.98779" lon="2.15638">
        <ele>32</ele>
        <time>2023-10-26T13:16:48.487+00:00</time>
      </trkpt>
      <trkpt lat="48.9878" lon="2.15629">
        <ele>32</ele>
        <time>2023-10-26T13:16:52.501+00:00</time>
      </trkpt>
      <trkpt lat="48.98782" lon="2.15621">
        <ele>30</ele>
        <time>2023-10-26T13:16:56.479+00:00</time>
      </trkpt>
      <trkpt lat="48.98785" lon="2.15611">
        <ele>30</ele>
        <time>2023-10-26T13:17:01.484+00:00</time>
      </trkpt>
      <trkpt lat="48.98787" lon="2.15603">
        <ele>30</ele>
        <time>2023-10-26T13:17:05.485+00:00</time>
      </trkpt>
      <trkpt lat="48.98789" lon="2.15597">
        <ele>30</ele>
        <time>2023-10-26T13:17:09.475+00:00</time>
      </trkpt>
      <trkpt lat="48.98791" lon="2.1559">
        <ele>28</ele>
        <time>2023-10-26T13:17:14.481+00:00</time>
      </trkpt>
      <trkpt lat="48.98795" lon="2.15582">
        <ele>36</ele>
        <time>2023-10-26T13:17:19.483+00:00</time>
      </trkpt>
      <trkpt lat="48.98798" lon="2.15574">
        <ele>36</ele>
        <time>2023-10-26T13:17:24.480+00:00</time>
      </trkpt>
      <trkpt lat="48.988" lon="2.15568">
        <ele>34</ele>
        <time>2023-10-26T13:17:28.490+00:00</time>
      </trkpt>
      <trkpt lat="48.98801" lon="2.15558">
        <ele>34</ele>
        <time>2023-10-26T13:17:33.486+00:00</time>
      </trkpt>
      <trkpt lat="48.98804" lon="2.1555">
        <ele>34</ele>
        <time>2023-10-26T13:17:38.488+00:00</time>
      </trkpt>
      <trkpt lat="48.98807" lon="2.15544">
        <ele>34</ele>
        <time>2023-10-26T13:17:43.492+00:00</time>
      </trkpt>
      <trkpt lat="48.9881" lon="2.15536">
        <ele>32</ele>
        <time>2023-10-26T13:17:48.488+00:00</time>
      </trkpt>
      <trkpt lat="48.9881" lon="2.1553">
        <ele>32</ele>
        <time>2023-10-26T13:17:53.487+00:00</time>
      </trkpt>
      <trkpt lat="48.98812" lon="2.15525">
        <ele>32</ele>
        <time>2023-10-26T13:17:58.477+00:00</time>
      </trkpt>
      <trkpt lat="48.98814" lon="2.15523">
        <ele>32</ele>
        <time>2023-10-26T13:18:01.552+00:00</time>
      </trkpt>
      <trkpt lat="48.98819" lon="2.15519">
        <ele>32</ele>
        <time>2023-10-26T13:18:07.486+00:00</time>
      </trkpt>
      <trkpt lat="48.98823" lon="2.15512">
        <ele>35</ele>
        <time>2023-10-26T13:18:12.478+00:00</time>
      </trkpt>
      <trkpt lat="48.98826" lon="2.15504">
        <ele>35</ele>
        <time>2023-10-26T13:18:17.478+00:00</time>
      </trkpt>
      <trkpt lat="48.98828" lon="2.155">
        <ele>35</ele>
        <time>2023-10-26T13:18:22.479+00:00</time>
      </trkpt>
      <trkpt lat="48.9883" lon="2.15498">
        <ele>35</ele>
        <time>2023-10-26T13:18:27.484+00:00</time>
      </trkpt>
      <trkpt lat="48.9883" lon="2.15492">
        <ele>35</ele>
        <time>2023-10-26T13:18:32.475+00:00</time>
      </trkpt>
      <trkpt lat="48.9883" lon="2.15491">
        <ele>35</ele>
        <time>2023-10-26T13:18:36.487+00:00</time>
      </trkpt>
      <trkpt lat="48.98834" lon="2.15484">
        <ele>33</ele>
        <time>2023-10-26T13:18:41.483+00:00</time>
      </trkpt>
      <trkpt lat="48.98835" lon="2.15474">
        <ele>33</ele>
        <time>2023-10-26T13:18:46.475+00:00</time>
      </trkpt>
      <trkpt lat="48.98838" lon="2.15464">
        <ele>33</ele>
        <time>2023-10-26T13:18:51.483+00:00</time>
      </trkpt>
      <trkpt lat="48.9884" lon="2.15457">
        <ele>31</ele>
        <time>2023-10-26T13:18:55.482+00:00</time>
      </trkpt>
      <trkpt lat="48.98843" lon="2.15449">
        <ele>31</ele>
        <time>2023-10-26T13:19:00.484+00:00</time>
      </trkpt>
      <trkpt lat="48.98848" lon="2.15445">
        <ele>38</ele>
        <time>2023-10-26T13:19:05.485+00:00</time>
      </trkpt>
      <trkpt lat="48.98852" lon="2.15438">
        <ele>38</ele>
        <time>2023-10-26T13:19:10.487+00:00</time>
      </trkpt>
      <trkpt lat="48.98856" lon="2.15432">
        <ele>38</ele>
        <time>2023-10-26T13:19:15.479+00:00</time>
      </trkpt>
      <trkpt lat="48.9886" lon="2.15425">
        <ele>36</ele>
        <time>2023-10-26T13:19:20.479+00:00</time>
      </trkpt>
      <trkpt lat="48.98862" lon="2.15418">
        <ele>36</ele>
        <time>2023-10-26T13:19:25.476+00:00</time>
      </trkpt>
      <trkpt lat="48.98865" lon="2.15408">
        <ele>36</ele>
        <time>2023-10-26T13:19:30.484+00:00</time>
      </trkpt>
      <trkpt lat="48.98867" lon="2.15398">
        <ele>33</ele>
        <time>2023-10-26T13:19:35.475+00:00</time>
      </trkpt>
      <trkpt lat="48.98868" lon="2.15391">
        <ele>33</ele>
        <time>2023-10-26T13:19:39.480+00:00</time>
      </trkpt>
      <trkpt lat="48.9887" lon="2.15383">
        <ele>33</ele>
        <time>2023-10-26T13:19:44.481+00:00</time>
      </trkpt>
      <trkpt lat="48.9887" lon="2.15376">
        <ele>33</ele>
        <time>2023-10-26T13:19:48.482+00:00</time>
      </trkpt>
      <trkpt lat="48.98872" lon="2.15363">
        <ele>30</ele>
        <time>2023-10-26T13:19:53.483+00:00</time>
      </trkpt>
      <trkpt lat="48.98875" lon="2.15352">
        <ele>37</ele>
        <time>2023-10-26T13:19:58.483+00:00</time>
      </trkpt>
      <trkpt lat="48.98878" lon="2.15341">
        <ele>34</ele>
        <time>2023-10-26T13:20:03.481+00:00</time>
      </trkpt>
      <trkpt lat="48.9888" lon="2.1533">
        <ele>34</ele>
        <time>2023-10-26T13:20:08.483+00:00</time>
      </trkpt>
      <trkpt lat="48.98881" lon="2.15322">
        <ele>34</ele>
        <time>2023-10-26T13:20:12.486+00:00</time>
      </trkpt>
      <trkpt lat="48.98882" lon="2.15312">
        <ele>32</ele>
        <time>2023-10-26T13:20:17.483+00:00</time>
      </trkpt>
      <trkpt lat="48.98884" lon="2.15302">
        <ele>32</ele>
        <time>2023-10-26T13:20:22.488+00:00</time>
      </trkpt>
      <trkpt lat="48.98885" lon="2.15295">
        <ele>32</ele>
        <time>2023-10-26T13:20:26.476+00:00</time>
      </trkpt>
      <trkpt lat="48.98888" lon="2.15286">
        <ele>31</ele>
        <time>2023-10-26T13:20:31.481+00:00</time>
      </trkpt>
      <trkpt lat="48.9889" lon="2.15276">
        <ele>31</ele>
        <time>2023-10-26T13:20:36.483+00:00</time>
      </trkpt>
      <trkpt lat="48.98892" lon="2.15266">
        <ele>31</ele>
        <time>2023-10-26T13:20:41.483+00:00</time>
      </trkpt>
      <trkpt lat="48.98895" lon="2.15259">
        <ele>30</ele>
        <time>2023-10-26T13:20:46.474+00:00</time>
      </trkpt>
      <trkpt lat="48.98897" lon="2.15251">
        <ele>30</ele>
        <time>2023-10-26T13:20:51.475+00:00</time>
      </trkpt>
      <trkpt lat="48.989" lon="2.15242">
        <ele>30</ele>
        <time>2023-10-26T13:20:56.478+00:00</time>
      </trkpt>
      <trkpt lat="48.98902" lon="2.15234">
        <ele>28</ele>
        <time>2023-10-26T13:21:01.481+00:00</time>
      </trkpt>
      <trkpt lat="48.98905" lon="2.15225">
        <ele>33</ele>
        <time>2023-10-26T13:21:06.481+00:00</time>
      </trkpt>
      <trkpt lat="48.98908" lon="2.15218">
        <ele>33</ele>
        <time>2023-10-26T13:21:10.484+00:00</time>
      </trkpt>
      <trkpt lat="48.98912" lon="2.1521">
        <ele>33</ele>
        <time>2023-10-26T13:21:15.486+00:00</time>
      </trkpt>
      <trkpt lat="48.98917" lon="2.15202">
        <ele>31</ele>
        <time>2023-10-26T13:21:20.481+00:00</time>
      </trkpt>
      <trkpt lat="48.9892" lon="2.15192">
        <ele>31</ele>
        <time>2023-10-26T13:21:25.479+00:00</time>
      </trkpt>
      <trkpt lat="48.98923" lon="2.15183">
        <ele>31</ele>
        <time>2023-10-26T13:21:30.481+00:00</time>
      </trkpt>
      <trkpt lat="48.98925" lon="2.15178">
        <ele>30</ele>
        <time>2023-10-26T13:21:35.476+00:00</time>
      </trkpt>
      <trkpt lat="48.98928" lon="2.1517">
        <ele>30</ele>
        <time>2023-10-26T13:21:40.475+00:00</time>
      </trkpt>
      <trkpt lat="48.98931" lon="2.15162">
        <ele>30</ele>
        <time>2023-10-26T13:21:45.482+00:00</time>
      </trkpt>
      <trkpt lat="48.98934" lon="2.15155">
        <ele>33</ele>
        <time>2023-10-26T13:21:50.480+00:00</time>
      </trkpt>
      <trkpt lat="48.98936" lon="2.15149">
        <ele>31</ele>
        <time>2023-10-26T13:21:54.553+00:00</time>
      </trkpt>
      <trkpt lat="48.98939" lon="2.15141">
        <ele>31</ele>
        <time>2023-10-26T13:21:59.481+00:00</time>
      </trkpt>
      <trkpt lat="48.98941" lon="2.15133">
        <ele>31</ele>
        <time>2023-10-26T13:22:03.496+00:00</time>
      </trkpt>
      <trkpt lat="48.98941" lon="2.15128">
        <ele>31</ele>
        <time>2023-10-26T13:22:08.495+00:00</time>
      </trkpt>
      <trkpt lat="48.98937" lon="2.15127">
        <ele>31</ele>
        <time>2023-10-26T13:22:13.485+00:00</time>
      </trkpt>
      <trkpt lat="48.98931" lon="2.15123">
        <ele>30</ele>
        <time>2023-10-26T13:22:18.475+00:00</time>
      </trkpt>
      <trkpt lat="48.98926" lon="2.15118">
        <ele>28</ele>
        <time>2023-10-26T13:22:22.481+00:00</time>
      </trkpt>
      <trkpt lat="48.98921" lon="2.15115">
        <ele>28</ele>
        <time>2023-10-26T13:22:27.473+00:00</time>
      </trkpt>
      <trkpt lat="48.98915" lon="2.15111">
        <ele>28</ele>
        <time>2023-10-26T13:22:32.479+00:00</time>
      </trkpt>
      <trkpt lat="48.98912" lon="2.1511">
        <ele>28</ele>
        <time>2023-10-26T13:22:36.483+00:00</time>
      </trkpt>
      <trkpt lat="48.98906" lon="2.15104">
        <ele>28</ele>
        <time>2023-10-26T13:22:41.483+00:00</time>
      </trkpt>
      <trkpt lat="48.989" lon="2.15098">
        <ele>25</ele>
        <time>2023-10-26T13:22:46.485+00:00</time>
      </trkpt>
      <trkpt lat="48.98895" lon="2.15095">
        <ele>24</ele>
        <time>2023-10-26T13:22:51.475+00:00</time>
      </trkpt>
      <trkpt lat="48.98889" lon="2.15093">
        <ele>24</ele>
        <time>2023-10-26T13:22:56.484+00:00</time>
      </trkpt>
      <trkpt lat="48.98883" lon="2.15088">
        <ele>24</ele>
        <time>2023-10-26T13:23:01.477+00:00</time>
      </trkpt>
      <trkpt lat="48.98878" lon="2.15083">
        <ele>24</ele>
        <time>2023-10-26T13:23:06.479+00:00</time>
      </trkpt>
      <trkpt lat="48.98874" lon="2.15076">
        <ele>22</ele>
        <time>2023-10-26T13:23:10.480+00:00</time>
      </trkpt>
      <trkpt lat="48.98873" lon="2.15067">
        <ele>20</ele>
        <time>2023-10-26T13:23:15.482+00:00</time>
      </trkpt>
      <trkpt lat="48.98873" lon="2.15055">
        <ele>20</ele>
        <time>2023-10-26T13:23:20.480+00:00</time>
      </trkpt>
      <trkpt lat="48.98876" lon="2.15046">
        <ele>24</ele>
        <time>2023-10-26T13:23:25.480+00:00</time>
      </trkpt>
      <trkpt lat="48.98879" lon="2.15041">
        <ele>24</ele>
        <time>2023-10-26T13:23:29.493+00:00</time>
      </trkpt>
      <trkpt lat="48.98883" lon="2.15034">
        <ele>24</ele>
        <time>2023-10-26T13:23:34.485+00:00</time>
      </trkpt>
      <trkpt lat="48.98887" lon="2.15027">
        <ele>24</ele>
        <time>2023-10-26T13:23:39.483+00:00</time>
      </trkpt>
      <trkpt lat="48.98892" lon="2.15019">
        <ele>24</ele>
        <time>2023-10-26T13:23:44.479+00:00</time>
      </trkpt>
      <trkpt lat="48.98897" lon="2.15011">
        <ele>24</ele>
        <time>2023-10-26T13:23:49.480+00:00</time>
      </trkpt>
      <trkpt lat="48.98901" lon="2.15002">
        <ele>24</ele>
        <time>2023-10-26T13:23:54.477+00:00</time>
      </trkpt>
      <trkpt lat="48.98903" lon="2.14994">
        <ele>24</ele>
        <time>2023-10-26T13:23:59.482+00:00</time>
      </trkpt>
      <trkpt lat="48.98906" lon="2.14987">
        <ele>24</ele>
        <time>2023-10-26T13:24:04.477+00:00</time>
      </trkpt>
      <trkpt lat="48.9891" lon="2.1498">
        <ele>22</ele>
        <time>2023-10-26T13:24:09.482+00:00</time>
      </trkpt>
      <trkpt lat="48.98913" lon="2.14973">
        <ele>22</ele>
        <time>2023-10-26T13:24:14.475+00:00</time>
      </trkpt>
      <trkpt lat="48.98916" lon="2.14966">
        <ele>22</ele>
        <time>2023-10-26T13:24:19.481+00:00</time>
      </trkpt>
      <trkpt lat="48.98917" lon="2.14956">
        <ele>22</ele>
        <time>2023-10-26T13:24:24.484+00:00</time>
      </trkpt>
      <trkpt lat="48.9892" lon="2.14944">
        <ele>22</ele>
        <time>2023-10-26T13:24:29.481+00:00</time>
      </trkpt>
      <trkpt lat="48.98923" lon="2.14934">
        <ele>22</ele>
        <time>2023-10-26T13:24:34.477+00:00</time>
      </trkpt>
      <trkpt lat="48.98928" lon="2.14926">
        <ele>20</ele>
        <time>2023-10-26T13:24:39.488+00:00</time>
      </trkpt>
      <trkpt lat="48.9893" lon="2.14916">
        <ele>20</ele>
        <time>2023-10-26T13:24:44.486+00:00</time>
      </trkpt>
      <trkpt lat="48.98932" lon="2.14904">
        <ele>25</ele>
        <time>2023-10-26T13:24:49.480+00:00</time>
      </trkpt>
      <trkpt lat="48.98935" lon="2.14896">
        <ele>27</ele>
        <time>2023-10-26T13:24:53.627+00:00</time>
      </trkpt>
      <trkpt lat="48.98936" lon="2.14888">
        <ele>27</ele>
        <time>2023-10-26T13:24:58.495+00:00</time>
      </trkpt>
      <trkpt lat="48.98942" lon="2.14879">
        <ele>27</ele>
        <time>2023-10-26T13:25:03.473+00:00</time>
      </trkpt>
      <trkpt lat="48.98944" lon="2.14871">
        <ele>28</ele>
        <time>2023-10-26T13:25:08.480+00:00</time>
      </trkpt>
      <trkpt lat="48.98948" lon="2.14862">
        <ele>28</ele>
        <time>2023-10-26T13:25:13.475+00:00</time>
      </trkpt>
      <trkpt lat="48.98952" lon="2.14855">
        <ele>28</ele>
        <time>2023-10-26T13:25:17.481+00:00</time>
      </trkpt>
      <trkpt lat="48.98957" lon="2.14847">
        <ele>27</ele>
        <time>2023-10-26T13:25:22.481+00:00</time>
      </trkpt>
      <trkpt lat="48.9896" lon="2.14841">
        <ele>29</ele>
        <time>2023-10-26T13:25:27.479+00:00</time>
      </trkpt>
      <trkpt lat="48.98964" lon="2.14833">
        <ele>29</ele>
        <time>2023-10-26T13:25:32.484+00:00</time>
      </trkpt>
      <trkpt lat="48.98968" lon="2.14825">
        <ele>29</ele>
        <time>2023-10-26T13:25:37.474+00:00</time>
      </trkpt>
      <trkpt lat="48.98971" lon="2.14814">
        <ele>27</ele>
        <time>2023-10-26T13:25:42.481+00:00</time>
      </trkpt>
      <trkpt lat="48.98974" lon="2.14806">
        <ele>27</ele>
        <time>2023-10-26T13:25:47.479+00:00</time>
      </trkpt>
      <trkpt lat="48.98975" lon="2.14797">
        <ele>27</ele>
        <time>2023-10-26T13:25:52.482+00:00</time>
      </trkpt>
      <trkpt lat="48.98971" lon="2.14793">
        <ele>27</ele>
        <time>2023-10-26T13:25:57.482+00:00</time>
      </trkpt>
      <trkpt lat="48.98971" lon="2.14784">
        <ele>20</ele>
        <time>2023-10-26T13:26:02.479+00:00</time>
      </trkpt>
      <trkpt lat="48.9897" lon="2.14776">
        <ele>20</ele>
        <time>2023-10-26T13:26:07.475+00:00</time>
      </trkpt>
      <trkpt lat="48.98969" lon="2.14775">
        <ele>20</ele>
        <time>2023-10-26T13:26:12.474+00:00</time>
      </trkpt>
      <trkpt lat="48.98969" lon="2.14775">
        <ele>20</ele>
        <time>2023-10-26T13:26:42.478+00:00</time>
      </trkpt>
      <trkpt lat="48.98973" lon="2.14771">
        <ele>20</ele>
        <time>2023-10-26T13:26:47.487+00:00</time>
      </trkpt>
      <trkpt lat="48.98978" lon="2.1477">
        <ele>20</ele>
        <time>2023-10-26T13:26:51.483+00:00</time>
      </trkpt>
      <trkpt lat="48.98984" lon="2.14756">
        <ele>20</ele>
        <time>2023-10-26T13:26:55.489+00:00</time>
      </trkpt>
      <trkpt lat="48.98989" lon="2.14737">
        <ele>25</ele>
        <time>2023-10-26T13:27:00.488+00:00</time>
      </trkpt>
      <trkpt lat="48.98992" lon="2.14725">
        <ele>25</ele>
        <time>2023-10-26T13:27:04.486+00:00</time>
      </trkpt>
      <trkpt lat="48.98995" lon="2.14709">
        <ele>25</ele>
        <time>2023-10-26T13:27:09.480+00:00</time>
      </trkpt>
      <trkpt lat="48.98998" lon="2.14695">
        <ele>25</ele>
        <time>2023-10-26T13:27:13.482+00:00</time>
      </trkpt>
      <trkpt lat="48.99001" lon="2.14675">
        <ele>24</ele>
        <time>2023-10-26T13:27:18.486+00:00</time>
      </trkpt>
      <trkpt lat="48.99004" lon="2.14658">
        <ele>24</ele>
        <time>2023-10-26T13:27:23.484+00:00</time>
      </trkpt>
      <trkpt lat="48.99007" lon="2.14644">
        <ele>20</ele>
        <time>2023-10-26T13:27:28.487+00:00</time>
      </trkpt>
      <trkpt lat="48.99009" lon="2.14632">
        <ele>20</ele>
        <time>2023-10-26T13:27:33.480+00:00</time>
      </trkpt>
      <trkpt lat="48.99012" lon="2.14618">
        <ele>20</ele>
        <time>2023-10-26T13:27:38.483+00:00</time>
      </trkpt>
      <trkpt lat="48.99016" lon="2.14604">
        <ele>21</ele>
        <time>2023-10-26T13:27:43.484+00:00</time>
      </trkpt>
      <trkpt lat="48.99021" lon="2.14591">
        <ele>21</ele>
        <time>2023-10-26T13:27:48.483+00:00</time>
      </trkpt>
      <trkpt lat="48.99027" lon="2.1458">
        <ele>21</ele>
        <time>2023-10-26T13:27:53.482+00:00</time>
      </trkpt>
      <trkpt lat="48.99032" lon="2.1457">
        <ele>21</ele>
        <time>2023-10-26T13:27:58.479+00:00</time>
      </trkpt>
      <trkpt lat="48.99038" lon="2.14562">
        <ele>23</ele>
        <time>2023-10-26T13:28:03.484+00:00</time>
      </trkpt>
      <trkpt lat="48.99041" lon="2.14552">
        <ele>23</ele>
        <time>2023-10-26T13:28:08.474+00:00</time>
      </trkpt>
      <trkpt lat="48.99042" lon="2.1454">
        <ele>25</ele>
        <time>2023-10-26T13:28:13.480+00:00</time>
      </trkpt>
      <trkpt lat="48.99044" lon="2.14531">
        <ele>25</ele>
        <time>2023-10-26T13:28:18.484+00:00</time>
      </trkpt>
      <trkpt lat="48.99047" lon="2.1452">
        <ele>25</ele>
        <time>2023-10-26T13:28:23.475+00:00</time>
      </trkpt>
      <trkpt lat="48.9905" lon="2.14513">
        <ele>24</ele>
        <time>2023-10-26T13:28:27.479+00:00</time>
      </trkpt>
      <trkpt lat="48.99053" lon="2.14504">
        <ele>24</ele>
        <time>2023-10-26T13:28:32.481+00:00</time>
      </trkpt>
      <trkpt lat="48.99054" lon="2.14495">
        <ele>24</ele>
        <time>2023-10-26T13:28:36.481+00:00</time>
      </trkpt>
      <trkpt lat="48.99057" lon="2.14484">
        <ele>24</ele>
        <time>2023-10-26T13:28:41.486+00:00</time>
      </trkpt>
      <trkpt lat="48.99058" lon="2.14472">
        <ele>24</ele>
        <time>2023-10-26T13:28:46.484+00:00</time>
      </trkpt>
      <trkpt lat="48.9906" lon="2.14462">
        <ele>24</ele>
        <time>2023-10-26T13:28:51.476+00:00</time>
      </trkpt>
      <trkpt lat="48.99062" lon="2.1445">
        <ele>22</ele>
        <time>2023-10-26T13:28:56.482+00:00</time>
      </trkpt>
      <trkpt lat="48.99064" lon="2.14439">
        <ele>22</ele>
        <time>2023-10-26T13:29:01.485+00:00</time>
      </trkpt>
      <trkpt lat="48.99065" lon="2.14431">
        <ele>22</ele>
        <time>2023-10-26T13:29:05.481+00:00</time>
      </trkpt>
      <trkpt lat="48.99066" lon="2.14422">
        <ele>22</ele>
        <time>2023-10-26T13:29:10.483+00:00</time>
      </trkpt>
      <trkpt lat="48.99069" lon="2.14413">
        <ele>22</ele>
        <time>2023-10-26T13:29:15.492+00:00</time>
      </trkpt>
      <trkpt lat="48.99072" lon="2.14403">
        <ele>22</ele>
        <time>2023-10-26T13:29:20.476+00:00</time>
      </trkpt>
      <trkpt lat="48.99073" lon="2.14391">
        <ele>22</ele>
        <time>2023-10-26T13:29:25.483+00:00</time>
      </trkpt>
      <trkpt lat="48.99073" lon="2.14382">
        <ele>22</ele>
        <time>2023-10-26T13:29:30.475+00:00</time>
      </trkpt>
      <trkpt lat="48.99072" lon="2.14372">
        <ele>22</ele>
        <time>2023-10-26T13:29:35.501+00:00</time>
      </trkpt>
      <trkpt lat="48.99073" lon="2.14361">
        <ele>22</ele>
        <time>2023-10-26T13:29:40.493+00:00</time>
      </trkpt>
      <trkpt lat="48.99076" lon="2.14349">
        <ele>22</ele>
        <time>2023-10-26T13:29:45.477+00:00</time>
      </trkpt>
      <trkpt lat="48.99079" lon="2.14336">
        <ele>23</ele>
        <time>2023-10-26T13:29:50.485+00:00</time>
      </trkpt>
      <trkpt lat="48.99079" lon="2.14326">
        <ele>23</ele>
        <time>2023-10-26T13:29:55.483+00:00</time>
      </trkpt>
      <trkpt lat="48.99079" lon="2.14314">
        <ele>24</ele>
        <time>2023-10-26T13:30:00.484+00:00</time>
      </trkpt>
      <trkpt lat="48.99081" lon="2.14305">
        <ele>24</ele>
        <time>2023-10-26T13:30:05.483+00:00</time>
      </trkpt>
      <trkpt lat="48.99083" lon="2.14292">
        <ele>24</ele>
        <time>2023-10-26T13:30:10.484+00:00</time>
      </trkpt>
      <trkpt lat="48.99083" lon="2.14279">
        <ele>25</ele>
        <time>2023-10-26T13:30:15.488+00:00</time>
      </trkpt>
      <trkpt lat="48.99086" lon="2.14274">
        <ele>25</ele>
        <time>2023-10-26T13:30:20.481+00:00</time>
      </trkpt>
      <trkpt lat="48.99087" lon="2.14266">
        <ele>25</ele>
        <time>2023-10-26T13:30:25.477+00:00</time>
      </trkpt>
      <trkpt lat="48.99089" lon="2.1426">
        <ele>25</ele>
        <time>2023-10-26T13:30:29.483+00:00</time>
      </trkpt>
      <trkpt lat="48.99093" lon="2.14252">
        <ele>25</ele>
        <time>2023-10-26T13:30:34.477+00:00</time>
      </trkpt>
      <trkpt lat="48.99098" lon="2.14247">
        <ele>27</ele>
        <time>2023-10-26T13:30:39.480+00:00</time>
      </trkpt>
      <trkpt lat="48.99102" lon="2.14247">
        <ele>27</ele>
        <time>2023-10-26T13:30:43.477+00:00</time>
      </trkpt>
      <trkpt lat="48.99108" lon="2.14249">
        <ele>27</ele>
        <time>2023-10-26T13:30:47.482+00:00</time>
      </trkpt>
      <trkpt lat="48.99114" lon="2.1425">
        <ele>27</ele>
        <time>2023-10-26T13:30:52.476+00:00</time>
      </trkpt>
      <trkpt lat="48.99119" lon="2.14251">
        <ele>27</ele>
        <time>2023-10-26T13:30:56.479+00:00</time>
      </trkpt>
      <trkpt lat="48.99124" lon="2.14252">
        <ele>27</ele>
        <time>2023-10-26T13:31:01.484+00:00</time>
      </trkpt>
      <trkpt lat="48.99129" lon="2.14253">
        <ele>30</ele>
        <time>2023-10-26T13:31:06.485+00:00</time>
      </trkpt>
      <trkpt lat="48.99133" lon="2.14254">
        <ele>30</ele>
        <time>2023-10-26T13:31:10.473+00:00</time>
      </trkpt>
      <trkpt lat="48.99139" lon="2.14254">
        <ele>30</ele>
        <time>2023-10-26T13:31:15.476+00:00</time>
      </trkpt>
      <trkpt lat="48.99145" lon="2.14253">
        <ele>30</ele>
        <time>2023-10-26T13:31:20.476+00:00</time>
      </trkpt>
      <trkpt lat="48.99149" lon="2.14248">
        <ele>30</ele>
        <time>2023-10-26T13:31:25.481+00:00</time>
      </trkpt>
      <trkpt lat="48.99152" lon="2.14242">
        <ele>30</ele>
        <time>2023-10-26T13:31:30.481+00:00</time>
      </trkpt>
      <trkpt lat="48.99153" lon="2.14233">
        <ele>34</ele>
        <time>2023-10-26T13:31:35.481+00:00</time>
      </trkpt>
      <trkpt lat="48.99155" lon="2.14224">
        <ele>34</ele>
        <time>2023-10-26T13:31:40.481+00:00</time>
      </trkpt>
      <trkpt lat="48.99155" lon="2.14218">
        <ele>34</ele>
        <time>2023-10-26T13:31:44.480+00:00</time>
      </trkpt>
      <trkpt lat="48.99156" lon="2.14213">
        <ele>34</ele>
        <time>2023-10-26T13:31:49.478+00:00</time>
      </trkpt>
      <trkpt lat="48.99159" lon="2.14206">
        <ele>34</ele>
        <time>2023-10-26T13:31:54.480+00:00</time>
      </trkpt>
      <trkpt lat="48.9916" lon="2.14196">
        <ele>34</ele>
        <time>2023-10-26T13:31:59.474+00:00</time>
      </trkpt>
      <trkpt lat="48.99162" lon="2.14185">
        <ele>34</ele>
        <time>2023-10-26T13:32:04.481+00:00</time>
      </trkpt>
      <trkpt lat="48.99164" lon="2.14175">
        <ele>34</ele>
        <time>2023-10-26T13:32:09.474+00:00</time>
      </trkpt>
      <trkpt lat="48.99167" lon="2.14166">
        <ele>34</ele>
        <time>2023-10-26T13:32:14.483+00:00</time>
      </trkpt>
      <trkpt lat="48.99169" lon="2.14157">
        <ele>34</ele>
        <time>2023-10-26T13:32:19.477+00:00</time>
      </trkpt>
      <trkpt lat="48.99171" lon="2.14148">
        <ele>34</ele>
        <time>2023-10-26T13:32:24.478+00:00</time>
      </trkpt>
      <trkpt lat="48.99173" lon="2.1414">
        <ele>34</ele>
        <time>2023-10-26T13:32:29.477+00:00</time>
      </trkpt>
      <trkpt lat="48.99177" lon="2.14131">
        <ele>34</ele>
        <time>2023-10-26T13:32:34.483+00:00</time>
      </trkpt>
      <trkpt lat="48.99178" lon="2.14118">
        <ele>33</ele>
        <time>2023-10-26T13:32:39.481+00:00</time>
      </trkpt>
      <trkpt lat="48.99178" lon="2.14107">
        <ele>33</ele>
        <time>2023-10-26T13:32:43.472+00:00</time>
      </trkpt>
      <trkpt lat="48.99178" lon="2.14095">
        <ele>32</ele>
        <time>2023-10-26T13:32:48.480+00:00</time>
      </trkpt>
      <trkpt lat="48.99178" lon="2.14085">
        <ele>32</ele>
        <time>2023-10-26T13:32:53.473+00:00</time>
      </trkpt>
      <trkpt lat="48.9918" lon="2.14075">
        <ele>32</ele>
        <time>2023-10-26T13:32:57.473+00:00</time>
      </trkpt>
      <trkpt lat="48.99179" lon="2.14065">
        <ele>31</ele>
        <time>2023-10-26T13:33:02.478+00:00</time>
      </trkpt>
      <trkpt lat="48.99179" lon="2.14058">
        <ele>31</ele>
        <time>2023-10-26T13:33:06.480+00:00</time>
      </trkpt>
      <trkpt lat="48.99178" lon="2.14048">
        <ele>31</ele>
        <time>2023-10-26T13:33:11.476+00:00</time>
      </trkpt>
      <trkpt lat="48.99177" lon="2.14038">
        <ele>30</ele>
        <time>2023-10-26T13:33:16.477+00:00</time>
      </trkpt>
      <trkpt lat="48.99177" lon="2.14028">
        <ele>30</ele>
        <time>2023-10-26T13:33:21.473+00:00</time>
      </trkpt>
      <trkpt lat="48.99177" lon="2.14021">
        <ele>30</ele>
        <time>2023-10-26T13:33:25.474+00:00</time>
      </trkpt>
      <trkpt lat="48.99177" lon="2.1401">
        <ele>28</ele>
        <time>2023-10-26T13:33:30.477+00:00</time>
      </trkpt>
      <trkpt lat="48.99177" lon="2.13999">
        <ele>28</ele>
        <time>2023-10-26T13:33:35.472+00:00</time>
      </trkpt>
      <trkpt lat="48.99178" lon="2.13986">
        <ele>28</ele>
        <time>2023-10-26T13:33:40.471+00:00</time>
      </trkpt>
      <trkpt lat="48.99179" lon="2.13976">
        <ele>28</ele>
        <time>2023-10-26T13:33:44.518+00:00</time>
      </trkpt>
      <trkpt lat="48.99179" lon="2.13966">
        <ele>28</ele>
        <time>2023-10-26T13:33:49.479+00:00</time>
      </trkpt>
      <trkpt lat="48.99179" lon="2.13957">
        <ele>29</ele>
        <time>2023-10-26T13:33:53.481+00:00</time>
      </trkpt>
      <trkpt lat="48.99179" lon="2.13946">
        <ele>29</ele>
        <time>2023-10-26T13:33:58.475+00:00</time>
      </trkpt>
      <trkpt lat="48.99179" lon="2.13936">
        <ele>29</ele>
        <time>2023-10-26T13:34:03.475+00:00</time>
      </trkpt>
      <trkpt lat="48.99179" lon="2.13928">
        <ele>28</ele>
        <time>2023-10-26T13:34:07.474+00:00</time>
      </trkpt>
      <trkpt lat="48.9918" lon="2.13921">
        <ele>28</ele>
        <time>2023-10-26T13:34:10.470+00:00</time>
      </trkpt>
      <trkpt lat="48.99181" lon="2.13909">
        <ele>36</ele>
        <time>2023-10-26T13:34:16.472+00:00</time>
      </trkpt>
      <trkpt lat="48.99181" lon="2.13901">
        <ele>35</ele>
        <time>2023-10-26T13:34:20.485+00:00</time>
      </trkpt>
      <trkpt lat="48.99181" lon="2.13891">
        <ele>35</ele>
        <time>2023-10-26T13:34:25.481+00:00</time>
      </trkpt>
      <trkpt lat="48.99182" lon="2.13883">
        <ele>35</ele>
        <time>2023-10-26T13:34:29.481+00:00</time>
      </trkpt>
      <trkpt lat="48.99183" lon="2.13873">
        <ele>34</ele>
        <time>2023-10-26T13:34:34.475+00:00</time>
      </trkpt>
      <trkpt lat="48.99184" lon="2.13864">
        <ele>34</ele>
        <time>2023-10-26T13:34:39.493+00:00</time>
      </trkpt>
      <trkpt lat="48.99184" lon="2.13855">
        <ele>34</ele>
        <time>2023-10-26T13:34:44.485+00:00</time>
      </trkpt>
      <trkpt lat="48.99184" lon="2.13845">
        <ele>34</ele>
        <time>2023-10-26T13:34:49.476+00:00</time>
      </trkpt>
      <trkpt lat="48.99184" lon="2.13836">
        <ele>34</ele>
        <time>2023-10-26T13:34:53.516+00:00</time>
      </trkpt>
      <trkpt lat="48.99184" lon="2.13826">
        <ele>34</ele>
        <time>2023-10-26T13:34:58.481+00:00</time>
      </trkpt>
      <trkpt lat="48.99183" lon="2.13818">
        <ele>35</ele>
        <time>2023-10-26T13:35:03.484+00:00</time>
      </trkpt>
      <trkpt lat="48.99182" lon="2.13809">
        <ele>35</ele>
        <time>2023-10-26T13:35:08.484+00:00</time>
      </trkpt>
      <trkpt lat="48.99183" lon="2.13799">
        <ele>35</ele>
        <time>2023-10-26T13:35:13.474+00:00</time>
      </trkpt>
      <trkpt lat="48.99183" lon="2.13791">
        <ele>36</ele>
        <time>2023-10-26T13:35:18.482+00:00</time>
      </trkpt>
      <trkpt lat="48.99184" lon="2.13782">
        <ele>36</ele>
        <time>2023-10-26T13:35:23.477+00:00</time>
      </trkpt>
      <trkpt lat="48.99184" lon="2.13774">
        <ele>36</ele>
        <time>2023-10-26T13:35:27.475+00:00</time>
      </trkpt>
      <trkpt lat="48.99184" lon="2.13766">
        <ele>36</ele>
        <time>2023-10-26T13:35:31.478+00:00</time>
      </trkpt>
      <trkpt lat="48.99184" lon="2.13761">
        <ele>35</ele>
        <time>2023-10-26T13:35:36.477+00:00</time>
      </trkpt>
      <trkpt lat="48.99181" lon="2.13753">
        <ele>35</ele>
        <time>2023-10-26T13:36:04.479+00:00</time>
      </trkpt>
      <trkpt lat="48.99181" lon="2.13751">
        <ele>35</ele>
        <time>2023-10-26T13:36:09.479+00:00</time>
      </trkpt>
      <trkpt lat="48.9918" lon="2.13745">
        <ele>29</ele>
        <time>2023-10-26T13:36:14.480+00:00</time>
      </trkpt>
      <trkpt lat="48.9918" lon="2.13732">
        <ele>28</ele>
        <time>2023-10-26T13:36:23.476+00:00</time>
      </trkpt>
      <trkpt lat="48.9918" lon="2.13729">
        <ele>28</ele>
        <time>2023-10-26T13:36:27.480+00:00</time>
      </trkpt>
      <trkpt lat="48.9918" lon="2.13723">
        <ele>28</ele>
        <time>2023-10-26T13:36:31.480+00:00</time>
      </trkpt>
      <trkpt lat="48.9918" lon="2.13715">
        <ele>28</ele>
        <time>2023-10-26T13:36:36.477+00:00</time>
      </trkpt>
      <trkpt lat="48.9918" lon="2.13708">
        <ele>27</ele>
        <time>2023-10-26T13:36:41.476+00:00</time>
      </trkpt>
      <trkpt lat="48.9918" lon="2.13701">
        <ele>27</ele>
        <time>2023-10-26T13:36:46.479+00:00</time>
      </trkpt>
      <trkpt lat="48.99181" lon="2.13693">
        <ele>35</ele>
        <time>2023-10-26T13:36:51.474+00:00</time>
      </trkpt>
      <trkpt lat="48.9918" lon="2.13688">
        <ele>27</ele>
        <time>2023-10-26T13:36:55.478+00:00</time>
      </trkpt>
      <trkpt lat="48.99179" lon="2.13682">
        <ele>27</ele>
        <time>2023-10-26T13:37:00.471+00:00</time>
      </trkpt>
      <trkpt lat="48.99179" lon="2.13674">
        <ele>28</ele>
        <time>2023-10-26T13:37:05.477+00:00</time>
      </trkpt>
      <trkpt lat="48.99179" lon="2.13669">
        <ele>28</ele>
        <time>2023-10-26T13:37:08.478+00:00</time>
      </trkpt>
      <trkpt lat="48.9918" lon="2.13653">
        <ele>28</ele>
        <time>2023-10-26T13:37:17.478+00:00</time>
      </trkpt>
      <trkpt lat="48.99179" lon="2.13643">
        <ele>29</ele>
        <time>2023-10-26T13:37:21.477+00:00</time>
      </trkpt>
      <trkpt lat="48.99178" lon="2.13632">
        <ele>29</ele>
        <time>2023-10-26T13:37:26.476+00:00</time>
      </trkpt>
      <trkpt lat="48.99177" lon="2.13625">
        <ele>29</ele>
        <time>2023-10-26T13:37:30.479+00:00</time>
      </trkpt>
      <trkpt lat="48.99175" lon="2.13615">
        <ele>30</ele>
        <time>2023-10-26T13:37:35.476+00:00</time>
      </trkpt>
      <trkpt lat="48.99174" lon="2.13603">
        <ele>30</ele>
        <time>2023-10-26T13:37:40.472+00:00</time>
      </trkpt>
      <trkpt lat="48.99173" lon="2.13594">
        <ele>30</ele>
        <time>2023-10-26T13:37:45.479+00:00</time>
      </trkpt>
      <trkpt lat="48.99173" lon="2.13587">
        <ele>30</ele>
        <time>2023-10-26T13:37:50.477+00:00</time>
      </trkpt>
      <trkpt lat="48.99173" lon="2.13581">
        <ele>30</ele>
        <time>2023-10-26T13:37:54.486+00:00</time>
      </trkpt>
      <trkpt lat="48.99174" lon="2.13572">
        <ele>30</ele>
        <time>2023-10-26T13:37:59.483+00:00</time>
      </trkpt>
      <trkpt lat="48.99174" lon="2.13563">
        <ele>31</ele>
        <time>2023-10-26T13:38:04.488+00:00</time>
      </trkpt>
      <trkpt lat="48.99175" lon="2.13554">
        <ele>31</ele>
        <time>2023-10-26T13:38:09.481+00:00</time>
      </trkpt>
      <trkpt lat="48.99175" lon="2.13542">
        <ele>30</ele>
        <time>2023-10-26T13:38:14.485+00:00</time>
      </trkpt>
      <trkpt lat="48.99174" lon="2.13531">
        <ele>30</ele>
        <time>2023-10-26T13:38:19.474+00:00</time>
      </trkpt>
      <trkpt lat="48.99174" lon="2.13523">
        <ele>30</ele>
        <time>2023-10-26T13:38:24.477+00:00</time>
      </trkpt>
      <trkpt lat="48.99176" lon="2.13513">
        <ele>31</ele>
        <time>2023-10-26T13:38:29.478+00:00</time>
      </trkpt>
      <trkpt lat="48.99176" lon="2.13504">
        <ele>31</ele>
        <time>2023-10-26T13:38:34.489+00:00</time>
      </trkpt>
      <trkpt lat="48.99177" lon="2.13494">
        <ele>31</ele>
        <time>2023-10-26T13:38:39.487+00:00</time>
      </trkpt>
      <trkpt lat="48.99175" lon="2.13482">
        <ele>31</ele>
        <time>2023-10-26T13:38:44.482+00:00</time>
      </trkpt>
      <trkpt lat="48.99174" lon="2.13471">
        <ele>31</ele>
        <time>2023-10-26T13:38:49.486+00:00</time>
      </trkpt>
      <trkpt lat="48.99174" lon="2.13461">
        <ele>31</ele>
        <time>2023-10-26T13:38:54.474+00:00</time>
      </trkpt>
      <trkpt lat="48.99176" lon="2.13443">
        <ele>31</ele>
        <time>2023-10-26T13:39:03.478+00:00</time>
      </trkpt>
      <trkpt lat="48.99177" lon="2.13434">
        <ele>31</ele>
        <time>2023-10-26T13:39:08.475+00:00</time>
      </trkpt>
      <trkpt lat="48.99176" lon="2.13423">
        <ele>31</ele>
        <time>2023-10-26T13:39:13.495+00:00</time>
      </trkpt>
      <trkpt lat="48.99175" lon="2.13413">
        <ele>31</ele>
        <time>2023-10-26T13:39:18.487+00:00</time>
      </trkpt>
      <trkpt lat="48.99175" lon="2.13403">
        <ele>31</ele>
        <time>2023-10-26T13:39:23.483+00:00</time>
      </trkpt>
      <trkpt lat="48.99175" lon="2.13397">
        <ele>30</ele>
        <time>2023-10-26T13:39:27.495+00:00</time>
      </trkpt>
      <trkpt lat="48.99175" lon="2.13387">
        <ele>30</ele>
        <time>2023-10-26T13:39:32.477+00:00</time>
      </trkpt>
      <trkpt lat="48.99175" lon="2.13382">
        <ele>30</ele>
        <time>2023-10-26T13:39:36.476+00:00</time>
      </trkpt>
      <trkpt lat="48.99175" lon="2.13376">
        <ele>30</ele>
        <time>2023-10-26T13:39:41.477+00:00</time>
      </trkpt>
      <trkpt lat="48.99175" lon="2.13374">
        <ele>29</ele>
        <time>2023-10-26T13:39:45.489+00:00</time>
      </trkpt>
      <trkpt lat="48.99175" lon="2.13371">
        <ele>29</ele>
        <time>2023-10-26T13:39:49.478+00:00</time>
      </trkpt>
      <trkpt lat="48.99175" lon="2.13365">
        <ele>29</ele>
        <time>2023-10-26T13:39:53.478+00:00</time>
      </trkpt>
      <trkpt lat="48.99176" lon="2.13348">
        <ele>29</ele>
        <time>2023-10-26T13:39:58.480+00:00</time>
      </trkpt>
      <trkpt lat="48.99176" lon="2.13333">
        <ele>28</ele>
        <time>2023-10-26T13:40:03.474+00:00</time>
      </trkpt>
      <trkpt lat="48.99175" lon="2.1332">
        <ele>28</ele>
        <time>2023-10-26T13:40:08.481+00:00</time>
      </trkpt>
      <trkpt lat="48.99175" lon="2.13308">
        <ele>28</ele>
        <time>2023-10-26T13:40:12.476+00:00</time>
      </trkpt>
      <trkpt lat="48.99175" lon="2.13303">
        <ele>28</ele>
        <time>2023-10-26T13:40:17.476+00:00</time>
      </trkpt>
      <trkpt lat="48.99175" lon="2.133">
        <ele>28</ele>
        <time>2023-10-26T13:40:22.471+00:00</time>
      </trkpt>
      <trkpt lat="48.99176" lon="2.13291">
        <ele>28</ele>
        <time>2023-10-26T13:40:27.478+00:00</time>
      </trkpt>
      <trkpt lat="48.99177" lon="2.13277">
        <ele>28</ele>
        <time>2023-10-26T13:40:32.479+00:00</time>
      </trkpt>
      <trkpt lat="48.99179" lon="2.13259">
        <ele>27</ele>
        <time>2023-10-26T13:40:37.477+00:00</time>
      </trkpt>
      <trkpt lat="48.99182" lon="2.13246">
        <ele>33</ele>
        <time>2023-10-26T13:40:42.472+00:00</time>
      </trkpt>
      <trkpt lat="48.99185" lon="2.1324">
        <ele>33</ele>
        <time>2023-10-26T13:40:47.480+00:00</time>
      </trkpt>
      <trkpt lat="48.99188" lon="2.13236">
        <ele>33</ele>
        <time>2023-10-26T13:40:52.475+00:00</time>
      </trkpt>
      <trkpt lat="48.9919" lon="2.13231">
        <ele>33</ele>
        <time>2023-10-26T13:40:57.477+00:00</time>
      </trkpt>
      <trkpt lat="48.99192" lon="2.13222">
        <ele>33</ele>
        <time>2023-10-26T13:41:02.479+00:00</time>
      </trkpt>
      <trkpt lat="48.99194" lon="2.13213">
        <ele>33</ele>
        <time>2023-10-26T13:41:07.476+00:00</time>
      </trkpt>
      <trkpt lat="48.99194" lon="2.13202">
        <ele>33</ele>
        <time>2023-10-26T13:41:12.478+00:00</time>
      </trkpt>
      <trkpt lat="48.99194" lon="2.13192">
        <ele>33</ele>
        <time>2023-10-26T13:41:17.477+00:00</time>
      </trkpt>
      <trkpt lat="48.99194" lon="2.13185">
        <ele>33</ele>
        <time>2023-10-26T13:41:21.477+00:00</time>
      </trkpt>
      <trkpt lat="48.99195" lon="2.13177">
        <ele>33</ele>
        <time>2023-10-26T13:41:25.490+00:00</time>
      </trkpt>
      <trkpt lat="48.99195" lon="2.13164">
        <ele>33</ele>
        <time>2023-10-26T13:41:30.479+00:00</time>
      </trkpt>
      <trkpt lat="48.99189" lon="2.13155">
        <ele>33</ele>
        <time>2023-10-26T13:41:35.484+00:00</time>
      </trkpt>
      <trkpt lat="48.99183" lon="2.13152">
        <ele>32</ele>
        <time>2023-10-26T13:41:40.487+00:00</time>
      </trkpt>
      <trkpt lat="48.99177" lon="2.13152">
        <ele>28</ele>
        <time>2023-10-26T13:41:45.482+00:00</time>
      </trkpt>
      <trkpt lat="48.99171" lon="2.1315">
        <ele>28</ele>
        <time>2023-10-26T13:41:50.486+00:00</time>
      </trkpt>
      <trkpt lat="48.99166" lon="2.13149">
        <ele>28</ele>
        <time>2023-10-26T13:41:54.492+00:00</time>
      </trkpt>
      <trkpt lat="48.9916" lon="2.1315">
        <ele>28</ele>
        <time>2023-10-26T13:41:59.481+00:00</time>
      </trkpt>
      <trkpt lat="48.99157" lon="2.13151">
        <ele>28</ele>
        <time>2023-10-26T13:42:03.474+00:00</time>
      </trkpt>
      <trkpt lat="48.9915" lon="2.13151">
        <ele>25</ele>
        <time>2023-10-26T13:42:08.479+00:00</time>
      </trkpt>
      <trkpt lat="48.99142" lon="2.13149">
        <ele>25</ele>
        <time>2023-10-26T13:42:13.479+00:00</time>
      </trkpt>
      <trkpt lat="48.99133" lon="2.13149">
        <ele>25</ele>
        <time>2023-10-26T13:42:18.478+00:00</time>
      </trkpt>
      <trkpt lat="48.99125" lon="2.1315">
        <ele>25</ele>
        <time>2023-10-26T13:42:23.477+00:00</time>
      </trkpt>
      <trkpt lat="48.99116" lon="2.1315">
        <ele>22</ele>
        <time>2023-10-26T13:42:28.477+00:00</time>
      </trkpt>
      <trkpt lat="48.9911" lon="2.13149">
        <ele>22</ele>
        <time>2023-10-26T13:42:32.478+00:00</time>
      </trkpt>
      <trkpt lat="48.99104" lon="2.13147">
        <ele>22</ele>
        <time>2023-10-26T13:42:36.483+00:00</time>
      </trkpt>
      <trkpt lat="48.99096" lon="2.13148">
        <ele>21</ele>
        <time>2023-10-26T13:42:41.485+00:00</time>
      </trkpt>
      <trkpt lat="48.99093" lon="2.13145">
        <ele>21</ele>
        <time>2023-10-26T13:42:45.483+00:00</time>
      </trkpt>
      <trkpt lat="48.99088" lon="2.13143">
        <ele>21</ele>
        <time>2023-10-26T13:42:50.477+00:00</time>
      </trkpt>
      <trkpt lat="48.99082" lon="2.13142">
        <ele>21</ele>
        <time>2023-10-26T13:42:55.482+00:00</time>
      </trkpt>
      <trkpt lat="48.99075" lon="2.13141">
        <ele>21</ele>
        <time>2023-10-26T13:43:00.493+00:00</time>
      </trkpt>
      <trkpt lat="48.99063" lon="2.13132">
        <ele>21</ele>
        <time>2023-10-26T13:43:35.479+00:00</time>
      </trkpt>
      <trkpt lat="48.99064" lon="2.13126">
        <ele>21</ele>
        <time>2023-10-26T13:43:39.472+00:00</time>
      </trkpt>
      <trkpt lat="48.99067" lon="2.13114">
        <ele>21</ele>
        <time>2023-10-26T13:43:44.479+00:00</time>
      </trkpt>
      <trkpt lat="48.99068" lon="2.13104">
        <ele>21</ele>
        <time>2023-10-26T13:43:49.478+00:00</time>
      </trkpt>
      <trkpt lat="48.99067" lon="2.13092">
        <ele>20</ele>
        <time>2023-10-26T13:43:53.473+00:00</time>
      </trkpt>
      <trkpt lat="48.99066" lon="2.13081">
        <ele>20</ele>
        <time>2023-10-26T13:43:57.476+00:00</time>
      </trkpt>
      <trkpt lat="48.99066" lon="2.13076">
        <ele>20</ele>
        <time>2023-10-26T13:44:01.474+00:00</time>
      </trkpt>
      <trkpt lat="48.99066" lon="2.13073">
        <ele>20</ele>
        <time>2023-10-26T13:44:06.490+00:00</time>
      </trkpt>
      <trkpt lat="48.99067" lon="2.13061">
        <ele>20</ele>
        <time>2023-10-26T13:44:11.482+00:00</time>
      </trkpt>
      <trkpt lat="48.99068" lon="2.13048">
        <ele>20</ele>
        <time>2023-10-26T13:44:16.474+00:00</time>
      </trkpt>
      <trkpt lat="48.9907" lon="2.13032">
        <ele>20</ele>
        <time>2023-10-26T13:44:21.474+00:00</time>
      </trkpt>
      <trkpt lat="48.9907" lon="2.13024">
        <ele>20</ele>
        <time>2023-10-26T13:44:26.486+00:00</time>
      </trkpt>
      <trkpt lat="48.99071" lon="2.13021">
        <ele>20</ele>
        <time>2023-10-26T13:44:31.485+00:00</time>
      </trkpt>
      <trkpt lat="48.99071" lon="2.13019">
        <ele>20</ele>
        <time>2023-10-26T13:44:36.474+00:00</time>
      </trkpt>
      <trkpt lat="48.99071" lon="2.13011">
        <ele>20</ele>
        <time>2023-10-26T13:44:40.497+00:00</time>
      </trkpt>
      <trkpt lat="48.99072" lon="2.12986">
        <ele>20</ele>
        <time>2023-10-26T13:44:45.484+00:00</time>
      </trkpt>
      <trkpt lat="48.99073" lon="2.12976">
        <ele>20</ele>
        <time>2023-10-26T13:44:50.475+00:00</time>
      </trkpt>
      <trkpt lat="48.99073" lon="2.12973">
        <ele>20</ele>
        <time>2023-10-26T13:44:54.478+00:00</time>
      </trkpt>
      <trkpt lat="48.99074" lon="2.12962">
        <ele>20</ele>
        <time>2023-10-26T13:44:59.477+00:00</time>
      </trkpt>
      <trkpt lat="48.99077" lon="2.12946">
        <ele>20</ele>
        <time>2023-10-26T13:45:04.477+00:00</time>
      </trkpt>
      <trkpt lat="48.99078" lon="2.12934">
        <ele>20</ele>
        <time>2023-10-26T13:45:09.478+00:00</time>
      </trkpt>
      <trkpt lat="48.9908" lon="2.12926">
        <ele>20</ele>
        <time>2023-10-26T13:45:14.477+00:00</time>
      </trkpt>
      <trkpt lat="48.99083" lon="2.12917">
        <ele>20</ele>
        <time>2023-10-26T13:45:19.477+00:00</time>
      </trkpt>
      <trkpt lat="48.99084" lon="2.12908">
        <ele>20</ele>
        <time>2023-10-26T13:45:23.480+00:00</time>
      </trkpt>
      <trkpt lat="48.99084" lon="2.12896">
        <ele>23</ele>
        <time>2023-10-26T13:45:28.471+00:00</time>
      </trkpt>
      <trkpt lat="48.99084" lon="2.12888">
        <ele>23</ele>
        <time>2023-10-26T13:45:33.479+00:00</time>
      </trkpt>
      <trkpt lat="48.99087" lon="2.12885">
        <ele>23</ele>
        <time>2023-10-26T13:45:38.469+00:00</time>
      </trkpt>
      <trkpt lat="48.99091" lon="2.12871">
        <ele>24</ele>
        <time>2023-10-26T13:45:43.479+00:00</time>
      </trkpt>
      <trkpt lat="48.99093" lon="2.12858">
        <ele>24</ele>
        <time>2023-10-26T13:45:47.479+00:00</time>
      </trkpt>
      <trkpt lat="48.99095" lon="2.1285">
        <ele>24</ele>
        <time>2023-10-26T13:46:06.480+00:00</time>
      </trkpt>
      <trkpt lat="48.99094" lon="2.1285">
        <ele>24</ele>
        <time>2023-10-26T13:46:11.480+00:00</time>
      </trkpt>
      <trkpt lat="48.99094" lon="2.1285">
        <ele>24</ele>
        <time>2023-10-26T13:46:15.479+00:00</time>
      </trkpt>
      <trkpt lat="48.99095" lon="2.12847">
        <ele>25</ele>
        <time>2023-10-26T13:46:20.477+00:00</time>
      </trkpt>
      <trkpt lat="48.99098" lon="2.12839">
        <ele>26</ele>
        <time>2023-10-26T13:46:25.481+00:00</time>
      </trkpt>
      <trkpt lat="48.99099" lon="2.12829">
        <ele>26</ele>
        <time>2023-10-26T13:46:30.481+00:00</time>
      </trkpt>
      <trkpt lat="48.991" lon="2.12819">
        <ele>26</ele>
        <time>2023-10-26T13:46:35.475+00:00</time>
      </trkpt>
      <trkpt lat="48.99102" lon="2.12811">
        <ele>26</ele>
        <time>2023-10-26T13:46:39.474+00:00</time>
      </trkpt>
      <trkpt lat="48.99104" lon="2.128">
        <ele>26</ele>
        <time>2023-10-26T13:46:44.481+00:00</time>
      </trkpt>
      <trkpt lat="48.99108" lon="2.1279">
        <ele>25</ele>
        <time>2023-10-26T13:46:49.474+00:00</time>
      </trkpt>
      <trkpt lat="48.99111" lon="2.12779">
        <ele>25</ele>
        <time>2023-10-26T13:46:54.477+00:00</time>
      </trkpt>
      <trkpt lat="48.99115" lon="2.1277">
        <ele>25</ele>
        <time>2023-10-26T13:46:59.479+00:00</time>
      </trkpt>
      <trkpt lat="48.99119" lon="2.12761">
        <ele>24</ele>
        <time>2023-10-26T13:47:04.481+00:00</time>
      </trkpt>
      <trkpt lat="48.99123" lon="2.12751">
        <ele>24</ele>
        <time>2023-10-26T13:47:09.479+00:00</time>
      </trkpt>
      <trkpt lat="48.99126" lon="2.12742">
        <ele>24</ele>
        <time>2023-10-26T13:47:14.472+00:00</time>
      </trkpt>
      <trkpt lat="48.99129" lon="2.12736">
        <ele>24</ele>
        <time>2023-10-26T13:47:18.498+00:00</time>
      </trkpt>
      <trkpt lat="48.99133" lon="2.12729">
        <ele>23</ele>
        <time>2023-10-26T13:47:23.481+00:00</time>
      </trkpt>
      <trkpt lat="48.99137" lon="2.12721">
        <ele>23</ele>
        <time>2023-10-26T13:47:28.488+00:00</time>
      </trkpt>
      <trkpt lat="48.99139" lon="2.12715">
        <ele>23</ele>
        <time>2023-10-26T13:47:32.481+00:00</time>
      </trkpt>
      <trkpt lat="48.99142" lon="2.12709">
        <ele>23</ele>
        <time>2023-10-26T13:47:37.486+00:00</time>
      </trkpt>
      <trkpt lat="48.99146" lon="2.12702">
        <ele>22</ele>
        <time>2023-10-26T13:47:42.476+00:00</time>
      </trkpt>
      <trkpt lat="48.99151" lon="2.12694">
        <ele>22</ele>
        <time>2023-10-26T13:47:47.488+00:00</time>
      </trkpt>
      <trkpt lat="48.99155" lon="2.12687">
        <ele>21</ele>
        <time>2023-10-26T13:47:52.490+00:00</time>
      </trkpt>
      <trkpt lat="48.99159" lon="2.12681">
        <ele>21</ele>
        <time>2023-10-26T13:47:57.482+00:00</time>
      </trkpt>
      <trkpt lat="48.99164" lon="2.12674">
        <ele>21</ele>
        <time>2023-10-26T13:48:02.473+00:00</time>
      </trkpt>
      <trkpt lat="48.99168" lon="2.12666">
        <ele>21</ele>
        <time>2023-10-26T13:48:07.469+00:00</time>
      </trkpt>
      <trkpt lat="48.99171" lon="2.12658">
        <ele>21</ele>
        <time>2023-10-26T13:48:12.481+00:00</time>
      </trkpt>
      <trkpt lat="48.99175" lon="2.12649">
        <ele>22</ele>
        <time>2023-10-26T13:48:17.481+00:00</time>
      </trkpt>
      <trkpt lat="48.99178" lon="2.12639">
        <ele>22</ele>
        <time>2023-10-26T13:48:22.482+00:00</time>
      </trkpt>
      <trkpt lat="48.99182" lon="2.1263">
        <ele>25</ele>
        <time>2023-10-26T13:48:27.483+00:00</time>
      </trkpt>
      <trkpt lat="48.99188" lon="2.12623">
        <ele>24</ele>
        <time>2023-10-26T13:48:32.477+00:00</time>
      </trkpt>
      <trkpt lat="48.99192" lon="2.12615">
        <ele>24</ele>
        <time>2023-10-26T13:48:37.481+00:00</time>
      </trkpt>
      <trkpt lat="48.99195" lon="2.12605">
        <ele>24</ele>
        <time>2023-10-26T13:48:42.495+00:00</time>
      </trkpt>
      <trkpt lat="48.99198" lon="2.12596">
        <ele>23</ele>
        <time>2023-10-26T13:48:47.482+00:00</time>
      </trkpt>
      <trkpt lat="48.99201" lon="2.12589">
        <ele>23</ele>
        <time>2023-10-26T13:48:52.486+00:00</time>
      </trkpt>
      <trkpt lat="48.99203" lon="2.12581">
        <ele>23</ele>
        <time>2023-10-26T13:48:57.481+00:00</time>
      </trkpt>
      <trkpt lat="48.99205" lon="2.12571">
        <ele>23</ele>
        <time>2023-10-26T13:49:02.483+00:00</time>
      </trkpt>
      <trkpt lat="48.99209" lon="2.12561">
        <ele>25</ele>
        <time>2023-10-26T13:49:07.490+00:00</time>
      </trkpt>
      <trkpt lat="48.99212" lon="2.12552">
        <ele>25</ele>
        <time>2023-10-26T13:49:12.483+00:00</time>
      </trkpt>
      <trkpt lat="48.99215" lon="2.12542">
        <ele>25</ele>
        <time>2023-10-26T13:49:17.477+00:00</time>
      </trkpt>
      <trkpt lat="48.99218" lon="2.12531">
        <ele>25</ele>
        <time>2023-10-26T13:49:22.482+00:00</time>
      </trkpt>
      <trkpt lat="48.99219" lon="2.12521">
        <ele>25</ele>
        <time>2023-10-26T13:49:27.479+00:00</time>
      </trkpt>
      <trkpt lat="48.99221" lon="2.12512">
        <ele>25</ele>
        <time>2023-10-26T13:49:32.486+00:00</time>
      </trkpt>
      <trkpt lat="48.99223" lon="2.12503">
        <ele>25</ele>
        <time>2023-10-26T13:49:37.474+00:00</time>
      </trkpt>
      <trkpt lat="48.99225" lon="2.12494">
        <ele>25</ele>
        <time>2023-10-26T13:49:42.479+00:00</time>
      </trkpt>
      <trkpt lat="48.99227" lon="2.12484">
        <ele>24</ele>
        <time>2023-10-26T13:49:47.490+00:00</time>
      </trkpt>
      <trkpt lat="48.99229" lon="2.12475">
        <ele>24</ele>
        <time>2023-10-26T13:49:52.479+00:00</time>
      </trkpt>
      <trkpt lat="48.9923" lon="2.12464">
        <ele>24</ele>
        <time>2023-10-26T13:49:57.476+00:00</time>
      </trkpt>
      <trkpt lat="48.99231" lon="2.12453">
        <ele>24</ele>
        <time>2023-10-26T13:50:02.476+00:00</time>
      </trkpt>
      <trkpt lat="48.99232" lon="2.12442">
        <ele>24</ele>
        <time>2023-10-26T13:50:07.480+00:00</time>
      </trkpt>
      <trkpt lat="48.99233" lon="2.12431">
        <ele>24</ele>
        <time>2023-10-26T13:50:12.479+00:00</time>
      </trkpt>
      <trkpt lat="48.99234" lon="2.12421">
        <ele>22</ele>
        <time>2023-10-26T13:50:17.479+00:00</time>
      </trkpt>
      <trkpt lat="48.99235" lon="2.12412">
        <ele>22</ele>
        <time>2023-10-26T13:50:22.495+00:00</time>
      </trkpt>
      <trkpt lat="48.99236" lon="2.12402">
        <ele>21</ele>
        <time>2023-10-26T13:50:27.478+00:00</time>
      </trkpt>
      <trkpt lat="48.99236" lon="2.1239">
        <ele>23</ele>
        <time>2023-10-26T13:50:32.479+00:00</time>
      </trkpt>
      <trkpt lat="48.99237" lon="2.12378">
        <ele>23</ele>
        <time>2023-10-26T13:50:37.488+00:00</time>
      </trkpt>
      <trkpt lat="48.99238" lon="2.12368">
        <ele>20</ele>
        <time>2023-10-26T13:50:42.490+00:00</time>
      </trkpt>
      <trkpt lat="48.99239" lon="2.12357">
        <ele>20</ele>
        <time>2023-10-26T13:50:47.476+00:00</time>
      </trkpt>
      <trkpt lat="48.9924" lon="2.12348">
        <ele>20</ele>
        <time>2023-10-26T13:50:52.477+00:00</time>
      </trkpt>
      <trkpt lat="48.9924" lon="2.1234">
        <ele>22</ele>
        <time>2023-10-26T13:50:57.479+00:00</time>
      </trkpt>
      <trkpt lat="48.99239" lon="2.12331">
        <ele>22</ele>
        <time>2023-10-26T13:51:02.479+00:00</time>
      </trkpt>
      <trkpt lat="48.99239" lon="2.12322">
        <ele>22</ele>
        <time>2023-10-26T13:51:07.480+00:00</time>
      </trkpt>
      <trkpt lat="48.99239" lon="2.12313">
        <ele>24</ele>
        <time>2023-10-26T13:51:12.471+00:00</time>
      </trkpt>
      <trkpt lat="48.9924" lon="2.12302">
        <ele>24</ele>
        <time>2023-10-26T13:51:17.476+00:00</time>
      </trkpt>
      <trkpt lat="48.99243" lon="2.12292">
        <ele>24</ele>
        <time>2023-10-26T13:51:22.475+00:00</time>
      </trkpt>
      <trkpt lat="48.99245" lon="2.12283">
        <ele>26</ele>
        <time>2023-10-26T13:51:26.478+00:00</time>
      </trkpt>
      <trkpt lat="48.99246" lon="2.12273">
        <ele>26</ele>
        <time>2023-10-26T13:51:31.471+00:00</time>
      </trkpt>
      <trkpt lat="48.99248" lon="2.12263">
        <ele>26</ele>
        <time>2023-10-26T13:51:36.480+00:00</time>
      </trkpt>
      <trkpt lat="48.99248" lon="2.12252">
        <ele>26</ele>
        <time>2023-10-26T13:51:41.476+00:00</time>
      </trkpt>
      <trkpt lat="48.99249" lon="2.12243">
        <ele>26</ele>
        <time>2023-10-26T13:51:46.476+00:00</time>
      </trkpt>
      <trkpt lat="48.99249" lon="2.12234">
        <ele>25</ele>
        <time>2023-10-26T13:51:51.474+00:00</time>
      </trkpt>
      <trkpt lat="48.99247" lon="2.12225">
        <ele>25</ele>
        <time>2023-10-26T13:51:56.477+00:00</time>
      </trkpt>
      <trkpt lat="48.99245" lon="2.12217">
        <ele>25</ele>
        <time>2023-10-26T13:52:01.480+00:00</time>
      </trkpt>
      <trkpt lat="48.99244" lon="2.12208">
        <ele>25</ele>
        <time>2023-10-26T13:52:06.477+00:00</time>
      </trkpt>
      <trkpt lat="48.99245" lon="2.12198">
        <ele>25</ele>
        <time>2023-10-26T13:52:11.476+00:00</time>
      </trkpt>
      <trkpt lat="48.99245" lon="2.12187">
        <ele>25</ele>
        <time>2023-10-26T13:52:16.474+00:00</time>
      </trkpt>
      <trkpt lat="48.99246" lon="2.12176">
        <ele>26</ele>
        <time>2023-10-26T13:52:21.477+00:00</time>
      </trkpt>
      <trkpt lat="48.99246" lon="2.12166">
        <ele>26</ele>
        <time>2023-10-26T13:52:26.476+00:00</time>
      </trkpt>
      <trkpt lat="48.99246" lon="2.12156">
        <ele>26</ele>
        <time>2023-10-26T13:52:31.478+00:00</time>
      </trkpt>
      <trkpt lat="48.99245" lon="2.12146">
        <ele>25</ele>
        <time>2023-10-26T13:52:36.478+00:00</time>
      </trkpt>
      <trkpt lat="48.99246" lon="2.12137">
        <ele>25</ele>
        <time>2023-10-26T13:52:41.476+00:00</time>
      </trkpt>
      <trkpt lat="48.99245" lon="2.12127">
        <ele>25</ele>
        <time>2023-10-26T13:52:46.477+00:00</time>
      </trkpt>
      <trkpt lat="48.99245" lon="2.12117">
        <ele>25</ele>
        <time>2023-10-26T13:52:51.478+00:00</time>
      </trkpt>
      <trkpt lat="48.99246" lon="2.12105">
        <ele>25</ele>
        <time>2023-10-26T13:52:56.476+00:00</time>
      </trkpt>
      <trkpt lat="48.99246" lon="2.12095">
        <ele>25</ele>
        <time>2023-10-26T13:53:01.478+00:00</time>
      </trkpt>
      <trkpt lat="48.99246" lon="2.12085">
        <ele>25</ele>
        <time>2023-10-26T13:53:06.477+00:00</time>
      </trkpt>
      <trkpt lat="48.99247" lon="2.12079">
        <ele>25</ele>
        <time>2023-10-26T13:53:10.477+00:00</time>
      </trkpt>
      <trkpt lat="48.99247" lon="2.12069">
        <ele>25</ele>
        <time>2023-10-26T13:53:15.482+00:00</time>
      </trkpt>
      <trkpt lat="48.99245" lon="2.1206">
        <ele>25</ele>
        <time>2023-10-26T13:53:20.491+00:00</time>
      </trkpt>
      <trkpt lat="48.99244" lon="2.1205">
        <ele>25</ele>
        <time>2023-10-26T13:53:25.478+00:00</time>
      </trkpt>
      <trkpt lat="48.99243" lon="2.12041">
        <ele>27</ele>
        <time>2023-10-26T13:53:29.494+00:00</time>
      </trkpt>
      <trkpt lat="48.99242" lon="2.1203">
        <ele>27</ele>
        <time>2023-10-26T13:53:34.478+00:00</time>
      </trkpt>
      <trkpt lat="48.99242" lon="2.12019">
        <ele>27</ele>
        <time>2023-10-26T13:53:39.476+00:00</time>
      </trkpt>
      <trkpt lat="48.99244" lon="2.12009">
        <ele>26</ele>
        <time>2023-10-26T13:53:44.485+00:00</time>
      </trkpt>
      <trkpt lat="48.99243" lon="2.12001">
        <ele>26</ele>
        <time>2023-10-26T13:53:49.487+00:00</time>
      </trkpt>
      <trkpt lat="48.99242" lon="2.11994">
        <ele>26</ele>
        <time>2023-10-26T13:53:54.480+00:00</time>
      </trkpt>
      <trkpt lat="48.9924" lon="2.11988">
        <ele>26</ele>
        <time>2023-10-26T13:53:59.494+00:00</time>
      </trkpt>
      <trkpt lat="48.99238" lon="2.11982">
        <ele>26</ele>
        <time>2023-10-26T13:54:04.490+00:00</time>
      </trkpt>
      <trkpt lat="48.99237" lon="2.11976">
        <ele>26</ele>
        <time>2023-10-26T13:54:09.479+00:00</time>
      </trkpt>
      <trkpt lat="48.99237" lon="2.11968">
        <ele>26</ele>
        <time>2023-10-26T13:54:14.474+00:00</time>
      </trkpt>
      <trkpt lat="48.99237" lon="2.11959">
        <ele>26</ele>
        <time>2023-10-26T13:54:19.492+00:00</time>
      </trkpt>
      <trkpt lat="48.99235" lon="2.11951">
        <ele>21</ele>
        <time>2023-10-26T13:54:24.480+00:00</time>
      </trkpt>
      <trkpt lat="48.99234" lon="2.1194">
        <ele>21</ele>
        <time>2023-10-26T13:54:29.478+00:00</time>
      </trkpt>
      <trkpt lat="48.99231" lon="2.11931">
        <ele>21</ele>
        <time>2023-10-26T13:54:33.479+00:00</time>
      </trkpt>
      <trkpt lat="48.99229" lon="2.11922">
        <ele>21</ele>
        <time>2023-10-26T13:54:38.478+00:00</time>
      </trkpt>
      <trkpt lat="48.99224" lon="2.11914">
        <ele>21</ele>
        <time>2023-10-26T13:54:43.474+00:00</time>
      </trkpt>
      <trkpt lat="48.99222" lon="2.11905">
        <ele>21</ele>
        <time>2023-10-26T13:54:48.480+00:00</time>
      </trkpt>
      <trkpt lat="48.99221" lon="2.11895">
        <ele>22</ele>
        <time>2023-10-26T13:54:53.475+00:00</time>
      </trkpt>
      <trkpt lat="48.99221" lon="2.11886">
        <ele>22</ele>
        <time>2023-10-26T13:54:58.476+00:00</time>
      </trkpt>
      <trkpt lat="48.99222" lon="2.1188">
        <ele>22</ele>
        <time>2023-10-26T13:55:02.483+00:00</time>
      </trkpt>
      <trkpt lat="48.99223" lon="2.11874">
        <ele>22</ele>
        <time>2023-10-26T13:55:07.477+00:00</time>
      </trkpt>
      <trkpt lat="48.99223" lon="2.11869">
        <ele>22</ele>
        <time>2023-10-26T13:55:11.486+00:00</time>
      </trkpt>
      <trkpt lat="48.99223" lon="2.1186">
        <ele>22</ele>
        <time>2023-10-26T13:55:16.491+00:00</time>
      </trkpt>
      <trkpt lat="48.99223" lon="2.11852">
        <ele>22</ele>
        <time>2023-10-26T13:55:20.487+00:00</time>
      </trkpt>
      <trkpt lat="48.99223" lon="2.11843">
        <ele>22</ele>
        <time>2023-10-26T13:55:25.480+00:00</time>
      </trkpt>
      <trkpt lat="48.99223" lon="2.11836">
        <ele>22</ele>
        <time>2023-10-26T13:55:29.493+00:00</time>
      </trkpt>
      <trkpt lat="48.99222" lon="2.11827">
        <ele>22</ele>
        <time>2023-10-26T13:55:34.479+00:00</time>
      </trkpt>
      <trkpt lat="48.9922" lon="2.11821">
        <ele>22</ele>
        <time>2023-10-26T13:55:38.496+00:00</time>
      </trkpt>
      <trkpt lat="48.99218" lon="2.1181">
        <ele>23</ele>
        <time>2023-10-26T13:55:43.479+00:00</time>
      </trkpt>
      <trkpt lat="48.99215" lon="2.11801">
        <ele>23</ele>
        <time>2023-10-26T13:55:48.479+00:00</time>
      </trkpt>
      <trkpt lat="48.99214" lon="2.11793">
        <ele>23</ele>
        <time>2023-10-26T13:55:53.476+00:00</time>
      </trkpt>
      <trkpt lat="48.99213" lon="2.11783">
        <ele>23</ele>
        <time>2023-10-26T13:55:58.480+00:00</time>
      </trkpt>
      <trkpt lat="48.99213" lon="2.11772">
        <ele>23</ele>
        <time>2023-10-26T13:56:03.474+00:00</time>
      </trkpt>
      <trkpt lat="48.99213" lon="2.11761">
        <ele>22</ele>
        <time>2023-10-26T13:56:08.476+00:00</time>
      </trkpt>
      <trkpt lat="48.99211" lon="2.11753">
        <ele>22</ele>
        <time>2023-10-26T13:56:13.477+00:00</time>
      </trkpt>
      <trkpt lat="48.99211" lon="2.11744">
        <ele>22</ele>
        <time>2023-10-26T13:56:18.470+00:00</time>
      </trkpt>
      <trkpt lat="48.9921" lon="2.11733">
        <ele>21</ele>
        <time>2023-10-26T13:56:23.478+00:00</time>
      </trkpt>
      <trkpt lat="48.9921" lon="2.11724">
        <ele>21</ele>
        <time>2023-10-26T13:56:27.480+00:00</time>
      </trkpt>
      <trkpt lat="48.99209" lon="2.11716">
        <ele>21</ele>
        <time>2023-10-26T13:56:31.488+00:00</time>
      </trkpt>
      <trkpt lat="48.99209" lon="2.11708">
        <ele>21</ele>
        <time>2023-10-26T13:56:36.479+00:00</time>
      </trkpt>
      <trkpt lat="48.99209" lon="2.117">
        <ele>21</ele>
        <time>2023-10-26T13:56:41.492+00:00</time>
      </trkpt>
      <trkpt lat="48.9921" lon="2.11696">
        <ele>21</ele>
        <time>2023-10-26T13:56:46.482+00:00</time>
      </trkpt>
      <trkpt lat="48.99209" lon="2.11692">
        <ele>21</ele>
        <time>2023-10-26T13:56:51.473+00:00</time>
      </trkpt>
      <trkpt lat="48.99209" lon="2.11689">
        <ele>21</ele>
        <time>2023-10-26T13:56:56.491+00:00</time>
      </trkpt>
      <trkpt lat="48.9921" lon="2.11687">
        <ele>21</ele>
        <time>2023-10-26T13:57:01.472+00:00</time>
      </trkpt>
      <trkpt lat="48.9921" lon="2.11683">
        <ele>21</ele>
        <time>2023-10-26T13:57:05.487+00:00</time>
      </trkpt>
      <trkpt lat="48.99209" lon="2.11679">
        <ele>20</ele>
        <time>2023-10-26T13:57:10.484+00:00</time>
      </trkpt>
      <trkpt lat="48.99208" lon="2.11674">
        <ele>21</ele>
        <time>2023-10-26T13:57:15.482+00:00</time>
      </trkpt>
      <trkpt lat="48.99205" lon="2.11653">
        <ele>21</ele>
        <time>2023-10-26T13:58:50.480+00:00</time>
      </trkpt>
      <trkpt lat="48.99201" lon="2.11655">
        <ele>21</ele>
        <time>2023-10-26T13:58:55.493+00:00</time>
      </trkpt>
      <trkpt lat="48.99201" lon="2.11654">
        <ele>21</ele>
        <time>2023-10-26T13:59:00.484+00:00</time>
      </trkpt>
      <trkpt lat="48.99202" lon="2.1165">
        <ele>21</ele>
        <time>2023-10-26T13:59:05.469+00:00</time>
      </trkpt>
      <trkpt lat="48.99202" lon="2.11645">
        <ele>21</ele>
        <time>2023-10-26T13:59:10.485+00:00</time>
      </trkpt>
      <trkpt lat="48.992" lon="2.11634">
        <ele>21</ele>
        <time>2023-10-26T13:59:15.481+00:00</time>
      </trkpt>
      <trkpt lat="48.992" lon="2.11624">
        <ele>21</ele>
        <time>2023-10-26T13:59:20.490+00:00</time>
      </trkpt>
      <trkpt lat="48.99199" lon="2.11614">
        <ele>21</ele>
        <time>2023-10-26T13:59:25.476+00:00</time>
      </trkpt>
      <trkpt lat="48.992" lon="2.11603">
        <ele>21</ele>
        <time>2023-10-26T13:59:30.467+00:00</time>
      </trkpt>
      <trkpt lat="48.99201" lon="2.11601">
        <ele>21</ele>
        <time>2023-10-26T13:59:35.479+00:00</time>
      </trkpt>
      <trkpt lat="48.992" lon="2.11597">
        <ele>21</ele>
        <time>2023-10-26T13:59:40.480+00:00</time>
      </trkpt>
      <trkpt lat="48.99198" lon="2.11586">
        <ele>21</ele>
        <time>2023-10-26T13:59:45.472+00:00</time>
      </trkpt>
      <trkpt lat="48.99197" lon="2.11577">
        <ele>21</ele>
        <time>2023-10-26T13:59:49.476+00:00</time>
      </trkpt>
      <trkpt lat="48.99197" lon="2.1157">
        <ele>21</ele>
        <time>2023-10-26T13:59:53.470+00:00</time>
      </trkpt>
      <trkpt lat="48.99196" lon="2.11563">
        <ele>22</ele>
        <time>2023-10-26T13:59:57.479+00:00</time>
      </trkpt>
      <trkpt lat="48.99195" lon="2.11552">
        <ele>22</ele>
        <time>2023-10-26T14:00:02.484+00:00</time>
      </trkpt>
      <trkpt lat="48.99195" lon="2.1154">
        <ele>22</ele>
        <time>2023-10-26T14:00:07.481+00:00</time>
      </trkpt>
      <trkpt lat="48.99195" lon="2.11533">
        <ele>22</ele>
        <time>2023-10-26T14:00:11.473+00:00</time>
      </trkpt>
      <trkpt lat="48.99196" lon="2.11524">
        <ele>22</ele>
        <time>2023-10-26T14:00:16.473+00:00</time>
      </trkpt>
      <trkpt lat="48.99194" lon="2.11516">
        <ele>22</ele>
        <time>2023-10-26T14:00:21.480+00:00</time>
      </trkpt>
      <trkpt lat="48.99192" lon="2.11505">
        <ele>22</ele>
        <time>2023-10-26T14:00:26.483+00:00</time>
      </trkpt>
      <trkpt lat="48.99191" lon="2.11494">
        <ele>22</ele>
        <time>2023-10-26T14:00:31.488+00:00</time>
      </trkpt>
      <trkpt lat="48.99192" lon="2.11483">
        <ele>21</ele>
        <time>2023-10-26T14:00:36.477+00:00</time>
      </trkpt>
      <trkpt lat="48.99192" lon="2.11473">
        <ele>21</ele>
        <time>2023-10-26T14:00:41.480+00:00</time>
      </trkpt>
      <trkpt lat="48.99193" lon="2.11464">
        <ele>21</ele>
        <time>2023-10-26T14:00:46.479+00:00</time>
      </trkpt>
      <trkpt lat="48.99193" lon="2.11455">
        <ele>21</ele>
        <time>2023-10-26T14:00:51.495+00:00</time>
      </trkpt>
      <trkpt lat="48.99191" lon="2.11444">
        <ele>21</ele>
        <time>2023-10-26T14:00:56.480+00:00</time>
      </trkpt>
      <trkpt lat="48.9919" lon="2.11437">
        <ele>21</ele>
        <time>2023-10-26T14:01:01.492+00:00</time>
      </trkpt>
      <trkpt lat="48.9919" lon="2.11434">
        <ele>21</ele>
        <time>2023-10-26T14:01:06.480+00:00</time>
      </trkpt>
      <trkpt lat="48.99189" lon="2.1143">
        <ele>21</ele>
        <time>2023-10-26T14:01:11.477+00:00</time>
      </trkpt>
      <trkpt lat="48.99187" lon="2.11416">
        <ele>21</ele>
        <time>2023-10-26T14:01:16.485+00:00</time>
      </trkpt>
      <trkpt lat="48.99185" lon="2.11401">
        <ele>21</ele>
        <time>2023-10-26T14:01:21.491+00:00</time>
      </trkpt>
      <trkpt lat="48.99184" lon="2.11387">
        <ele>21</ele>
        <time>2023-10-26T14:01:26.481+00:00</time>
      </trkpt>
      <trkpt lat="48.99184" lon="2.11377">
        <ele>21</ele>
        <time>2023-10-26T14:01:31.470+00:00</time>
      </trkpt>
      <trkpt lat="48.99182" lon="2.11365">
        <ele>21</ele>
        <time>2023-10-26T14:01:36.484+00:00</time>
      </trkpt>
      <trkpt lat="48.99181" lon="2.1135">
        <ele>21</ele>
        <time>2023-10-26T14:01:41.478+00:00</time>
      </trkpt>
      <trkpt lat="48.9918" lon="2.11338">
        <ele>21</ele>
        <time>2023-10-26T14:01:46.474+00:00</time>
      </trkpt>
      <trkpt lat="48.99179" lon="2.11327">
        <ele>21</ele>
        <time>2023-10-26T14:01:51.487+00:00</time>
      </trkpt>
      <trkpt lat="48.99177" lon="2.11315">
        <ele>21</ele>
        <time>2023-10-26T14:01:56.472+00:00</time>
      </trkpt>
      <trkpt lat="48.99175" lon="2.11306">
        <ele>21</ele>
        <time>2023-10-26T14:02:01.479+00:00</time>
      </trkpt>
      <trkpt lat="48.99173" lon="2.11297">
        <ele>21</ele>
        <time>2023-10-26T14:02:06.469+00:00</time>
      </trkpt>
      <trkpt lat="48.9917" lon="2.11287">
        <ele>21</ele>
        <time>2023-10-26T14:02:11.475+00:00</time>
      </trkpt>
      <trkpt lat="48.99167" lon="2.11278">
        <ele>21</ele>
        <time>2023-10-26T14:02:16.476+00:00</time>
      </trkpt>
      <trkpt lat="48.99164" lon="2.11268">
        <ele>21</ele>
        <time>2023-10-26T14:02:21.472+00:00</time>
      </trkpt>
      <trkpt lat="48.99162" lon="2.11258">
        <ele>21</ele>
        <time>2023-10-26T14:02:26.474+00:00</time>
      </trkpt>
      <trkpt lat="48.99161" lon="2.11249">
        <ele>21</ele>
        <time>2023-10-26T14:02:31.478+00:00</time>
      </trkpt>
      <trkpt lat="48.99159" lon="2.11241">
        <ele>21</ele>
        <time>2023-10-26T14:02:36.478+00:00</time>
      </trkpt>
      <trkpt lat="48.99157" lon="2.11232">
        <ele>22</ele>
        <time>2023-10-26T14:02:41.474+00:00</time>
      </trkpt>
      <trkpt lat="48.99155" lon="2.11223">
        <ele>22</ele>
        <time>2023-10-26T14:02:46.474+00:00</time>
      </trkpt>
      <trkpt lat="48.99154" lon="2.11216">
        <ele>22</ele>
        <time>2023-10-26T14:02:50.478+00:00</time>
      </trkpt>
      <trkpt lat="48.99152" lon="2.11209">
        <ele>21</ele>
        <time>2023-10-26T14:02:55.482+00:00</time>
      </trkpt>
      <trkpt lat="48.9915" lon="2.11202">
        <ele>21</ele>
        <time>2023-10-26T14:03:00.472+00:00</time>
      </trkpt>
      <trkpt lat="48.99149" lon="2.11194">
        <ele>21</ele>
        <time>2023-10-26T14:03:05.476+00:00</time>
      </trkpt>
      <trkpt lat="48.9915" lon="2.11183">
        <ele>21</ele>
        <time>2023-10-26T14:03:10.476+00:00</time>
      </trkpt>
      <trkpt lat="48.99148" lon="2.11171">
        <ele>21</ele>
        <time>2023-10-26T14:03:15.474+00:00</time>
      </trkpt>
      <trkpt lat="48.99146" lon="2.11162">
        <ele>21</ele>
        <time>2023-10-26T14:03:20.476+00:00</time>
      </trkpt>
      <trkpt lat="48.99146" lon="2.11154">
        <ele>21</ele>
        <time>2023-10-26T14:03:25.481+00:00</time>
      </trkpt>
      <trkpt lat="48.99146" lon="2.11143">
        <ele>21</ele>
        <time>2023-10-26T14:03:30.480+00:00</time>
      </trkpt>
      <trkpt lat="48.99146" lon="2.11132">
        <ele>21</ele>
        <time>2023-10-26T14:03:35.478+00:00</time>
      </trkpt>
      <trkpt lat="48.99146" lon="2.1112">
        <ele>20</ele>
        <time>2023-10-26T14:03:40.472+00:00</time>
      </trkpt>
      <trkpt lat="48.99147" lon="2.11112">
        <ele>20</ele>
        <time>2023-10-26T14:03:44.480+00:00</time>
      </trkpt>
      <trkpt lat="48.99148" lon="2.11103">
        <ele>20</ele>
        <time>2023-10-26T14:03:49.476+00:00</time>
      </trkpt>
      <trkpt lat="48.99149" lon="2.11094">
        <ele>21</ele>
        <time>2023-10-26T14:03:54.473+00:00</time>
      </trkpt>
      <trkpt lat="48.99151" lon="2.11086">
        <ele>21</ele>
        <time>2023-10-26T14:03:58.489+00:00</time>
      </trkpt>
      <trkpt lat="48.99152" lon="2.11075">
        <ele>21</ele>
        <time>2023-10-26T14:04:03.487+00:00</time>
      </trkpt>
      <trkpt lat="48.99152" lon="2.11066">
        <ele>21</ele>
        <time>2023-10-26T14:04:08.476+00:00</time>
      </trkpt>
      <trkpt lat="48.99152" lon="2.11057">
        <ele>21</ele>
        <time>2023-10-26T14:04:13.475+00:00</time>
      </trkpt>
      <trkpt lat="48.99154" lon="2.11048">
        <ele>22</ele>
        <time>2023-10-26T14:04:18.491+00:00</time>
      </trkpt>
      <trkpt lat="48.99156" lon="2.11037">
        <ele>21</ele>
        <time>2023-10-26T14:04:23.475+00:00</time>
      </trkpt>
      <trkpt lat="48.99157" lon="2.11027">
        <ele>21</ele>
        <time>2023-10-26T14:04:27.478+00:00</time>
      </trkpt>
      <trkpt lat="48.99159" lon="2.11017">
        <ele>21</ele>
        <time>2023-10-26T14:04:32.491+00:00</time>
      </trkpt>
      <trkpt lat="48.99159" lon="2.11006">
        <ele>21</ele>
        <time>2023-10-26T14:04:37.486+00:00</time>
      </trkpt>
      <trkpt lat="48.99159" lon="2.10995">
        <ele>21</ele>
        <time>2023-10-26T14:04:42.470+00:00</time>
      </trkpt>
      <trkpt lat="48.9916" lon="2.10984">
        <ele>22</ele>
        <time>2023-10-26T14:04:47.476+00:00</time>
      </trkpt>
      <trkpt lat="48.9916" lon="2.10972">
        <ele>22</ele>
        <time>2023-10-26T14:04:52.471+00:00</time>
      </trkpt>
      <trkpt lat="48.9916" lon="2.10961">
        <ele>22</ele>
        <time>2023-10-26T14:04:57.472+00:00</time>
      </trkpt>
      <trkpt lat="48.99161" lon="2.1095">
        <ele>22</ele>
        <time>2023-10-26T14:05:02.468+00:00</time>
      </trkpt>
      <trkpt lat="48.99162" lon="2.10939">
        <ele>22</ele>
        <time>2023-10-26T14:05:07.474+00:00</time>
      </trkpt>
      <trkpt lat="48.99163" lon="2.10928">
        <ele>22</ele>
        <time>2023-10-26T14:05:12.473+00:00</time>
      </trkpt>
      <trkpt lat="48.99164" lon="2.10918">
        <ele>22</ele>
        <time>2023-10-26T14:05:17.475+00:00</time>
      </trkpt>
      <trkpt lat="48.99165" lon="2.10909">
        <ele>22</ele>
        <time>2023-10-26T14:05:22.479+00:00</time>
      </trkpt>
      <trkpt lat="48.99165" lon="2.10898">
        <ele>22</ele>
        <time>2023-10-26T14:05:27.469+00:00</time>
      </trkpt>
      <trkpt lat="48.99167" lon="2.10887">
        <ele>22</ele>
        <time>2023-10-26T14:05:32.474+00:00</time>
      </trkpt>
      <trkpt lat="48.99167" lon="2.10876">
        <ele>22</ele>
        <time>2023-10-26T14:05:37.474+00:00</time>
      </trkpt>
      <trkpt lat="48.99168" lon="2.10866">
        <ele>21</ele>
        <time>2023-10-26T14:05:42.477+00:00</time>
      </trkpt>
      <trkpt lat="48.99167" lon="2.10857">
        <ele>21</ele>
        <time>2023-10-26T14:05:47.475+00:00</time>
      </trkpt>
      <trkpt lat="48.99168" lon="2.10849">
        <ele>21</ele>
        <time>2023-10-26T14:05:52.468+00:00</time>
      </trkpt>
      <trkpt lat="48.9917" lon="2.1084">
        <ele>21</ele>
        <time>2023-10-26T14:05:57.476+00:00</time>
      </trkpt>
      <trkpt lat="48.99172" lon="2.10831">
        <ele>21</ele>
        <time>2023-10-26T14:06:02.475+00:00</time>
      </trkpt>
      <trkpt lat="48.99173" lon="2.10821">
        <ele>21</ele>
        <time>2023-10-26T14:06:07.476+00:00</time>
      </trkpt>
      <trkpt lat="48.99173" lon="2.10812">
        <ele>21</ele>
        <time>2023-10-26T14:06:12.476+00:00</time>
      </trkpt>
      <trkpt lat="48.99174" lon="2.10803">
        <ele>21</ele>
        <time>2023-10-26T14:06:16.476+00:00</time>
      </trkpt>
      <trkpt lat="48.99174" lon="2.10794">
        <ele>21</ele>
        <time>2023-10-26T14:06:20.487+00:00</time>
      </trkpt>
      <trkpt lat="48.99175" lon="2.10784">
        <ele>21</ele>
        <time>2023-10-26T14:06:25.492+00:00</time>
      </trkpt>
      <trkpt lat="48.99176" lon="2.10775">
        <ele>21</ele>
        <time>2023-10-26T14:06:30.474+00:00</time>
      </trkpt>
      <trkpt lat="48.99177" lon="2.10766">
        <ele>21</ele>
        <time>2023-10-26T14:06:35.475+00:00</time>
      </trkpt>
      <trkpt lat="48.99177" lon="2.10759">
        <ele>20</ele>
        <time>2023-10-26T14:06:40.492+00:00</time>
      </trkpt>
      <trkpt lat="48.99176" lon="2.10753">
        <ele>20</ele>
        <time>2023-10-26T14:06:59.480+00:00</time>
      </trkpt>
      <trkpt lat="48.99176" lon="2.10752">
        <ele>20</ele>
        <time>2023-10-26T14:07:04.482+00:00</time>
      </trkpt>
      <trkpt lat="48.99177" lon="2.10747">
        <ele>20</ele>
        <time>2023-10-26T14:07:09.487+00:00</time>
      </trkpt>
      <trkpt lat="48.99177" lon="2.10739">
        <ele>20</ele>
        <time>2023-10-26T14:07:14.475+00:00</time>
      </trkpt>
      <trkpt lat="48.99177" lon="2.1073">
        <ele>20</ele>
        <time>2023-10-26T14:07:19.483+00:00</time>
      </trkpt>
      <trkpt lat="48.99178" lon="2.1072">
        <ele>20</ele>
        <time>2023-10-26T14:07:24.480+00:00</time>
      </trkpt>
      <trkpt lat="48.9918" lon="2.10711">
        <ele>20</ele>
        <time>2023-10-26T14:07:29.483+00:00</time>
      </trkpt>
      <trkpt lat="48.99181" lon="2.10704">
        <ele>22</ele>
        <time>2023-10-26T14:07:34.479+00:00</time>
      </trkpt>
      <trkpt lat="48.99181" lon="2.10694">
        <ele>22</ele>
        <time>2023-10-26T14:07:39.475+00:00</time>
      </trkpt>
      <trkpt lat="48.99182" lon="2.10685">
        <ele>22</ele>
        <time>2023-10-26T14:07:44.488+00:00</time>
      </trkpt>
      <trkpt lat="48.99182" lon="2.10675">
        <ele>22</ele>
        <time>2023-10-26T14:07:49.481+00:00</time>
      </trkpt>
      <trkpt lat="48.99183" lon="2.10664">
        <ele>22</ele>
        <time>2023-10-26T14:07:54.483+00:00</time>
      </trkpt>
      <trkpt lat="48.99183" lon="2.10654">
        <ele>22</ele>
        <time>2023-10-26T14:07:59.477+00:00</time>
      </trkpt>
      <trkpt lat="48.99184" lon="2.10644">
        <ele>22</ele>
        <time>2023-10-26T14:08:04.476+00:00</time>
      </trkpt>
      <trkpt lat="48.99185" lon="2.10634">
        <ele>22</ele>
        <time>2023-10-26T14:08:09.483+00:00</time>
      </trkpt>
      <trkpt lat="48.99186" lon="2.10624">
        <ele>23</ele>
        <time>2023-10-26T14:08:14.478+00:00</time>
      </trkpt>
      <trkpt lat="48.99186" lon="2.10615">
        <ele>23</ele>
        <time>2023-10-26T14:08:19.473+00:00</time>
      </trkpt>
      <trkpt lat="48.99186" lon="2.10605">
        <ele>23</ele>
        <time>2023-10-26T14:08:24.479+00:00</time>
      </trkpt>
      <trkpt lat="48.99187" lon="2.10596">
        <ele>25</ele>
        <time>2023-10-26T14:08:29.480+00:00</time>
      </trkpt>
      <trkpt lat="48.99187" lon="2.10587">
        <ele>25</ele>
        <time>2023-10-26T14:08:34.482+00:00</time>
      </trkpt>
      <trkpt lat="48.99187" lon="2.10579">
        <ele>25</ele>
        <time>2023-10-26T14:08:38.479+00:00</time>
      </trkpt>
      <trkpt lat="48.99187" lon="2.10572">
        <ele>25</ele>
        <time>2023-10-26T14:08:43.469+00:00</time>
      </trkpt>
      <trkpt lat="48.99187" lon="2.10563">
        <ele>27</ele>
        <time>2023-10-26T14:08:48.471+00:00</time>
      </trkpt>
      <trkpt lat="48.99188" lon="2.1055">
        <ele>27</ele>
        <time>2023-10-26T14:08:53.475+00:00</time>
      </trkpt>
      <trkpt lat="48.99188" lon="2.10538">
        <ele>26</ele>
        <time>2023-10-26T14:08:58.475+00:00</time>
      </trkpt>
      <trkpt lat="48.99186" lon="2.10528">
        <ele>26</ele>
        <time>2023-10-26T14:09:02.511+00:00</time>
      </trkpt>
      <trkpt lat="48.99184" lon="2.10518">
        <ele>26</ele>
        <time>2023-10-26T14:09:07.480+00:00</time>
      </trkpt>
      <trkpt lat="48.99183" lon="2.10507">
        <ele>25</ele>
        <time>2023-10-26T14:09:12.479+00:00</time>
      </trkpt>
      <trkpt lat="48.99183" lon="2.10497">
        <ele>25</ele>
        <time>2023-10-26T14:09:17.474+00:00</time>
      </trkpt>
      <trkpt lat="48.99181" lon="2.10489">
        <ele>25</ele>
        <time>2023-10-26T14:09:22.473+00:00</time>
      </trkpt>
      <trkpt lat="48.99181" lon="2.1048">
        <ele>24</ele>
        <time>2023-10-26T14:09:27.476+00:00</time>
      </trkpt>
      <trkpt lat="48.9918" lon="2.10472">
        <ele>22</ele>
        <time>2023-10-26T14:09:32.473+00:00</time>
      </trkpt>
      <trkpt lat="48.9918" lon="2.10463">
        <ele>22</ele>
        <time>2023-10-26T14:09:37.473+00:00</time>
      </trkpt>
      <trkpt lat="48.99179" lon="2.10451">
        <ele>22</ele>
        <time>2023-10-26T14:09:42.474+00:00</time>
      </trkpt>
      <trkpt lat="48.99179" lon="2.1044">
        <ele>22</ele>
        <time>2023-10-26T14:09:47.470+00:00</time>
      </trkpt>
      <trkpt lat="48.99179" lon="2.10433">
        <ele>22</ele>
        <time>2023-10-26T14:09:51.468+00:00</time>
      </trkpt>
      <trkpt lat="48.99178" lon="2.10424">
        <ele>22</ele>
        <time>2023-10-26T14:09:56.470+00:00</time>
      </trkpt>
      <trkpt lat="48.99177" lon="2.10417">
        <ele>22</ele>
        <time>2023-10-26T14:10:00.479+00:00</time>
      </trkpt>
      <trkpt lat="48.99175" lon="2.10407">
        <ele>22</ele>
        <time>2023-10-26T14:10:05.470+00:00</time>
      </trkpt>
      <trkpt lat="48.99174" lon="2.10398">
        <ele>22</ele>
        <time>2023-10-26T14:10:09.474+00:00</time>
      </trkpt>
      <trkpt lat="48.99174" lon="2.10389">
        <ele>22</ele>
        <time>2023-10-26T14:10:14.476+00:00</time>
      </trkpt>
      <trkpt lat="48.99173" lon="2.10378">
        <ele>22</ele>
        <time>2023-10-26T14:10:19.475+00:00</time>
      </trkpt>
      <trkpt lat="48.99171" lon="2.10368">
        <ele>22</ele>
        <time>2023-10-26T14:10:24.477+00:00</time>
      </trkpt>
      <trkpt lat="48.9917" lon="2.10356">
        <ele>22</ele>
        <time>2023-10-26T14:10:29.474+00:00</time>
      </trkpt>
      <trkpt lat="48.9917" lon="2.10347">
        <ele>22</ele>
        <time>2023-10-26T14:10:33.469+00:00</time>
      </trkpt>
      <trkpt lat="48.9917" lon="2.10337">
        <ele>21</ele>
        <time>2023-10-26T14:10:38.473+00:00</time>
      </trkpt>
      <trkpt lat="48.9917" lon="2.10326">
        <ele>21</ele>
        <time>2023-10-26T14:10:43.474+00:00</time>
      </trkpt>
      <trkpt lat="48.99169" lon="2.10315">
        <ele>21</ele>
        <time>2023-10-26T14:10:48.473+00:00</time>
      </trkpt>
      <trkpt lat="48.99168" lon="2.10306">
        <ele>21</ele>
        <time>2023-10-26T14:10:52.476+00:00</time>
      </trkpt>
      <trkpt lat="48.99167" lon="2.10298">
        <ele>21</ele>
        <time>2023-10-26T14:10:56.478+00:00</time>
      </trkpt>
      <trkpt lat="48.99167" lon="2.1029">
        <ele>23</ele>
        <time>2023-10-26T14:11:01.472+00:00</time>
      </trkpt>
      <trkpt lat="48.99167" lon="2.10283">
        <ele>23</ele>
        <time>2023-10-26T14:11:05.485+00:00</time>
      </trkpt>
      <trkpt lat="48.99166" lon="2.10273">
        <ele>23</ele>
        <time>2023-10-26T14:11:10.475+00:00</time>
      </trkpt>
      <trkpt lat="48.99166" lon="2.10263">
        <ele>23</ele>
        <time>2023-10-26T14:11:15.471+00:00</time>
      </trkpt>
      <trkpt lat="48.99166" lon="2.10254">
        <ele>23</ele>
        <time>2023-10-26T14:11:20.478+00:00</time>
      </trkpt>
      <trkpt lat="48.99164" lon="2.10243">
        <ele>23</ele>
        <time>2023-10-26T14:11:25.474+00:00</time>
      </trkpt>
      <trkpt lat="48.99164" lon="2.10236">
        <ele>23</ele>
        <time>2023-10-26T14:11:29.477+00:00</time>
      </trkpt>
      <trkpt lat="48.99163" lon="2.10227">
        <ele>23</ele>
        <time>2023-10-26T14:11:34.481+00:00</time>
      </trkpt>
      <trkpt lat="48.99162" lon="2.10218">
        <ele>23</ele>
        <time>2023-10-26T14:11:39.480+00:00</time>
      </trkpt>
      <trkpt lat="48.99162" lon="2.10209">
        <ele>23</ele>
        <time>2023-10-26T14:11:44.477+00:00</time>
      </trkpt>
      <trkpt lat="48.99162" lon="2.10201">
        <ele>23</ele>
        <time>2023-10-26T14:11:49.472+00:00</time>
      </trkpt>
      <trkpt lat="48.99162" lon="2.10192">
        <ele>23</ele>
        <time>2023-10-26T14:11:54.474+00:00</time>
      </trkpt>
      <trkpt lat="48.99164" lon="2.10181">
        <ele>23</ele>
        <time>2023-10-26T14:11:59.478+00:00</time>
      </trkpt>
      <trkpt lat="48.99166" lon="2.10171">
        <ele>22</ele>
        <time>2023-10-26T14:12:04.479+00:00</time>
      </trkpt>
      <trkpt lat="48.99165" lon="2.10162">
        <ele>22</ele>
        <time>2023-10-26T14:12:08.470+00:00</time>
      </trkpt>
      <trkpt lat="48.99165" lon="2.10152">
        <ele>21</ele>
        <time>2023-10-26T14:12:13.480+00:00</time>
      </trkpt>
      <trkpt lat="48.99166" lon="2.10142">
        <ele>21</ele>
        <time>2023-10-26T14:12:18.490+00:00</time>
      </trkpt>
      <trkpt lat="48.99165" lon="2.10131">
        <ele>21</ele>
        <time>2023-10-26T14:12:23.469+00:00</time>
      </trkpt>
      <trkpt lat="48.99164" lon="2.10121">
        <ele>22</ele>
        <time>2023-10-26T14:12:28.490+00:00</time>
      </trkpt>
      <trkpt lat="48.99163" lon="2.10113">
        <ele>22</ele>
        <time>2023-10-26T14:12:33.495+00:00</time>
      </trkpt>
      <trkpt lat="48.99164" lon="2.10102">
        <ele>22</ele>
        <time>2023-10-26T14:12:38.476+00:00</time>
      </trkpt>
      <trkpt lat="48.99164" lon="2.10091">
        <ele>23</ele>
        <time>2023-10-26T14:12:43.477+00:00</time>
      </trkpt>
      <trkpt lat="48.99163" lon="2.10083">
        <ele>23</ele>
        <time>2023-10-26T14:12:48.477+00:00</time>
      </trkpt>
      <trkpt lat="48.99165" lon="2.10073">
        <ele>23</ele>
        <time>2023-10-26T14:12:53.480+00:00</time>
      </trkpt>
      <trkpt lat="48.99165" lon="2.10064">
        <ele>23</ele>
        <time>2023-10-26T14:12:57.494+00:00</time>
      </trkpt>
      <trkpt lat="48.99164" lon="2.10055">
        <ele>23</ele>
        <time>2023-10-26T14:13:02.477+00:00</time>
      </trkpt>
      <trkpt lat="48.99164" lon="2.10047">
        <ele>23</ele>
        <time>2023-10-26T14:13:07.477+00:00</time>
      </trkpt>
      <trkpt lat="48.99164" lon="2.1004">
        <ele>23</ele>
        <time>2023-10-26T14:13:11.479+00:00</time>
      </trkpt>
      <trkpt lat="48.99165" lon="2.10031">
        <ele>23</ele>
        <time>2023-10-26T14:13:16.482+00:00</time>
      </trkpt>
      <trkpt lat="48.99166" lon="2.10023">
        <ele>23</ele>
        <time>2023-10-26T14:13:21.470+00:00</time>
      </trkpt>
      <trkpt lat="48.99166" lon="2.1001">
        <ele>22</ele>
        <time>2023-10-26T14:13:26.480+00:00</time>
      </trkpt>
      <trkpt lat="48.99167" lon="2.09999">
        <ele>22</ele>
        <time>2023-10-26T14:13:30.480+00:00</time>
      </trkpt>
      <trkpt lat="48.99168" lon="2.09986">
        <ele>22</ele>
        <time>2023-10-26T14:13:35.475+00:00</time>
      </trkpt>
      <trkpt lat="48.99167" lon="2.09975">
        <ele>21</ele>
        <time>2023-10-26T14:13:40.476+00:00</time>
      </trkpt>
      <trkpt lat="48.99166" lon="2.09966">
        <ele>21</ele>
        <time>2023-10-26T14:13:44.474+00:00</time>
      </trkpt>
      <trkpt lat="48.99166" lon="2.09955">
        <ele>21</ele>
        <time>2023-10-26T14:13:49.477+00:00</time>
      </trkpt>
      <trkpt lat="48.99165" lon="2.09947">
        <ele>21</ele>
        <time>2023-10-26T14:13:53.488+00:00</time>
      </trkpt>
      <trkpt lat="48.99162" lon="2.09936">
        <ele>21</ele>
        <time>2023-10-26T14:13:58.475+00:00</time>
      </trkpt>
      <trkpt lat="48.99161" lon="2.09927">
        <ele>21</ele>
        <time>2023-10-26T14:14:03.486+00:00</time>
      </trkpt>
      <trkpt lat="48.99161" lon="2.09917">
        <ele>21</ele>
        <time>2023-10-26T14:14:08.473+00:00</time>
      </trkpt>
      <trkpt lat="48.99162" lon="2.09909">
        <ele>21</ele>
        <time>2023-10-26T14:14:12.480+00:00</time>
      </trkpt>
      <trkpt lat="48.99162" lon="2.09899">
        <ele>21</ele>
        <time>2023-10-26T14:14:17.473+00:00</time>
      </trkpt>
      <trkpt lat="48.99163" lon="2.09891">
        <ele>21</ele>
        <time>2023-10-26T14:14:22.473+00:00</time>
      </trkpt>
      <trkpt lat="48.99164" lon="2.09881">
        <ele>21</ele>
        <time>2023-10-26T14:14:27.481+00:00</time>
      </trkpt>
      <trkpt lat="48.99165" lon="2.09872">
        <ele>21</ele>
        <time>2023-10-26T14:14:32.484+00:00</time>
      </trkpt>
      <trkpt lat="48.99165" lon="2.09864">
        <ele>21</ele>
        <time>2023-10-26T14:14:37.472+00:00</time>
      </trkpt>
      <trkpt lat="48.99166" lon="2.09856">
        <ele>21</ele>
        <time>2023-10-26T14:14:41.474+00:00</time>
      </trkpt>
      <trkpt lat="48.99168" lon="2.09845">
        <ele>22</ele>
        <time>2023-10-26T14:14:46.472+00:00</time>
      </trkpt>
      <trkpt lat="48.99168" lon="2.09837">
        <ele>22</ele>
        <time>2023-10-26T14:14:50.476+00:00</time>
      </trkpt>
      <trkpt lat="48.99167" lon="2.09827">
        <ele>22</ele>
        <time>2023-10-26T14:14:55.471+00:00</time>
      </trkpt>
      <trkpt lat="48.99167" lon="2.09818">
        <ele>22</ele>
        <time>2023-10-26T14:15:00.476+00:00</time>
      </trkpt>
      <trkpt lat="48.99166" lon="2.09806">
        <ele>22</ele>
        <time>2023-10-26T14:15:05.473+00:00</time>
      </trkpt>
      <trkpt lat="48.99165" lon="2.09795">
        <ele>22</ele>
        <time>2023-10-26T14:15:10.480+00:00</time>
      </trkpt>
      <trkpt lat="48.99164" lon="2.09785">
        <ele>23</ele>
        <time>2023-10-26T14:15:15.472+00:00</time>
      </trkpt>
      <trkpt lat="48.99163" lon="2.09775">
        <ele>23</ele>
        <time>2023-10-26T14:15:20.469+00:00</time>
      </trkpt>
      <trkpt lat="48.99163" lon="2.09769">
        <ele>23</ele>
        <time>2023-10-26T14:15:24.472+00:00</time>
      </trkpt>
      <trkpt lat="48.99161" lon="2.09762">
        <ele>23</ele>
        <time>2023-10-26T14:15:28.481+00:00</time>
      </trkpt>
      <trkpt lat="48.99159" lon="2.09751">
        <ele>23</ele>
        <time>2023-10-26T14:15:33.474+00:00</time>
      </trkpt>
      <trkpt lat="48.99159" lon="2.09741">
        <ele>23</ele>
        <time>2023-10-26T14:15:38.479+00:00</time>
      </trkpt>
      <trkpt lat="48.99158" lon="2.09731">
        <ele>22</ele>
        <time>2023-10-26T14:15:43.475+00:00</time>
      </trkpt>
      <trkpt lat="48.99158" lon="2.09721">
        <ele>22</ele>
        <time>2023-10-26T14:15:48.483+00:00</time>
      </trkpt>
      <trkpt lat="48.99158" lon="2.0971">
        <ele>22</ele>
        <time>2023-10-26T14:15:53.475+00:00</time>
      </trkpt>
      <trkpt lat="48.99159" lon="2.097">
        <ele>21</ele>
        <time>2023-10-26T14:15:58.483+00:00</time>
      </trkpt>
      <trkpt lat="48.9916" lon="2.0969">
        <ele>21</ele>
        <time>2023-10-26T14:16:03.472+00:00</time>
      </trkpt>
      <trkpt lat="48.99159" lon="2.09681">
        <ele>21</ele>
        <time>2023-10-26T14:16:08.477+00:00</time>
      </trkpt>
      <trkpt lat="48.9916" lon="2.09674">
        <ele>20</ele>
        <time>2023-10-26T14:16:12.467+00:00</time>
      </trkpt>
      <trkpt lat="48.99159" lon="2.09664">
        <ele>20</ele>
        <time>2023-10-26T14:16:17.476+00:00</time>
      </trkpt>
      <trkpt lat="48.99159" lon="2.09656">
        <ele>20</ele>
        <time>2023-10-26T14:16:21.471+00:00</time>
      </trkpt>
      <trkpt lat="48.99158" lon="2.09646">
        <ele>21</ele>
        <time>2023-10-26T14:16:26.480+00:00</time>
      </trkpt>
      <trkpt lat="48.99159" lon="2.09636">
        <ele>21</ele>
        <time>2023-10-26T14:16:31.476+00:00</time>
      </trkpt>
      <trkpt lat="48.99158" lon="2.0963">
        <ele>21</ele>
        <time>2023-10-26T14:16:35.485+00:00</time>
      </trkpt>
      <trkpt lat="48.99158" lon="2.09629">
        <ele>21</ele>
        <time>2023-10-26T14:16:40.477+00:00</time>
      </trkpt>
      <trkpt lat="48.99158" lon="2.09629">
        <ele>21</ele>
        <time>2023-10-26T14:16:45.478+00:00</time>
      </trkpt>
      <trkpt lat="48.99158" lon="2.09623">
        <ele>22</ele>
        <time>2023-10-26T14:16:49.476+00:00</time>
      </trkpt>
      <trkpt lat="48.99157" lon="2.09615">
        <ele>22</ele>
        <time>2023-10-26T14:16:54.478+00:00</time>
      </trkpt>
      <trkpt lat="48.99157" lon="2.09601">
        <ele>22</ele>
        <time>2023-10-26T14:17:08.493+00:00</time>
      </trkpt>
      <trkpt lat="48.99157" lon="2.09601">
        <ele>22</ele>
        <time>2023-10-26T14:17:13.476+00:00</time>
      </trkpt>
      <trkpt lat="48.99157" lon="2.096">
        <ele>22</ele>
        <time>2023-10-26T14:17:18.470+00:00</time>
      </trkpt>
      <trkpt lat="48.99157" lon="2.09595">
        <ele>23</ele>
        <time>2023-10-26T14:17:23.474+00:00</time>
      </trkpt>
      <trkpt lat="48.99156" lon="2.0959">
        <ele>23</ele>
        <time>2023-10-26T14:17:28.477+00:00</time>
      </trkpt>
      <trkpt lat="48.99155" lon="2.09584">
        <ele>23</ele>
        <time>2023-10-26T14:18:00.471+00:00</time>
      </trkpt>
      <trkpt lat="48.99154" lon="2.09581">
        <ele>23</ele>
        <time>2023-10-26T14:18:04.472+00:00</time>
      </trkpt>
      <trkpt lat="48.99154" lon="2.09581">
        <ele>23</ele>
        <time>2023-10-26T14:18:08.484+00:00</time>
      </trkpt>
      <trkpt lat="48.99153" lon="2.0958">
        <ele>23</ele>
        <time>2023-10-26T14:18:13.468+00:00</time>
      </trkpt>
      <trkpt lat="48.99154" lon="2.09575">
        <ele>23</ele>
        <time>2023-10-26T14:18:17.471+00:00</time>
      </trkpt>
      <trkpt lat="48.99153" lon="2.09569">
        <ele>25</ele>
        <time>2023-10-26T14:18:22.471+00:00</time>
      </trkpt>
      <trkpt lat="48.99153" lon="2.09564">
        <ele>25</ele>
        <time>2023-10-26T14:18:27.472+00:00</time>
      </trkpt>
      <trkpt lat="48.99155" lon="2.09557">
        <ele>25</ele>
        <time>2023-10-26T14:18:32.475+00:00</time>
      </trkpt>
      <trkpt lat="48.99159" lon="2.09549">
        <ele>25</ele>
        <time>2023-10-26T14:18:37.476+00:00</time>
      </trkpt>
      <trkpt lat="48.99162" lon="2.09541">
        <ele>27</ele>
        <time>2023-10-26T14:18:41.479+00:00</time>
      </trkpt>
      <trkpt lat="48.99167" lon="2.09535">
        <ele>27</ele>
        <time>2023-10-26T14:18:46.481+00:00</time>
      </trkpt>
      <trkpt lat="48.99171" lon="2.09535">
        <ele>27</ele>
        <time>2023-10-26T14:18:51.477+00:00</time>
      </trkpt>
      <trkpt lat="48.99173" lon="2.0954">
        <ele>27</ele>
        <time>2023-10-26T14:18:56.473+00:00</time>
      </trkpt>
      <trkpt lat="48.99176" lon="2.0955">
        <ele>25</ele>
        <time>2023-10-26T14:19:01.470+00:00</time>
      </trkpt>
      <trkpt lat="48.9918" lon="2.0956">
        <ele>25</ele>
        <time>2023-10-26T14:19:06.467+00:00</time>
      </trkpt>
      <trkpt lat="48.99181" lon="2.09569">
        <ele>33</ele>
        <time>2023-10-26T14:19:11.468+00:00</time>
      </trkpt>
      <trkpt lat="48.9918" lon="2.09581">
        <ele>23</ele>
        <time>2023-10-26T14:19:16.713+00:00</time>
      </trkpt>
      <trkpt lat="48.99182" lon="2.09591">
        <ele>33</ele>
        <time>2023-10-26T14:19:21.474+00:00</time>
      </trkpt>
      <trkpt lat="48.99181" lon="2.09599">
        <ele>32</ele>
        <time>2023-10-26T14:19:26.471+00:00</time>
      </trkpt>
      <trkpt lat="48.99182" lon="2.09608">
        <ele>32</ele>
        <time>2023-10-26T14:19:31.476+00:00</time>
      </trkpt>
      <trkpt lat="48.99184" lon="2.09617">
        <ele>32</ele>
        <time>2023-10-26T14:19:36.469+00:00</time>
      </trkpt>
      <trkpt lat="48.99186" lon="2.09624">
        <ele>32</ele>
        <time>2023-10-26T14:19:40.474+00:00</time>
      </trkpt>
      <trkpt lat="48.99192" lon="2.09625">
        <ele>32</ele>
        <time>2023-10-26T14:19:45.467+00:00</time>
      </trkpt>
      <trkpt lat="48.99195" lon="2.09623">
        <ele>32</ele>
        <time>2023-10-26T14:19:50.469+00:00</time>
      </trkpt>
      <trkpt lat="48.99202" lon="2.09619">
        <ele>32</ele>
        <time>2023-10-26T14:19:57.467+00:00</time>
      </trkpt>
      <trkpt lat="48.99203" lon="2.09625">
        <ele>32</ele>
        <time>2023-10-26T14:20:28.477+00:00</time>
      </trkpt>
      <trkpt lat="48.99205" lon="2.09631">
        <ele>29</ele>
        <time>2023-10-26T14:20:33.469+00:00</time>
      </trkpt>
      <trkpt lat="48.99203" lon="2.09639">
        <ele>29</ele>
        <time>2023-10-26T14:20:38.474+00:00</time>
      </trkpt>
      <trkpt lat="48.99203" lon="2.09647">
        <ele>29</ele>
        <time>2023-10-26T14:20:43.464+00:00</time>
      </trkpt>
      <trkpt lat="48.99205" lon="2.09655">
        <ele>27</ele>
        <time>2023-10-26T14:20:48.468+00:00</time>
      </trkpt>
      <trkpt lat="48.99207" lon="2.09662">
        <ele>27</ele>
        <time>2023-10-26T14:20:53.471+00:00</time>
      </trkpt>
      <trkpt lat="48.99209" lon="2.09666">
        <ele>39</ele>
        <time>2023-10-26T14:20:57.481+00:00</time>
      </trkpt>
      <trkpt lat="48.99209" lon="2.09673">
        <ele>39</ele>
        <time>2023-10-26T14:21:02.477+00:00</time>
      </trkpt>
      <trkpt lat="48.9921" lon="2.09681">
        <ele>39</ele>
        <time>2023-10-26T14:21:07.481+00:00</time>
      </trkpt>
      <trkpt lat="48.99211" lon="2.09688">
        <ele>38</ele>
        <time>2023-10-26T14:21:12.468+00:00</time>
      </trkpt>
      <trkpt lat="48.99215" lon="2.09695">
        <ele>38</ele>
        <time>2023-10-26T14:21:17.471+00:00</time>
      </trkpt>
      <trkpt lat="48.99217" lon="2.097">
        <ele>38</ele>
        <time>2023-10-26T14:21:21.467+00:00</time>
      </trkpt>
      <trkpt lat="48.99216" lon="2.09706">
        <ele>38</ele>
        <time>2023-10-26T14:21:26.474+00:00</time>
      </trkpt>
      <trkpt lat="48.99221" lon="2.09704">
        <ele>38</ele>
        <time>2023-10-26T14:21:31.475+00:00</time>
      </trkpt>
      <trkpt lat="48.99223" lon="2.09699">
        <ele>38</ele>
        <time>2023-10-26T14:21:35.477+00:00</time>
      </trkpt>
      <trkpt lat="48.99223" lon="2.09691">
        <ele>38</ele>
        <time>2023-10-26T14:21:40.474+00:00</time>
      </trkpt>
      <trkpt lat="48.99223" lon="2.09681">
        <ele>38</ele>
        <time>2023-10-26T14:21:45.471+00:00</time>
      </trkpt>
      <trkpt lat="48.99223" lon="2.09673">
        <ele>39</ele>
        <time>2023-10-26T14:21:50.471+00:00</time>
      </trkpt>
      <trkpt lat="48.99221" lon="2.09666">
        <ele>39</ele>
        <time>2023-10-26T14:21:55.477+00:00</time>
      </trkpt>
      <trkpt lat="48.9922" lon="2.09656">
        <ele>39</ele>
        <time>2023-10-26T14:22:00.472+00:00</time>
      </trkpt>
      <trkpt lat="48.99217" lon="2.09646">
        <ele>39</ele>
        <time>2023-10-26T14:22:05.472+00:00</time>
      </trkpt>
      <trkpt lat="48.99217" lon="2.09638">
        <ele>39</ele>
        <time>2023-10-26T14:22:10.473+00:00</time>
      </trkpt>
      <trkpt lat="48.99216" lon="2.09629">
        <ele>39</ele>
        <time>2023-10-26T14:22:15.474+00:00</time>
      </trkpt>
      <trkpt lat="48.99216" lon="2.0962">
        <ele>40</ele>
        <time>2023-10-26T14:22:20.476+00:00</time>
      </trkpt>
      <trkpt lat="48.99217" lon="2.09614">
        <ele>40</ele>
        <time>2023-10-26T14:22:25.475+00:00</time>
      </trkpt>
      <trkpt lat="48.99218" lon="2.09609">
        <ele>40</ele>
        <time>2023-10-26T14:22:29.474+00:00</time>
      </trkpt>
      <trkpt lat="48.9922" lon="2.09601">
        <ele>40</ele>
        <time>2023-10-26T14:22:34.472+00:00</time>
      </trkpt>
      <trkpt lat="48.99222" lon="2.09593">
        <ele>40</ele>
        <time>2023-10-26T14:22:39.470+00:00</time>
      </trkpt>
      <trkpt lat="48.99224" lon="2.09584">
        <ele>40</ele>
        <time>2023-10-26T14:22:44.472+00:00</time>
      </trkpt>
      <trkpt lat="48.99226" lon="2.09577">
        <ele>40</ele>
        <time>2023-10-26T14:22:48.476+00:00</time>
      </trkpt>
      <trkpt lat="48.99224" lon="2.09571">
        <ele>40</ele>
        <time>2023-10-26T14:22:53.480+00:00</time>
      </trkpt>
      <trkpt lat="48.99221" lon="2.09567">
        <ele>42</ele>
        <time>2023-10-26T14:22:58.476+00:00</time>
      </trkpt>
      <trkpt lat="48.99216" lon="2.09569">
        <ele>42</ele>
        <time>2023-10-26T14:23:02.496+00:00</time>
      </trkpt>
      <trkpt lat="48.99217" lon="2.09575">
        <ele>40</ele>
        <time>2023-10-26T14:24:57.476+00:00</time>
      </trkpt>
      <trkpt lat="48.99219" lon="2.09571">
        <ele>40</ele>
        <time>2023-10-26T14:25:02.476+00:00</time>
      </trkpt>
      <trkpt lat="48.99222" lon="2.09569">
        <ele>42</ele>
        <time>2023-10-26T14:25:06.477+00:00</time>
      </trkpt>
      <trkpt lat="48.99227" lon="2.09567">
        <ele>42</ele>
        <time>2023-10-26T14:25:11.473+00:00</time>
      </trkpt>
      <trkpt lat="48.99231" lon="2.09565">
        <ele>42</ele>
        <time>2023-10-26T14:25:15.474+00:00</time>
      </trkpt>
      <trkpt lat="48.99234" lon="2.09561">
        <ele>42</ele>
        <time>2023-10-26T14:25:19.478+00:00</time>
      </trkpt>
      <trkpt lat="48.99239" lon="2.0956">
        <ele>44</ele>
        <time>2023-10-26T14:25:24.477+00:00</time>
      </trkpt>
      <trkpt lat="48.99241" lon="2.09556">
        <ele>44</ele>
        <time>2023-10-26T14:25:28.483+00:00</time>
      </trkpt>
      <trkpt lat="48.99242" lon="2.09549">
        <ele>44</ele>
        <time>2023-10-26T14:25:33.487+00:00</time>
      </trkpt>
      <trkpt lat="48.99242" lon="2.09546">
        <ele>44</ele>
        <time>2023-10-26T14:25:38.476+00:00</time>
      </trkpt>
      <trkpt lat="48.99243" lon="2.09543">
        <ele>44</ele>
        <time>2023-10-26T14:25:43.479+00:00</time>
      </trkpt>
      <trkpt lat="48.99246" lon="2.09537">
        <ele>44</ele>
        <time>2023-10-26T14:25:48.473+00:00</time>
      </trkpt>
      <trkpt lat="48.99248" lon="2.09535">
        <ele>44</ele>
        <time>2023-10-26T14:25:53.476+00:00</time>
      </trkpt>
      <trkpt lat="48.99249" lon="2.09536">
        <ele>44</ele>
        <time>2023-10-26T14:25:58.479+00:00</time>
      </trkpt>
      <trkpt lat="48.99248" lon="2.09535">
        <ele>44</ele>
        <time>2023-10-26T14:26:03.490+00:00</time>
      </trkpt>
      <trkpt lat="48.99245" lon="2.09533">
        <ele>44</ele>
        <time>2023-10-26T14:26:08.487+00:00</time>
      </trkpt>
      <trkpt lat="48.99242" lon="2.09538">
        <ele>44</ele>
        <time>2023-10-26T14:26:13.479+00:00</time>
      </trkpt>
      <trkpt lat="48.99238" lon="2.09541">
        <ele>44</ele>
        <time>2023-10-26T14:26:18.481+00:00</time>
      </trkpt>
      <trkpt lat="48.99232" lon="2.09543">
        <ele>42</ele>
        <time>2023-10-26T14:26:23.473+00:00</time>
      </trkpt>
      <trkpt lat="48.99224" lon="2.0954">
        <ele>41</ele>
        <time>2023-10-26T14:26:28.472+00:00</time>
      </trkpt>
      <trkpt lat="48.99218" lon="2.09532">
        <ele>41</ele>
        <time>2023-10-26T14:26:33.480+00:00</time>
      </trkpt>
      <trkpt lat="48.99213" lon="2.09523">
        <ele>41</ele>
        <time>2023-10-26T14:26:38.474+00:00</time>
      </trkpt>
      <trkpt lat="48.99211" lon="2.09513">
        <ele>42</ele>
        <time>2023-10-26T14:26:43.472+00:00</time>
      </trkpt>
      <trkpt lat="48.99208" lon="2.09506">
        <ele>36</ele>
        <time>2023-10-26T14:26:47.486+00:00</time>
      </trkpt>
      <trkpt lat="48.99207" lon="2.09497">
        <ele>36</ele>
        <time>2023-10-26T14:26:52.473+00:00</time>
      </trkpt>
      <trkpt lat="48.99207" lon="2.09491">
        <ele>36</ele>
        <time>2023-10-26T14:26:56.477+00:00</time>
      </trkpt>
      <trkpt lat="48.99206" lon="2.09483">
        <ele>37</ele>
        <time>2023-10-26T14:27:01.474+00:00</time>
      </trkpt>
      <trkpt lat="48.99203" lon="2.09475">
        <ele>37</ele>
        <time>2023-10-26T14:27:05.478+00:00</time>
      </trkpt>
      <trkpt lat="48.99202" lon="2.09467">
        <ele>37</ele>
        <time>2023-10-26T14:27:10.481+00:00</time>
      </trkpt>
      <trkpt lat="48.99201" lon="2.09458">
        <ele>37</ele>
        <time>2023-10-26T14:27:15.484+00:00</time>
      </trkpt>
      <trkpt lat="48.99203" lon="2.09453">
        <ele>37</ele>
        <time>2023-10-26T14:27:20.478+00:00</time>
      </trkpt>
      <trkpt lat="48.99206" lon="2.09454">
        <ele>37</ele>
        <time>2023-10-26T14:27:24.478+00:00</time>
      </trkpt>
      <trkpt lat="48.9921" lon="2.09456">
        <ele>40</ele>
        <time>2023-10-26T14:27:29.480+00:00</time>
      </trkpt>
      <trkpt lat="48.99213" lon="2.09463">
        <ele>41</ele>
        <time>2023-10-26T14:27:34.476+00:00</time>
      </trkpt>
      <trkpt lat="48.99207" lon="2.09455">
        <ele>37</ele>
        <time>2023-10-26T14:30:23.476+00:00</time>
      </trkpt>
      <trkpt lat="48.99204" lon="2.09453">
        <ele>37</ele>
        <time>2023-10-26T14:30:27.472+00:00</time>
      </trkpt>
      <trkpt lat="48.99201" lon="2.09456">
        <ele>37</ele>
        <time>2023-10-26T14:30:32.466+00:00</time>
      </trkpt>
      <trkpt lat="48.992" lon="2.09459">
        <ele>37</ele>
        <time>2023-10-26T14:30:36.470+00:00</time>
      </trkpt>
      <trkpt lat="48.99197" lon="2.0946">
        <ele>37</ele>
        <time>2023-10-26T14:30:41.467+00:00</time>
      </trkpt>
      <trkpt lat="48.99195" lon="2.09461">
        <ele>37</ele>
        <time>2023-10-26T14:30:46.481+00:00</time>
      </trkpt>
      <trkpt lat="48.99205" lon="2.09456">
        <ele>37</ele>
        <time>2023-10-26T14:30:50.487+00:00</time>
      </trkpt>
      <trkpt lat="48.99212" lon="2.09447">
        <ele>40</ele>
        <time>2023-10-26T14:30:55.472+00:00</time>
      </trkpt>
      <trkpt lat="48.99213" lon="2.09445">
        <ele>40</ele>
        <time>2023-10-26T14:31:00.473+00:00</time>
      </trkpt>
      <trkpt lat="48.99212" lon="2.0943">
        <ele>39</ele>
        <time>2023-10-26T14:31:24.475+00:00</time>
      </trkpt>
      <trkpt lat="48.99211" lon="2.0943">
        <ele>39</ele>
        <time>2023-10-26T14:31:29.470+00:00</time>
      </trkpt>
      <trkpt lat="48.99208" lon="2.09428">
        <ele>37</ele>
        <time>2023-10-26T14:31:33.482+00:00</time>
      </trkpt>
      <trkpt lat="48.99203" lon="2.09427">
        <ele>37</ele>
        <time>2023-10-26T14:31:38.474+00:00</time>
      </trkpt>
      <trkpt lat="48.992" lon="2.09429">
        <ele>37</ele>
        <time>2023-10-26T14:31:42.479+00:00</time>
      </trkpt>
      <trkpt lat="48.99198" lon="2.0943">
        <ele>37</ele>
        <time>2023-10-26T14:31:46.469+00:00</time>
      </trkpt>
      <trkpt lat="48.99191" lon="2.09434">
        <ele>37</ele>
        <time>2023-10-26T14:31:51.476+00:00</time>
      </trkpt>
      <trkpt lat="48.99187" lon="2.09426">
        <ele>37</ele>
        <time>2023-10-26T14:31:56.480+00:00</time>
      </trkpt>
      <trkpt lat="48.99187" lon="2.09413">
        <ele>37</ele>
        <time>2023-10-26T14:32:01.484+00:00</time>
      </trkpt>
      <trkpt lat="48.99187" lon="2.09403">
        <ele>37</ele>
        <time>2023-10-26T14:32:06.474+00:00</time>
      </trkpt>
      <trkpt lat="48.99187" lon="2.09393">
        <ele>37</ele>
        <time>2023-10-26T14:32:11.466+00:00</time>
      </trkpt>
      <trkpt lat="48.99188" lon="2.09387">
        <ele>37</ele>
        <time>2023-10-26T14:32:15.470+00:00</time>
      </trkpt>
      <trkpt lat="48.99187" lon="2.09381">
        <ele>37</ele>
        <time>2023-10-26T14:32:20.482+00:00</time>
      </trkpt>
      <trkpt lat="48.99184" lon="2.09377">
        <ele>37</ele>
        <time>2023-10-26T14:32:25.469+00:00</time>
      </trkpt>
      <trkpt lat="48.99183" lon="2.09369">
        <ele>38</ele>
        <time>2023-10-26T14:32:30.478+00:00</time>
      </trkpt>
      <trkpt lat="48.99184" lon="2.09362">
        <ele>38</ele>
        <time>2023-10-26T14:32:35.475+00:00</time>
      </trkpt>
      <trkpt lat="48.99183" lon="2.0936">
        <ele>38</ele>
        <time>2023-10-26T14:32:40.479+00:00</time>
      </trkpt>
      <trkpt lat="48.9918" lon="2.09351">
        <ele>31</ele>
        <time>2023-10-26T14:33:00.469+00:00</time>
      </trkpt>
      <trkpt lat="48.99175" lon="2.09357">
        <ele>31</ele>
        <time>2023-10-26T14:33:04.476+00:00</time>
      </trkpt>
      <trkpt lat="48.99173" lon="2.0936">
        <ele>31</ele>
        <time>2023-10-26T14:33:09.478+00:00</time>
      </trkpt>
      <trkpt lat="48.9917" lon="2.09358">
        <ele>31</ele>
        <time>2023-10-26T14:33:14.469+00:00</time>
      </trkpt>
      <trkpt lat="48.99167" lon="2.09352">
        <ele>31</ele>
        <time>2023-10-26T14:33:19.478+00:00</time>
      </trkpt>
      <trkpt lat="48.99162" lon="2.09344">
        <ele>33</ele>
        <time>2023-10-26T14:33:23.479+00:00</time>
      </trkpt>
      <trkpt lat="48.99159" lon="2.09335">
        <ele>33</ele>
        <time>2023-10-26T14:33:28.469+00:00</time>
      </trkpt>
      <trkpt lat="48.99157" lon="2.09326">
        <ele>33</ele>
        <time>2023-10-26T14:33:32.469+00:00</time>
      </trkpt>
      <trkpt lat="48.99155" lon="2.09316">
        <ele>30</ele>
        <time>2023-10-26T14:33:37.479+00:00</time>
      </trkpt>
      <trkpt lat="48.99153" lon="2.09307">
        <ele>22</ele>
        <time>2023-10-26T14:33:42.479+00:00</time>
      </trkpt>
      <trkpt lat="48.9915" lon="2.09297">
        <ele>22</ele>
        <time>2023-10-26T14:33:47.477+00:00</time>
      </trkpt>
      <trkpt lat="48.99148" lon="2.09288">
        <ele>22</ele>
        <time>2023-10-26T14:33:52.474+00:00</time>
      </trkpt>
      <trkpt lat="48.99147" lon="2.09279">
        <ele>22</ele>
        <time>2023-10-26T14:33:57.469+00:00</time>
      </trkpt>
      <trkpt lat="48.99146" lon="2.09267">
        <ele>22</ele>
        <time>2023-10-26T14:34:02.474+00:00</time>
      </trkpt>
      <trkpt lat="48.99147" lon="2.0926">
        <ele>22</ele>
        <time>2023-10-26T14:34:07.483+00:00</time>
      </trkpt>
      <trkpt lat="48.99148" lon="2.09249">
        <ele>22</ele>
        <time>2023-10-26T14:34:12.469+00:00</time>
      </trkpt>
      <trkpt lat="48.99148" lon="2.09238">
        <ele>22</ele>
        <time>2023-10-26T14:34:17.469+00:00</time>
      </trkpt>
      <trkpt lat="48.99147" lon="2.09228">
        <ele>22</ele>
        <time>2023-10-26T14:34:22.470+00:00</time>
      </trkpt>
      <trkpt lat="48.99147" lon="2.09218">
        <ele>22</ele>
        <time>2023-10-26T14:34:27.476+00:00</time>
      </trkpt>
      <trkpt lat="48.99146" lon="2.09206">
        <ele>21</ele>
        <time>2023-10-26T14:34:32.474+00:00</time>
      </trkpt>
      <trkpt lat="48.99144" lon="2.09196">
        <ele>21</ele>
        <time>2023-10-26T14:34:37.468+00:00</time>
      </trkpt>
      <trkpt lat="48.99141" lon="2.09186">
        <ele>21</ele>
        <time>2023-10-26T14:34:42.477+00:00</time>
      </trkpt>
      <trkpt lat="48.99141" lon="2.09176">
        <ele>22</ele>
        <time>2023-10-26T14:34:47.466+00:00</time>
      </trkpt>
      <trkpt lat="48.99141" lon="2.09164">
        <ele>22</ele>
        <time>2023-10-26T14:34:52.482+00:00</time>
      </trkpt>
      <trkpt lat="48.9914" lon="2.09151">
        <ele>22</ele>
        <time>2023-10-26T14:34:57.470+00:00</time>
      </trkpt>
      <trkpt lat="48.9914" lon="2.0914">
        <ele>22</ele>
        <time>2023-10-26T14:35:02.471+00:00</time>
      </trkpt>
      <trkpt lat="48.99141" lon="2.09132">
        <ele>22</ele>
        <time>2023-10-26T14:35:06.479+00:00</time>
      </trkpt>
      <trkpt lat="48.99143" lon="2.09125">
        <ele>23</ele>
        <time>2023-10-26T14:35:11.469+00:00</time>
      </trkpt>
      <trkpt lat="48.99145" lon="2.09118">
        <ele>23</ele>
        <time>2023-10-26T14:35:16.468+00:00</time>
      </trkpt>
      <trkpt lat="48.99146" lon="2.09111">
        <ele>23</ele>
        <time>2023-10-26T14:35:21.472+00:00</time>
      </trkpt>
      <trkpt lat="48.99146" lon="2.09102">
        <ele>23</ele>
        <time>2023-10-26T14:35:26.476+00:00</time>
      </trkpt>
      <trkpt lat="48.99147" lon="2.09092">
        <ele>23</ele>
        <time>2023-10-26T14:35:31.473+00:00</time>
      </trkpt>
      <trkpt lat="48.99146" lon="2.09083">
        <ele>23</ele>
        <time>2023-10-26T14:35:36.478+00:00</time>
      </trkpt>
      <trkpt lat="48.99148" lon="2.09073">
        <ele>23</ele>
        <time>2023-10-26T14:35:41.469+00:00</time>
      </trkpt>
      <trkpt lat="48.99148" lon="2.09064">
        <ele>24</ele>
        <time>2023-10-26T14:35:46.474+00:00</time>
      </trkpt>
      <trkpt lat="48.99148" lon="2.09054">
        <ele>24</ele>
        <time>2023-10-26T14:35:51.474+00:00</time>
      </trkpt>
      <trkpt lat="48.9915" lon="2.09049">
        <ele>24</ele>
        <time>2023-10-26T14:35:55.468+00:00</time>
      </trkpt>
      <trkpt lat="48.9915" lon="2.09039">
        <ele>24</ele>
        <time>2023-10-26T14:36:00.465+00:00</time>
      </trkpt>
      <trkpt lat="48.99148" lon="2.0903">
        <ele>24</ele>
        <time>2023-10-26T14:36:04.467+00:00</time>
      </trkpt>
      <trkpt lat="48.99147" lon="2.09021">
        <ele>24</ele>
        <time>2023-10-26T14:36:08.479+00:00</time>
      </trkpt>
      <trkpt lat="48.99146" lon="2.09008">
        <ele>23</ele>
        <time>2023-10-26T14:36:13.469+00:00</time>
      </trkpt>
      <trkpt lat="48.99145" lon="2.08997">
        <ele>23</ele>
        <time>2023-10-26T14:36:18.467+00:00</time>
      </trkpt>
      <trkpt lat="48.99144" lon="2.08987">
        <ele>23</ele>
        <time>2023-10-26T14:36:23.467+00:00</time>
      </trkpt>
      <trkpt lat="48.99144" lon="2.0898">
        <ele>24</ele>
        <time>2023-10-26T14:36:28.472+00:00</time>
      </trkpt>
      <trkpt lat="48.99145" lon="2.08973">
        <ele>24</ele>
        <time>2023-10-26T14:36:32.481+00:00</time>
      </trkpt>
      <trkpt lat="48.99145" lon="2.08962">
        <ele>24</ele>
        <time>2023-10-26T14:36:37.469+00:00</time>
      </trkpt>
      <trkpt lat="48.99145" lon="2.08958">
        <ele>25</ele>
        <time>2023-10-26T14:36:42.469+00:00</time>
      </trkpt>
      <trkpt lat="48.99143" lon="2.08951">
        <ele>25</ele>
        <time>2023-10-26T14:36:47.469+00:00</time>
      </trkpt>
      <trkpt lat="48.99139" lon="2.08944">
        <ele>25</ele>
        <time>2023-10-26T14:36:52.466+00:00</time>
      </trkpt>
      <trkpt lat="48.99133" lon="2.08935">
        <ele>25</ele>
        <time>2023-10-26T14:36:56.465+00:00</time>
      </trkpt>
      <trkpt lat="48.99126" lon="2.08925">
        <ele>26</ele>
        <time>2023-10-26T14:37:01.470+00:00</time>
      </trkpt>
      <trkpt lat="48.99123" lon="2.08914">
        <ele>22</ele>
        <time>2023-10-26T14:37:06.467+00:00</time>
      </trkpt>
      <trkpt lat="48.99123" lon="2.08906">
        <ele>22</ele>
        <time>2023-10-26T14:37:10.479+00:00</time>
      </trkpt>
      <trkpt lat="48.99123" lon="2.08895">
        <ele>24</ele>
        <time>2023-10-26T14:37:15.468+00:00</time>
      </trkpt>
      <trkpt lat="48.99121" lon="2.08887">
        <ele>24</ele>
        <time>2023-10-26T14:37:20.468+00:00</time>
      </trkpt>
      <trkpt lat="48.99116" lon="2.0888">
        <ele>24</ele>
        <time>2023-10-26T14:37:25.474+00:00</time>
      </trkpt>
      <trkpt lat="48.99112" lon="2.08876">
        <ele>24</ele>
        <time>2023-10-26T14:37:30.469+00:00</time>
      </trkpt>
      <trkpt lat="48.99105" lon="2.08873">
        <ele>25</ele>
        <time>2023-10-26T14:38:48.471+00:00</time>
      </trkpt>
      <trkpt lat="48.99105" lon="2.08873">
        <ele>25</ele>
        <time>2023-10-26T14:38:53.471+00:00</time>
      </trkpt>
      <trkpt lat="48.99105" lon="2.08873">
        <ele>25</ele>
        <time>2023-10-26T14:38:57.476+00:00</time>
      </trkpt>
      <trkpt lat="48.99102" lon="2.08869">
        <ele>25</ele>
        <time>2023-10-26T14:39:01.473+00:00</time>
      </trkpt>
      <trkpt lat="48.99099" lon="2.08864">
        <ele>25</ele>
        <time>2023-10-26T14:39:05.468+00:00</time>
      </trkpt>
      <trkpt lat="48.99093" lon="2.0886">
        <ele>21</ele>
        <time>2023-10-26T14:39:10.476+00:00</time>
      </trkpt>
      <trkpt lat="48.99092" lon="2.08853">
        <ele>21</ele>
        <time>2023-10-26T14:39:14.476+00:00</time>
      </trkpt>
      <trkpt lat="48.9909" lon="2.08845">
        <ele>23</ele>
        <time>2023-10-26T14:39:18.502+00:00</time>
      </trkpt>
      <trkpt lat="48.99088" lon="2.08836">
        <ele>23</ele>
        <time>2023-10-26T14:39:23.477+00:00</time>
      </trkpt>
      <trkpt lat="48.99086" lon="2.08825">
        <ele>23</ele>
        <time>2023-10-26T14:39:28.475+00:00</time>
      </trkpt>
      <trkpt lat="48.99083" lon="2.08816">
        <ele>24</ele>
        <time>2023-10-26T14:39:33.470+00:00</time>
      </trkpt>
      <trkpt lat="48.9908" lon="2.08807">
        <ele>24</ele>
        <time>2023-10-26T14:39:38.482+00:00</time>
      </trkpt>
      <trkpt lat="48.99076" lon="2.08797">
        <ele>24</ele>
        <time>2023-10-26T14:39:43.474+00:00</time>
      </trkpt>
      <trkpt lat="48.99075" lon="2.0879">
        <ele>23</ele>
        <time>2023-10-26T14:39:47.477+00:00</time>
      </trkpt>
      <trkpt lat="48.99074" lon="2.08784">
        <ele>23</ele>
        <time>2023-10-26T14:39:51.478+00:00</time>
      </trkpt>
      <trkpt lat="48.99072" lon="2.08775">
        <ele>23</ele>
        <time>2023-10-26T14:39:56.475+00:00</time>
      </trkpt>
      <trkpt lat="48.9907" lon="2.08768">
        <ele>23</ele>
        <time>2023-10-26T14:40:00.480+00:00</time>
      </trkpt>
      <trkpt lat="48.99068" lon="2.08759">
        <ele>21</ele>
        <time>2023-10-26T14:40:05.478+00:00</time>
      </trkpt>
      <trkpt lat="48.99066" lon="2.0875">
        <ele>21</ele>
        <time>2023-10-26T14:40:09.494+00:00</time>
      </trkpt>
      <trkpt lat="48.99064" lon="2.08741">
        <ele>21</ele>
        <time>2023-10-26T14:40:14.467+00:00</time>
      </trkpt>
      <trkpt lat="48.99061" lon="2.08732">
        <ele>21</ele>
        <time>2023-10-26T14:40:19.478+00:00</time>
      </trkpt>
      <trkpt lat="48.99058" lon="2.08723">
        <ele>21</ele>
        <time>2023-10-26T14:40:24.475+00:00</time>
      </trkpt>
      <trkpt lat="48.99056" lon="2.08715">
        <ele>21</ele>
        <time>2023-10-26T14:40:29.475+00:00</time>
      </trkpt>
      <trkpt lat="48.99054" lon="2.08708">
        <ele>22</ele>
        <time>2023-10-26T14:40:33.473+00:00</time>
      </trkpt>
      <trkpt lat="48.99052" lon="2.087">
        <ele>22</ele>
        <time>2023-10-26T14:40:38.474+00:00</time>
      </trkpt>
      <trkpt lat="48.9905" lon="2.08691">
        <ele>22</ele>
        <time>2023-10-26T14:40:43.472+00:00</time>
      </trkpt>
      <trkpt lat="48.99048" lon="2.08684">
        <ele>22</ele>
        <time>2023-10-26T14:40:47.475+00:00</time>
      </trkpt>
      <trkpt lat="48.99045" lon="2.08674">
        <ele>23</ele>
        <time>2023-10-26T14:40:52.473+00:00</time>
      </trkpt>
      <trkpt lat="48.99043" lon="2.08663">
        <ele>23</ele>
        <time>2023-10-26T14:40:57.472+00:00</time>
      </trkpt>
      <trkpt lat="48.9904" lon="2.08652">
        <ele>22</ele>
        <time>2023-10-26T14:41:02.473+00:00</time>
      </trkpt>
      <trkpt lat="48.99037" lon="2.08642">
        <ele>22</ele>
        <time>2023-10-26T14:41:07.475+00:00</time>
      </trkpt>
      <trkpt lat="48.99034" lon="2.08633">
        <ele>22</ele>
        <time>2023-10-26T14:41:12.470+00:00</time>
      </trkpt>
      <trkpt lat="48.99031" lon="2.08624">
        <ele>22</ele>
        <time>2023-10-26T14:41:16.481+00:00</time>
      </trkpt>
      <trkpt lat="48.99028" lon="2.08614">
        <ele>22</ele>
        <time>2023-10-26T14:41:21.477+00:00</time>
      </trkpt>
      <trkpt lat="48.99026" lon="2.08604">
        <ele>22</ele>
        <time>2023-10-26T14:41:26.474+00:00</time>
      </trkpt>
      <trkpt lat="48.99023" lon="2.08594">
        <ele>23</ele>
        <time>2023-10-26T14:41:31.473+00:00</time>
      </trkpt>
      <trkpt lat="48.99019" lon="2.08591">
        <ele>23</ele>
        <time>2023-10-26T14:41:36.475+00:00</time>
      </trkpt>
      <trkpt lat="48.99019" lon="2.08591">
        <ele>23</ele>
        <time>2023-10-26T14:41:54.476+00:00</time>
      </trkpt>
      <trkpt lat="48.99019" lon="2.08585">
        <ele>23</ele>
        <time>2023-10-26T14:41:59.472+00:00</time>
      </trkpt>
      <trkpt lat="48.99018" lon="2.0858">
        <ele>23</ele>
        <time>2023-10-26T14:42:03.483+00:00</time>
      </trkpt>
      <trkpt lat="48.99016" lon="2.08569">
        <ele>25</ele>
        <time>2023-10-26T14:42:08.471+00:00</time>
      </trkpt>
      <trkpt lat="48.99014" lon="2.0856">
        <ele>25</ele>
        <time>2023-10-26T14:42:13.477+00:00</time>
      </trkpt>
      <trkpt lat="48.99013" lon="2.08564">
        <ele>21</ele>
        <time>2023-10-26T14:43:18.474+00:00</time>
      </trkpt>
      <trkpt lat="48.99017" lon="2.08559">
        <ele>25</ele>
        <time>2023-10-26T14:43:23.472+00:00</time>
      </trkpt>
      <trkpt lat="48.99015" lon="2.08552">
        <ele>25</ele>
        <time>2023-10-26T14:43:27.476+00:00</time>
      </trkpt>
      <trkpt lat="48.99011" lon="2.08543">
        <ele>21</ele>
        <time>2023-10-26T14:43:32.472+00:00</time>
      </trkpt>
      <trkpt lat="48.99009" lon="2.08536">
        <ele>22</ele>
        <time>2023-10-26T14:43:36.473+00:00</time>
      </trkpt>
      <trkpt lat="48.99007" lon="2.08526">
        <ele>22</ele>
        <time>2023-10-26T14:43:41.481+00:00</time>
      </trkpt>
      <trkpt lat="48.99005" lon="2.08518">
        <ele>22</ele>
        <time>2023-10-26T14:43:46.481+00:00</time>
      </trkpt>
      <trkpt lat="48.99004" lon="2.08508">
        <ele>22</ele>
        <time>2023-10-26T14:43:51.480+00:00</time>
      </trkpt>
      <trkpt lat="48.99001" lon="2.08499">
        <ele>22</ele>
        <time>2023-10-26T14:43:56.476+00:00</time>
      </trkpt>
      <trkpt lat="48.98998" lon="2.08487">
        <ele>22</ele>
        <time>2023-10-26T14:44:01.484+00:00</time>
      </trkpt>
      <trkpt lat="48.98996" lon="2.08477">
        <ele>21</ele>
        <time>2023-10-26T14:44:06.472+00:00</time>
      </trkpt>
      <trkpt lat="48.98994" lon="2.08467">
        <ele>21</ele>
        <time>2023-10-26T14:44:11.483+00:00</time>
      </trkpt>
      <trkpt lat="48.98991" lon="2.08456">
        <ele>21</ele>
        <time>2023-10-26T14:44:16.479+00:00</time>
      </trkpt>
      <trkpt lat="48.9899" lon="2.08444">
        <ele>21</ele>
        <time>2023-10-26T14:44:21.473+00:00</time>
      </trkpt>
      <trkpt lat="48.9899" lon="2.08435">
        <ele>21</ele>
        <time>2023-10-26T14:44:26.475+00:00</time>
      </trkpt>
      <trkpt lat="48.98989" lon="2.08427">
        <ele>21</ele>
        <time>2023-10-26T14:44:31.477+00:00</time>
      </trkpt>
      <trkpt lat="48.98988" lon="2.08419">
        <ele>21</ele>
        <time>2023-10-26T14:44:36.480+00:00</time>
      </trkpt>
      <trkpt lat="48.98987" lon="2.08409">
        <ele>21</ele>
        <time>2023-10-26T14:44:41.477+00:00</time>
      </trkpt>
      <trkpt lat="48.98985" lon="2.08399">
        <ele>20</ele>
        <time>2023-10-26T14:44:46.486+00:00</time>
      </trkpt>
      <trkpt lat="48.98983" lon="2.08388">
        <ele>20</ele>
        <time>2023-10-26T14:44:51.472+00:00</time>
      </trkpt>
      <trkpt lat="48.9898" lon="2.08375">
        <ele>20</ele>
        <time>2023-10-26T14:44:56.478+00:00</time>
      </trkpt>
      <trkpt lat="48.98977" lon="2.08363">
        <ele>20</ele>
        <time>2023-10-26T14:45:01.466+00:00</time>
      </trkpt>
      <trkpt lat="48.98975" lon="2.08353">
        <ele>20</ele>
        <time>2023-10-26T14:45:06.465+00:00</time>
      </trkpt>
      <trkpt lat="48.98973" lon="2.08344">
        <ele>20</ele>
        <time>2023-10-26T14:45:10.471+00:00</time>
      </trkpt>
      <trkpt lat="48.98971" lon="2.08335">
        <ele>20</ele>
        <time>2023-10-26T14:45:14.469+00:00</time>
      </trkpt>
      <trkpt lat="48.98969" lon="2.08324">
        <ele>20</ele>
        <time>2023-10-26T14:45:19.473+00:00</time>
      </trkpt>
      <trkpt lat="48.98967" lon="2.08314">
        <ele>21</ele>
        <time>2023-10-26T14:45:24.475+00:00</time>
      </trkpt>
      <trkpt lat="48.98965" lon="2.08309">
        <ele>21</ele>
        <time>2023-10-26T14:45:29.470+00:00</time>
      </trkpt>
      <trkpt lat="48.98961" lon="2.08303">
        <ele>21</ele>
        <time>2023-10-26T14:45:34.467+00:00</time>
      </trkpt>
      <trkpt lat="48.9896" lon="2.08295">
        <ele>21</ele>
        <time>2023-10-26T14:45:39.472+00:00</time>
      </trkpt>
      <trkpt lat="48.9896" lon="2.08286">
        <ele>20</ele>
        <time>2023-10-26T14:45:44.473+00:00</time>
      </trkpt>
      <trkpt lat="48.9896" lon="2.08276">
        <ele>20</ele>
        <time>2023-10-26T14:45:49.474+00:00</time>
      </trkpt>
      <trkpt lat="48.98961" lon="2.0827">
        <ele>20</ele>
        <time>2023-10-26T14:45:53.500+00:00</time>
      </trkpt>
      <trkpt lat="48.98963" lon="2.08261">
        <ele>19</ele>
        <time>2023-10-26T14:45:58.467+00:00</time>
      </trkpt>
      <trkpt lat="48.98965" lon="2.08252">
        <ele>19</ele>
        <time>2023-10-26T14:46:02.485+00:00</time>
      </trkpt>
      <trkpt lat="48.98965" lon="2.08239">
        <ele>19</ele>
        <time>2023-10-26T14:46:07.478+00:00</time>
      </trkpt>
      <trkpt lat="48.98962" lon="2.08227">
        <ele>17</ele>
        <time>2023-10-26T14:46:12.475+00:00</time>
      </trkpt>
      <trkpt lat="48.98957" lon="2.08217">
        <ele>14</ele>
        <time>2023-10-26T14:46:16.518+00:00</time>
      </trkpt>
      <trkpt lat="48.98953" lon="2.08203">
        <ele>17</ele>
        <time>2023-10-26T14:46:21.474+00:00</time>
      </trkpt>
      <trkpt lat="48.98949" lon="2.08196">
        <ele>17</ele>
        <time>2023-10-26T14:46:26.476+00:00</time>
      </trkpt>
      <trkpt lat="48.98945" lon="2.08188">
        <ele>17</ele>
        <time>2023-10-26T14:46:31.475+00:00</time>
      </trkpt>
      <trkpt lat="48.98942" lon="2.08177">
        <ele>20</ele>
        <time>2023-10-26T14:46:36.484+00:00</time>
      </trkpt>
      <trkpt lat="48.9894" lon="2.08164">
        <ele>20</ele>
        <time>2023-10-26T14:46:41.478+00:00</time>
      </trkpt>
      <trkpt lat="48.98939" lon="2.08155">
        <ele>20</ele>
        <time>2023-10-26T14:46:45.473+00:00</time>
      </trkpt>
      <trkpt lat="48.98937" lon="2.08143">
        <ele>21</ele>
        <time>2023-10-26T14:46:50.470+00:00</time>
      </trkpt>
      <trkpt lat="48.98934" lon="2.08131">
        <ele>21</ele>
        <time>2023-10-26T14:46:55.473+00:00</time>
      </trkpt>
      <trkpt lat="48.98931" lon="2.08119">
        <ele>21</ele>
        <time>2023-10-26T14:47:00.471+00:00</time>
      </trkpt>
      <trkpt lat="48.98928" lon="2.0811">
        <ele>20</ele>
        <time>2023-10-26T14:47:05.466+00:00</time>
      </trkpt>
      <trkpt lat="48.98926" lon="2.08099">
        <ele>20</ele>
        <time>2023-10-26T14:47:10.471+00:00</time>
      </trkpt>
      <trkpt lat="48.98924" lon="2.08089">
        <ele>20</ele>
        <time>2023-10-26T14:47:15.464+00:00</time>
      </trkpt>
      <trkpt lat="48.98921" lon="2.08081">
        <ele>20</ele>
        <time>2023-10-26T14:47:19.472+00:00</time>
      </trkpt>
      <trkpt lat="48.98918" lon="2.08071">
        <ele>20</ele>
        <time>2023-10-26T14:47:24.475+00:00</time>
      </trkpt>
      <trkpt lat="48.98916" lon="2.0806">
        <ele>21</ele>
        <time>2023-10-26T14:47:29.471+00:00</time>
      </trkpt>
      <trkpt lat="48.98913" lon="2.08052">
        <ele>21</ele>
        <time>2023-10-26T14:47:33.486+00:00</time>
      </trkpt>
      <trkpt lat="48.98911" lon="2.08042">
        <ele>21</ele>
        <time>2023-10-26T14:47:38.477+00:00</time>
      </trkpt>
      <trkpt lat="48.98909" lon="2.08033">
        <ele>23</ele>
        <time>2023-10-26T14:47:43.476+00:00</time>
      </trkpt>
      <trkpt lat="48.98906" lon="2.08021">
        <ele>23</ele>
        <time>2023-10-26T14:47:48.477+00:00</time>
      </trkpt>
      <trkpt lat="48.98904" lon="2.0801">
        <ele>24</ele>
        <time>2023-10-26T14:47:53.480+00:00</time>
      </trkpt>
      <trkpt lat="48.98902" lon="2.08003">
        <ele>24</ele>
        <time>2023-10-26T14:47:58.484+00:00</time>
      </trkpt>
      <trkpt lat="48.98901" lon="2.07998">
        <ele>24</ele>
        <time>2023-10-26T14:48:03.474+00:00</time>
      </trkpt>
      <trkpt lat="48.98899" lon="2.07993">
        <ele>24</ele>
        <time>2023-10-26T14:48:08.476+00:00</time>
      </trkpt>
      <trkpt lat="48.98897" lon="2.07987">
        <ele>24</ele>
        <time>2023-10-26T14:48:12.478+00:00</time>
      </trkpt>
      <trkpt lat="48.98895" lon="2.07979">
        <ele>24</ele>
        <time>2023-10-26T14:48:17.469+00:00</time>
      </trkpt>
      <trkpt lat="48.98893" lon="2.07971">
        <ele>24</ele>
        <time>2023-10-26T14:48:22.474+00:00</time>
      </trkpt>
      <trkpt lat="48.98891" lon="2.07962">
        <ele>24</ele>
        <time>2023-10-26T14:48:27.477+00:00</time>
      </trkpt>
      <trkpt lat="48.98888" lon="2.07953">
        <ele>23</ele>
        <time>2023-10-26T14:48:32.475+00:00</time>
      </trkpt>
      <trkpt lat="48.98886" lon="2.07943">
        <ele>23</ele>
        <time>2023-10-26T14:48:37.470+00:00</time>
      </trkpt>
      <trkpt lat="48.98884" lon="2.07933">
        <ele>23</ele>
        <time>2023-10-26T14:48:42.475+00:00</time>
      </trkpt>
      <trkpt lat="48.98882" lon="2.07925">
        <ele>22</ele>
        <time>2023-10-26T14:48:46.472+00:00</time>
      </trkpt>
      <trkpt lat="48.98879" lon="2.07916">
        <ele>22</ele>
        <time>2023-10-26T14:48:51.468+00:00</time>
      </trkpt>
      <trkpt lat="48.98877" lon="2.07906">
        <ele>22</ele>
        <time>2023-10-26T14:48:56.471+00:00</time>
      </trkpt>
      <trkpt lat="48.98876" lon="2.07896">
        <ele>22</ele>
        <time>2023-10-26T14:49:01.471+00:00</time>
      </trkpt>
      <trkpt lat="48.98874" lon="2.07886">
        <ele>21</ele>
        <time>2023-10-26T14:49:06.467+00:00</time>
      </trkpt>
      <trkpt lat="48.98872" lon="2.07877">
        <ele>21</ele>
        <time>2023-10-26T14:49:11.471+00:00</time>
      </trkpt>
      <trkpt lat="48.9887" lon="2.07867">
        <ele>21</ele>
        <time>2023-10-26T14:49:16.471+00:00</time>
      </trkpt>
      <trkpt lat="48.98867" lon="2.07857">
        <ele>21</ele>
        <time>2023-10-26T14:49:21.469+00:00</time>
      </trkpt>
      <trkpt lat="48.98865" lon="2.07847">
        <ele>21</ele>
        <time>2023-10-26T14:49:26.471+00:00</time>
      </trkpt>
      <trkpt lat="48.98863" lon="2.07839">
        <ele>21</ele>
        <time>2023-10-26T14:49:30.477+00:00</time>
      </trkpt>
      <trkpt lat="48.9886" lon="2.07829">
        <ele>21</ele>
        <time>2023-10-26T14:49:35.472+00:00</time>
      </trkpt>
      <trkpt lat="48.98859" lon="2.07823">
        <ele>21</ele>
        <time>2023-10-26T14:49:40.471+00:00</time>
      </trkpt>
      <trkpt lat="48.98857" lon="2.07813">
        <ele>21</ele>
        <time>2023-10-26T14:49:44.475+00:00</time>
      </trkpt>
      <trkpt lat="48.98855" lon="2.07803">
        <ele>21</ele>
        <time>2023-10-26T14:49:49.470+00:00</time>
      </trkpt>
      <trkpt lat="48.98853" lon="2.07795">
        <ele>21</ele>
        <time>2023-10-26T14:49:53.474+00:00</time>
      </trkpt>
      <trkpt lat="48.9885" lon="2.07787">
        <ele>21</ele>
        <time>2023-10-26T14:49:58.477+00:00</time>
      </trkpt>
      <trkpt lat="48.98849" lon="2.0778">
        <ele>21</ele>
        <time>2023-10-26T14:50:03.479+00:00</time>
      </trkpt>
      <trkpt lat="48.98847" lon="2.0777">
        <ele>20</ele>
        <time>2023-10-26T14:50:08.476+00:00</time>
      </trkpt>
      <trkpt lat="48.98845" lon="2.0776">
        <ele>19</ele>
        <time>2023-10-26T14:50:13.473+00:00</time>
      </trkpt>
      <trkpt lat="48.98842" lon="2.07751">
        <ele>19</ele>
        <time>2023-10-26T14:50:18.480+00:00</time>
      </trkpt>
      <trkpt lat="48.9884" lon="2.07742">
        <ele>19</ele>
        <time>2023-10-26T14:50:23.471+00:00</time>
      </trkpt>
      <trkpt lat="48.98838" lon="2.07733">
        <ele>17</ele>
        <time>2023-10-26T14:50:28.473+00:00</time>
      </trkpt>
      <trkpt lat="48.98836" lon="2.0772">
        <ele>17</ele>
        <time>2023-10-26T14:50:33.475+00:00</time>
      </trkpt>
      <trkpt lat="48.98834" lon="2.0771">
        <ele>17</ele>
        <time>2023-10-26T14:50:38.527+00:00</time>
      </trkpt>
      <trkpt lat="48.9883" lon="2.07701">
        <ele>17</ele>
        <time>2023-10-26T14:50:43.473+00:00</time>
      </trkpt>
      <trkpt lat="48.98827" lon="2.07689">
        <ele>17</ele>
        <time>2023-10-26T14:50:48.510+00:00</time>
      </trkpt>
      <trkpt lat="48.98825" lon="2.07679">
        <ele>17</ele>
        <time>2023-10-26T14:50:53.468+00:00</time>
      </trkpt>
      <trkpt lat="48.98824" lon="2.07674">
        <ele>17</ele>
        <time>2023-10-26T14:50:57.511+00:00</time>
      </trkpt>
      <trkpt lat="48.98822" lon="2.07667">
        <ele>17</ele>
        <time>2023-10-26T14:51:01.465+00:00</time>
      </trkpt>
      <trkpt lat="48.98819" lon="2.07657">
        <ele>20</ele>
        <time>2023-10-26T14:51:06.466+00:00</time>
      </trkpt>
      <trkpt lat="48.98816" lon="2.07647">
        <ele>17</ele>
        <time>2023-10-26T14:51:11.470+00:00</time>
      </trkpt>
      <trkpt lat="48.98814" lon="2.07638">
        <ele>17</ele>
        <time>2023-10-26T14:51:16.469+00:00</time>
      </trkpt>
      <trkpt lat="48.98812" lon="2.07632">
        <ele>17</ele>
        <time>2023-10-26T14:51:20.468+00:00</time>
      </trkpt>
      <trkpt lat="48.98812" lon="2.07625">
        <ele>17</ele>
        <time>2023-10-26T14:51:25.472+00:00</time>
      </trkpt>
      <trkpt lat="48.98812" lon="2.07616">
        <ele>18</ele>
        <time>2023-10-26T14:51:30.473+00:00</time>
      </trkpt>
      <trkpt lat="48.98813" lon="2.07612">
        <ele>18</ele>
        <time>2023-10-26T14:51:34.471+00:00</time>
      </trkpt>
      <trkpt lat="48.98812" lon="2.07604">
        <ele>18</ele>
        <time>2023-10-26T14:51:39.473+00:00</time>
      </trkpt>
      <trkpt lat="48.9881" lon="2.07596">
        <ele>18</ele>
        <time>2023-10-26T14:51:44.472+00:00</time>
      </trkpt>
      <trkpt lat="48.98808" lon="2.07587">
        <ele>18</ele>
        <time>2023-10-26T14:51:49.478+00:00</time>
      </trkpt>
      <trkpt lat="48.98809" lon="2.07579">
        <ele>18</ele>
        <time>2023-10-26T14:51:54.471+00:00</time>
      </trkpt>
      <trkpt lat="48.9881" lon="2.07578">
        <ele>18</ele>
        <time>2023-10-26T14:51:59.474+00:00</time>
      </trkpt>
      <trkpt lat="48.9881" lon="2.07578">
        <ele>18</ele>
        <time>2023-10-26T14:52:04.472+00:00</time>
      </trkpt>
      <trkpt lat="48.98814" lon="2.07575">
        <ele>18</ele>
        <time>2023-10-26T14:52:09.477+00:00</time>
      </trkpt>
      <trkpt lat="48.98819" lon="2.07571">
        <ele>18</ele>
        <time>2023-10-26T14:52:14.485+00:00</time>
      </trkpt>
      <trkpt lat="48.9882" lon="2.07567">
        <ele>24</ele>
        <time>2023-10-26T14:52:18.542+00:00</time>
      </trkpt>
      <trkpt lat="48.98824" lon="2.0756">
        <ele>24</ele>
        <time>2023-10-26T14:52:23.470+00:00</time>
      </trkpt>
      <trkpt lat="48.9883" lon="2.07557">
        <ele>24</ele>
        <time>2023-10-26T14:52:28.484+00:00</time>
      </trkpt>
      <trkpt lat="48.98836" lon="2.07554">
        <ele>24</ele>
        <time>2023-10-26T14:52:33.477+00:00</time>
      </trkpt>
      <trkpt lat="48.98842" lon="2.07551">
        <ele>24</ele>
        <time>2023-10-26T14:52:38.473+00:00</time>
      </trkpt>
      <trkpt lat="48.98848" lon="2.07549">
        <ele>25</ele>
        <time>2023-10-26T14:52:43.469+00:00</time>
      </trkpt>
      <trkpt lat="48.98853" lon="2.0755">
        <ele>25</ele>
        <time>2023-10-26T14:52:47.490+00:00</time>
      </trkpt>
      <trkpt lat="48.9886" lon="2.07547">
        <ele>25</ele>
        <time>2023-10-26T14:52:52.474+00:00</time>
      </trkpt>
      <trkpt lat="48.98866" lon="2.07544">
        <ele>25</ele>
        <time>2023-10-26T14:52:56.468+00:00</time>
      </trkpt>
      <trkpt lat="48.98873" lon="2.07542">
        <ele>25</ele>
        <time>2023-10-26T14:53:01.470+00:00</time>
      </trkpt>
      <trkpt lat="48.98878" lon="2.0754">
        <ele>26</ele>
        <time>2023-10-26T14:53:05.477+00:00</time>
      </trkpt>
      <trkpt lat="48.98881" lon="2.07535">
        <ele>26</ele>
        <time>2023-10-26T14:53:09.477+00:00</time>
      </trkpt>
      <trkpt lat="48.98882" lon="2.07524">
        <ele>26</ele>
        <time>2023-10-26T14:53:14.478+00:00</time>
      </trkpt>
      <trkpt lat="48.98881" lon="2.07514">
        <ele>26</ele>
        <time>2023-10-26T14:53:19.477+00:00</time>
      </trkpt>
      <trkpt lat="48.98881" lon="2.07504">
        <ele>26</ele>
        <time>2023-10-26T14:53:24.473+00:00</time>
      </trkpt>
      <trkpt lat="48.98883" lon="2.07499">
        <ele>26</ele>
        <time>2023-10-26T14:53:28.476+00:00</time>
      </trkpt>
      <trkpt lat="48.98887" lon="2.07493">
        <ele>26</ele>
        <time>2023-10-26T14:53:33.475+00:00</time>
      </trkpt>
      <trkpt lat="48.98891" lon="2.07485">
        <ele>26</ele>
        <time>2023-10-26T14:53:38.479+00:00</time>
      </trkpt>
      <trkpt lat="48.98896" lon="2.0748">
        <ele>26</ele>
        <time>2023-10-26T14:53:43.467+00:00</time>
      </trkpt>
      <trkpt lat="48.989" lon="2.07477">
        <ele>26</ele>
        <time>2023-10-26T14:53:47.471+00:00</time>
      </trkpt>
      <trkpt lat="48.98906" lon="2.07475">
        <ele>29</ele>
        <time>2023-10-26T14:53:52.470+00:00</time>
      </trkpt>
      <trkpt lat="48.98911" lon="2.07477">
        <ele>29</ele>
        <time>2023-10-26T14:53:57.472+00:00</time>
      </trkpt>
      <trkpt lat="48.98915" lon="2.07476">
        <ele>29</ele>
        <time>2023-10-26T14:54:02.472+00:00</time>
      </trkpt>
      <trkpt lat="48.98917" lon="2.07472">
        <ele>29</ele>
        <time>2023-10-26T14:54:06.473+00:00</time>
      </trkpt>
      <trkpt lat="48.98919" lon="2.07468">
        <ele>29</ele>
        <time>2023-10-26T14:54:11.474+00:00</time>
      </trkpt>
      <trkpt lat="48.98924" lon="2.07466">
        <ele>29</ele>
        <time>2023-10-26T14:57:01.478+00:00</time>
      </trkpt>
      <trkpt lat="48.98926" lon="2.07468">
        <ele>29</ele>
        <time>2023-10-26T14:57:06.522+00:00</time>
      </trkpt>
      <trkpt lat="48.98927" lon="2.07468">
        <ele>29</ele>
        <time>2023-10-26T14:57:11.486+00:00</time>
      </trkpt>
      <trkpt lat="48.98927" lon="2.07468">
        <ele>29</ele>
        <time>2023-10-26T14:57:16.467+00:00</time>
      </trkpt>
      <trkpt lat="48.98928" lon="2.07469">
        <ele>29</ele>
        <time>2023-10-26T14:57:21.477+00:00</time>
      </trkpt>
      <trkpt lat="48.98929" lon="2.07467">
        <ele>29</ele>
        <time>2023-10-26T14:58:37.473+00:00</time>
      </trkpt>
      <trkpt lat="48.98945" lon="2.07447">
        <ele>29</ele>
        <time>2023-10-26T14:58:42.472+00:00</time>
      </trkpt>
      <trkpt lat="48.98961" lon="2.07436">
        <ele>29</ele>
        <time>2023-10-26T14:58:47.475+00:00</time>
      </trkpt>
      <trkpt lat="48.98964" lon="2.07431">
        <ele>29</ele>
        <time>2023-10-26T14:58:51.472+00:00</time>
      </trkpt>
      <trkpt lat="48.98968" lon="2.07428">
        <ele>28</ele>
        <time>2023-10-26T14:58:55.476+00:00</time>
      </trkpt>
      <trkpt lat="48.98972" lon="2.07424">
        <ele>28</ele>
        <time>2023-10-26T14:59:00.476+00:00</time>
      </trkpt>
      <trkpt lat="48.98977" lon="2.07422">
        <ele>28</ele>
        <time>2023-10-26T14:59:05.474+00:00</time>
      </trkpt>
      <trkpt lat="48.98981" lon="2.07422">
        <ele>28</ele>
        <time>2023-10-26T14:59:09.487+00:00</time>
      </trkpt>
      <trkpt lat="48.98985" lon="2.07421">
        <ele>28</ele>
        <time>2023-10-26T14:59:14.474+00:00</time>
      </trkpt>
      <trkpt lat="48.98991" lon="2.0742">
        <ele>28</ele>
        <time>2023-10-26T14:59:19.475+00:00</time>
      </trkpt>
      <trkpt lat="48.98996" lon="2.07419">
        <ele>28</ele>
        <time>2023-10-26T14:59:24.470+00:00</time>
      </trkpt>
      <trkpt lat="48.99001" lon="2.07414">
        <ele>28</ele>
        <time>2023-10-26T14:59:29.479+00:00</time>
      </trkpt>
      <trkpt lat="48.99004" lon="2.07412">
        <ele>28</ele>
        <time>2023-10-26T14:59:34.479+00:00</time>
      </trkpt>
      <trkpt lat="48.99009" lon="2.07408">
        <ele>28</ele>
        <time>2023-10-26T14:59:39.481+00:00</time>
      </trkpt>
      <trkpt lat="48.99014" lon="2.07405">
        <ele>27</ele>
        <time>2023-10-26T14:59:44.478+00:00</time>
      </trkpt>
      <trkpt lat="48.99017" lon="2.07405">
        <ele>27</ele>
        <time>2023-10-26T14:59:48.472+00:00</time>
      </trkpt>
      <trkpt lat="48.9902" lon="2.07405">
        <ele>27</ele>
        <time>2023-10-26T14:59:53.465+00:00</time>
      </trkpt>
      <trkpt lat="48.99025" lon="2.07404">
        <ele>27</ele>
        <time>2023-10-26T14:59:58.471+00:00</time>
      </trkpt>
      <trkpt lat="48.9903" lon="2.07406">
        <ele>27</ele>
        <time>2023-10-26T15:00:03.474+00:00</time>
      </trkpt>
      <trkpt lat="48.99032" lon="2.07405">
        <ele>27</ele>
        <time>2023-10-26T15:00:08.467+00:00</time>
      </trkpt>
      <trkpt lat="48.99035" lon="2.07406">
        <ele>27</ele>
        <time>2023-10-26T15:00:13.474+00:00</time>
      </trkpt>
      <trkpt lat="48.99032" lon="2.07408">
        <ele>27</ele>
        <time>2023-10-26T15:03:01.473+00:00</time>
      </trkpt>
      <trkpt lat="48.99033" lon="2.07409">
        <ele>27</ele>
        <time>2023-10-26T15:03:06.465+00:00</time>
      </trkpt>
      <trkpt lat="48.99034" lon="2.07411">
        <ele>27</ele>
        <time>2023-10-26T15:03:11.472+00:00</time>
      </trkpt>
      <trkpt lat="48.99035" lon="2.07412">
        <ele>27</ele>
        <time>2023-10-26T15:03:16.472+00:00</time>
      </trkpt>
    </trkseg>
  </trk>
</gpx>